<?xml version="1.0" encoding="UTF-8" standalone="no" ?>
<gpx xmlns="http://www.topografix.com/GPX/1/1" xmlns:xsi="http://www.w3.org/2001/XMLSchema-instance" xsi:schemaLocation="http://www.topografix.com/GPX/1/1 http://www.topografix.com/GPX/1/1/gpx.xsd" version="1.1" creator="VisuGPX - https://www.visugpx.com">
  <metadata>
    <name>VTT Enduro / rocher des vierges</name>
    <desc><![CDATA[Sprtie typée enduro entre Le Rocher des Vierges et St Jean de la Blaquière. Départ au pied de la fin de la descente du Rocher, on file direction st Jean pour commencer par "les compressions et on enchaine sur les autres descentes classiques du coin. On ne s'en lasse pas ! c'est un peu technique et ludique à souhait.]]></desc>
  </metadata>
  <trk>
    <name><![CDATA[Rocher des vierges]]></name>
    <trkseg>
      <trkpt lat="43.70701" lon="3.4677">
        <ele>284.9</ele>
        <time>2017-12-24T07:53:58Z</time>
      </trkpt>
      <trkpt lat="43.70704" lon="3.4677">
        <ele>285.1</ele>
        <time>2017-12-24T07:54:22Z</time>
      </trkpt>
      <trkpt lat="43.70706" lon="3.46767">
        <ele>285.3</ele>
        <time>2017-12-24T07:56:16Z</time>
      </trkpt>
      <trkpt lat="43.70709" lon="3.46771">
        <ele>285.8</ele>
        <time>2017-12-24T07:56:27Z</time>
      </trkpt>
      <trkpt lat="43.7071" lon="3.46775">
        <ele>286.2</ele>
        <time>2017-12-24T07:56:31Z</time>
      </trkpt>
      <trkpt lat="43.70709" lon="3.46771">
        <ele>286</ele>
        <time>2017-12-24T07:56:48Z</time>
      </trkpt>
      <trkpt lat="43.70708" lon="3.46767">
        <ele>285.7</ele>
        <time>2017-12-24T07:56:51Z</time>
      </trkpt>
      <trkpt lat="43.70707" lon="3.46764">
        <ele>285.5</ele>
        <time>2017-12-24T07:57:04Z</time>
      </trkpt>
      <trkpt lat="43.70709" lon="3.46766">
        <ele>285.3</ele>
        <time>2017-12-24T07:57:15Z</time>
      </trkpt>
      <trkpt lat="43.70706" lon="3.46768">
        <ele>285.1</ele>
        <time>2017-12-24T08:00:01Z</time>
      </trkpt>
      <trkpt lat="43.70706" lon="3.46764">
        <ele>285</ele>
        <time>2017-12-24T08:01:18Z</time>
      </trkpt>
      <trkpt lat="43.70704" lon="3.46761">
        <ele>284.9</ele>
        <time>2017-12-24T08:01:52Z</time>
      </trkpt>
      <trkpt lat="43.70705" lon="3.46765">
        <ele>285.1</ele>
        <time>2017-12-24T08:02:00Z</time>
      </trkpt>
      <trkpt lat="43.70706" lon="3.46768">
        <ele>285.3</ele>
        <time>2017-12-24T08:02:12Z</time>
      </trkpt>
      <trkpt lat="43.70708" lon="3.46771">
        <ele>285.7</ele>
        <time>2017-12-24T08:02:19Z</time>
      </trkpt>
      <trkpt lat="43.70705" lon="3.46769">
        <ele>286.2</ele>
        <time>2017-12-24T08:02:41Z</time>
      </trkpt>
      <trkpt lat="43.70708" lon="3.46772">
        <ele>286.7</ele>
        <time>2017-12-24T08:02:57Z</time>
      </trkpt>
      <trkpt lat="43.70709" lon="3.46775">
        <ele>287.2</ele>
        <time>2017-12-24T08:03:03Z</time>
      </trkpt>
      <trkpt lat="43.70711" lon="3.46779">
        <ele>287.6</ele>
        <time>2017-12-24T08:03:10Z</time>
      </trkpt>
      <trkpt lat="43.70709" lon="3.46775">
        <ele>288.1</ele>
        <time>2017-12-24T08:03:56Z</time>
      </trkpt>
      <trkpt lat="43.70708" lon="3.46771">
        <ele>288.4</ele>
        <time>2017-12-24T08:04:03Z</time>
      </trkpt>
      <trkpt lat="43.70711" lon="3.46769">
        <ele>288.7</ele>
        <time>2017-12-24T08:04:09Z</time>
      </trkpt>
      <trkpt lat="43.70715" lon="3.46769">
        <ele>289</ele>
        <time>2017-12-24T08:04:11Z</time>
      </trkpt>
      <trkpt lat="43.70718" lon="3.46771">
        <ele>289.3</ele>
        <time>2017-12-24T08:04:13Z</time>
      </trkpt>
      <trkpt lat="43.70722" lon="3.46775">
        <ele>289.6</ele>
        <time>2017-12-24T08:04:15Z</time>
      </trkpt>
      <trkpt lat="43.70726" lon="3.46777">
        <ele>290</ele>
        <time>2017-12-24T08:04:17Z</time>
      </trkpt>
      <trkpt lat="43.7073" lon="3.46779">
        <ele>290.4</ele>
        <time>2017-12-24T08:04:19Z</time>
      </trkpt>
      <trkpt lat="43.70735" lon="3.46781">
        <ele>290.8</ele>
        <time>2017-12-24T08:04:21Z</time>
      </trkpt>
      <trkpt lat="43.70739" lon="3.46783">
        <ele>291</ele>
        <time>2017-12-24T08:04:23Z</time>
      </trkpt>
      <trkpt lat="43.70743" lon="3.46786">
        <ele>291.2</ele>
        <time>2017-12-24T08:04:25Z</time>
      </trkpt>
      <trkpt lat="43.70747" lon="3.46789">
        <ele>291.4</ele>
        <time>2017-12-24T08:04:27Z</time>
      </trkpt>
      <trkpt lat="43.70751" lon="3.46791">
        <ele>291.6</ele>
        <time>2017-12-24T08:04:29Z</time>
      </trkpt>
      <trkpt lat="43.70755" lon="3.46792">
        <ele>291.8</ele>
        <time>2017-12-24T08:04:31Z</time>
      </trkpt>
      <trkpt lat="43.70759" lon="3.46793">
        <ele>292.1</ele>
        <time>2017-12-24T08:04:32Z</time>
      </trkpt>
      <trkpt lat="43.70763" lon="3.46796">
        <ele>292.5</ele>
        <time>2017-12-24T08:04:34Z</time>
      </trkpt>
      <trkpt lat="43.70768" lon="3.46804">
        <ele>292.9</ele>
        <time>2017-12-24T08:04:36Z</time>
      </trkpt>
      <trkpt lat="43.70769" lon="3.46808">
        <ele>293</ele>
        <time>2017-12-24T08:04:37Z</time>
      </trkpt>
      <trkpt lat="43.70769" lon="3.46812">
        <ele>293</ele>
        <time>2017-12-24T08:04:38Z</time>
      </trkpt>
      <trkpt lat="43.70768" lon="3.46817">
        <ele>293</ele>
        <time>2017-12-24T08:04:39Z</time>
      </trkpt>
      <trkpt lat="43.70767" lon="3.46821">
        <ele>293</ele>
        <time>2017-12-24T08:04:40Z</time>
      </trkpt>
      <trkpt lat="43.70766" lon="3.46824">
        <ele>293.1</ele>
        <time>2017-12-24T08:04:41Z</time>
      </trkpt>
      <trkpt lat="43.70764" lon="3.46827">
        <ele>293.2</ele>
        <time>2017-12-24T08:04:42Z</time>
      </trkpt>
      <trkpt lat="43.70762" lon="3.4683">
        <ele>293.3</ele>
        <time>2017-12-24T08:04:43Z</time>
      </trkpt>
      <trkpt lat="43.70758" lon="3.46834">
        <ele>293.6</ele>
        <time>2017-12-24T08:04:45Z</time>
      </trkpt>
      <trkpt lat="43.70754" lon="3.46837">
        <ele>293.8</ele>
        <time>2017-12-24T08:04:47Z</time>
      </trkpt>
      <trkpt lat="43.7075" lon="3.46841">
        <ele>294</ele>
        <time>2017-12-24T08:04:49Z</time>
      </trkpt>
      <trkpt lat="43.70746" lon="3.46843">
        <ele>294.2</ele>
        <time>2017-12-24T08:04:51Z</time>
      </trkpt>
      <trkpt lat="43.70742" lon="3.46847">
        <ele>294.3</ele>
        <time>2017-12-24T08:04:53Z</time>
      </trkpt>
      <trkpt lat="43.70739" lon="3.46851">
        <ele>294.5</ele>
        <time>2017-12-24T08:04:55Z</time>
      </trkpt>
      <trkpt lat="43.70735" lon="3.46854">
        <ele>294.8</ele>
        <time>2017-12-24T08:04:57Z</time>
      </trkpt>
      <trkpt lat="43.70731" lon="3.46858">
        <ele>295.4</ele>
        <time>2017-12-24T08:04:59Z</time>
      </trkpt>
      <trkpt lat="43.70728" lon="3.46863">
        <ele>295.9</ele>
        <time>2017-12-24T08:05:01Z</time>
      </trkpt>
      <trkpt lat="43.70726" lon="3.46868">
        <ele>296.4</ele>
        <time>2017-12-24T08:05:03Z</time>
      </trkpt>
      <trkpt lat="43.70723" lon="3.46873">
        <ele>296.8</ele>
        <time>2017-12-24T08:05:05Z</time>
      </trkpt>
      <trkpt lat="43.70721" lon="3.46878">
        <ele>297</ele>
        <time>2017-12-24T08:05:07Z</time>
      </trkpt>
      <trkpt lat="43.70719" lon="3.46883">
        <ele>297</ele>
        <time>2017-12-24T08:05:09Z</time>
      </trkpt>
      <trkpt lat="43.70717" lon="3.46887">
        <ele>297.2</ele>
        <time>2017-12-24T08:05:11Z</time>
      </trkpt>
      <trkpt lat="43.70714" lon="3.46893">
        <ele>297.3</ele>
        <time>2017-12-24T08:05:13Z</time>
      </trkpt>
      <trkpt lat="43.70712" lon="3.46898">
        <ele>297.6</ele>
        <time>2017-12-24T08:05:15Z</time>
      </trkpt>
      <trkpt lat="43.7071" lon="3.46902">
        <ele>297.8</ele>
        <time>2017-12-24T08:05:17Z</time>
      </trkpt>
      <trkpt lat="43.70708" lon="3.46908">
        <ele>298.2</ele>
        <time>2017-12-24T08:05:19Z</time>
      </trkpt>
      <trkpt lat="43.70706" lon="3.46913">
        <ele>298.6</ele>
        <time>2017-12-24T08:05:21Z</time>
      </trkpt>
      <trkpt lat="43.70705" lon="3.46918">
        <ele>299.1</ele>
        <time>2017-12-24T08:05:23Z</time>
      </trkpt>
      <trkpt lat="43.70703" lon="3.46924">
        <ele>299.5</ele>
        <time>2017-12-24T08:05:25Z</time>
      </trkpt>
      <trkpt lat="43.70701" lon="3.46929">
        <ele>300</ele>
        <time>2017-12-24T08:05:27Z</time>
      </trkpt>
      <trkpt lat="43.70699" lon="3.46934">
        <ele>300.4</ele>
        <time>2017-12-24T08:05:29Z</time>
      </trkpt>
      <trkpt lat="43.70698" lon="3.4694">
        <ele>301</ele>
        <time>2017-12-24T08:05:31Z</time>
      </trkpt>
      <trkpt lat="43.70696" lon="3.46946">
        <ele>301.8</ele>
        <time>2017-12-24T08:05:33Z</time>
      </trkpt>
      <trkpt lat="43.70695" lon="3.46952">
        <ele>302.6</ele>
        <time>2017-12-24T08:05:35Z</time>
      </trkpt>
      <trkpt lat="43.70693" lon="3.46957">
        <ele>303.4</ele>
        <time>2017-12-24T08:05:37Z</time>
      </trkpt>
      <trkpt lat="43.70692" lon="3.46963">
        <ele>304</ele>
        <time>2017-12-24T08:05:39Z</time>
      </trkpt>
      <trkpt lat="43.70692" lon="3.46968">
        <ele>304.4</ele>
        <time>2017-12-24T08:05:41Z</time>
      </trkpt>
      <trkpt lat="43.70692" lon="3.46974">
        <ele>304.7</ele>
        <time>2017-12-24T08:05:43Z</time>
      </trkpt>
      <trkpt lat="43.70692" lon="3.4698">
        <ele>305</ele>
        <time>2017-12-24T08:05:45Z</time>
      </trkpt>
      <trkpt lat="43.70692" lon="3.46985">
        <ele>305.3</ele>
        <time>2017-12-24T08:05:47Z</time>
      </trkpt>
      <trkpt lat="43.70691" lon="3.46991">
        <ele>305.6</ele>
        <time>2017-12-24T08:05:49Z</time>
      </trkpt>
      <trkpt lat="43.70692" lon="3.46996">
        <ele>305.9</ele>
        <time>2017-12-24T08:05:51Z</time>
      </trkpt>
      <trkpt lat="43.70693" lon="3.47002">
        <ele>306.1</ele>
        <time>2017-12-24T08:05:53Z</time>
      </trkpt>
      <trkpt lat="43.70693" lon="3.47007">
        <ele>306.2</ele>
        <time>2017-12-24T08:05:55Z</time>
      </trkpt>
      <trkpt lat="43.70694" lon="3.47013">
        <ele>306.3</ele>
        <time>2017-12-24T08:05:57Z</time>
      </trkpt>
      <trkpt lat="43.70696" lon="3.47019">
        <ele>306.4</ele>
        <time>2017-12-24T08:05:59Z</time>
      </trkpt>
      <trkpt lat="43.70697" lon="3.47024">
        <ele>306.5</ele>
        <time>2017-12-24T08:06:01Z</time>
      </trkpt>
      <trkpt lat="43.70698" lon="3.47029">
        <ele>306.7</ele>
        <time>2017-12-24T08:06:03Z</time>
      </trkpt>
      <trkpt lat="43.707" lon="3.47035">
        <ele>306.9</ele>
        <time>2017-12-24T08:06:05Z</time>
      </trkpt>
      <trkpt lat="43.70702" lon="3.4704">
        <ele>307.2</ele>
        <time>2017-12-24T08:06:07Z</time>
      </trkpt>
      <trkpt lat="43.70703" lon="3.47045">
        <ele>307.4</ele>
        <time>2017-12-24T08:06:09Z</time>
      </trkpt>
      <trkpt lat="43.70705" lon="3.4705">
        <ele>307.7</ele>
        <time>2017-12-24T08:06:11Z</time>
      </trkpt>
      <trkpt lat="43.70707" lon="3.47056">
        <ele>308</ele>
        <time>2017-12-24T08:06:13Z</time>
      </trkpt>
      <trkpt lat="43.70709" lon="3.47061">
        <ele>308.4</ele>
        <time>2017-12-24T08:06:15Z</time>
      </trkpt>
      <trkpt lat="43.70711" lon="3.47066">
        <ele>308.9</ele>
        <time>2017-12-24T08:06:17Z</time>
      </trkpt>
      <trkpt lat="43.70714" lon="3.47071">
        <ele>309.5</ele>
        <time>2017-12-24T08:06:19Z</time>
      </trkpt>
      <trkpt lat="43.70716" lon="3.47075">
        <ele>310</ele>
        <time>2017-12-24T08:06:21Z</time>
      </trkpt>
      <trkpt lat="43.7072" lon="3.47078">
        <ele>310.5</ele>
        <time>2017-12-24T08:06:23Z</time>
      </trkpt>
      <trkpt lat="43.70723" lon="3.47081">
        <ele>310.9</ele>
        <time>2017-12-24T08:06:25Z</time>
      </trkpt>
      <trkpt lat="43.70726" lon="3.47084">
        <ele>311.3</ele>
        <time>2017-12-24T08:06:27Z</time>
      </trkpt>
      <trkpt lat="43.7073" lon="3.47087">
        <ele>311.7</ele>
        <time>2017-12-24T08:06:29Z</time>
      </trkpt>
      <trkpt lat="43.70734" lon="3.47091">
        <ele>312.1</ele>
        <time>2017-12-24T08:06:31Z</time>
      </trkpt>
      <trkpt lat="43.70737" lon="3.47094">
        <ele>312.6</ele>
        <time>2017-12-24T08:06:33Z</time>
      </trkpt>
      <trkpt lat="43.7074" lon="3.47096">
        <ele>312.9</ele>
        <time>2017-12-24T08:06:34Z</time>
      </trkpt>
      <trkpt lat="43.70744" lon="3.471">
        <ele>313.3</ele>
        <time>2017-12-24T08:06:36Z</time>
      </trkpt>
      <trkpt lat="43.70747" lon="3.47103">
        <ele>313.7</ele>
        <time>2017-12-24T08:06:38Z</time>
      </trkpt>
      <trkpt lat="43.7075" lon="3.47105">
        <ele>314</ele>
        <time>2017-12-24T08:06:40Z</time>
      </trkpt>
      <trkpt lat="43.70753" lon="3.47107">
        <ele>314.3</ele>
        <time>2017-12-24T08:06:42Z</time>
      </trkpt>
      <trkpt lat="43.70756" lon="3.47108">
        <ele>314.6</ele>
        <time>2017-12-24T08:06:44Z</time>
      </trkpt>
      <trkpt lat="43.70759" lon="3.47109">
        <ele>314.9</ele>
        <time>2017-12-24T08:06:46Z</time>
      </trkpt>
      <trkpt lat="43.70762" lon="3.47111">
        <ele>315.1</ele>
        <time>2017-12-24T08:06:48Z</time>
      </trkpt>
      <trkpt lat="43.70766" lon="3.47112">
        <ele>315.4</ele>
        <time>2017-12-24T08:06:50Z</time>
      </trkpt>
      <trkpt lat="43.7077" lon="3.47113">
        <ele>315.6</ele>
        <time>2017-12-24T08:06:52Z</time>
      </trkpt>
      <trkpt lat="43.70774" lon="3.47113">
        <ele>315.8</ele>
        <time>2017-12-24T08:06:54Z</time>
      </trkpt>
      <trkpt lat="43.70778" lon="3.47114">
        <ele>316.2</ele>
        <time>2017-12-24T08:06:56Z</time>
      </trkpt>
      <trkpt lat="43.70782" lon="3.47115">
        <ele>316.6</ele>
        <time>2017-12-24T08:06:58Z</time>
      </trkpt>
      <trkpt lat="43.70786" lon="3.47116">
        <ele>317</ele>
        <time>2017-12-24T08:07:00Z</time>
      </trkpt>
      <trkpt lat="43.7079" lon="3.47116">
        <ele>317.5</ele>
        <time>2017-12-24T08:07:02Z</time>
      </trkpt>
      <trkpt lat="43.70794" lon="3.47116">
        <ele>318</ele>
        <time>2017-12-24T08:07:04Z</time>
      </trkpt>
      <trkpt lat="43.70798" lon="3.47117">
        <ele>318.5</ele>
        <time>2017-12-24T08:07:06Z</time>
      </trkpt>
      <trkpt lat="43.70801" lon="3.47118">
        <ele>318.8</ele>
        <time>2017-12-24T08:07:08Z</time>
      </trkpt>
      <trkpt lat="43.70806" lon="3.47118">
        <ele>319.2</ele>
        <time>2017-12-24T08:07:10Z</time>
      </trkpt>
      <trkpt lat="43.7081" lon="3.47118">
        <ele>319.5</ele>
        <time>2017-12-24T08:07:12Z</time>
      </trkpt>
      <trkpt lat="43.70814" lon="3.47118">
        <ele>319.7</ele>
        <time>2017-12-24T08:07:14Z</time>
      </trkpt>
      <trkpt lat="43.70818" lon="3.47118">
        <ele>320</ele>
        <time>2017-12-24T08:07:16Z</time>
      </trkpt>
      <trkpt lat="43.70822" lon="3.47118">
        <ele>320.5</ele>
        <time>2017-12-24T08:07:18Z</time>
      </trkpt>
      <trkpt lat="43.70826" lon="3.47118">
        <ele>320.8</ele>
        <time>2017-12-24T08:07:20Z</time>
      </trkpt>
      <trkpt lat="43.70829" lon="3.47119">
        <ele>321.1</ele>
        <time>2017-12-24T08:07:22Z</time>
      </trkpt>
      <trkpt lat="43.70833" lon="3.4712">
        <ele>321.4</ele>
        <time>2017-12-24T08:07:24Z</time>
      </trkpt>
      <trkpt lat="43.70836" lon="3.47119">
        <ele>321.8</ele>
        <time>2017-12-24T08:07:26Z</time>
      </trkpt>
      <trkpt lat="43.7084" lon="3.47119">
        <ele>322.1</ele>
        <time>2017-12-24T08:07:28Z</time>
      </trkpt>
      <trkpt lat="43.70844" lon="3.4712">
        <ele>322.5</ele>
        <time>2017-12-24T08:07:30Z</time>
      </trkpt>
      <trkpt lat="43.70849" lon="3.4712">
        <ele>322.8</ele>
        <time>2017-12-24T08:07:32Z</time>
      </trkpt>
      <trkpt lat="43.70853" lon="3.47119">
        <ele>323.2</ele>
        <time>2017-12-24T08:07:34Z</time>
      </trkpt>
      <trkpt lat="43.70857" lon="3.47119">
        <ele>323.5</ele>
        <time>2017-12-24T08:07:36Z</time>
      </trkpt>
      <trkpt lat="43.70861" lon="3.47119">
        <ele>323.8</ele>
        <time>2017-12-24T08:07:38Z</time>
      </trkpt>
      <trkpt lat="43.70865" lon="3.47117">
        <ele>324.1</ele>
        <time>2017-12-24T08:07:40Z</time>
      </trkpt>
      <trkpt lat="43.70869" lon="3.47116">
        <ele>324.3</ele>
        <time>2017-12-24T08:07:42Z</time>
      </trkpt>
      <trkpt lat="43.70874" lon="3.47115">
        <ele>324.5</ele>
        <time>2017-12-24T08:07:44Z</time>
      </trkpt>
      <trkpt lat="43.70878" lon="3.47114">
        <ele>324.7</ele>
        <time>2017-12-24T08:07:46Z</time>
      </trkpt>
      <trkpt lat="43.70882" lon="3.47113">
        <ele>324.7</ele>
        <time>2017-12-24T08:07:48Z</time>
      </trkpt>
      <trkpt lat="43.70885" lon="3.47112">
        <ele>324.8</ele>
        <time>2017-12-24T08:07:50Z</time>
      </trkpt>
      <trkpt lat="43.7089" lon="3.47111">
        <ele>324.9</ele>
        <time>2017-12-24T08:07:52Z</time>
      </trkpt>
      <trkpt lat="43.70894" lon="3.4711">
        <ele>325</ele>
        <time>2017-12-24T08:07:54Z</time>
      </trkpt>
      <trkpt lat="43.70898" lon="3.47109">
        <ele>325.3</ele>
        <time>2017-12-24T08:07:56Z</time>
      </trkpt>
      <trkpt lat="43.70903" lon="3.47107">
        <ele>325.9</ele>
        <time>2017-12-24T08:07:58Z</time>
      </trkpt>
      <trkpt lat="43.70907" lon="3.47106">
        <ele>326.5</ele>
        <time>2017-12-24T08:08:00Z</time>
      </trkpt>
      <trkpt lat="43.70911" lon="3.47104">
        <ele>327</ele>
        <time>2017-12-24T08:08:02Z</time>
      </trkpt>
      <trkpt lat="43.70915" lon="3.47103">
        <ele>327.4</ele>
        <time>2017-12-24T08:08:04Z</time>
      </trkpt>
      <trkpt lat="43.70919" lon="3.47101">
        <ele>327.6</ele>
        <time>2017-12-24T08:08:06Z</time>
      </trkpt>
      <trkpt lat="43.70923" lon="3.47099">
        <ele>327.8</ele>
        <time>2017-12-24T08:08:08Z</time>
      </trkpt>
      <trkpt lat="43.70926" lon="3.47096">
        <ele>328</ele>
        <time>2017-12-24T08:08:10Z</time>
      </trkpt>
      <trkpt lat="43.7093" lon="3.47094">
        <ele>328.3</ele>
        <time>2017-12-24T08:08:12Z</time>
      </trkpt>
      <trkpt lat="43.70934" lon="3.47092">
        <ele>328.7</ele>
        <time>2017-12-24T08:08:14Z</time>
      </trkpt>
      <trkpt lat="43.70937" lon="3.47089">
        <ele>329</ele>
        <time>2017-12-24T08:08:16Z</time>
      </trkpt>
      <trkpt lat="43.70941" lon="3.47086">
        <ele>329.3</ele>
        <time>2017-12-24T08:08:18Z</time>
      </trkpt>
      <trkpt lat="43.70945" lon="3.47083">
        <ele>329.7</ele>
        <time>2017-12-24T08:08:20Z</time>
      </trkpt>
      <trkpt lat="43.70949" lon="3.47079">
        <ele>330.3</ele>
        <time>2017-12-24T08:08:22Z</time>
      </trkpt>
      <trkpt lat="43.70952" lon="3.47076">
        <ele>330.9</ele>
        <time>2017-12-24T08:08:24Z</time>
      </trkpt>
      <trkpt lat="43.70955" lon="3.47072">
        <ele>331.6</ele>
        <time>2017-12-24T08:08:26Z</time>
      </trkpt>
      <trkpt lat="43.70959" lon="3.47069">
        <ele>332</ele>
        <time>2017-12-24T08:08:28Z</time>
      </trkpt>
      <trkpt lat="43.70962" lon="3.47066">
        <ele>332.1</ele>
        <time>2017-12-24T08:08:30Z</time>
      </trkpt>
      <trkpt lat="43.70965" lon="3.47064">
        <ele>332.2</ele>
        <time>2017-12-24T08:08:32Z</time>
      </trkpt>
      <trkpt lat="43.70968" lon="3.47062">
        <ele>332.3</ele>
        <time>2017-12-24T08:08:34Z</time>
      </trkpt>
      <trkpt lat="43.70971" lon="3.47059">
        <ele>332.5</ele>
        <time>2017-12-24T08:08:36Z</time>
      </trkpt>
      <trkpt lat="43.70974" lon="3.47056">
        <ele>332.8</ele>
        <time>2017-12-24T08:08:38Z</time>
      </trkpt>
      <trkpt lat="43.70978" lon="3.47053">
        <ele>333.2</ele>
        <time>2017-12-24T08:08:40Z</time>
      </trkpt>
      <trkpt lat="43.70981" lon="3.47049">
        <ele>333.7</ele>
        <time>2017-12-24T08:08:42Z</time>
      </trkpt>
      <trkpt lat="43.70984" lon="3.47045">
        <ele>334.1</ele>
        <time>2017-12-24T08:08:44Z</time>
      </trkpt>
      <trkpt lat="43.70987" lon="3.47042">
        <ele>334.4</ele>
        <time>2017-12-24T08:08:46Z</time>
      </trkpt>
      <trkpt lat="43.7099" lon="3.47039">
        <ele>334.6</ele>
        <time>2017-12-24T08:08:48Z</time>
      </trkpt>
      <trkpt lat="43.70993" lon="3.47035">
        <ele>334.8</ele>
        <time>2017-12-24T08:08:50Z</time>
      </trkpt>
      <trkpt lat="43.70996" lon="3.47031">
        <ele>335</ele>
        <time>2017-12-24T08:08:52Z</time>
      </trkpt>
      <trkpt lat="43.70998" lon="3.47028">
        <ele>335.3</ele>
        <time>2017-12-24T08:08:54Z</time>
      </trkpt>
      <trkpt lat="43.71001" lon="3.47025">
        <ele>335.5</ele>
        <time>2017-12-24T08:08:56Z</time>
      </trkpt>
      <trkpt lat="43.71004" lon="3.47021">
        <ele>335.8</ele>
        <time>2017-12-24T08:08:58Z</time>
      </trkpt>
      <trkpt lat="43.71007" lon="3.47017">
        <ele>336.1</ele>
        <time>2017-12-24T08:09:00Z</time>
      </trkpt>
      <trkpt lat="43.7101" lon="3.47014">
        <ele>336.3</ele>
        <time>2017-12-24T08:09:02Z</time>
      </trkpt>
      <trkpt lat="43.71012" lon="3.47011">
        <ele>336.6</ele>
        <time>2017-12-24T08:09:04Z</time>
      </trkpt>
      <trkpt lat="43.71015" lon="3.47007">
        <ele>336.9</ele>
        <time>2017-12-24T08:09:06Z</time>
      </trkpt>
      <trkpt lat="43.71018" lon="3.47004">
        <ele>337.2</ele>
        <time>2017-12-24T08:09:08Z</time>
      </trkpt>
      <trkpt lat="43.71021" lon="3.47">
        <ele>337.6</ele>
        <time>2017-12-24T08:09:10Z</time>
      </trkpt>
      <trkpt lat="43.71024" lon="3.46996">
        <ele>337.9</ele>
        <time>2017-12-24T08:09:12Z</time>
      </trkpt>
      <trkpt lat="43.71027" lon="3.46992">
        <ele>338</ele>
        <time>2017-12-24T08:09:14Z</time>
      </trkpt>
      <trkpt lat="43.7103" lon="3.46988">
        <ele>338.1</ele>
        <time>2017-12-24T08:09:16Z</time>
      </trkpt>
      <trkpt lat="43.71033" lon="3.46986">
        <ele>338.2</ele>
        <time>2017-12-24T08:09:18Z</time>
      </trkpt>
      <trkpt lat="43.71036" lon="3.46983">
        <ele>338.4</ele>
        <time>2017-12-24T08:09:20Z</time>
      </trkpt>
      <trkpt lat="43.7104" lon="3.4698">
        <ele>338.8</ele>
        <time>2017-12-24T08:09:22Z</time>
      </trkpt>
      <trkpt lat="43.71044" lon="3.46977">
        <ele>339.1</ele>
        <time>2017-12-24T08:09:24Z</time>
      </trkpt>
      <trkpt lat="43.71048" lon="3.46975">
        <ele>339.5</ele>
        <time>2017-12-24T08:09:26Z</time>
      </trkpt>
      <trkpt lat="43.71051" lon="3.46972">
        <ele>339.8</ele>
        <time>2017-12-24T08:09:28Z</time>
      </trkpt>
      <trkpt lat="43.71056" lon="3.4697">
        <ele>340</ele>
        <time>2017-12-24T08:09:30Z</time>
      </trkpt>
      <trkpt lat="43.71061" lon="3.46967">
        <ele>340.2</ele>
        <time>2017-12-24T08:09:32Z</time>
      </trkpt>
      <trkpt lat="43.71064" lon="3.46965">
        <ele>340.4</ele>
        <time>2017-12-24T08:09:34Z</time>
      </trkpt>
      <trkpt lat="43.71068" lon="3.46963">
        <ele>340.7</ele>
        <time>2017-12-24T08:09:36Z</time>
      </trkpt>
      <trkpt lat="43.71072" lon="3.46961">
        <ele>341.1</ele>
        <time>2017-12-24T08:09:38Z</time>
      </trkpt>
      <trkpt lat="43.71076" lon="3.46959">
        <ele>341.7</ele>
        <time>2017-12-24T08:09:40Z</time>
      </trkpt>
      <trkpt lat="43.71081" lon="3.46957">
        <ele>342.3</ele>
        <time>2017-12-24T08:09:42Z</time>
      </trkpt>
      <trkpt lat="43.71085" lon="3.46955">
        <ele>342.8</ele>
        <time>2017-12-24T08:09:44Z</time>
      </trkpt>
      <trkpt lat="43.71089" lon="3.46954">
        <ele>343.2</ele>
        <time>2017-12-24T08:09:46Z</time>
      </trkpt>
      <trkpt lat="43.71093" lon="3.46953">
        <ele>343.5</ele>
        <time>2017-12-24T08:09:48Z</time>
      </trkpt>
      <trkpt lat="43.71097" lon="3.46951">
        <ele>343.9</ele>
        <time>2017-12-24T08:09:50Z</time>
      </trkpt>
      <trkpt lat="43.71102" lon="3.4695">
        <ele>344.4</ele>
        <time>2017-12-24T08:09:52Z</time>
      </trkpt>
      <trkpt lat="43.71106" lon="3.46949">
        <ele>345</ele>
        <time>2017-12-24T08:09:54Z</time>
      </trkpt>
      <trkpt lat="43.71111" lon="3.46948">
        <ele>345.6</ele>
        <time>2017-12-24T08:09:56Z</time>
      </trkpt>
      <trkpt lat="43.71114" lon="3.46947">
        <ele>346.1</ele>
        <time>2017-12-24T08:09:58Z</time>
      </trkpt>
      <trkpt lat="43.71119" lon="3.46946">
        <ele>346.5</ele>
        <time>2017-12-24T08:10:00Z</time>
      </trkpt>
      <trkpt lat="43.71122" lon="3.46945">
        <ele>346.9</ele>
        <time>2017-12-24T08:10:02Z</time>
      </trkpt>
      <trkpt lat="43.71127" lon="3.46945">
        <ele>347.1</ele>
        <time>2017-12-24T08:10:04Z</time>
      </trkpt>
      <trkpt lat="43.71131" lon="3.46944">
        <ele>347.2</ele>
        <time>2017-12-24T08:10:06Z</time>
      </trkpt>
      <trkpt lat="43.71135" lon="3.46943">
        <ele>347.4</ele>
        <time>2017-12-24T08:10:08Z</time>
      </trkpt>
      <trkpt lat="43.71139" lon="3.46942">
        <ele>347.6</ele>
        <time>2017-12-24T08:10:10Z</time>
      </trkpt>
      <trkpt lat="43.71144" lon="3.4694">
        <ele>347.8</ele>
        <time>2017-12-24T08:10:12Z</time>
      </trkpt>
      <trkpt lat="43.71148" lon="3.46938">
        <ele>348</ele>
        <time>2017-12-24T08:10:14Z</time>
      </trkpt>
      <trkpt lat="43.71152" lon="3.46936">
        <ele>348.1</ele>
        <time>2017-12-24T08:10:16Z</time>
      </trkpt>
      <trkpt lat="43.71156" lon="3.46933">
        <ele>348.2</ele>
        <time>2017-12-24T08:10:18Z</time>
      </trkpt>
      <trkpt lat="43.71161" lon="3.46931">
        <ele>348.4</ele>
        <time>2017-12-24T08:10:20Z</time>
      </trkpt>
      <trkpt lat="43.71166" lon="3.4693">
        <ele>348.7</ele>
        <time>2017-12-24T08:10:22Z</time>
      </trkpt>
      <trkpt lat="43.71171" lon="3.46929">
        <ele>349.2</ele>
        <time>2017-12-24T08:10:24Z</time>
      </trkpt>
      <trkpt lat="43.71175" lon="3.46927">
        <ele>349.6</ele>
        <time>2017-12-24T08:10:26Z</time>
      </trkpt>
      <trkpt lat="43.71179" lon="3.46926">
        <ele>349.9</ele>
        <time>2017-12-24T08:10:28Z</time>
      </trkpt>
      <trkpt lat="43.71183" lon="3.46925">
        <ele>350.1</ele>
        <time>2017-12-24T08:10:30Z</time>
      </trkpt>
      <trkpt lat="43.71186" lon="3.46924">
        <ele>350.1</ele>
        <time>2017-12-24T08:10:32Z</time>
      </trkpt>
      <trkpt lat="43.71188" lon="3.46923">
        <ele>350.2</ele>
        <time>2017-12-24T08:10:33Z</time>
      </trkpt>
      <trkpt lat="43.71191" lon="3.46923">
        <ele>350.2</ele>
        <time>2017-12-24T08:10:35Z</time>
      </trkpt>
      <trkpt lat="43.71195" lon="3.46922">
        <ele>350.2</ele>
        <time>2017-12-24T08:10:37Z</time>
      </trkpt>
      <trkpt lat="43.71199" lon="3.46921">
        <ele>350.2</ele>
        <time>2017-12-24T08:10:39Z</time>
      </trkpt>
      <trkpt lat="43.71204" lon="3.46922">
        <ele>350.3</ele>
        <time>2017-12-24T08:10:41Z</time>
      </trkpt>
      <trkpt lat="43.71208" lon="3.46922">
        <ele>350.5</ele>
        <time>2017-12-24T08:10:43Z</time>
      </trkpt>
      <trkpt lat="43.71213" lon="3.46924">
        <ele>350.6</ele>
        <time>2017-12-24T08:10:45Z</time>
      </trkpt>
      <trkpt lat="43.71218" lon="3.46926">
        <ele>350.9</ele>
        <time>2017-12-24T08:10:47Z</time>
      </trkpt>
      <trkpt lat="43.71222" lon="3.4693">
        <ele>351.1</ele>
        <time>2017-12-24T08:10:49Z</time>
      </trkpt>
      <trkpt lat="43.71226" lon="3.46935">
        <ele>351.2</ele>
        <time>2017-12-24T08:10:51Z</time>
      </trkpt>
      <trkpt lat="43.71229" lon="3.46938">
        <ele>351.2</ele>
        <time>2017-12-24T08:10:52Z</time>
      </trkpt>
      <trkpt lat="43.71232" lon="3.46943">
        <ele>351.2</ele>
        <time>2017-12-24T08:10:54Z</time>
      </trkpt>
      <trkpt lat="43.71234" lon="3.46949">
        <ele>351.3</ele>
        <time>2017-12-24T08:10:56Z</time>
      </trkpt>
      <trkpt lat="43.71236" lon="3.46955">
        <ele>351.4</ele>
        <time>2017-12-24T08:10:58Z</time>
      </trkpt>
      <trkpt lat="43.71237" lon="3.46958">
        <ele>351.4</ele>
        <time>2017-12-24T08:10:59Z</time>
      </trkpt>
      <trkpt lat="43.71239" lon="3.46965">
        <ele>351.5</ele>
        <time>2017-12-24T08:11:01Z</time>
      </trkpt>
      <trkpt lat="43.7124" lon="3.46971">
        <ele>351.6</ele>
        <time>2017-12-24T08:11:03Z</time>
      </trkpt>
      <trkpt lat="43.71243" lon="3.46977">
        <ele>351.8</ele>
        <time>2017-12-24T08:11:05Z</time>
      </trkpt>
      <trkpt lat="43.71245" lon="3.46981">
        <ele>351.9</ele>
        <time>2017-12-24T08:11:07Z</time>
      </trkpt>
      <trkpt lat="43.71249" lon="3.46984">
        <ele>352.2</ele>
        <time>2017-12-24T08:11:09Z</time>
      </trkpt>
      <trkpt lat="43.71253" lon="3.46985">
        <ele>353</ele>
        <time>2017-12-24T08:11:11Z</time>
      </trkpt>
      <trkpt lat="43.71257" lon="3.46984">
        <ele>353.1</ele>
        <time>2017-12-24T08:11:13Z</time>
      </trkpt>
      <trkpt lat="43.7126" lon="3.4698">
        <ele>353.1</ele>
        <time>2017-12-24T08:11:15Z</time>
      </trkpt>
      <trkpt lat="43.71262" lon="3.46974">
        <ele>353.2</ele>
        <time>2017-12-24T08:11:17Z</time>
      </trkpt>
      <trkpt lat="43.71264" lon="3.46969">
        <ele>353.5</ele>
        <time>2017-12-24T08:11:19Z</time>
      </trkpt>
      <trkpt lat="43.71266" lon="3.46964">
        <ele>353.7</ele>
        <time>2017-12-24T08:11:21Z</time>
      </trkpt>
      <trkpt lat="43.71267" lon="3.46958">
        <ele>353.9</ele>
        <time>2017-12-24T08:11:23Z</time>
      </trkpt>
      <trkpt lat="43.71269" lon="3.46952">
        <ele>354.1</ele>
        <time>2017-12-24T08:11:25Z</time>
      </trkpt>
      <trkpt lat="43.71271" lon="3.46945">
        <ele>354.2</ele>
        <time>2017-12-24T08:11:27Z</time>
      </trkpt>
      <trkpt lat="43.71272" lon="3.46938">
        <ele>354.3</ele>
        <time>2017-12-24T08:11:29Z</time>
      </trkpt>
      <trkpt lat="43.71273" lon="3.46933">
        <ele>354.4</ele>
        <time>2017-12-24T08:11:31Z</time>
      </trkpt>
      <trkpt lat="43.71275" lon="3.46927">
        <ele>354.7</ele>
        <time>2017-12-24T08:11:33Z</time>
      </trkpt>
      <trkpt lat="43.71277" lon="3.46921">
        <ele>355</ele>
        <time>2017-12-24T08:11:35Z</time>
      </trkpt>
      <trkpt lat="43.71279" lon="3.46915">
        <ele>355.1</ele>
        <time>2017-12-24T08:11:37Z</time>
      </trkpt>
      <trkpt lat="43.71281" lon="3.46909">
        <ele>355.2</ele>
        <time>2017-12-24T08:11:39Z</time>
      </trkpt>
      <trkpt lat="43.71284" lon="3.46903">
        <ele>355.3</ele>
        <time>2017-12-24T08:11:41Z</time>
      </trkpt>
      <trkpt lat="43.71286" lon="3.46898">
        <ele>355.3</ele>
        <time>2017-12-24T08:11:43Z</time>
      </trkpt>
      <trkpt lat="43.7129" lon="3.46894">
        <ele>355.4</ele>
        <time>2017-12-24T08:11:45Z</time>
      </trkpt>
      <trkpt lat="43.71293" lon="3.46888">
        <ele>355.5</ele>
        <time>2017-12-24T08:11:47Z</time>
      </trkpt>
      <trkpt lat="43.71295" lon="3.46884">
        <ele>355.6</ele>
        <time>2017-12-24T08:11:49Z</time>
      </trkpt>
      <trkpt lat="43.71298" lon="3.46878">
        <ele>355.8</ele>
        <time>2017-12-24T08:11:51Z</time>
      </trkpt>
      <trkpt lat="43.71302" lon="3.46874">
        <ele>356.1</ele>
        <time>2017-12-24T08:11:53Z</time>
      </trkpt>
      <trkpt lat="43.71305" lon="3.46869">
        <ele>356.3</ele>
        <time>2017-12-24T08:11:55Z</time>
      </trkpt>
      <trkpt lat="43.71307" lon="3.46864">
        <ele>356.4</ele>
        <time>2017-12-24T08:11:57Z</time>
      </trkpt>
      <trkpt lat="43.7131" lon="3.46858">
        <ele>356.6</ele>
        <time>2017-12-24T08:11:59Z</time>
      </trkpt>
      <trkpt lat="43.71311" lon="3.46852">
        <ele>356.7</ele>
        <time>2017-12-24T08:12:01Z</time>
      </trkpt>
      <trkpt lat="43.71312" lon="3.46845">
        <ele>356.8</ele>
        <time>2017-12-24T08:12:03Z</time>
      </trkpt>
      <trkpt lat="43.71313" lon="3.46838">
        <ele>357.1</ele>
        <time>2017-12-24T08:12:05Z</time>
      </trkpt>
      <trkpt lat="43.71313" lon="3.46832">
        <ele>357.4</ele>
        <time>2017-12-24T08:12:07Z</time>
      </trkpt>
      <trkpt lat="43.71313" lon="3.46825">
        <ele>357.5</ele>
        <time>2017-12-24T08:12:09Z</time>
      </trkpt>
      <trkpt lat="43.71313" lon="3.46819">
        <ele>357.7</ele>
        <time>2017-12-24T08:12:11Z</time>
      </trkpt>
      <trkpt lat="43.71313" lon="3.46812">
        <ele>357.8</ele>
        <time>2017-12-24T08:12:13Z</time>
      </trkpt>
      <trkpt lat="43.71312" lon="3.46806">
        <ele>357.9</ele>
        <time>2017-12-24T08:12:15Z</time>
      </trkpt>
      <trkpt lat="43.71311" lon="3.468">
        <ele>358.2</ele>
        <time>2017-12-24T08:12:17Z</time>
      </trkpt>
      <trkpt lat="43.71311" lon="3.46794">
        <ele>358.5</ele>
        <time>2017-12-24T08:12:19Z</time>
      </trkpt>
      <trkpt lat="43.7131" lon="3.46788">
        <ele>358.6</ele>
        <time>2017-12-24T08:12:21Z</time>
      </trkpt>
      <trkpt lat="43.71309" lon="3.46782">
        <ele>358.7</ele>
        <time>2017-12-24T08:12:23Z</time>
      </trkpt>
      <trkpt lat="43.71308" lon="3.46776">
        <ele>358.7</ele>
        <time>2017-12-24T08:12:25Z</time>
      </trkpt>
      <trkpt lat="43.71307" lon="3.46771">
        <ele>358.8</ele>
        <time>2017-12-24T08:12:27Z</time>
      </trkpt>
      <trkpt lat="43.71306" lon="3.46765">
        <ele>358.9</ele>
        <time>2017-12-24T08:12:29Z</time>
      </trkpt>
      <trkpt lat="43.71305" lon="3.46759">
        <ele>359</ele>
        <time>2017-12-24T08:12:31Z</time>
      </trkpt>
      <trkpt lat="43.71303" lon="3.46752">
        <ele>359.1</ele>
        <time>2017-12-24T08:12:33Z</time>
      </trkpt>
      <trkpt lat="43.71302" lon="3.46746">
        <ele>359.3</ele>
        <time>2017-12-24T08:12:35Z</time>
      </trkpt>
      <trkpt lat="43.71301" lon="3.4674">
        <ele>359.5</ele>
        <time>2017-12-24T08:12:37Z</time>
      </trkpt>
      <trkpt lat="43.71299" lon="3.46734">
        <ele>359.7</ele>
        <time>2017-12-24T08:12:39Z</time>
      </trkpt>
      <trkpt lat="43.71298" lon="3.46728">
        <ele>359.9</ele>
        <time>2017-12-24T08:12:41Z</time>
      </trkpt>
      <trkpt lat="43.71296" lon="3.46722">
        <ele>360</ele>
        <time>2017-12-24T08:12:43Z</time>
      </trkpt>
      <trkpt lat="43.71294" lon="3.46716">
        <ele>360</ele>
        <time>2017-12-24T08:12:45Z</time>
      </trkpt>
      <trkpt lat="43.71292" lon="3.4671">
        <ele>360.1</ele>
        <time>2017-12-24T08:12:47Z</time>
      </trkpt>
      <trkpt lat="43.7129" lon="3.46704">
        <ele>360.4</ele>
        <time>2017-12-24T08:12:49Z</time>
      </trkpt>
      <trkpt lat="43.71288" lon="3.46697">
        <ele>360.7</ele>
        <time>2017-12-24T08:12:51Z</time>
      </trkpt>
      <trkpt lat="43.71287" lon="3.4669">
        <ele>360.9</ele>
        <time>2017-12-24T08:12:53Z</time>
      </trkpt>
      <trkpt lat="43.71287" lon="3.46684">
        <ele>361</ele>
        <time>2017-12-24T08:12:55Z</time>
      </trkpt>
      <trkpt lat="43.71286" lon="3.46677">
        <ele>361.1</ele>
        <time>2017-12-24T08:12:57Z</time>
      </trkpt>
      <trkpt lat="43.71285" lon="3.4667">
        <ele>361.2</ele>
        <time>2017-12-24T08:12:59Z</time>
      </trkpt>
      <trkpt lat="43.71283" lon="3.46663">
        <ele>361.2</ele>
        <time>2017-12-24T08:13:01Z</time>
      </trkpt>
      <trkpt lat="43.71281" lon="3.46658">
        <ele>361.3</ele>
        <time>2017-12-24T08:13:03Z</time>
      </trkpt>
      <trkpt lat="43.71278" lon="3.46653">
        <ele>361.6</ele>
        <time>2017-12-24T08:13:05Z</time>
      </trkpt>
      <trkpt lat="43.71275" lon="3.46651">
        <ele>361.7</ele>
        <time>2017-12-24T08:13:06Z</time>
      </trkpt>
      <trkpt lat="43.71272" lon="3.4665">
        <ele>361.8</ele>
        <time>2017-12-24T08:13:07Z</time>
      </trkpt>
      <trkpt lat="43.71267" lon="3.46647">
        <ele>361.9</ele>
        <time>2017-12-24T08:13:09Z</time>
      </trkpt>
      <trkpt lat="43.71263" lon="3.46646">
        <ele>362</ele>
        <time>2017-12-24T08:13:11Z</time>
      </trkpt>
      <trkpt lat="43.71259" lon="3.46645">
        <ele>362</ele>
        <time>2017-12-24T08:13:13Z</time>
      </trkpt>
      <trkpt lat="43.71255" lon="3.46643">
        <ele>362</ele>
        <time>2017-12-24T08:13:15Z</time>
      </trkpt>
      <trkpt lat="43.71253" lon="3.4664">
        <ele>362</ele>
        <time>2017-12-24T08:13:16Z</time>
      </trkpt>
      <trkpt lat="43.71251" lon="3.46637">
        <ele>362</ele>
        <time>2017-12-24T08:13:17Z</time>
      </trkpt>
      <trkpt lat="43.7125" lon="3.46632">
        <ele>362</ele>
        <time>2017-12-24T08:13:18Z</time>
      </trkpt>
      <trkpt lat="43.7125" lon="3.46627">
        <ele>363.5</ele>
        <time>2017-12-24T08:13:19Z</time>
      </trkpt>
      <trkpt lat="43.7125" lon="3.46621">
        <ele>365.5</ele>
        <time>2017-12-24T08:13:20Z</time>
      </trkpt>
      <trkpt lat="43.71251" lon="3.46616">
        <ele>368.1</ele>
        <time>2017-12-24T08:13:21Z</time>
      </trkpt>
      <trkpt lat="43.71252" lon="3.46611">
        <ele>370.3</ele>
        <time>2017-12-24T08:13:22Z</time>
      </trkpt>
      <trkpt lat="43.71254" lon="3.46604">
        <ele>373.8</ele>
        <time>2017-12-24T08:13:24Z</time>
      </trkpt>
      <trkpt lat="43.71255" lon="3.46599">
        <ele>376.4</ele>
        <time>2017-12-24T08:13:25Z</time>
      </trkpt>
      <trkpt lat="43.71256" lon="3.46595">
        <ele>378.4</ele>
        <time>2017-12-24T08:13:26Z</time>
      </trkpt>
      <trkpt lat="43.71257" lon="3.46588">
        <ele>381.5</ele>
        <time>2017-12-24T08:13:28Z</time>
      </trkpt>
      <trkpt lat="43.71259" lon="3.46582">
        <ele>389</ele>
        <time>2017-12-24T08:13:30Z</time>
      </trkpt>
      <trkpt lat="43.7126" lon="3.46577">
        <ele>389</ele>
        <time>2017-12-24T08:13:32Z</time>
      </trkpt>
      <trkpt lat="43.71261" lon="3.46572">
        <ele>389</ele>
        <time>2017-12-24T08:13:34Z</time>
      </trkpt>
      <trkpt lat="43.7126" lon="3.46566">
        <ele>389</ele>
        <time>2017-12-24T08:13:36Z</time>
      </trkpt>
      <trkpt lat="43.71258" lon="3.46561">
        <ele>389.1</ele>
        <time>2017-12-24T08:13:38Z</time>
      </trkpt>
      <trkpt lat="43.71259" lon="3.46555">
        <ele>389.6</ele>
        <time>2017-12-24T08:13:40Z</time>
      </trkpt>
      <trkpt lat="43.7126" lon="3.4655">
        <ele>389.9</ele>
        <time>2017-12-24T08:13:42Z</time>
      </trkpt>
      <trkpt lat="43.71264" lon="3.46547">
        <ele>390.3</ele>
        <time>2017-12-24T08:13:44Z</time>
      </trkpt>
      <trkpt lat="43.71269" lon="3.46546">
        <ele>390.7</ele>
        <time>2017-12-24T08:13:46Z</time>
      </trkpt>
      <trkpt lat="43.71273" lon="3.46545">
        <ele>391</ele>
        <time>2017-12-24T08:13:48Z</time>
      </trkpt>
      <trkpt lat="43.71277" lon="3.46544">
        <ele>391.3</ele>
        <time>2017-12-24T08:13:50Z</time>
      </trkpt>
      <trkpt lat="43.71281" lon="3.46543">
        <ele>391.6</ele>
        <time>2017-12-24T08:13:52Z</time>
      </trkpt>
      <trkpt lat="43.71285" lon="3.46542">
        <ele>391.9</ele>
        <time>2017-12-24T08:13:54Z</time>
      </trkpt>
      <trkpt lat="43.71289" lon="3.46541">
        <ele>392.1</ele>
        <time>2017-12-24T08:13:56Z</time>
      </trkpt>
      <trkpt lat="43.71293" lon="3.46539">
        <ele>392.3</ele>
        <time>2017-12-24T08:13:58Z</time>
      </trkpt>
      <trkpt lat="43.71297" lon="3.46538">
        <ele>392.5</ele>
        <time>2017-12-24T08:14:00Z</time>
      </trkpt>
      <trkpt lat="43.71301" lon="3.46536">
        <ele>392.7</ele>
        <time>2017-12-24T08:14:02Z</time>
      </trkpt>
      <trkpt lat="43.71305" lon="3.46534">
        <ele>392.9</ele>
        <time>2017-12-24T08:14:04Z</time>
      </trkpt>
      <trkpt lat="43.71309" lon="3.46533">
        <ele>393.1</ele>
        <time>2017-12-24T08:14:06Z</time>
      </trkpt>
      <trkpt lat="43.71313" lon="3.46531">
        <ele>393.3</ele>
        <time>2017-12-24T08:14:08Z</time>
      </trkpt>
      <trkpt lat="43.71317" lon="3.4653">
        <ele>393.5</ele>
        <time>2017-12-24T08:14:10Z</time>
      </trkpt>
      <trkpt lat="43.7132" lon="3.46529">
        <ele>393.6</ele>
        <time>2017-12-24T08:14:12Z</time>
      </trkpt>
      <trkpt lat="43.71324" lon="3.46529">
        <ele>393.8</ele>
        <time>2017-12-24T08:14:14Z</time>
      </trkpt>
      <trkpt lat="43.71327" lon="3.46528">
        <ele>393.8</ele>
        <time>2017-12-24T08:14:16Z</time>
      </trkpt>
      <trkpt lat="43.71331" lon="3.46527">
        <ele>393.9</ele>
        <time>2017-12-24T08:14:18Z</time>
      </trkpt>
      <trkpt lat="43.71335" lon="3.46526">
        <ele>394</ele>
        <time>2017-12-24T08:14:20Z</time>
      </trkpt>
      <trkpt lat="43.71338" lon="3.46526">
        <ele>394.1</ele>
        <time>2017-12-24T08:14:22Z</time>
      </trkpt>
      <trkpt lat="43.71342" lon="3.46526">
        <ele>394.3</ele>
        <time>2017-12-24T08:14:24Z</time>
      </trkpt>
      <trkpt lat="43.71345" lon="3.46527">
        <ele>394.4</ele>
        <time>2017-12-24T08:14:26Z</time>
      </trkpt>
      <trkpt lat="43.71349" lon="3.46527">
        <ele>394.7</ele>
        <time>2017-12-24T08:14:28Z</time>
      </trkpt>
      <trkpt lat="43.71353" lon="3.46526">
        <ele>394.9</ele>
        <time>2017-12-24T08:14:30Z</time>
      </trkpt>
      <trkpt lat="43.71357" lon="3.46525">
        <ele>395.1</ele>
        <time>2017-12-24T08:14:32Z</time>
      </trkpt>
      <trkpt lat="43.7136" lon="3.46525">
        <ele>395.4</ele>
        <time>2017-12-24T08:14:34Z</time>
      </trkpt>
      <trkpt lat="43.71364" lon="3.46524">
        <ele>395.6</ele>
        <time>2017-12-24T08:14:36Z</time>
      </trkpt>
      <trkpt lat="43.71368" lon="3.46522">
        <ele>395.9</ele>
        <time>2017-12-24T08:14:38Z</time>
      </trkpt>
      <trkpt lat="43.71371" lon="3.4652">
        <ele>396.1</ele>
        <time>2017-12-24T08:14:40Z</time>
      </trkpt>
      <trkpt lat="43.71374" lon="3.46518">
        <ele>396.4</ele>
        <time>2017-12-24T08:14:42Z</time>
      </trkpt>
      <trkpt lat="43.71377" lon="3.46515">
        <ele>396.7</ele>
        <time>2017-12-24T08:14:44Z</time>
      </trkpt>
      <trkpt lat="43.71381" lon="3.46511">
        <ele>397</ele>
        <time>2017-12-24T08:14:46Z</time>
      </trkpt>
      <trkpt lat="43.71384" lon="3.46508">
        <ele>397.3</ele>
        <time>2017-12-24T08:14:48Z</time>
      </trkpt>
      <trkpt lat="43.71386" lon="3.46506">
        <ele>397.5</ele>
        <time>2017-12-24T08:14:50Z</time>
      </trkpt>
      <trkpt lat="43.7139" lon="3.46504">
        <ele>397.8</ele>
        <time>2017-12-24T08:14:52Z</time>
      </trkpt>
      <trkpt lat="43.71393" lon="3.46502">
        <ele>398.1</ele>
        <time>2017-12-24T08:14:54Z</time>
      </trkpt>
      <trkpt lat="43.71396" lon="3.46499">
        <ele>398.3</ele>
        <time>2017-12-24T08:14:56Z</time>
      </trkpt>
      <trkpt lat="43.71399" lon="3.46495">
        <ele>398.6</ele>
        <time>2017-12-24T08:14:58Z</time>
      </trkpt>
      <trkpt lat="43.71403" lon="3.46492">
        <ele>399</ele>
        <time>2017-12-24T08:15:00Z</time>
      </trkpt>
      <trkpt lat="43.71406" lon="3.46488">
        <ele>399.2</ele>
        <time>2017-12-24T08:15:02Z</time>
      </trkpt>
      <trkpt lat="43.71409" lon="3.46486">
        <ele>399.5</ele>
        <time>2017-12-24T08:15:04Z</time>
      </trkpt>
      <trkpt lat="43.71412" lon="3.46483">
        <ele>399.7</ele>
        <time>2017-12-24T08:15:06Z</time>
      </trkpt>
      <trkpt lat="43.71415" lon="3.4648">
        <ele>400</ele>
        <time>2017-12-24T08:15:08Z</time>
      </trkpt>
      <trkpt lat="43.71417" lon="3.46476">
        <ele>400.2</ele>
        <time>2017-12-24T08:15:10Z</time>
      </trkpt>
      <trkpt lat="43.71419" lon="3.46472">
        <ele>400.5</ele>
        <time>2017-12-24T08:15:12Z</time>
      </trkpt>
      <trkpt lat="43.7142" lon="3.46468">
        <ele>400.8</ele>
        <time>2017-12-24T08:15:14Z</time>
      </trkpt>
      <trkpt lat="43.71421" lon="3.46463">
        <ele>401.2</ele>
        <time>2017-12-24T08:15:16Z</time>
      </trkpt>
      <trkpt lat="43.71422" lon="3.46459">
        <ele>401.9</ele>
        <time>2017-12-24T08:15:18Z</time>
      </trkpt>
      <trkpt lat="43.71424" lon="3.46456">
        <ele>402.8</ele>
        <time>2017-12-24T08:15:20Z</time>
      </trkpt>
      <trkpt lat="43.71426" lon="3.46452">
        <ele>403.6</ele>
        <time>2017-12-24T08:15:22Z</time>
      </trkpt>
      <trkpt lat="43.71427" lon="3.46447">
        <ele>404.2</ele>
        <time>2017-12-24T08:15:24Z</time>
      </trkpt>
      <trkpt lat="43.71429" lon="3.46443">
        <ele>404.8</ele>
        <time>2017-12-24T08:15:26Z</time>
      </trkpt>
      <trkpt lat="43.71431" lon="3.46439">
        <ele>405.5</ele>
        <time>2017-12-24T08:15:28Z</time>
      </trkpt>
      <trkpt lat="43.71432" lon="3.46436">
        <ele>406.3</ele>
        <time>2017-12-24T08:15:30Z</time>
      </trkpt>
      <trkpt lat="43.71434" lon="3.46432">
        <ele>407</ele>
        <time>2017-12-24T08:15:32Z</time>
      </trkpt>
      <trkpt lat="43.71436" lon="3.46429">
        <ele>407.4</ele>
        <time>2017-12-24T08:15:34Z</time>
      </trkpt>
      <trkpt lat="43.71438" lon="3.46425">
        <ele>408.1</ele>
        <time>2017-12-24T08:15:36Z</time>
      </trkpt>
      <trkpt lat="43.7144" lon="3.46423">
        <ele>408.9</ele>
        <time>2017-12-24T08:15:38Z</time>
      </trkpt>
      <trkpt lat="43.71442" lon="3.4642">
        <ele>409.7</ele>
        <time>2017-12-24T08:15:40Z</time>
      </trkpt>
      <trkpt lat="43.71445" lon="3.46417">
        <ele>410.3</ele>
        <time>2017-12-24T08:15:42Z</time>
      </trkpt>
      <trkpt lat="43.71447" lon="3.46414">
        <ele>411.1</ele>
        <time>2017-12-24T08:15:44Z</time>
      </trkpt>
      <trkpt lat="43.71449" lon="3.46411">
        <ele>411.8</ele>
        <time>2017-12-24T08:15:46Z</time>
      </trkpt>
      <trkpt lat="43.71452" lon="3.46407">
        <ele>412.7</ele>
        <time>2017-12-24T08:15:49Z</time>
      </trkpt>
      <trkpt lat="43.71453" lon="3.46402">
        <ele>413.2</ele>
        <time>2017-12-24T08:15:51Z</time>
      </trkpt>
      <trkpt lat="43.71455" lon="3.46398">
        <ele>414.2</ele>
        <time>2017-12-24T08:15:53Z</time>
      </trkpt>
      <trkpt lat="43.71456" lon="3.46395">
        <ele>414.9</ele>
        <time>2017-12-24T08:15:55Z</time>
      </trkpt>
      <trkpt lat="43.71458" lon="3.46391">
        <ele>415.6</ele>
        <time>2017-12-24T08:15:57Z</time>
      </trkpt>
      <trkpt lat="43.7146" lon="3.46388">
        <ele>416.1</ele>
        <time>2017-12-24T08:15:59Z</time>
      </trkpt>
      <trkpt lat="43.71463" lon="3.46386">
        <ele>417</ele>
        <time>2017-12-24T08:16:02Z</time>
      </trkpt>
      <trkpt lat="43.71466" lon="3.46385">
        <ele>417.9</ele>
        <time>2017-12-24T08:16:04Z</time>
      </trkpt>
      <trkpt lat="43.7147" lon="3.46383">
        <ele>418.5</ele>
        <time>2017-12-24T08:16:06Z</time>
      </trkpt>
      <trkpt lat="43.71472" lon="3.46382">
        <ele>419</ele>
        <time>2017-12-24T08:16:08Z</time>
      </trkpt>
      <trkpt lat="43.71474" lon="3.4638">
        <ele>419.8</ele>
        <time>2017-12-24T08:16:10Z</time>
      </trkpt>
      <trkpt lat="43.71477" lon="3.46377">
        <ele>420.8</ele>
        <time>2017-12-24T08:16:13Z</time>
      </trkpt>
      <trkpt lat="43.7148" lon="3.46374">
        <ele>421.2</ele>
        <time>2017-12-24T08:16:16Z</time>
      </trkpt>
      <trkpt lat="43.71482" lon="3.46371">
        <ele>421.6</ele>
        <time>2017-12-24T08:16:19Z</time>
      </trkpt>
      <trkpt lat="43.71484" lon="3.46368">
        <ele>422.4</ele>
        <time>2017-12-24T08:16:22Z</time>
      </trkpt>
      <trkpt lat="43.71485" lon="3.46363">
        <ele>423.6</ele>
        <time>2017-12-24T08:16:29Z</time>
      </trkpt>
      <trkpt lat="43.71486" lon="3.46358">
        <ele>424.4</ele>
        <time>2017-12-24T08:16:32Z</time>
      </trkpt>
      <trkpt lat="43.71487" lon="3.46354">
        <ele>425.1</ele>
        <time>2017-12-24T08:16:37Z</time>
      </trkpt>
      <trkpt lat="43.71488" lon="3.4635">
        <ele>425.9</ele>
        <time>2017-12-24T08:16:44Z</time>
      </trkpt>
      <trkpt lat="43.71488" lon="3.46346">
        <ele>426.2</ele>
        <time>2017-12-24T08:16:50Z</time>
      </trkpt>
      <trkpt lat="43.71489" lon="3.46342">
        <ele>426.4</ele>
        <time>2017-12-24T08:16:54Z</time>
      </trkpt>
      <trkpt lat="43.71491" lon="3.46339">
        <ele>426.6</ele>
        <time>2017-12-24T08:17:00Z</time>
      </trkpt>
      <trkpt lat="43.71495" lon="3.46337">
        <ele>426.9</ele>
        <time>2017-12-24T08:17:08Z</time>
      </trkpt>
      <trkpt lat="43.71498" lon="3.46335">
        <ele>427.1</ele>
        <time>2017-12-24T08:17:11Z</time>
      </trkpt>
      <trkpt lat="43.71501" lon="3.46332">
        <ele>427.3</ele>
        <time>2017-12-24T08:17:14Z</time>
      </trkpt>
      <trkpt lat="43.71503" lon="3.46329">
        <ele>427.4</ele>
        <time>2017-12-24T08:17:16Z</time>
      </trkpt>
      <trkpt lat="43.71506" lon="3.46327">
        <ele>426.8</ele>
        <time>2017-12-24T08:17:18Z</time>
      </trkpt>
      <trkpt lat="43.71509" lon="3.46324">
        <ele>425.6</ele>
        <time>2017-12-24T08:17:20Z</time>
      </trkpt>
      <trkpt lat="43.71512" lon="3.4632">
        <ele>425.5</ele>
        <time>2017-12-24T08:17:22Z</time>
      </trkpt>
      <trkpt lat="43.71515" lon="3.46317">
        <ele>425.5</ele>
        <time>2017-12-24T08:17:24Z</time>
      </trkpt>
      <trkpt lat="43.71518" lon="3.46315">
        <ele>425.1</ele>
        <time>2017-12-24T08:17:26Z</time>
      </trkpt>
      <trkpt lat="43.7152" lon="3.46312">
        <ele>424.8</ele>
        <time>2017-12-24T08:17:28Z</time>
      </trkpt>
      <trkpt lat="43.71524" lon="3.4631">
        <ele>423.4</ele>
        <time>2017-12-24T08:17:31Z</time>
      </trkpt>
      <trkpt lat="43.71528" lon="3.4631">
        <ele>422</ele>
        <time>2017-12-24T08:17:33Z</time>
      </trkpt>
      <trkpt lat="43.71531" lon="3.46309">
        <ele>421</ele>
        <time>2017-12-24T08:17:35Z</time>
      </trkpt>
      <trkpt lat="43.71534" lon="3.46307">
        <ele>420.1</ele>
        <time>2017-12-24T08:17:37Z</time>
      </trkpt>
      <trkpt lat="43.71537" lon="3.46305">
        <ele>419.3</ele>
        <time>2017-12-24T08:17:39Z</time>
      </trkpt>
      <trkpt lat="43.71541" lon="3.46304">
        <ele>418.9</ele>
        <time>2017-12-24T08:17:41Z</time>
      </trkpt>
      <trkpt lat="43.71545" lon="3.46302">
        <ele>417.9</ele>
        <time>2017-12-24T08:17:43Z</time>
      </trkpt>
      <trkpt lat="43.71548" lon="3.46299">
        <ele>417.7</ele>
        <time>2017-12-24T08:17:45Z</time>
      </trkpt>
      <trkpt lat="43.71549" lon="3.46295">
        <ele>417.5</ele>
        <time>2017-12-24T08:17:47Z</time>
      </trkpt>
      <trkpt lat="43.7155" lon="3.46291">
        <ele>417.4</ele>
        <time>2017-12-24T08:17:49Z</time>
      </trkpt>
      <trkpt lat="43.71553" lon="3.46288">
        <ele>417.7</ele>
        <time>2017-12-24T08:17:59Z</time>
      </trkpt>
      <trkpt lat="43.71553" lon="3.46284">
        <ele>417.9</ele>
        <time>2017-12-24T08:18:02Z</time>
      </trkpt>
      <trkpt lat="43.71554" lon="3.4628">
        <ele>417.9</ele>
        <time>2017-12-24T08:18:08Z</time>
      </trkpt>
      <trkpt lat="43.71555" lon="3.46276">
        <ele>417.8</ele>
        <time>2017-12-24T08:18:13Z</time>
      </trkpt>
      <trkpt lat="43.71556" lon="3.46271">
        <ele>418.9</ele>
        <time>2017-12-24T08:18:15Z</time>
      </trkpt>
      <trkpt lat="43.71557" lon="3.46266">
        <ele>420</ele>
        <time>2017-12-24T08:18:17Z</time>
      </trkpt>
      <trkpt lat="43.71557" lon="3.46263">
        <ele>421.4</ele>
        <time>2017-12-24T08:18:19Z</time>
      </trkpt>
      <trkpt lat="43.71558" lon="3.46258">
        <ele>423.2</ele>
        <time>2017-12-24T08:18:22Z</time>
      </trkpt>
      <trkpt lat="43.71558" lon="3.46254">
        <ele>424.5</ele>
        <time>2017-12-24T08:18:24Z</time>
      </trkpt>
      <trkpt lat="43.71556" lon="3.4625">
        <ele>425.5</ele>
        <time>2017-12-24T08:18:29Z</time>
      </trkpt>
      <trkpt lat="43.71554" lon="3.46247">
        <ele>426.5</ele>
        <time>2017-12-24T08:18:33Z</time>
      </trkpt>
      <trkpt lat="43.71554" lon="3.46243">
        <ele>427.4</ele>
        <time>2017-12-24T08:18:39Z</time>
      </trkpt>
      <trkpt lat="43.71555" lon="3.46239">
        <ele>428.5</ele>
        <time>2017-12-24T08:18:44Z</time>
      </trkpt>
      <trkpt lat="43.71557" lon="3.46235">
        <ele>428.9</ele>
        <time>2017-12-24T08:18:51Z</time>
      </trkpt>
      <trkpt lat="43.71558" lon="3.46229">
        <ele>429.4</ele>
        <time>2017-12-24T08:18:54Z</time>
      </trkpt>
      <trkpt lat="43.7156" lon="3.46225">
        <ele>430.3</ele>
        <time>2017-12-24T08:18:57Z</time>
      </trkpt>
      <trkpt lat="43.71562" lon="3.46221">
        <ele>431.2</ele>
        <time>2017-12-24T08:18:59Z</time>
      </trkpt>
      <trkpt lat="43.71562" lon="3.46216">
        <ele>431.9</ele>
        <time>2017-12-24T08:19:01Z</time>
      </trkpt>
      <trkpt lat="43.71563" lon="3.46211">
        <ele>432.3</ele>
        <time>2017-12-24T08:19:03Z</time>
      </trkpt>
      <trkpt lat="43.71566" lon="3.46206">
        <ele>432.7</ele>
        <time>2017-12-24T08:19:05Z</time>
      </trkpt>
      <trkpt lat="43.71568" lon="3.462">
        <ele>433.6</ele>
        <time>2017-12-24T08:19:07Z</time>
      </trkpt>
      <trkpt lat="43.7157" lon="3.46193">
        <ele>434.1</ele>
        <time>2017-12-24T08:19:09Z</time>
      </trkpt>
      <trkpt lat="43.71571" lon="3.46189">
        <ele>433.8</ele>
        <time>2017-12-24T08:19:10Z</time>
      </trkpt>
      <trkpt lat="43.71571" lon="3.46184">
        <ele>433.5</ele>
        <time>2017-12-24T08:19:12Z</time>
      </trkpt>
      <trkpt lat="43.71571" lon="3.46179">
        <ele>434.2</ele>
        <time>2017-12-24T08:19:14Z</time>
      </trkpt>
      <trkpt lat="43.71572" lon="3.46175">
        <ele>434.8</ele>
        <time>2017-12-24T08:19:16Z</time>
      </trkpt>
      <trkpt lat="43.71573" lon="3.4617">
        <ele>435.2</ele>
        <time>2017-12-24T08:19:18Z</time>
      </trkpt>
      <trkpt lat="43.71575" lon="3.46166">
        <ele>435.4</ele>
        <time>2017-12-24T08:19:20Z</time>
      </trkpt>
      <trkpt lat="43.71575" lon="3.46161">
        <ele>435.6</ele>
        <time>2017-12-24T08:19:22Z</time>
      </trkpt>
      <trkpt lat="43.71577" lon="3.46156">
        <ele>436.1</ele>
        <time>2017-12-24T08:19:24Z</time>
      </trkpt>
      <trkpt lat="43.7158" lon="3.46149">
        <ele>436.9</ele>
        <time>2017-12-24T08:19:26Z</time>
      </trkpt>
      <trkpt lat="43.71582" lon="3.46143">
        <ele>437.6</ele>
        <time>2017-12-24T08:19:28Z</time>
      </trkpt>
      <trkpt lat="43.71583" lon="3.46137">
        <ele>438</ele>
        <time>2017-12-24T08:19:30Z</time>
      </trkpt>
      <trkpt lat="43.71584" lon="3.46133">
        <ele>438.1</ele>
        <time>2017-12-24T08:19:31Z</time>
      </trkpt>
      <trkpt lat="43.71584" lon="3.46127">
        <ele>438.4</ele>
        <time>2017-12-24T08:19:33Z</time>
      </trkpt>
      <trkpt lat="43.71584" lon="3.46122">
        <ele>439.3</ele>
        <time>2017-12-24T08:19:36Z</time>
      </trkpt>
      <trkpt lat="43.71585" lon="3.46118">
        <ele>440.2</ele>
        <time>2017-12-24T08:19:37Z</time>
      </trkpt>
      <trkpt lat="43.71585" lon="3.46113">
        <ele>440.8</ele>
        <time>2017-12-24T08:19:38Z</time>
      </trkpt>
      <trkpt lat="43.71586" lon="3.4611">
        <ele>441.1</ele>
        <time>2017-12-24T08:19:40Z</time>
      </trkpt>
      <trkpt lat="43.71587" lon="3.46103">
        <ele>441.5</ele>
        <time>2017-12-24T08:19:42Z</time>
      </trkpt>
      <trkpt lat="43.71588" lon="3.46097">
        <ele>441.5</ele>
        <time>2017-12-24T08:19:44Z</time>
      </trkpt>
      <trkpt lat="43.7159" lon="3.46094">
        <ele>441.6</ele>
        <time>2017-12-24T08:19:46Z</time>
      </trkpt>
      <trkpt lat="43.71592" lon="3.46089">
        <ele>441.8</ele>
        <time>2017-12-24T08:19:49Z</time>
      </trkpt>
      <trkpt lat="43.71593" lon="3.46085">
        <ele>442</ele>
        <time>2017-12-24T08:19:51Z</time>
      </trkpt>
      <trkpt lat="43.71594" lon="3.46082">
        <ele>442.2</ele>
        <time>2017-12-24T08:19:53Z</time>
      </trkpt>
      <trkpt lat="43.71596" lon="3.46078">
        <ele>442.3</ele>
        <time>2017-12-24T08:19:56Z</time>
      </trkpt>
      <trkpt lat="43.71598" lon="3.46074">
        <ele>442.4</ele>
        <time>2017-12-24T08:19:58Z</time>
      </trkpt>
      <trkpt lat="43.71599" lon="3.46069">
        <ele>442.7</ele>
        <time>2017-12-24T08:20:00Z</time>
      </trkpt>
      <trkpt lat="43.716" lon="3.46064">
        <ele>443.3</ele>
        <time>2017-12-24T08:20:02Z</time>
      </trkpt>
      <trkpt lat="43.71602" lon="3.46059">
        <ele>443.9</ele>
        <time>2017-12-24T08:20:04Z</time>
      </trkpt>
      <trkpt lat="43.71603" lon="3.46054">
        <ele>443.7</ele>
        <time>2017-12-24T08:20:05Z</time>
      </trkpt>
      <trkpt lat="43.71604" lon="3.46049">
        <ele>443.6</ele>
        <time>2017-12-24T08:20:07Z</time>
      </trkpt>
      <trkpt lat="43.71605" lon="3.46045">
        <ele>443.8</ele>
        <time>2017-12-24T08:20:09Z</time>
      </trkpt>
      <trkpt lat="43.71605" lon="3.46041">
        <ele>444.1</ele>
        <time>2017-12-24T08:20:11Z</time>
      </trkpt>
      <trkpt lat="43.71606" lon="3.46036">
        <ele>444.1</ele>
        <time>2017-12-24T08:20:13Z</time>
      </trkpt>
      <trkpt lat="43.71606" lon="3.46033">
        <ele>443.9</ele>
        <time>2017-12-24T08:20:15Z</time>
      </trkpt>
      <trkpt lat="43.71608" lon="3.46027">
        <ele>443.9</ele>
        <time>2017-12-24T08:20:18Z</time>
      </trkpt>
      <trkpt lat="43.71609" lon="3.46022">
        <ele>444.1</ele>
        <time>2017-12-24T08:20:21Z</time>
      </trkpt>
      <trkpt lat="43.71609" lon="3.46018">
        <ele>444.2</ele>
        <time>2017-12-24T08:20:23Z</time>
      </trkpt>
      <trkpt lat="43.71609" lon="3.46014">
        <ele>444.4</ele>
        <time>2017-12-24T08:20:25Z</time>
      </trkpt>
      <trkpt lat="43.71608" lon="3.4601">
        <ele>444.5</ele>
        <time>2017-12-24T08:20:27Z</time>
      </trkpt>
      <trkpt lat="43.71608" lon="3.46004">
        <ele>444.9</ele>
        <time>2017-12-24T08:20:30Z</time>
      </trkpt>
      <trkpt lat="43.71607" lon="3.46">
        <ele>445.1</ele>
        <time>2017-12-24T08:20:33Z</time>
      </trkpt>
      <trkpt lat="43.71608" lon="3.45996">
        <ele>445.1</ele>
        <time>2017-12-24T08:20:35Z</time>
      </trkpt>
      <trkpt lat="43.71607" lon="3.45991">
        <ele>445</ele>
        <time>2017-12-24T08:20:39Z</time>
      </trkpt>
      <trkpt lat="43.71607" lon="3.45987">
        <ele>444.9</ele>
        <time>2017-12-24T08:20:41Z</time>
      </trkpt>
      <trkpt lat="43.71607" lon="3.45982">
        <ele>444.7</ele>
        <time>2017-12-24T08:20:43Z</time>
      </trkpt>
      <trkpt lat="43.71607" lon="3.45978">
        <ele>444.6</ele>
        <time>2017-12-24T08:20:45Z</time>
      </trkpt>
      <trkpt lat="43.71607" lon="3.45973">
        <ele>444.2</ele>
        <time>2017-12-24T08:20:48Z</time>
      </trkpt>
      <trkpt lat="43.71607" lon="3.45968">
        <ele>443.8</ele>
        <time>2017-12-24T08:20:51Z</time>
      </trkpt>
      <trkpt lat="43.71608" lon="3.45964">
        <ele>443.5</ele>
        <time>2017-12-24T08:20:54Z</time>
      </trkpt>
      <trkpt lat="43.71608" lon="3.4596">
        <ele>443.3</ele>
        <time>2017-12-24T08:20:56Z</time>
      </trkpt>
      <trkpt lat="43.7161" lon="3.45956">
        <ele>443</ele>
        <time>2017-12-24T08:20:58Z</time>
      </trkpt>
      <trkpt lat="43.71611" lon="3.45951">
        <ele>442.7</ele>
        <time>2017-12-24T08:21:00Z</time>
      </trkpt>
      <trkpt lat="43.71611" lon="3.45947">
        <ele>442.5</ele>
        <time>2017-12-24T08:21:02Z</time>
      </trkpt>
      <trkpt lat="43.71613" lon="3.45942">
        <ele>442.1</ele>
        <time>2017-12-24T08:21:05Z</time>
      </trkpt>
      <trkpt lat="43.71613" lon="3.45938">
        <ele>441.6</ele>
        <time>2017-12-24T08:21:07Z</time>
      </trkpt>
      <trkpt lat="43.71613" lon="3.45934">
        <ele>441.2</ele>
        <time>2017-12-24T08:21:09Z</time>
      </trkpt>
      <trkpt lat="43.71612" lon="3.45929">
        <ele>440.8</ele>
        <time>2017-12-24T08:21:12Z</time>
      </trkpt>
      <trkpt lat="43.71612" lon="3.45924">
        <ele>440.5</ele>
        <time>2017-12-24T08:21:15Z</time>
      </trkpt>
      <trkpt lat="43.71613" lon="3.45919">
        <ele>440.2</ele>
        <time>2017-12-24T08:21:18Z</time>
      </trkpt>
      <trkpt lat="43.71613" lon="3.45914">
        <ele>439.9</ele>
        <time>2017-12-24T08:21:20Z</time>
      </trkpt>
      <trkpt lat="43.71613" lon="3.45911">
        <ele>439.6</ele>
        <time>2017-12-24T08:21:22Z</time>
      </trkpt>
      <trkpt lat="43.7161" lon="3.45908">
        <ele>439.4</ele>
        <time>2017-12-24T08:21:24Z</time>
      </trkpt>
      <trkpt lat="43.71609" lon="3.45904">
        <ele>439.4</ele>
        <time>2017-12-24T08:21:26Z</time>
      </trkpt>
      <trkpt lat="43.71607" lon="3.45901">
        <ele>439.4</ele>
        <time>2017-12-24T08:21:28Z</time>
      </trkpt>
      <trkpt lat="43.71606" lon="3.45896">
        <ele>439</ele>
        <time>2017-12-24T08:21:31Z</time>
      </trkpt>
      <trkpt lat="43.71606" lon="3.45892">
        <ele>438.8</ele>
        <time>2017-12-24T08:21:34Z</time>
      </trkpt>
      <trkpt lat="43.71605" lon="3.45888">
        <ele>438.6</ele>
        <time>2017-12-24T08:21:37Z</time>
      </trkpt>
      <trkpt lat="43.71603" lon="3.45884">
        <ele>438.4</ele>
        <time>2017-12-24T08:21:41Z</time>
      </trkpt>
      <trkpt lat="43.716" lon="3.45882">
        <ele>438.3</ele>
        <time>2017-12-24T08:21:44Z</time>
      </trkpt>
      <trkpt lat="43.71597" lon="3.4588">
        <ele>438.3</ele>
        <time>2017-12-24T08:21:47Z</time>
      </trkpt>
      <trkpt lat="43.71598" lon="3.45876">
        <ele>438.2</ele>
        <time>2017-12-24T08:22:14Z</time>
      </trkpt>
      <trkpt lat="43.71596" lon="3.45874">
        <ele>438.1</ele>
        <time>2017-12-24T08:22:59Z</time>
      </trkpt>
      <trkpt lat="43.71594" lon="3.45871">
        <ele>438</ele>
        <time>2017-12-24T08:23:01Z</time>
      </trkpt>
      <trkpt lat="43.71595" lon="3.45867">
        <ele>437.4</ele>
        <time>2017-12-24T08:23:03Z</time>
      </trkpt>
      <trkpt lat="43.71597" lon="3.45864">
        <ele>436.8</ele>
        <time>2017-12-24T08:23:04Z</time>
      </trkpt>
      <trkpt lat="43.71599" lon="3.4586">
        <ele>436.1</ele>
        <time>2017-12-24T08:23:05Z</time>
      </trkpt>
      <trkpt lat="43.716" lon="3.45856">
        <ele>435.6</ele>
        <time>2017-12-24T08:23:06Z</time>
      </trkpt>
      <trkpt lat="43.71601" lon="3.45852">
        <ele>435.3</ele>
        <time>2017-12-24T08:23:07Z</time>
      </trkpt>
      <trkpt lat="43.71601" lon="3.45847">
        <ele>434.8</ele>
        <time>2017-12-24T08:23:09Z</time>
      </trkpt>
      <trkpt lat="43.71603" lon="3.45842">
        <ele>434.2</ele>
        <time>2017-12-24T08:23:11Z</time>
      </trkpt>
      <trkpt lat="43.71604" lon="3.45837">
        <ele>433.6</ele>
        <time>2017-12-24T08:23:12Z</time>
      </trkpt>
      <trkpt lat="43.71605" lon="3.45833">
        <ele>433.1</ele>
        <time>2017-12-24T08:23:13Z</time>
      </trkpt>
      <trkpt lat="43.71608" lon="3.45829">
        <ele>432.4</ele>
        <time>2017-12-24T08:23:14Z</time>
      </trkpt>
      <trkpt lat="43.71611" lon="3.45827">
        <ele>431.9</ele>
        <time>2017-12-24T08:23:15Z</time>
      </trkpt>
      <trkpt lat="43.71614" lon="3.45824">
        <ele>431.5</ele>
        <time>2017-12-24T08:23:16Z</time>
      </trkpt>
      <trkpt lat="43.71617" lon="3.45821">
        <ele>431.1</ele>
        <time>2017-12-24T08:23:17Z</time>
      </trkpt>
      <trkpt lat="43.71621" lon="3.45816">
        <ele>430.6</ele>
        <time>2017-12-24T08:23:18Z</time>
      </trkpt>
      <trkpt lat="43.71625" lon="3.45811">
        <ele>430.2</ele>
        <time>2017-12-24T08:23:19Z</time>
      </trkpt>
      <trkpt lat="43.71631" lon="3.45806">
        <ele>429.7</ele>
        <time>2017-12-24T08:23:20Z</time>
      </trkpt>
      <trkpt lat="43.71635" lon="3.45803">
        <ele>429.5</ele>
        <time>2017-12-24T08:23:21Z</time>
      </trkpt>
      <trkpt lat="43.7164" lon="3.45802">
        <ele>429.4</ele>
        <time>2017-12-24T08:23:22Z</time>
      </trkpt>
      <trkpt lat="43.71643" lon="3.458">
        <ele>429.3</ele>
        <time>2017-12-24T08:23:23Z</time>
      </trkpt>
      <trkpt lat="43.71646" lon="3.45797">
        <ele>429.4</ele>
        <time>2017-12-24T08:23:25Z</time>
      </trkpt>
      <trkpt lat="43.71649" lon="3.45798">
        <ele>429.4</ele>
        <time>2017-12-24T08:23:27Z</time>
      </trkpt>
      <trkpt lat="43.71651" lon="3.45794">
        <ele>429.4</ele>
        <time>2017-12-24T08:23:30Z</time>
      </trkpt>
      <trkpt lat="43.71648" lon="3.45791">
        <ele>422</ele>
        <time>2017-12-24T08:23:32Z</time>
      </trkpt>
      <trkpt lat="43.71647" lon="3.45786">
        <ele>415</ele>
        <time>2017-12-24T08:23:35Z</time>
      </trkpt>
      <trkpt lat="43.71649" lon="3.45779">
        <ele>415</ele>
        <time>2017-12-24T08:23:37Z</time>
      </trkpt>
      <trkpt lat="43.7165" lon="3.45774">
        <ele>415.1</ele>
        <time>2017-12-24T08:23:38Z</time>
      </trkpt>
      <trkpt lat="43.71651" lon="3.45769">
        <ele>415.2</ele>
        <time>2017-12-24T08:23:39Z</time>
      </trkpt>
      <trkpt lat="43.71653" lon="3.45764">
        <ele>415.2</ele>
        <time>2017-12-24T08:23:41Z</time>
      </trkpt>
      <trkpt lat="43.71652" lon="3.45759">
        <ele>415.2</ele>
        <time>2017-12-24T08:23:43Z</time>
      </trkpt>
      <trkpt lat="43.71649" lon="3.45756">
        <ele>415.1</ele>
        <time>2017-12-24T08:23:44Z</time>
      </trkpt>
      <trkpt lat="43.71647" lon="3.45748">
        <ele>414.6</ele>
        <time>2017-12-24T08:23:46Z</time>
      </trkpt>
      <trkpt lat="43.71646" lon="3.45744">
        <ele>414.5</ele>
        <time>2017-12-24T08:23:47Z</time>
      </trkpt>
      <trkpt lat="43.71645" lon="3.45737">
        <ele>414.3</ele>
        <time>2017-12-24T08:23:49Z</time>
      </trkpt>
      <trkpt lat="43.71647" lon="3.4573">
        <ele>414.2</ele>
        <time>2017-12-24T08:23:51Z</time>
      </trkpt>
      <trkpt lat="43.71647" lon="3.45726">
        <ele>414.1</ele>
        <time>2017-12-24T08:23:52Z</time>
      </trkpt>
      <trkpt lat="43.71648" lon="3.45719">
        <ele>414.4</ele>
        <time>2017-12-24T08:23:54Z</time>
      </trkpt>
      <trkpt lat="43.71648" lon="3.45713">
        <ele>414.5</ele>
        <time>2017-12-24T08:23:55Z</time>
      </trkpt>
      <trkpt lat="43.71649" lon="3.45708">
        <ele>414.2</ele>
        <time>2017-12-24T08:23:56Z</time>
      </trkpt>
      <trkpt lat="43.7165" lon="3.45703">
        <ele>414.1</ele>
        <time>2017-12-24T08:23:57Z</time>
      </trkpt>
      <trkpt lat="43.71652" lon="3.45697">
        <ele>414.3</ele>
        <time>2017-12-24T08:23:59Z</time>
      </trkpt>
      <trkpt lat="43.71652" lon="3.45691">
        <ele>414.2</ele>
        <time>2017-12-24T08:24:00Z</time>
      </trkpt>
      <trkpt lat="43.71652" lon="3.45687">
        <ele>413.4</ele>
        <time>2017-12-24T08:24:01Z</time>
      </trkpt>
      <trkpt lat="43.71649" lon="3.45684">
        <ele>412.5</ele>
        <time>2017-12-24T08:24:04Z</time>
      </trkpt>
      <trkpt lat="43.71649" lon="3.4568">
        <ele>411.8</ele>
        <time>2017-12-24T08:24:07Z</time>
      </trkpt>
      <trkpt lat="43.71649" lon="3.4567">
        <ele>409.9</ele>
        <time>2017-12-24T08:24:09Z</time>
      </trkpt>
      <trkpt lat="43.71648" lon="3.45664">
        <ele>409</ele>
        <time>2017-12-24T08:24:10Z</time>
      </trkpt>
      <trkpt lat="43.71649" lon="3.45656">
        <ele>408</ele>
        <time>2017-12-24T08:24:11Z</time>
      </trkpt>
      <trkpt lat="43.71648" lon="3.4565">
        <ele>407.3</ele>
        <time>2017-12-24T08:24:12Z</time>
      </trkpt>
      <trkpt lat="43.71648" lon="3.45643">
        <ele>406.5</ele>
        <time>2017-12-24T08:24:13Z</time>
      </trkpt>
      <trkpt lat="43.71648" lon="3.45637">
        <ele>405.8</ele>
        <time>2017-12-24T08:24:14Z</time>
      </trkpt>
      <trkpt lat="43.71648" lon="3.45633">
        <ele>405.2</ele>
        <time>2017-12-24T08:24:15Z</time>
      </trkpt>
      <trkpt lat="43.71649" lon="3.45624">
        <ele>403.6</ele>
        <time>2017-12-24T08:24:17Z</time>
      </trkpt>
      <trkpt lat="43.71649" lon="3.4562">
        <ele>403.2</ele>
        <time>2017-12-24T08:24:18Z</time>
      </trkpt>
      <trkpt lat="43.71651" lon="3.45617">
        <ele>403</ele>
        <time>2017-12-24T08:24:19Z</time>
      </trkpt>
      <trkpt lat="43.71653" lon="3.45613">
        <ele>402.7</ele>
        <time>2017-12-24T08:24:21Z</time>
      </trkpt>
      <trkpt lat="43.71654" lon="3.45607">
        <ele>402.3</ele>
        <time>2017-12-24T08:24:23Z</time>
      </trkpt>
      <trkpt lat="43.71655" lon="3.45603">
        <ele>402.1</ele>
        <time>2017-12-24T08:24:24Z</time>
      </trkpt>
      <trkpt lat="43.71656" lon="3.45598">
        <ele>401.9</ele>
        <time>2017-12-24T08:24:25Z</time>
      </trkpt>
      <trkpt lat="43.71655" lon="3.45591">
        <ele>401.6</ele>
        <time>2017-12-24T08:24:26Z</time>
      </trkpt>
      <trkpt lat="43.71655" lon="3.45586">
        <ele>401.4</ele>
        <time>2017-12-24T08:24:27Z</time>
      </trkpt>
      <trkpt lat="43.71655" lon="3.4558">
        <ele>400.3</ele>
        <time>2017-12-24T08:24:28Z</time>
      </trkpt>
      <trkpt lat="43.71656" lon="3.45573">
        <ele>399.1</ele>
        <time>2017-12-24T08:24:29Z</time>
      </trkpt>
      <trkpt lat="43.71656" lon="3.45569">
        <ele>398.8</ele>
        <time>2017-12-24T08:24:30Z</time>
      </trkpt>
      <trkpt lat="43.71656" lon="3.45561">
        <ele>398.3</ele>
        <time>2017-12-24T08:24:31Z</time>
      </trkpt>
      <trkpt lat="43.71656" lon="3.45555">
        <ele>398.2</ele>
        <time>2017-12-24T08:24:32Z</time>
      </trkpt>
      <trkpt lat="43.71658" lon="3.45548">
        <ele>397.7</ele>
        <time>2017-12-24T08:24:34Z</time>
      </trkpt>
      <trkpt lat="43.71659" lon="3.45544">
        <ele>397</ele>
        <time>2017-12-24T08:24:35Z</time>
      </trkpt>
      <trkpt lat="43.71661" lon="3.45541">
        <ele>396.3</ele>
        <time>2017-12-24T08:24:36Z</time>
      </trkpt>
      <trkpt lat="43.71664" lon="3.45538">
        <ele>395.8</ele>
        <time>2017-12-24T08:24:38Z</time>
      </trkpt>
      <trkpt lat="43.71666" lon="3.45533">
        <ele>395.7</ele>
        <time>2017-12-24T08:24:40Z</time>
      </trkpt>
      <trkpt lat="43.71669" lon="3.45529">
        <ele>395.8</ele>
        <time>2017-12-24T08:24:42Z</time>
      </trkpt>
      <trkpt lat="43.71673" lon="3.45528">
        <ele>396.2</ele>
        <time>2017-12-24T08:24:44Z</time>
      </trkpt>
      <trkpt lat="43.71676" lon="3.45526">
        <ele>396.6</ele>
        <time>2017-12-24T08:24:46Z</time>
      </trkpt>
      <trkpt lat="43.71679" lon="3.45524">
        <ele>397</ele>
        <time>2017-12-24T08:24:48Z</time>
      </trkpt>
      <trkpt lat="43.71683" lon="3.45522">
        <ele>397.4</ele>
        <time>2017-12-24T08:24:50Z</time>
      </trkpt>
      <trkpt lat="43.71685" lon="3.45519">
        <ele>398.1</ele>
        <time>2017-12-24T08:24:53Z</time>
      </trkpt>
      <trkpt lat="43.71687" lon="3.45515">
        <ele>399.3</ele>
        <time>2017-12-24T08:24:55Z</time>
      </trkpt>
      <trkpt lat="43.71688" lon="3.45509">
        <ele>399.8</ele>
        <time>2017-12-24T08:24:57Z</time>
      </trkpt>
      <trkpt lat="43.71689" lon="3.45502">
        <ele>399.3</ele>
        <time>2017-12-24T08:24:59Z</time>
      </trkpt>
      <trkpt lat="43.7169" lon="3.45496">
        <ele>398.4</ele>
        <time>2017-12-24T08:25:00Z</time>
      </trkpt>
      <trkpt lat="43.71691" lon="3.45492">
        <ele>397.7</ele>
        <time>2017-12-24T08:25:01Z</time>
      </trkpt>
      <trkpt lat="43.71689" lon="3.45487">
        <ele>396.8</ele>
        <time>2017-12-24T08:25:03Z</time>
      </trkpt>
      <trkpt lat="43.71688" lon="3.45482">
        <ele>396.1</ele>
        <time>2017-12-24T08:25:04Z</time>
      </trkpt>
      <trkpt lat="43.71689" lon="3.45471">
        <ele>394.8</ele>
        <time>2017-12-24T08:25:06Z</time>
      </trkpt>
      <trkpt lat="43.71689" lon="3.45461">
        <ele>393.1</ele>
        <time>2017-12-24T08:25:07Z</time>
      </trkpt>
      <trkpt lat="43.7169" lon="3.45451">
        <ele>392.1</ele>
        <time>2017-12-24T08:25:08Z</time>
      </trkpt>
      <trkpt lat="43.71691" lon="3.45443">
        <ele>391</ele>
        <time>2017-12-24T08:25:09Z</time>
      </trkpt>
      <trkpt lat="43.71692" lon="3.45435">
        <ele>390.2</ele>
        <time>2017-12-24T08:25:10Z</time>
      </trkpt>
      <trkpt lat="43.71693" lon="3.45429">
        <ele>389.7</ele>
        <time>2017-12-24T08:25:11Z</time>
      </trkpt>
      <trkpt lat="43.71693" lon="3.45424">
        <ele>388.9</ele>
        <time>2017-12-24T08:25:12Z</time>
      </trkpt>
      <trkpt lat="43.71694" lon="3.45418">
        <ele>388.2</ele>
        <time>2017-12-24T08:25:14Z</time>
      </trkpt>
      <trkpt lat="43.71691" lon="3.45417">
        <ele>387.1</ele>
        <time>2017-12-24T08:25:16Z</time>
      </trkpt>
      <trkpt lat="43.71688" lon="3.45418">
        <ele>386.1</ele>
        <time>2017-12-24T08:25:17Z</time>
      </trkpt>
      <trkpt lat="43.71684" lon="3.45421">
        <ele>384.5</ele>
        <time>2017-12-24T08:25:18Z</time>
      </trkpt>
      <trkpt lat="43.71681" lon="3.45423">
        <ele>383.3</ele>
        <time>2017-12-24T08:25:19Z</time>
      </trkpt>
      <trkpt lat="43.71677" lon="3.45424">
        <ele>382.3</ele>
        <time>2017-12-24T08:25:20Z</time>
      </trkpt>
      <trkpt lat="43.71674" lon="3.45425">
        <ele>381.3</ele>
        <time>2017-12-24T08:25:21Z</time>
      </trkpt>
      <trkpt lat="43.71671" lon="3.45423">
        <ele>380.4</ele>
        <time>2017-12-24T08:25:23Z</time>
      </trkpt>
      <trkpt lat="43.71668" lon="3.4542">
        <ele>379.6</ele>
        <time>2017-12-24T08:25:25Z</time>
      </trkpt>
      <trkpt lat="43.71666" lon="3.45416">
        <ele>378.5</ele>
        <time>2017-12-24T08:25:29Z</time>
      </trkpt>
      <trkpt lat="43.71667" lon="3.45411">
        <ele>376.5</ele>
        <time>2017-12-24T08:25:32Z</time>
      </trkpt>
      <trkpt lat="43.71669" lon="3.45404">
        <ele>374.3</ele>
        <time>2017-12-24T08:25:34Z</time>
      </trkpt>
      <trkpt lat="43.71672" lon="3.454">
        <ele>373.8</ele>
        <time>2017-12-24T08:25:35Z</time>
      </trkpt>
      <trkpt lat="43.71675" lon="3.45395">
        <ele>373.5</ele>
        <time>2017-12-24T08:25:36Z</time>
      </trkpt>
      <trkpt lat="43.71677" lon="3.45393">
        <ele>374</ele>
        <time>2017-12-24T08:25:38Z</time>
      </trkpt>
      <trkpt lat="43.71681" lon="3.4539">
        <ele>374.1</ele>
        <time>2017-12-24T08:25:41Z</time>
      </trkpt>
      <trkpt lat="43.71682" lon="3.45386">
        <ele>375</ele>
        <time>2017-12-24T08:25:43Z</time>
      </trkpt>
      <trkpt lat="43.71683" lon="3.45381">
        <ele>376.2</ele>
        <time>2017-12-24T08:25:44Z</time>
      </trkpt>
      <trkpt lat="43.71684" lon="3.45375">
        <ele>376.5</ele>
        <time>2017-12-24T08:25:46Z</time>
      </trkpt>
      <trkpt lat="43.71683" lon="3.45371">
        <ele>376.5</ele>
        <time>2017-12-24T08:25:48Z</time>
      </trkpt>
      <trkpt lat="43.71685" lon="3.45369">
        <ele>376.4</ele>
        <time>2017-12-24T08:25:55Z</time>
      </trkpt>
      <trkpt lat="43.71686" lon="3.45365">
        <ele>376.1</ele>
        <time>2017-12-24T08:26:03Z</time>
      </trkpt>
      <trkpt lat="43.71687" lon="3.45362">
        <ele>375.5</ele>
        <time>2017-12-24T08:26:07Z</time>
      </trkpt>
      <trkpt lat="43.7169" lon="3.4536">
        <ele>374.7</ele>
        <time>2017-12-24T08:26:28Z</time>
      </trkpt>
      <trkpt lat="43.71691" lon="3.45357">
        <ele>374</ele>
        <time>2017-12-24T08:27:08Z</time>
      </trkpt>
      <trkpt lat="43.71689" lon="3.45353">
        <ele>373</ele>
        <time>2017-12-24T08:28:33Z</time>
      </trkpt>
      <trkpt lat="43.71684" lon="3.45352">
        <ele>371.7</ele>
        <time>2017-12-24T08:29:05Z</time>
      </trkpt>
      <trkpt lat="43.7168" lon="3.45348">
        <ele>370</ele>
        <time>2017-12-24T08:29:07Z</time>
      </trkpt>
      <trkpt lat="43.71677" lon="3.45343">
        <ele>368.6</ele>
        <time>2017-12-24T08:29:09Z</time>
      </trkpt>
      <trkpt lat="43.71675" lon="3.4534">
        <ele>367.7</ele>
        <time>2017-12-24T08:29:11Z</time>
      </trkpt>
      <trkpt lat="43.71672" lon="3.45339">
        <ele>366.6</ele>
        <time>2017-12-24T08:29:13Z</time>
      </trkpt>
      <trkpt lat="43.71667" lon="3.45339">
        <ele>365.3</ele>
        <time>2017-12-24T08:29:15Z</time>
      </trkpt>
      <trkpt lat="43.71667" lon="3.4533">
        <ele>362.6</ele>
        <time>2017-12-24T08:29:17Z</time>
      </trkpt>
      <trkpt lat="43.71667" lon="3.45327">
        <ele>361.3</ele>
        <time>2017-12-24T08:29:18Z</time>
      </trkpt>
      <trkpt lat="43.71667" lon="3.45321">
        <ele>360.2</ele>
        <time>2017-12-24T08:29:19Z</time>
      </trkpt>
      <trkpt lat="43.71667" lon="3.45316">
        <ele>359.6</ele>
        <time>2017-12-24T08:29:20Z</time>
      </trkpt>
      <trkpt lat="43.71666" lon="3.45312">
        <ele>359.1</ele>
        <time>2017-12-24T08:29:21Z</time>
      </trkpt>
      <trkpt lat="43.71664" lon="3.45308">
        <ele>358.7</ele>
        <time>2017-12-24T08:29:22Z</time>
      </trkpt>
      <trkpt lat="43.71662" lon="3.45305">
        <ele>358.2</ele>
        <time>2017-12-24T08:29:23Z</time>
      </trkpt>
      <trkpt lat="43.7166" lon="3.45301">
        <ele>357.7</ele>
        <time>2017-12-24T08:29:24Z</time>
      </trkpt>
      <trkpt lat="43.71659" lon="3.45297">
        <ele>356.8</ele>
        <time>2017-12-24T08:29:25Z</time>
      </trkpt>
      <trkpt lat="43.7166" lon="3.45292">
        <ele>355.7</ele>
        <time>2017-12-24T08:29:26Z</time>
      </trkpt>
      <trkpt lat="43.71662" lon="3.45285">
        <ele>354.9</ele>
        <time>2017-12-24T08:29:28Z</time>
      </trkpt>
      <trkpt lat="43.71664" lon="3.45282">
        <ele>354.5</ele>
        <time>2017-12-24T08:29:29Z</time>
      </trkpt>
      <trkpt lat="43.71666" lon="3.45278">
        <ele>354.2</ele>
        <time>2017-12-24T08:29:33Z</time>
      </trkpt>
      <trkpt lat="43.71663" lon="3.45272">
        <ele>353.6</ele>
        <time>2017-12-24T08:29:40Z</time>
      </trkpt>
      <trkpt lat="43.7166" lon="3.45268">
        <ele>353.1</ele>
        <time>2017-12-24T08:29:44Z</time>
      </trkpt>
      <trkpt lat="43.71659" lon="3.45263">
        <ele>352.6</ele>
        <time>2017-12-24T08:29:46Z</time>
      </trkpt>
      <trkpt lat="43.71659" lon="3.45257">
        <ele>352.1</ele>
        <time>2017-12-24T08:29:52Z</time>
      </trkpt>
      <trkpt lat="43.71659" lon="3.45251">
        <ele>351.5</ele>
        <time>2017-12-24T08:29:54Z</time>
      </trkpt>
      <trkpt lat="43.71659" lon="3.45244">
        <ele>351</ele>
        <time>2017-12-24T08:29:55Z</time>
      </trkpt>
      <trkpt lat="43.71659" lon="3.45239">
        <ele>350.3</ele>
        <time>2017-12-24T08:29:56Z</time>
      </trkpt>
      <trkpt lat="43.71657" lon="3.45235">
        <ele>349.1</ele>
        <time>2017-12-24T08:29:57Z</time>
      </trkpt>
      <trkpt lat="43.71655" lon="3.45232">
        <ele>348.3</ele>
        <time>2017-12-24T08:29:59Z</time>
      </trkpt>
      <trkpt lat="43.71652" lon="3.45228">
        <ele>347.4</ele>
        <time>2017-12-24T08:30:01Z</time>
      </trkpt>
      <trkpt lat="43.71653" lon="3.45224">
        <ele>347</ele>
        <time>2017-12-24T08:30:02Z</time>
      </trkpt>
      <trkpt lat="43.71654" lon="3.45219">
        <ele>347.3</ele>
        <time>2017-12-24T08:30:03Z</time>
      </trkpt>
      <trkpt lat="43.71655" lon="3.45215">
        <ele>347.5</ele>
        <time>2017-12-24T08:30:04Z</time>
      </trkpt>
      <trkpt lat="43.71655" lon="3.45208">
        <ele>347.2</ele>
        <time>2017-12-24T08:30:06Z</time>
      </trkpt>
      <trkpt lat="43.71654" lon="3.45201">
        <ele>346.2</ele>
        <time>2017-12-24T08:30:07Z</time>
      </trkpt>
      <trkpt lat="43.71653" lon="3.45195">
        <ele>345.2</ele>
        <time>2017-12-24T08:30:08Z</time>
      </trkpt>
      <trkpt lat="43.71651" lon="3.45189">
        <ele>344.1</ele>
        <time>2017-12-24T08:30:09Z</time>
      </trkpt>
      <trkpt lat="43.71649" lon="3.45183">
        <ele>342.8</ele>
        <time>2017-12-24T08:30:10Z</time>
      </trkpt>
      <trkpt lat="43.71646" lon="3.45178">
        <ele>342.4</ele>
        <time>2017-12-24T08:30:11Z</time>
      </trkpt>
      <trkpt lat="43.71642" lon="3.45175">
        <ele>340.6</ele>
        <time>2017-12-24T08:30:12Z</time>
      </trkpt>
      <trkpt lat="43.71639" lon="3.45171">
        <ele>338.7</ele>
        <time>2017-12-24T08:30:13Z</time>
      </trkpt>
      <trkpt lat="43.71636" lon="3.4517">
        <ele>337.4</ele>
        <time>2017-12-24T08:30:14Z</time>
      </trkpt>
      <trkpt lat="43.71633" lon="3.45171">
        <ele>336.7</ele>
        <time>2017-12-24T08:30:15Z</time>
      </trkpt>
      <trkpt lat="43.71631" lon="3.45174">
        <ele>336.1</ele>
        <time>2017-12-24T08:30:16Z</time>
      </trkpt>
      <trkpt lat="43.71628" lon="3.45177">
        <ele>335.4</ele>
        <time>2017-12-24T08:30:17Z</time>
      </trkpt>
      <trkpt lat="43.71624" lon="3.45175">
        <ele>334</ele>
        <time>2017-12-24T08:30:18Z</time>
      </trkpt>
      <trkpt lat="43.71621" lon="3.45176">
        <ele>332.6</ele>
        <time>2017-12-24T08:30:19Z</time>
      </trkpt>
      <trkpt lat="43.71617" lon="3.45174">
        <ele>331.1</ele>
        <time>2017-12-24T08:30:20Z</time>
      </trkpt>
      <trkpt lat="43.71615" lon="3.4517">
        <ele>330</ele>
        <time>2017-12-24T08:30:21Z</time>
      </trkpt>
      <trkpt lat="43.71611" lon="3.45164">
        <ele>328.6</ele>
        <time>2017-12-24T08:30:22Z</time>
      </trkpt>
      <trkpt lat="43.71606" lon="3.45162">
        <ele>327.3</ele>
        <time>2017-12-24T08:30:23Z</time>
      </trkpt>
      <trkpt lat="43.71601" lon="3.45162">
        <ele>326.2</ele>
        <time>2017-12-24T08:30:24Z</time>
      </trkpt>
      <trkpt lat="43.71598" lon="3.45165">
        <ele>325.2</ele>
        <time>2017-12-24T08:30:25Z</time>
      </trkpt>
      <trkpt lat="43.71594" lon="3.4517">
        <ele>324.2</ele>
        <time>2017-12-24T08:30:26Z</time>
      </trkpt>
      <trkpt lat="43.7159" lon="3.45173">
        <ele>323.1</ele>
        <time>2017-12-24T08:30:27Z</time>
      </trkpt>
      <trkpt lat="43.71586" lon="3.45172">
        <ele>322</ele>
        <time>2017-12-24T08:30:28Z</time>
      </trkpt>
      <trkpt lat="43.71584" lon="3.4517">
        <ele>321.4</ele>
        <time>2017-12-24T08:30:29Z</time>
      </trkpt>
      <trkpt lat="43.71582" lon="3.45166">
        <ele>320.5</ele>
        <time>2017-12-24T08:30:30Z</time>
      </trkpt>
      <trkpt lat="43.7158" lon="3.4516">
        <ele>319.6</ele>
        <time>2017-12-24T08:30:31Z</time>
      </trkpt>
      <trkpt lat="43.71578" lon="3.45153">
        <ele>319.2</ele>
        <time>2017-12-24T08:30:32Z</time>
      </trkpt>
      <trkpt lat="43.71577" lon="3.45147">
        <ele>318</ele>
        <time>2017-12-24T08:30:33Z</time>
      </trkpt>
      <trkpt lat="43.71574" lon="3.45142">
        <ele>317.1</ele>
        <time>2017-12-24T08:30:34Z</time>
      </trkpt>
      <trkpt lat="43.71572" lon="3.45137">
        <ele>316.2</ele>
        <time>2017-12-24T08:30:35Z</time>
      </trkpt>
      <trkpt lat="43.7157" lon="3.45133">
        <ele>315.2</ele>
        <time>2017-12-24T08:30:36Z</time>
      </trkpt>
      <trkpt lat="43.71567" lon="3.45131">
        <ele>314.4</ele>
        <time>2017-12-24T08:30:37Z</time>
      </trkpt>
      <trkpt lat="43.71565" lon="3.45127">
        <ele>313.9</ele>
        <time>2017-12-24T08:30:38Z</time>
      </trkpt>
      <trkpt lat="43.71563" lon="3.45122">
        <ele>313.3</ele>
        <time>2017-12-24T08:30:39Z</time>
      </trkpt>
      <trkpt lat="43.71561" lon="3.45117">
        <ele>312.4</ele>
        <time>2017-12-24T08:30:40Z</time>
      </trkpt>
      <trkpt lat="43.71558" lon="3.45111">
        <ele>311</ele>
        <time>2017-12-24T08:30:41Z</time>
      </trkpt>
      <trkpt lat="43.71557" lon="3.45106">
        <ele>309.4</ele>
        <time>2017-12-24T08:30:42Z</time>
      </trkpt>
      <trkpt lat="43.71557" lon="3.45099">
        <ele>309.2</ele>
        <time>2017-12-24T08:30:43Z</time>
      </trkpt>
      <trkpt lat="43.71558" lon="3.45094">
        <ele>308.9</ele>
        <time>2017-12-24T08:30:44Z</time>
      </trkpt>
      <trkpt lat="43.7156" lon="3.45091">
        <ele>308.3</ele>
        <time>2017-12-24T08:30:45Z</time>
      </trkpt>
      <trkpt lat="43.71562" lon="3.45088">
        <ele>308.3</ele>
        <time>2017-12-24T08:30:46Z</time>
      </trkpt>
      <trkpt lat="43.71564" lon="3.45084">
        <ele>308.4</ele>
        <time>2017-12-24T08:30:47Z</time>
      </trkpt>
      <trkpt lat="43.71564" lon="3.45079">
        <ele>308.5</ele>
        <time>2017-12-24T08:30:48Z</time>
      </trkpt>
      <trkpt lat="43.71564" lon="3.45072">
        <ele>307.6</ele>
        <time>2017-12-24T08:30:49Z</time>
      </trkpt>
      <trkpt lat="43.71564" lon="3.45065">
        <ele>307</ele>
        <time>2017-12-24T08:30:50Z</time>
      </trkpt>
      <trkpt lat="43.71565" lon="3.45059">
        <ele>306.9</ele>
        <time>2017-12-24T08:30:51Z</time>
      </trkpt>
      <trkpt lat="43.71566" lon="3.45053">
        <ele>306.3</ele>
        <time>2017-12-24T08:30:52Z</time>
      </trkpt>
      <trkpt lat="43.71568" lon="3.45046">
        <ele>306</ele>
        <time>2017-12-24T08:30:53Z</time>
      </trkpt>
      <trkpt lat="43.71569" lon="3.45039">
        <ele>305.7</ele>
        <time>2017-12-24T08:30:54Z</time>
      </trkpt>
      <trkpt lat="43.71571" lon="3.45032">
        <ele>305.3</ele>
        <time>2017-12-24T08:30:55Z</time>
      </trkpt>
      <trkpt lat="43.71574" lon="3.45025">
        <ele>305.2</ele>
        <time>2017-12-24T08:30:56Z</time>
      </trkpt>
      <trkpt lat="43.71577" lon="3.45016">
        <ele>305.3</ele>
        <time>2017-12-24T08:30:57Z</time>
      </trkpt>
      <trkpt lat="43.71581" lon="3.45005">
        <ele>305.6</ele>
        <time>2017-12-24T08:30:58Z</time>
      </trkpt>
      <trkpt lat="43.71585" lon="3.44995">
        <ele>307</ele>
        <time>2017-12-24T08:30:59Z</time>
      </trkpt>
      <trkpt lat="43.71587" lon="3.4499">
        <ele>307.2</ele>
        <time>2017-12-24T08:31:00Z</time>
      </trkpt>
      <trkpt lat="43.71587" lon="3.44985">
        <ele>307.1</ele>
        <time>2017-12-24T08:31:04Z</time>
      </trkpt>
      <trkpt lat="43.71587" lon="3.4498">
        <ele>306.7</ele>
        <time>2017-12-24T08:31:06Z</time>
      </trkpt>
      <trkpt lat="43.71587" lon="3.44977">
        <ele>306.5</ele>
        <time>2017-12-24T08:31:07Z</time>
      </trkpt>
      <trkpt lat="43.71585" lon="3.4497">
        <ele>305.6</ele>
        <time>2017-12-24T08:31:09Z</time>
      </trkpt>
      <trkpt lat="43.71584" lon="3.44963">
        <ele>303.8</ele>
        <time>2017-12-24T08:31:11Z</time>
      </trkpt>
      <trkpt lat="43.71584" lon="3.44956">
        <ele>303.2</ele>
        <time>2017-12-24T08:31:13Z</time>
      </trkpt>
      <trkpt lat="43.71585" lon="3.44952">
        <ele>302.9</ele>
        <time>2017-12-24T08:31:17Z</time>
      </trkpt>
      <trkpt lat="43.71585" lon="3.44948">
        <ele>302.6</ele>
        <time>2017-12-24T08:32:23Z</time>
      </trkpt>
      <trkpt lat="43.71587" lon="3.44945">
        <ele>302.3</ele>
        <time>2017-12-24T08:32:44Z</time>
      </trkpt>
      <trkpt lat="43.71587" lon="3.44939">
        <ele>301.8</ele>
        <time>2017-12-24T08:32:46Z</time>
      </trkpt>
      <trkpt lat="43.71588" lon="3.44933">
        <ele>301.2</ele>
        <time>2017-12-24T08:32:48Z</time>
      </trkpt>
      <trkpt lat="43.71589" lon="3.44929">
        <ele>300.9</ele>
        <time>2017-12-24T08:32:49Z</time>
      </trkpt>
      <trkpt lat="43.71589" lon="3.44923">
        <ele>300.8</ele>
        <time>2017-12-24T08:32:50Z</time>
      </trkpt>
      <trkpt lat="43.7159" lon="3.44918">
        <ele>300.6</ele>
        <time>2017-12-24T08:32:51Z</time>
      </trkpt>
      <trkpt lat="43.71591" lon="3.44912">
        <ele>300</ele>
        <time>2017-12-24T08:32:52Z</time>
      </trkpt>
      <trkpt lat="43.71591" lon="3.44905">
        <ele>299.6</ele>
        <time>2017-12-24T08:32:53Z</time>
      </trkpt>
      <trkpt lat="43.71592" lon="3.44899">
        <ele>299.3</ele>
        <time>2017-12-24T08:32:54Z</time>
      </trkpt>
      <trkpt lat="43.71593" lon="3.44891">
        <ele>298.7</ele>
        <time>2017-12-24T08:32:55Z</time>
      </trkpt>
      <trkpt lat="43.71593" lon="3.44884">
        <ele>298</ele>
        <time>2017-12-24T08:32:56Z</time>
      </trkpt>
      <trkpt lat="43.71593" lon="3.44877">
        <ele>297.6</ele>
        <time>2017-12-24T08:32:57Z</time>
      </trkpt>
      <trkpt lat="43.71594" lon="3.4487">
        <ele>297.1</ele>
        <time>2017-12-24T08:32:58Z</time>
      </trkpt>
      <trkpt lat="43.71595" lon="3.44864">
        <ele>296.5</ele>
        <time>2017-12-24T08:32:59Z</time>
      </trkpt>
      <trkpt lat="43.71596" lon="3.44857">
        <ele>296.3</ele>
        <time>2017-12-24T08:33:00Z</time>
      </trkpt>
      <trkpt lat="43.71598" lon="3.44849">
        <ele>295.9</ele>
        <time>2017-12-24T08:33:01Z</time>
      </trkpt>
      <trkpt lat="43.71599" lon="3.44842">
        <ele>295.4</ele>
        <time>2017-12-24T08:33:02Z</time>
      </trkpt>
      <trkpt lat="43.71599" lon="3.44834">
        <ele>294.7</ele>
        <time>2017-12-24T08:33:03Z</time>
      </trkpt>
      <trkpt lat="43.71599" lon="3.44827">
        <ele>294</ele>
        <time>2017-12-24T08:33:04Z</time>
      </trkpt>
      <trkpt lat="43.71599" lon="3.44818">
        <ele>293.4</ele>
        <time>2017-12-24T08:33:05Z</time>
      </trkpt>
      <trkpt lat="43.71598" lon="3.44809">
        <ele>293</ele>
        <time>2017-12-24T08:33:06Z</time>
      </trkpt>
      <trkpt lat="43.71597" lon="3.44803">
        <ele>292.5</ele>
        <time>2017-12-24T08:33:07Z</time>
      </trkpt>
      <trkpt lat="43.71596" lon="3.44796">
        <ele>291.9</ele>
        <time>2017-12-24T08:33:08Z</time>
      </trkpt>
      <trkpt lat="43.71596" lon="3.44786">
        <ele>291.1</ele>
        <time>2017-12-24T08:33:09Z</time>
      </trkpt>
      <trkpt lat="43.71596" lon="3.44779">
        <ele>290.6</ele>
        <time>2017-12-24T08:33:10Z</time>
      </trkpt>
      <trkpt lat="43.71596" lon="3.44772">
        <ele>290.1</ele>
        <time>2017-12-24T08:33:11Z</time>
      </trkpt>
      <trkpt lat="43.71596" lon="3.44765">
        <ele>289.7</ele>
        <time>2017-12-24T08:33:12Z</time>
      </trkpt>
      <trkpt lat="43.71596" lon="3.4476">
        <ele>289.4</ele>
        <time>2017-12-24T08:33:13Z</time>
      </trkpt>
      <trkpt lat="43.71596" lon="3.44756">
        <ele>289.2</ele>
        <time>2017-12-24T08:33:14Z</time>
      </trkpt>
      <trkpt lat="43.71597" lon="3.44751">
        <ele>288.9</ele>
        <time>2017-12-24T08:33:15Z</time>
      </trkpt>
      <trkpt lat="43.71597" lon="3.44746">
        <ele>288.5</ele>
        <time>2017-12-24T08:33:16Z</time>
      </trkpt>
      <trkpt lat="43.71598" lon="3.4474">
        <ele>288.3</ele>
        <time>2017-12-24T08:33:17Z</time>
      </trkpt>
      <trkpt lat="43.71599" lon="3.44734">
        <ele>288.5</ele>
        <time>2017-12-24T08:33:18Z</time>
      </trkpt>
      <trkpt lat="43.716" lon="3.44727">
        <ele>288.2</ele>
        <time>2017-12-24T08:33:19Z</time>
      </trkpt>
      <trkpt lat="43.71602" lon="3.44716">
        <ele>287.7</ele>
        <time>2017-12-24T08:33:20Z</time>
      </trkpt>
      <trkpt lat="43.71603" lon="3.44707">
        <ele>287.3</ele>
        <time>2017-12-24T08:33:21Z</time>
      </trkpt>
      <trkpt lat="43.71604" lon="3.447">
        <ele>287.2</ele>
        <time>2017-12-24T08:33:22Z</time>
      </trkpt>
      <trkpt lat="43.71605" lon="3.44692">
        <ele>287.2</ele>
        <time>2017-12-24T08:33:23Z</time>
      </trkpt>
      <trkpt lat="43.71607" lon="3.44684">
        <ele>286.9</ele>
        <time>2017-12-24T08:33:24Z</time>
      </trkpt>
      <trkpt lat="43.7161" lon="3.44675">
        <ele>286.5</ele>
        <time>2017-12-24T08:33:25Z</time>
      </trkpt>
      <trkpt lat="43.71612" lon="3.44668">
        <ele>286.3</ele>
        <time>2017-12-24T08:33:26Z</time>
      </trkpt>
      <trkpt lat="43.71615" lon="3.4466">
        <ele>286.6</ele>
        <time>2017-12-24T08:33:27Z</time>
      </trkpt>
      <trkpt lat="43.71619" lon="3.44654">
        <ele>287.6</ele>
        <time>2017-12-24T08:33:28Z</time>
      </trkpt>
      <trkpt lat="43.71623" lon="3.44648">
        <ele>287.7</ele>
        <time>2017-12-24T08:33:29Z</time>
      </trkpt>
      <trkpt lat="43.71627" lon="3.44642">
        <ele>288</ele>
        <time>2017-12-24T08:33:30Z</time>
      </trkpt>
      <trkpt lat="43.71631" lon="3.44636">
        <ele>288.5</ele>
        <time>2017-12-24T08:33:31Z</time>
      </trkpt>
      <trkpt lat="43.71635" lon="3.4463">
        <ele>289</ele>
        <time>2017-12-24T08:33:32Z</time>
      </trkpt>
      <trkpt lat="43.71639" lon="3.44621">
        <ele>289</ele>
        <time>2017-12-24T08:33:33Z</time>
      </trkpt>
      <trkpt lat="43.71641" lon="3.44612">
        <ele>288.9</ele>
        <time>2017-12-24T08:33:34Z</time>
      </trkpt>
      <trkpt lat="43.71645" lon="3.44605">
        <ele>288.9</ele>
        <time>2017-12-24T08:33:35Z</time>
      </trkpt>
      <trkpt lat="43.71647" lon="3.44598">
        <ele>288.9</ele>
        <time>2017-12-24T08:33:36Z</time>
      </trkpt>
      <trkpt lat="43.7165" lon="3.44589">
        <ele>288.5</ele>
        <time>2017-12-24T08:33:37Z</time>
      </trkpt>
      <trkpt lat="43.71652" lon="3.4458">
        <ele>287.7</ele>
        <time>2017-12-24T08:33:38Z</time>
      </trkpt>
      <trkpt lat="43.71653" lon="3.44572">
        <ele>286.9</ele>
        <time>2017-12-24T08:33:39Z</time>
      </trkpt>
      <trkpt lat="43.71652" lon="3.44563">
        <ele>286</ele>
        <time>2017-12-24T08:33:40Z</time>
      </trkpt>
      <trkpt lat="43.71651" lon="3.44554">
        <ele>284</ele>
        <time>2017-12-24T08:33:41Z</time>
      </trkpt>
      <trkpt lat="43.71649" lon="3.44544">
        <ele>283.2</ele>
        <time>2017-12-24T08:33:42Z</time>
      </trkpt>
      <trkpt lat="43.71647" lon="3.44534">
        <ele>281.9</ele>
        <time>2017-12-24T08:33:43Z</time>
      </trkpt>
      <trkpt lat="43.71646" lon="3.44526">
        <ele>280.7</ele>
        <time>2017-12-24T08:33:44Z</time>
      </trkpt>
      <trkpt lat="43.71645" lon="3.44519">
        <ele>279.5</ele>
        <time>2017-12-24T08:33:45Z</time>
      </trkpt>
      <trkpt lat="43.71645" lon="3.44512">
        <ele>278.3</ele>
        <time>2017-12-24T08:33:46Z</time>
      </trkpt>
      <trkpt lat="43.71644" lon="3.44505">
        <ele>276.8</ele>
        <time>2017-12-24T08:33:47Z</time>
      </trkpt>
      <trkpt lat="43.71642" lon="3.44496">
        <ele>275.1</ele>
        <time>2017-12-24T08:33:48Z</time>
      </trkpt>
      <trkpt lat="43.71643" lon="3.44489">
        <ele>275.1</ele>
        <time>2017-12-24T08:33:49Z</time>
      </trkpt>
      <trkpt lat="43.71646" lon="3.44484">
        <ele>276.7</ele>
        <time>2017-12-24T08:33:50Z</time>
      </trkpt>
      <trkpt lat="43.7165" lon="3.44481">
        <ele>278.3</ele>
        <time>2017-12-24T08:33:51Z</time>
      </trkpt>
      <trkpt lat="43.71654" lon="3.44478">
        <ele>279.7</ele>
        <time>2017-12-24T08:33:52Z</time>
      </trkpt>
      <trkpt lat="43.71656" lon="3.44476">
        <ele>280.9</ele>
        <time>2017-12-24T08:33:53Z</time>
      </trkpt>
      <trkpt lat="43.71659" lon="3.44473">
        <ele>281.8</ele>
        <time>2017-12-24T08:33:54Z</time>
      </trkpt>
      <trkpt lat="43.71661" lon="3.4447">
        <ele>282.4</ele>
        <time>2017-12-24T08:33:55Z</time>
      </trkpt>
      <trkpt lat="43.71664" lon="3.44468">
        <ele>283</ele>
        <time>2017-12-24T08:33:56Z</time>
      </trkpt>
      <trkpt lat="43.71666" lon="3.44465">
        <ele>283.6</ele>
        <time>2017-12-24T08:33:57Z</time>
      </trkpt>
      <trkpt lat="43.71669" lon="3.44462">
        <ele>284.3</ele>
        <time>2017-12-24T08:33:58Z</time>
      </trkpt>
      <trkpt lat="43.71671" lon="3.44457">
        <ele>285.2</ele>
        <time>2017-12-24T08:33:59Z</time>
      </trkpt>
      <trkpt lat="43.71674" lon="3.44451">
        <ele>286.1</ele>
        <time>2017-12-24T08:34:00Z</time>
      </trkpt>
      <trkpt lat="43.71677" lon="3.44445">
        <ele>287</ele>
        <time>2017-12-24T08:34:01Z</time>
      </trkpt>
      <trkpt lat="43.71679" lon="3.4444">
        <ele>287.8</ele>
        <time>2017-12-24T08:34:02Z</time>
      </trkpt>
      <trkpt lat="43.71681" lon="3.44436">
        <ele>288.4</ele>
        <time>2017-12-24T08:34:03Z</time>
      </trkpt>
      <trkpt lat="43.71684" lon="3.44432">
        <ele>289.2</ele>
        <time>2017-12-24T08:34:05Z</time>
      </trkpt>
      <trkpt lat="43.71686" lon="3.44428">
        <ele>290.1</ele>
        <time>2017-12-24T08:34:07Z</time>
      </trkpt>
      <trkpt lat="43.71689" lon="3.44425">
        <ele>290.2</ele>
        <time>2017-12-24T08:34:09Z</time>
      </trkpt>
      <trkpt lat="43.71693" lon="3.44422">
        <ele>290.3</ele>
        <time>2017-12-24T08:34:11Z</time>
      </trkpt>
      <trkpt lat="43.71696" lon="3.4442">
        <ele>290.4</ele>
        <time>2017-12-24T08:34:13Z</time>
      </trkpt>
      <trkpt lat="43.717" lon="3.44418">
        <ele>290.4</ele>
        <time>2017-12-24T08:34:15Z</time>
      </trkpt>
      <trkpt lat="43.71703" lon="3.44415">
        <ele>290.6</ele>
        <time>2017-12-24T08:34:17Z</time>
      </trkpt>
      <trkpt lat="43.71707" lon="3.44413">
        <ele>290.7</ele>
        <time>2017-12-24T08:34:19Z</time>
      </trkpt>
      <trkpt lat="43.71711" lon="3.44409">
        <ele>290.9</ele>
        <time>2017-12-24T08:34:21Z</time>
      </trkpt>
      <trkpt lat="43.71714" lon="3.44407">
        <ele>291.2</ele>
        <time>2017-12-24T08:34:23Z</time>
      </trkpt>
      <trkpt lat="43.71717" lon="3.44404">
        <ele>291.3</ele>
        <time>2017-12-24T08:34:25Z</time>
      </trkpt>
      <trkpt lat="43.7172" lon="3.44401">
        <ele>291.4</ele>
        <time>2017-12-24T08:34:27Z</time>
      </trkpt>
      <trkpt lat="43.71723" lon="3.44398">
        <ele>291.5</ele>
        <time>2017-12-24T08:34:29Z</time>
      </trkpt>
      <trkpt lat="43.71726" lon="3.44395">
        <ele>291.5</ele>
        <time>2017-12-24T08:34:31Z</time>
      </trkpt>
      <trkpt lat="43.71728" lon="3.44391">
        <ele>291.6</ele>
        <time>2017-12-24T08:34:33Z</time>
      </trkpt>
      <trkpt lat="43.71732" lon="3.44389">
        <ele>291.7</ele>
        <time>2017-12-24T08:34:35Z</time>
      </trkpt>
      <trkpt lat="43.71735" lon="3.44386">
        <ele>291.8</ele>
        <time>2017-12-24T08:34:37Z</time>
      </trkpt>
      <trkpt lat="43.71738" lon="3.44384">
        <ele>291.9</ele>
        <time>2017-12-24T08:34:39Z</time>
      </trkpt>
      <trkpt lat="43.71742" lon="3.44382">
        <ele>292</ele>
        <time>2017-12-24T08:34:41Z</time>
      </trkpt>
      <trkpt lat="43.71746" lon="3.44381">
        <ele>292.3</ele>
        <time>2017-12-24T08:34:43Z</time>
      </trkpt>
      <trkpt lat="43.7175" lon="3.4438">
        <ele>292.5</ele>
        <time>2017-12-24T08:34:45Z</time>
      </trkpt>
      <trkpt lat="43.71755" lon="3.44379">
        <ele>292.7</ele>
        <time>2017-12-24T08:34:47Z</time>
      </trkpt>
      <trkpt lat="43.7176" lon="3.44377">
        <ele>292.8</ele>
        <time>2017-12-24T08:34:49Z</time>
      </trkpt>
      <trkpt lat="43.71764" lon="3.44375">
        <ele>292.9</ele>
        <time>2017-12-24T08:34:51Z</time>
      </trkpt>
      <trkpt lat="43.71767" lon="3.44373">
        <ele>293</ele>
        <time>2017-12-24T08:34:53Z</time>
      </trkpt>
      <trkpt lat="43.7177" lon="3.44369">
        <ele>293.1</ele>
        <time>2017-12-24T08:35:40Z</time>
      </trkpt>
      <trkpt lat="43.71772" lon="3.44362">
        <ele>293.1</ele>
        <time>2017-12-24T08:35:42Z</time>
      </trkpt>
      <trkpt lat="43.71773" lon="3.44357">
        <ele>293.2</ele>
        <time>2017-12-24T08:35:43Z</time>
      </trkpt>
      <trkpt lat="43.71774" lon="3.44351">
        <ele>293.3</ele>
        <time>2017-12-24T08:35:44Z</time>
      </trkpt>
      <trkpt lat="43.71774" lon="3.44345">
        <ele>293.3</ele>
        <time>2017-12-24T08:35:45Z</time>
      </trkpt>
      <trkpt lat="43.71772" lon="3.4434">
        <ele>290.6</ele>
        <time>2017-12-24T08:35:46Z</time>
      </trkpt>
      <trkpt lat="43.7177" lon="3.44334">
        <ele>286.9</ele>
        <time>2017-12-24T08:35:47Z</time>
      </trkpt>
      <trkpt lat="43.71767" lon="3.44328">
        <ele>284.2</ele>
        <time>2017-12-24T08:35:48Z</time>
      </trkpt>
      <trkpt lat="43.71764" lon="3.44323">
        <ele>280.6</ele>
        <time>2017-12-24T08:35:49Z</time>
      </trkpt>
      <trkpt lat="43.71762" lon="3.44319">
        <ele>279.3</ele>
        <time>2017-12-24T08:35:50Z</time>
      </trkpt>
      <trkpt lat="43.71763" lon="3.44314">
        <ele>277.1</ele>
        <time>2017-12-24T08:35:51Z</time>
      </trkpt>
      <trkpt lat="43.71762" lon="3.4431">
        <ele>274.9</ele>
        <time>2017-12-24T08:35:52Z</time>
      </trkpt>
      <trkpt lat="43.7176" lon="3.44305">
        <ele>271.2</ele>
        <time>2017-12-24T08:35:53Z</time>
      </trkpt>
      <trkpt lat="43.71759" lon="3.44299">
        <ele>269</ele>
        <time>2017-12-24T08:35:54Z</time>
      </trkpt>
      <trkpt lat="43.71758" lon="3.44292">
        <ele>265.3</ele>
        <time>2017-12-24T08:35:55Z</time>
      </trkpt>
      <trkpt lat="43.71757" lon="3.44287">
        <ele>263.1</ele>
        <time>2017-12-24T08:35:56Z</time>
      </trkpt>
      <trkpt lat="43.71757" lon="3.44283">
        <ele>260.9</ele>
        <time>2017-12-24T08:35:57Z</time>
      </trkpt>
      <trkpt lat="43.71755" lon="3.44276">
        <ele>258.7</ele>
        <time>2017-12-24T08:35:59Z</time>
      </trkpt>
      <trkpt lat="43.71754" lon="3.4427">
        <ele>258.3</ele>
        <time>2017-12-24T08:36:00Z</time>
      </trkpt>
      <trkpt lat="43.71753" lon="3.44265">
        <ele>257.9</ele>
        <time>2017-12-24T08:36:01Z</time>
      </trkpt>
      <trkpt lat="43.71752" lon="3.4426">
        <ele>257.2</ele>
        <time>2017-12-24T08:36:02Z</time>
      </trkpt>
      <trkpt lat="43.7175" lon="3.44253">
        <ele>256.1</ele>
        <time>2017-12-24T08:36:03Z</time>
      </trkpt>
      <trkpt lat="43.71748" lon="3.44248">
        <ele>255.5</ele>
        <time>2017-12-24T08:36:04Z</time>
      </trkpt>
      <trkpt lat="43.71747" lon="3.44243">
        <ele>255.1</ele>
        <time>2017-12-24T08:36:05Z</time>
      </trkpt>
      <trkpt lat="43.71746" lon="3.44237">
        <ele>254.6</ele>
        <time>2017-12-24T08:36:06Z</time>
      </trkpt>
      <trkpt lat="43.71743" lon="3.44232">
        <ele>254.1</ele>
        <time>2017-12-24T08:36:07Z</time>
      </trkpt>
      <trkpt lat="43.71741" lon="3.44229">
        <ele>253.7</ele>
        <time>2017-12-24T08:36:08Z</time>
      </trkpt>
      <trkpt lat="43.71738" lon="3.44229">
        <ele>253.4</ele>
        <time>2017-12-24T08:36:09Z</time>
      </trkpt>
      <trkpt lat="43.71735" lon="3.44228">
        <ele>253.2</ele>
        <time>2017-12-24T08:36:10Z</time>
      </trkpt>
      <trkpt lat="43.71733" lon="3.44227">
        <ele>253.1</ele>
        <time>2017-12-24T08:36:11Z</time>
      </trkpt>
      <trkpt lat="43.71732" lon="3.44222">
        <ele>252.9</ele>
        <time>2017-12-24T08:36:14Z</time>
      </trkpt>
      <trkpt lat="43.71731" lon="3.44216">
        <ele>252.5</ele>
        <time>2017-12-24T08:36:15Z</time>
      </trkpt>
      <trkpt lat="43.7173" lon="3.4421">
        <ele>248.8</ele>
        <time>2017-12-24T08:36:16Z</time>
      </trkpt>
      <trkpt lat="43.7173" lon="3.44204">
        <ele>246.4</ele>
        <time>2017-12-24T08:36:17Z</time>
      </trkpt>
      <trkpt lat="43.71729" lon="3.44198">
        <ele>246.3</ele>
        <time>2017-12-24T08:36:18Z</time>
      </trkpt>
      <trkpt lat="43.71727" lon="3.44192">
        <ele>246.1</ele>
        <time>2017-12-24T08:36:19Z</time>
      </trkpt>
      <trkpt lat="43.71726" lon="3.44187">
        <ele>246</ele>
        <time>2017-12-24T08:36:20Z</time>
      </trkpt>
      <trkpt lat="43.71724" lon="3.44182">
        <ele>245.9</ele>
        <time>2017-12-24T08:36:21Z</time>
      </trkpt>
      <trkpt lat="43.71723" lon="3.44178">
        <ele>245.9</ele>
        <time>2017-12-24T08:36:22Z</time>
      </trkpt>
      <trkpt lat="43.71721" lon="3.44172">
        <ele>244.1</ele>
        <time>2017-12-24T08:36:23Z</time>
      </trkpt>
      <trkpt lat="43.7172" lon="3.44167">
        <ele>242.8</ele>
        <time>2017-12-24T08:36:24Z</time>
      </trkpt>
      <trkpt lat="43.7172" lon="3.4416">
        <ele>242.5</ele>
        <time>2017-12-24T08:36:26Z</time>
      </trkpt>
      <trkpt lat="43.7172" lon="3.44156">
        <ele>242.3</ele>
        <time>2017-12-24T08:36:27Z</time>
      </trkpt>
      <trkpt lat="43.7172" lon="3.44151">
        <ele>242.1</ele>
        <time>2017-12-24T08:36:28Z</time>
      </trkpt>
      <trkpt lat="43.7172" lon="3.44148">
        <ele>242</ele>
        <time>2017-12-24T08:36:29Z</time>
      </trkpt>
      <trkpt lat="43.7172" lon="3.44142">
        <ele>241.8</ele>
        <time>2017-12-24T08:36:30Z</time>
      </trkpt>
      <trkpt lat="43.71719" lon="3.44137">
        <ele>241.5</ele>
        <time>2017-12-24T08:36:31Z</time>
      </trkpt>
      <trkpt lat="43.71719" lon="3.44133">
        <ele>241.3</ele>
        <time>2017-12-24T08:36:32Z</time>
      </trkpt>
      <trkpt lat="43.71719" lon="3.44128">
        <ele>239.9</ele>
        <time>2017-12-24T08:36:33Z</time>
      </trkpt>
      <trkpt lat="43.71718" lon="3.44123">
        <ele>238.5</ele>
        <time>2017-12-24T08:36:35Z</time>
      </trkpt>
      <trkpt lat="43.71718" lon="3.44116">
        <ele>238.3</ele>
        <time>2017-12-24T08:36:37Z</time>
      </trkpt>
      <trkpt lat="43.71718" lon="3.44112">
        <ele>238.2</ele>
        <time>2017-12-24T08:36:39Z</time>
      </trkpt>
      <trkpt lat="43.71718" lon="3.44106">
        <ele>237.9</ele>
        <time>2017-12-24T08:36:40Z</time>
      </trkpt>
      <trkpt lat="43.71717" lon="3.441">
        <ele>237.6</ele>
        <time>2017-12-24T08:36:41Z</time>
      </trkpt>
      <trkpt lat="43.71716" lon="3.44094">
        <ele>237.3</ele>
        <time>2017-12-24T08:36:43Z</time>
      </trkpt>
      <trkpt lat="43.71727" lon="3.44082">
        <ele>235.9</ele>
        <time>2017-12-24T08:39:48Z</time>
      </trkpt>
      <trkpt lat="43.7173" lon="3.44077">
        <ele>234.9</ele>
        <time>2017-12-24T08:39:50Z</time>
      </trkpt>
      <trkpt lat="43.71733" lon="3.44068">
        <ele>233.7</ele>
        <time>2017-12-24T08:39:52Z</time>
      </trkpt>
      <trkpt lat="43.71736" lon="3.44064">
        <ele>233.3</ele>
        <time>2017-12-24T08:39:53Z</time>
      </trkpt>
      <trkpt lat="43.71739" lon="3.44059">
        <ele>233</ele>
        <time>2017-12-24T08:39:54Z</time>
      </trkpt>
      <trkpt lat="43.7174" lon="3.44052">
        <ele>233</ele>
        <time>2017-12-24T08:39:55Z</time>
      </trkpt>
      <trkpt lat="43.7174" lon="3.44043">
        <ele>230.9</ele>
        <time>2017-12-24T08:39:56Z</time>
      </trkpt>
      <trkpt lat="43.71741" lon="3.44032">
        <ele>230.5</ele>
        <time>2017-12-24T08:39:57Z</time>
      </trkpt>
      <trkpt lat="43.7174" lon="3.44021">
        <ele>230</ele>
        <time>2017-12-24T08:39:58Z</time>
      </trkpt>
      <trkpt lat="43.71738" lon="3.44014">
        <ele>229.6</ele>
        <time>2017-12-24T08:39:59Z</time>
      </trkpt>
      <trkpt lat="43.71736" lon="3.44011">
        <ele>229.4</ele>
        <time>2017-12-24T08:40:00Z</time>
      </trkpt>
      <trkpt lat="43.71733" lon="3.44011">
        <ele>229.1</ele>
        <time>2017-12-24T08:40:01Z</time>
      </trkpt>
      <trkpt lat="43.7173" lon="3.44013">
        <ele>228.9</ele>
        <time>2017-12-24T08:40:02Z</time>
      </trkpt>
      <trkpt lat="43.71729" lon="3.44017">
        <ele>228.9</ele>
        <time>2017-12-24T08:40:04Z</time>
      </trkpt>
      <trkpt lat="43.71731" lon="3.4402">
        <ele>229.1</ele>
        <time>2017-12-24T08:40:06Z</time>
      </trkpt>
      <trkpt lat="43.71735" lon="3.44021">
        <ele>229.4</ele>
        <time>2017-12-24T08:40:08Z</time>
      </trkpt>
      <trkpt lat="43.71736" lon="3.44024">
        <ele>229.6</ele>
        <time>2017-12-24T08:40:15Z</time>
      </trkpt>
      <trkpt lat="43.71739" lon="3.44027">
        <ele>229.9</ele>
        <time>2017-12-24T08:40:18Z</time>
      </trkpt>
      <trkpt lat="43.7174" lon="3.44031">
        <ele>230.1</ele>
        <time>2017-12-24T08:40:22Z</time>
      </trkpt>
      <trkpt lat="43.71743" lon="3.44034">
        <ele>230.4</ele>
        <time>2017-12-24T08:40:26Z</time>
      </trkpt>
      <trkpt lat="43.71745" lon="3.44037">
        <ele>230.7</ele>
        <time>2017-12-24T08:40:29Z</time>
      </trkpt>
      <trkpt lat="43.71748" lon="3.44039">
        <ele>230.9</ele>
        <time>2017-12-24T08:40:36Z</time>
      </trkpt>
      <trkpt lat="43.71751" lon="3.44042">
        <ele>231.2</ele>
        <time>2017-12-24T08:40:40Z</time>
      </trkpt>
      <trkpt lat="43.71754" lon="3.44041">
        <ele>231.5</ele>
        <time>2017-12-24T08:40:45Z</time>
      </trkpt>
      <trkpt lat="43.71751" lon="3.44038">
        <ele>231.7</ele>
        <time>2017-12-24T08:40:57Z</time>
      </trkpt>
      <trkpt lat="43.71749" lon="3.44042">
        <ele>232</ele>
        <time>2017-12-24T08:41:11Z</time>
      </trkpt>
      <trkpt lat="43.71752" lon="3.44045">
        <ele>232.3</ele>
        <time>2017-12-24T08:41:13Z</time>
      </trkpt>
      <trkpt lat="43.71755" lon="3.44045">
        <ele>232.6</ele>
        <time>2017-12-24T08:41:15Z</time>
      </trkpt>
      <trkpt lat="43.71759" lon="3.44046">
        <ele>233</ele>
        <time>2017-12-24T08:41:17Z</time>
      </trkpt>
      <trkpt lat="43.71762" lon="3.44046">
        <ele>233</ele>
        <time>2017-12-24T08:41:19Z</time>
      </trkpt>
      <trkpt lat="43.71766" lon="3.4404">
        <ele>233</ele>
        <time>2017-12-24T08:41:21Z</time>
      </trkpt>
      <trkpt lat="43.71769" lon="3.44036">
        <ele>233</ele>
        <time>2017-12-24T08:41:22Z</time>
      </trkpt>
      <trkpt lat="43.71772" lon="3.44032">
        <ele>233</ele>
        <time>2017-12-24T08:41:23Z</time>
      </trkpt>
      <trkpt lat="43.71775" lon="3.44028">
        <ele>233</ele>
        <time>2017-12-24T08:41:24Z</time>
      </trkpt>
      <trkpt lat="43.71777" lon="3.44025">
        <ele>233</ele>
        <time>2017-12-24T08:41:25Z</time>
      </trkpt>
      <trkpt lat="43.7178" lon="3.4402">
        <ele>233</ele>
        <time>2017-12-24T08:41:27Z</time>
      </trkpt>
      <trkpt lat="43.71782" lon="3.44015">
        <ele>233.1</ele>
        <time>2017-12-24T08:41:29Z</time>
      </trkpt>
      <trkpt lat="43.71784" lon="3.44011">
        <ele>233.2</ele>
        <time>2017-12-24T08:41:31Z</time>
      </trkpt>
      <trkpt lat="43.71786" lon="3.44008">
        <ele>233.4</ele>
        <time>2017-12-24T08:41:33Z</time>
      </trkpt>
      <trkpt lat="43.71788" lon="3.44005">
        <ele>233.7</ele>
        <time>2017-12-24T08:41:35Z</time>
      </trkpt>
      <trkpt lat="43.71791" lon="3.44002">
        <ele>234.1</ele>
        <time>2017-12-24T08:41:37Z</time>
      </trkpt>
      <trkpt lat="43.71793" lon="3.44">
        <ele>234</ele>
        <time>2017-12-24T08:41:39Z</time>
      </trkpt>
      <trkpt lat="43.71796" lon="3.43996">
        <ele>234.1</ele>
        <time>2017-12-24T08:41:42Z</time>
      </trkpt>
      <trkpt lat="43.71798" lon="3.43992">
        <ele>234.2</ele>
        <time>2017-12-24T08:41:44Z</time>
      </trkpt>
      <trkpt lat="43.71801" lon="3.43988">
        <ele>234.3</ele>
        <time>2017-12-24T08:41:47Z</time>
      </trkpt>
      <trkpt lat="43.71803" lon="3.43984">
        <ele>234.3</ele>
        <time>2017-12-24T08:41:52Z</time>
      </trkpt>
      <trkpt lat="43.71804" lon="3.4398">
        <ele>234.2</ele>
        <time>2017-12-24T08:41:54Z</time>
      </trkpt>
      <trkpt lat="43.71806" lon="3.43975">
        <ele>234.1</ele>
        <time>2017-12-24T08:41:56Z</time>
      </trkpt>
      <trkpt lat="43.71808" lon="3.43969">
        <ele>234</ele>
        <time>2017-12-24T08:41:58Z</time>
      </trkpt>
      <trkpt lat="43.7181" lon="3.43964">
        <ele>234</ele>
        <time>2017-12-24T08:42:00Z</time>
      </trkpt>
      <trkpt lat="43.71811" lon="3.43961">
        <ele>234.1</ele>
        <time>2017-12-24T08:42:07Z</time>
      </trkpt>
      <trkpt lat="43.71811" lon="3.43957">
        <ele>234.1</ele>
        <time>2017-12-24T08:42:18Z</time>
      </trkpt>
      <trkpt lat="43.71814" lon="3.43954">
        <ele>234.3</ele>
        <time>2017-12-24T08:42:21Z</time>
      </trkpt>
      <trkpt lat="43.71817" lon="3.43956">
        <ele>234.4</ele>
        <time>2017-12-24T08:42:24Z</time>
      </trkpt>
      <trkpt lat="43.71815" lon="3.4396">
        <ele>234.2</ele>
        <time>2017-12-24T08:42:26Z</time>
      </trkpt>
      <trkpt lat="43.71811" lon="3.43966">
        <ele>234.1</ele>
        <time>2017-12-24T08:42:28Z</time>
      </trkpt>
      <trkpt lat="43.71809" lon="3.43969">
        <ele>234</ele>
        <time>2017-12-24T08:42:29Z</time>
      </trkpt>
      <trkpt lat="43.71807" lon="3.43973">
        <ele>234</ele>
        <time>2017-12-24T08:42:30Z</time>
      </trkpt>
      <trkpt lat="43.71806" lon="3.43976">
        <ele>234.1</ele>
        <time>2017-12-24T08:42:31Z</time>
      </trkpt>
      <trkpt lat="43.71804" lon="3.43981">
        <ele>234.2</ele>
        <time>2017-12-24T08:42:33Z</time>
      </trkpt>
      <trkpt lat="43.71802" lon="3.43984">
        <ele>234.2</ele>
        <time>2017-12-24T08:42:35Z</time>
      </trkpt>
      <trkpt lat="43.71801" lon="3.43989">
        <ele>234.3</ele>
        <time>2017-12-24T08:42:42Z</time>
      </trkpt>
      <trkpt lat="43.71799" lon="3.43993">
        <ele>234.3</ele>
        <time>2017-12-24T08:42:44Z</time>
      </trkpt>
      <trkpt lat="43.71797" lon="3.43998">
        <ele>234.2</ele>
        <time>2017-12-24T08:42:46Z</time>
      </trkpt>
      <trkpt lat="43.71794" lon="3.44">
        <ele>234</ele>
        <time>2017-12-24T08:42:54Z</time>
      </trkpt>
      <trkpt lat="43.71791" lon="3.44002">
        <ele>234</ele>
        <time>2017-12-24T08:42:55Z</time>
      </trkpt>
      <trkpt lat="43.71789" lon="3.44006">
        <ele>234</ele>
        <time>2017-12-24T08:42:56Z</time>
      </trkpt>
      <trkpt lat="43.71785" lon="3.44011">
        <ele>233.5</ele>
        <time>2017-12-24T08:42:57Z</time>
      </trkpt>
      <trkpt lat="43.71782" lon="3.44016">
        <ele>233.2</ele>
        <time>2017-12-24T08:42:58Z</time>
      </trkpt>
      <trkpt lat="43.7178" lon="3.4402">
        <ele>233</ele>
        <time>2017-12-24T08:42:59Z</time>
      </trkpt>
      <trkpt lat="43.71777" lon="3.44022">
        <ele>233</ele>
        <time>2017-12-24T08:43:01Z</time>
      </trkpt>
      <trkpt lat="43.71774" lon="3.44019">
        <ele>233</ele>
        <time>2017-12-24T08:43:03Z</time>
      </trkpt>
      <trkpt lat="43.71773" lon="3.44016">
        <ele>233</ele>
        <time>2017-12-24T08:43:04Z</time>
      </trkpt>
      <trkpt lat="43.71773" lon="3.44011">
        <ele>233</ele>
        <time>2017-12-24T08:43:05Z</time>
      </trkpt>
      <trkpt lat="43.71772" lon="3.44008">
        <ele>233</ele>
        <time>2017-12-24T08:43:06Z</time>
      </trkpt>
      <trkpt lat="43.71772" lon="3.44003">
        <ele>232.8</ele>
        <time>2017-12-24T08:43:07Z</time>
      </trkpt>
      <trkpt lat="43.71771" lon="3.43999">
        <ele>232.6</ele>
        <time>2017-12-24T08:43:08Z</time>
      </trkpt>
      <trkpt lat="43.71771" lon="3.43995">
        <ele>232.4</ele>
        <time>2017-12-24T08:43:09Z</time>
      </trkpt>
      <trkpt lat="43.7177" lon="3.4399">
        <ele>231.7</ele>
        <time>2017-12-24T08:43:10Z</time>
      </trkpt>
      <trkpt lat="43.7177" lon="3.43985">
        <ele>231.5</ele>
        <time>2017-12-24T08:43:11Z</time>
      </trkpt>
      <trkpt lat="43.71771" lon="3.4398">
        <ele>231.7</ele>
        <time>2017-12-24T08:43:12Z</time>
      </trkpt>
      <trkpt lat="43.71773" lon="3.43975">
        <ele>231.5</ele>
        <time>2017-12-24T08:43:13Z</time>
      </trkpt>
      <trkpt lat="43.71775" lon="3.43971">
        <ele>231.5</ele>
        <time>2017-12-24T08:43:14Z</time>
      </trkpt>
      <trkpt lat="43.71778" lon="3.43966">
        <ele>231.8</ele>
        <time>2017-12-24T08:43:15Z</time>
      </trkpt>
      <trkpt lat="43.7178" lon="3.43963">
        <ele>232.3</ele>
        <time>2017-12-24T08:43:16Z</time>
      </trkpt>
      <trkpt lat="43.71784" lon="3.43962">
        <ele>232.4</ele>
        <time>2017-12-24T08:43:18Z</time>
      </trkpt>
      <trkpt lat="43.71787" lon="3.43961">
        <ele>232.9</ele>
        <time>2017-12-24T08:43:20Z</time>
      </trkpt>
      <trkpt lat="43.7179" lon="3.43961">
        <ele>233.3</ele>
        <time>2017-12-24T08:43:22Z</time>
      </trkpt>
      <trkpt lat="43.71793" lon="3.43959">
        <ele>233.7</ele>
        <time>2017-12-24T08:43:25Z</time>
      </trkpt>
      <trkpt lat="43.7179" lon="3.43957">
        <ele>233.2</ele>
        <time>2017-12-24T08:43:28Z</time>
      </trkpt>
      <trkpt lat="43.71787" lon="3.43955">
        <ele>232.9</ele>
        <time>2017-12-24T08:43:29Z</time>
      </trkpt>
      <trkpt lat="43.71783" lon="3.4395">
        <ele>232</ele>
        <time>2017-12-24T08:43:30Z</time>
      </trkpt>
      <trkpt lat="43.7178" lon="3.43945">
        <ele>231</ele>
        <time>2017-12-24T08:43:31Z</time>
      </trkpt>
      <trkpt lat="43.71777" lon="3.43942">
        <ele>231.1</ele>
        <time>2017-12-24T08:43:32Z</time>
      </trkpt>
      <trkpt lat="43.71774" lon="3.4394">
        <ele>230.5</ele>
        <time>2017-12-24T08:43:33Z</time>
      </trkpt>
      <trkpt lat="43.71771" lon="3.43939">
        <ele>229.9</ele>
        <time>2017-12-24T08:43:34Z</time>
      </trkpt>
      <trkpt lat="43.71767" lon="3.43939">
        <ele>229.6</ele>
        <time>2017-12-24T08:43:36Z</time>
      </trkpt>
      <trkpt lat="43.71763" lon="3.43934">
        <ele>229</ele>
        <time>2017-12-24T08:43:38Z</time>
      </trkpt>
      <trkpt lat="43.71761" lon="3.4393">
        <ele>228.4</ele>
        <time>2017-12-24T08:43:39Z</time>
      </trkpt>
      <trkpt lat="43.71759" lon="3.43926">
        <ele>228.2</ele>
        <time>2017-12-24T08:43:40Z</time>
      </trkpt>
      <trkpt lat="43.71758" lon="3.43921">
        <ele>227.6</ele>
        <time>2017-12-24T08:43:41Z</time>
      </trkpt>
      <trkpt lat="43.71756" lon="3.43916">
        <ele>227.3</ele>
        <time>2017-12-24T08:43:42Z</time>
      </trkpt>
      <trkpt lat="43.71754" lon="3.43912">
        <ele>226.7</ele>
        <time>2017-12-24T08:43:43Z</time>
      </trkpt>
      <trkpt lat="43.71752" lon="3.43907">
        <ele>226.4</ele>
        <time>2017-12-24T08:43:44Z</time>
      </trkpt>
      <trkpt lat="43.71751" lon="3.43903">
        <ele>225.7</ele>
        <time>2017-12-24T08:43:45Z</time>
      </trkpt>
      <trkpt lat="43.7175" lon="3.43899">
        <ele>225.4</ele>
        <time>2017-12-24T08:43:46Z</time>
      </trkpt>
      <trkpt lat="43.71749" lon="3.43895">
        <ele>225.1</ele>
        <time>2017-12-24T08:43:47Z</time>
      </trkpt>
      <trkpt lat="43.7175" lon="3.43888">
        <ele>224.4</ele>
        <time>2017-12-24T08:43:49Z</time>
      </trkpt>
      <trkpt lat="43.71749" lon="3.43884">
        <ele>223.7</ele>
        <time>2017-12-24T08:43:50Z</time>
      </trkpt>
      <trkpt lat="43.71748" lon="3.43879">
        <ele>223.3</ele>
        <time>2017-12-24T08:43:51Z</time>
      </trkpt>
      <trkpt lat="43.71747" lon="3.43873">
        <ele>223</ele>
        <time>2017-12-24T08:43:52Z</time>
      </trkpt>
      <trkpt lat="43.71748" lon="3.43868">
        <ele>221.8</ele>
        <time>2017-12-24T08:43:53Z</time>
      </trkpt>
      <trkpt lat="43.7175" lon="3.43862">
        <ele>221.6</ele>
        <time>2017-12-24T08:43:54Z</time>
      </trkpt>
      <trkpt lat="43.71751" lon="3.43856">
        <ele>221.2</ele>
        <time>2017-12-24T08:43:55Z</time>
      </trkpt>
      <trkpt lat="43.71752" lon="3.4385">
        <ele>220.3</ele>
        <time>2017-12-24T08:43:56Z</time>
      </trkpt>
      <trkpt lat="43.71753" lon="3.43842">
        <ele>220.1</ele>
        <time>2017-12-24T08:43:57Z</time>
      </trkpt>
      <trkpt lat="43.71756" lon="3.43834">
        <ele>219.6</ele>
        <time>2017-12-24T08:43:58Z</time>
      </trkpt>
      <trkpt lat="43.71756" lon="3.43826">
        <ele>219</ele>
        <time>2017-12-24T08:43:59Z</time>
      </trkpt>
      <trkpt lat="43.71756" lon="3.43818">
        <ele>218.6</ele>
        <time>2017-12-24T08:44:00Z</time>
      </trkpt>
      <trkpt lat="43.71755" lon="3.43811">
        <ele>217.9</ele>
        <time>2017-12-24T08:44:01Z</time>
      </trkpt>
      <trkpt lat="43.71753" lon="3.43807">
        <ele>217.7</ele>
        <time>2017-12-24T08:44:02Z</time>
      </trkpt>
      <trkpt lat="43.71754" lon="3.43802">
        <ele>217.5</ele>
        <time>2017-12-24T08:44:04Z</time>
      </trkpt>
      <trkpt lat="43.71756" lon="3.43795">
        <ele>217.2</ele>
        <time>2017-12-24T08:44:06Z</time>
      </trkpt>
      <trkpt lat="43.71758" lon="3.4379">
        <ele>217.1</ele>
        <time>2017-12-24T08:44:07Z</time>
      </trkpt>
      <trkpt lat="43.71759" lon="3.43784">
        <ele>217.1</ele>
        <time>2017-12-24T08:44:08Z</time>
      </trkpt>
      <trkpt lat="43.71758" lon="3.43776">
        <ele>216.5</ele>
        <time>2017-12-24T08:44:09Z</time>
      </trkpt>
      <trkpt lat="43.71758" lon="3.43766">
        <ele>216.2</ele>
        <time>2017-12-24T08:44:10Z</time>
      </trkpt>
      <trkpt lat="43.71758" lon="3.43758">
        <ele>215.7</ele>
        <time>2017-12-24T08:44:11Z</time>
      </trkpt>
      <trkpt lat="43.71759" lon="3.43753">
        <ele>215.5</ele>
        <time>2017-12-24T08:44:12Z</time>
      </trkpt>
      <trkpt lat="43.71759" lon="3.43747">
        <ele>215</ele>
        <time>2017-12-24T08:44:14Z</time>
      </trkpt>
      <trkpt lat="43.71764" lon="3.43744">
        <ele>215.4</ele>
        <time>2017-12-24T08:44:17Z</time>
      </trkpt>
      <trkpt lat="43.71769" lon="3.43745">
        <ele>215.8</ele>
        <time>2017-12-24T08:44:19Z</time>
      </trkpt>
      <trkpt lat="43.71773" lon="3.43748">
        <ele>216.3</ele>
        <time>2017-12-24T08:44:21Z</time>
      </trkpt>
      <trkpt lat="43.71776" lon="3.43749">
        <ele>216.7</ele>
        <time>2017-12-24T08:44:23Z</time>
      </trkpt>
      <trkpt lat="43.7178" lon="3.4375">
        <ele>216.9</ele>
        <time>2017-12-24T08:44:25Z</time>
      </trkpt>
      <trkpt lat="43.71784" lon="3.43751">
        <ele>217.2</ele>
        <time>2017-12-24T08:44:27Z</time>
      </trkpt>
      <trkpt lat="43.71787" lon="3.43752">
        <ele>217.5</ele>
        <time>2017-12-24T08:44:29Z</time>
      </trkpt>
      <trkpt lat="43.7179" lon="3.43753">
        <ele>217.8</ele>
        <time>2017-12-24T08:44:31Z</time>
      </trkpt>
      <trkpt lat="43.71793" lon="3.43753">
        <ele>218</ele>
        <time>2017-12-24T08:44:33Z</time>
      </trkpt>
      <trkpt lat="43.71797" lon="3.43754">
        <ele>218.3</ele>
        <time>2017-12-24T08:44:36Z</time>
      </trkpt>
      <trkpt lat="43.71799" lon="3.43755">
        <ele>218.5</ele>
        <time>2017-12-24T08:44:38Z</time>
      </trkpt>
      <trkpt lat="43.71803" lon="3.43755">
        <ele>218.8</ele>
        <time>2017-12-24T08:44:40Z</time>
      </trkpt>
      <trkpt lat="43.71805" lon="3.43755">
        <ele>219</ele>
        <time>2017-12-24T08:44:42Z</time>
      </trkpt>
      <trkpt lat="43.71809" lon="3.43756">
        <ele>219.2</ele>
        <time>2017-12-24T08:44:44Z</time>
      </trkpt>
      <trkpt lat="43.71812" lon="3.43756">
        <ele>219.4</ele>
        <time>2017-12-24T08:44:46Z</time>
      </trkpt>
      <trkpt lat="43.71815" lon="3.43756">
        <ele>219.6</ele>
        <time>2017-12-24T08:44:48Z</time>
      </trkpt>
      <trkpt lat="43.71819" lon="3.43756">
        <ele>220</ele>
        <time>2017-12-24T08:44:50Z</time>
      </trkpt>
      <trkpt lat="43.71822" lon="3.43757">
        <ele>220.3</ele>
        <time>2017-12-24T08:44:52Z</time>
      </trkpt>
      <trkpt lat="43.71825" lon="3.43757">
        <ele>220.6</ele>
        <time>2017-12-24T08:44:54Z</time>
      </trkpt>
      <trkpt lat="43.71828" lon="3.43758">
        <ele>220.9</ele>
        <time>2017-12-24T08:44:56Z</time>
      </trkpt>
      <trkpt lat="43.71831" lon="3.43758">
        <ele>221.2</ele>
        <time>2017-12-24T08:44:58Z</time>
      </trkpt>
      <trkpt lat="43.71834" lon="3.43759">
        <ele>221.4</ele>
        <time>2017-12-24T08:45:00Z</time>
      </trkpt>
      <trkpt lat="43.71837" lon="3.4376">
        <ele>221.7</ele>
        <time>2017-12-24T08:45:02Z</time>
      </trkpt>
      <trkpt lat="43.7184" lon="3.43761">
        <ele>221.9</ele>
        <time>2017-12-24T08:45:04Z</time>
      </trkpt>
      <trkpt lat="43.71843" lon="3.43762">
        <ele>222.2</ele>
        <time>2017-12-24T08:45:06Z</time>
      </trkpt>
      <trkpt lat="43.71846" lon="3.43763">
        <ele>222.5</ele>
        <time>2017-12-24T08:45:08Z</time>
      </trkpt>
      <trkpt lat="43.71849" lon="3.43765">
        <ele>222.9</ele>
        <time>2017-12-24T08:45:10Z</time>
      </trkpt>
      <trkpt lat="43.71852" lon="3.43766">
        <ele>223.1</ele>
        <time>2017-12-24T08:45:12Z</time>
      </trkpt>
      <trkpt lat="43.71855" lon="3.43767">
        <ele>223.4</ele>
        <time>2017-12-24T08:45:14Z</time>
      </trkpt>
      <trkpt lat="43.71858" lon="3.4377">
        <ele>223.7</ele>
        <time>2017-12-24T08:45:16Z</time>
      </trkpt>
      <trkpt lat="43.71861" lon="3.43774">
        <ele>224.3</ele>
        <time>2017-12-24T08:45:18Z</time>
      </trkpt>
      <trkpt lat="43.71864" lon="3.43777">
        <ele>224.7</ele>
        <time>2017-12-24T08:45:20Z</time>
      </trkpt>
      <trkpt lat="43.71867" lon="3.4378">
        <ele>225.1</ele>
        <time>2017-12-24T08:45:22Z</time>
      </trkpt>
      <trkpt lat="43.7187" lon="3.43783">
        <ele>225.3</ele>
        <time>2017-12-24T08:45:24Z</time>
      </trkpt>
      <trkpt lat="43.71873" lon="3.43784">
        <ele>225.6</ele>
        <time>2017-12-24T08:45:26Z</time>
      </trkpt>
      <trkpt lat="43.71876" lon="3.43785">
        <ele>225.7</ele>
        <time>2017-12-24T08:45:28Z</time>
      </trkpt>
      <trkpt lat="43.7188" lon="3.43785">
        <ele>225.9</ele>
        <time>2017-12-24T08:45:30Z</time>
      </trkpt>
      <trkpt lat="43.71884" lon="3.43784">
        <ele>226.1</ele>
        <time>2017-12-24T08:45:32Z</time>
      </trkpt>
      <trkpt lat="43.71887" lon="3.43782">
        <ele>226</ele>
        <time>2017-12-24T08:45:34Z</time>
      </trkpt>
      <trkpt lat="43.7189" lon="3.43779">
        <ele>225.9</ele>
        <time>2017-12-24T08:45:37Z</time>
      </trkpt>
      <trkpt lat="43.71893" lon="3.43776">
        <ele>225.9</ele>
        <time>2017-12-24T08:45:39Z</time>
      </trkpt>
      <trkpt lat="43.71896" lon="3.43774">
        <ele>225.9</ele>
        <time>2017-12-24T08:45:41Z</time>
      </trkpt>
      <trkpt lat="43.71899" lon="3.43771">
        <ele>225.9</ele>
        <time>2017-12-24T08:45:43Z</time>
      </trkpt>
      <trkpt lat="43.71902" lon="3.43769">
        <ele>225.9</ele>
        <time>2017-12-24T08:45:45Z</time>
      </trkpt>
      <trkpt lat="43.71905" lon="3.43767">
        <ele>225.9</ele>
        <time>2017-12-24T08:45:47Z</time>
      </trkpt>
      <trkpt lat="43.71909" lon="3.43765">
        <ele>225.9</ele>
        <time>2017-12-24T08:45:49Z</time>
      </trkpt>
      <trkpt lat="43.71913" lon="3.43763">
        <ele>226.1</ele>
        <time>2017-12-24T08:45:51Z</time>
      </trkpt>
      <trkpt lat="43.71917" lon="3.43761">
        <ele>226.3</ele>
        <time>2017-12-24T08:45:53Z</time>
      </trkpt>
      <trkpt lat="43.71921" lon="3.43761">
        <ele>226.7</ele>
        <time>2017-12-24T08:45:55Z</time>
      </trkpt>
      <trkpt lat="43.71924" lon="3.43761">
        <ele>227</ele>
        <time>2017-12-24T08:45:57Z</time>
      </trkpt>
      <trkpt lat="43.71928" lon="3.43761">
        <ele>227</ele>
        <time>2017-12-24T08:46:00Z</time>
      </trkpt>
      <trkpt lat="43.71931" lon="3.43762">
        <ele>227</ele>
        <time>2017-12-24T08:46:03Z</time>
      </trkpt>
      <trkpt lat="43.71935" lon="3.43765">
        <ele>227</ele>
        <time>2017-12-24T08:46:06Z</time>
      </trkpt>
      <trkpt lat="43.71938" lon="3.43766">
        <ele>227.4</ele>
        <time>2017-12-24T08:46:08Z</time>
      </trkpt>
      <trkpt lat="43.71941" lon="3.43768">
        <ele>227.8</ele>
        <time>2017-12-24T08:46:09Z</time>
      </trkpt>
      <trkpt lat="43.71945" lon="3.43771">
        <ele>228.3</ele>
        <time>2017-12-24T08:46:10Z</time>
      </trkpt>
      <trkpt lat="43.71947" lon="3.43775">
        <ele>228.7</ele>
        <time>2017-12-24T08:46:11Z</time>
      </trkpt>
      <trkpt lat="43.7195" lon="3.43778">
        <ele>229.1</ele>
        <time>2017-12-24T08:46:12Z</time>
      </trkpt>
      <trkpt lat="43.71953" lon="3.43782">
        <ele>229.6</ele>
        <time>2017-12-24T08:46:13Z</time>
      </trkpt>
      <trkpt lat="43.71956" lon="3.43785">
        <ele>230.2</ele>
        <time>2017-12-24T08:46:14Z</time>
      </trkpt>
      <trkpt lat="43.71958" lon="3.43789">
        <ele>230.7</ele>
        <time>2017-12-24T08:46:15Z</time>
      </trkpt>
      <trkpt lat="43.71961" lon="3.43793">
        <ele>231.3</ele>
        <time>2017-12-24T08:46:16Z</time>
      </trkpt>
      <trkpt lat="43.71963" lon="3.43798">
        <ele>231.7</ele>
        <time>2017-12-24T08:46:17Z</time>
      </trkpt>
      <trkpt lat="43.71965" lon="3.43801">
        <ele>231.9</ele>
        <time>2017-12-24T08:46:18Z</time>
      </trkpt>
      <trkpt lat="43.71968" lon="3.43804">
        <ele>232.4</ele>
        <time>2017-12-24T08:46:19Z</time>
      </trkpt>
      <trkpt lat="43.71972" lon="3.43808">
        <ele>233</ele>
        <time>2017-12-24T08:46:20Z</time>
      </trkpt>
      <trkpt lat="43.71976" lon="3.43813">
        <ele>233.6</ele>
        <time>2017-12-24T08:46:21Z</time>
      </trkpt>
      <trkpt lat="43.7198" lon="3.43816">
        <ele>234.2</ele>
        <time>2017-12-24T08:46:22Z</time>
      </trkpt>
      <trkpt lat="43.71984" lon="3.43819">
        <ele>234.8</ele>
        <time>2017-12-24T08:46:23Z</time>
      </trkpt>
      <trkpt lat="43.71989" lon="3.43818">
        <ele>234.9</ele>
        <time>2017-12-24T08:46:24Z</time>
      </trkpt>
      <trkpt lat="43.71993" lon="3.43813">
        <ele>234.5</ele>
        <time>2017-12-24T08:46:25Z</time>
      </trkpt>
      <trkpt lat="43.71994" lon="3.43806">
        <ele>234</ele>
        <time>2017-12-24T08:46:26Z</time>
      </trkpt>
      <trkpt lat="43.71994" lon="3.43799">
        <ele>233.5</ele>
        <time>2017-12-24T08:46:27Z</time>
      </trkpt>
      <trkpt lat="43.71993" lon="3.43792">
        <ele>233</ele>
        <time>2017-12-24T08:46:28Z</time>
      </trkpt>
      <trkpt lat="43.71993" lon="3.43786">
        <ele>232.5</ele>
        <time>2017-12-24T08:46:29Z</time>
      </trkpt>
      <trkpt lat="43.71992" lon="3.43781">
        <ele>232.1</ele>
        <time>2017-12-24T08:46:30Z</time>
      </trkpt>
      <trkpt lat="43.71991" lon="3.43777">
        <ele>231.8</ele>
        <time>2017-12-24T08:46:31Z</time>
      </trkpt>
      <trkpt lat="43.71989" lon="3.43772">
        <ele>231.4</ele>
        <time>2017-12-24T08:46:33Z</time>
      </trkpt>
      <trkpt lat="43.71987" lon="3.43767">
        <ele>231.1</ele>
        <time>2017-12-24T08:46:35Z</time>
      </trkpt>
      <trkpt lat="43.71985" lon="3.43761">
        <ele>230.7</ele>
        <time>2017-12-24T08:46:37Z</time>
      </trkpt>
      <trkpt lat="43.71983" lon="3.43755">
        <ele>230.1</ele>
        <time>2017-12-24T08:46:39Z</time>
      </trkpt>
      <trkpt lat="43.71982" lon="3.43751">
        <ele>229.9</ele>
        <time>2017-12-24T08:46:40Z</time>
      </trkpt>
      <trkpt lat="43.71981" lon="3.43748">
        <ele>229.7</ele>
        <time>2017-12-24T08:46:41Z</time>
      </trkpt>
      <trkpt lat="43.7198" lon="3.43744">
        <ele>229.5</ele>
        <time>2017-12-24T08:46:42Z</time>
      </trkpt>
      <trkpt lat="43.71979" lon="3.4374">
        <ele>229.3</ele>
        <time>2017-12-24T08:46:43Z</time>
      </trkpt>
      <trkpt lat="43.71977" lon="3.43735">
        <ele>229</ele>
        <time>2017-12-24T08:46:45Z</time>
      </trkpt>
      <trkpt lat="43.71976" lon="3.4373">
        <ele>228.8</ele>
        <time>2017-12-24T08:46:47Z</time>
      </trkpt>
      <trkpt lat="43.71976" lon="3.43725">
        <ele>228.8</ele>
        <time>2017-12-24T08:46:49Z</time>
      </trkpt>
      <trkpt lat="43.71978" lon="3.4372">
        <ele>228.9</ele>
        <time>2017-12-24T08:46:51Z</time>
      </trkpt>
      <trkpt lat="43.71981" lon="3.43716">
        <ele>229.2</ele>
        <time>2017-12-24T08:46:53Z</time>
      </trkpt>
      <trkpt lat="43.71985" lon="3.43712">
        <ele>229.3</ele>
        <time>2017-12-24T08:46:55Z</time>
      </trkpt>
      <trkpt lat="43.71988" lon="3.43709">
        <ele>229.3</ele>
        <time>2017-12-24T08:46:57Z</time>
      </trkpt>
      <trkpt lat="43.71991" lon="3.43704">
        <ele>229.3</ele>
        <time>2017-12-24T08:46:59Z</time>
      </trkpt>
      <trkpt lat="43.71993" lon="3.43698">
        <ele>229.1</ele>
        <time>2017-12-24T08:47:01Z</time>
      </trkpt>
      <trkpt lat="43.71993" lon="3.43691">
        <ele>228.8</ele>
        <time>2017-12-24T08:47:03Z</time>
      </trkpt>
      <trkpt lat="43.71995" lon="3.43684">
        <ele>228.5</ele>
        <time>2017-12-24T08:47:05Z</time>
      </trkpt>
      <trkpt lat="43.71995" lon="3.4368">
        <ele>228.3</ele>
        <time>2017-12-24T08:47:06Z</time>
      </trkpt>
      <trkpt lat="43.71996" lon="3.43673">
        <ele>227.9</ele>
        <time>2017-12-24T08:47:08Z</time>
      </trkpt>
      <trkpt lat="43.71996" lon="3.43666">
        <ele>227.7</ele>
        <time>2017-12-24T08:47:10Z</time>
      </trkpt>
      <trkpt lat="43.71996" lon="3.43662">
        <ele>227.6</ele>
        <time>2017-12-24T08:47:11Z</time>
      </trkpt>
      <trkpt lat="43.71998" lon="3.43656">
        <ele>227.4</ele>
        <time>2017-12-24T08:47:13Z</time>
      </trkpt>
      <trkpt lat="43.72" lon="3.4365">
        <ele>227.2</ele>
        <time>2017-12-24T08:47:15Z</time>
      </trkpt>
      <trkpt lat="43.72003" lon="3.43647">
        <ele>227.3</ele>
        <time>2017-12-24T08:47:17Z</time>
      </trkpt>
      <trkpt lat="43.72008" lon="3.43648">
        <ele>227.7</ele>
        <time>2017-12-24T08:47:19Z</time>
      </trkpt>
      <trkpt lat="43.7201" lon="3.43651">
        <ele>227.9</ele>
        <time>2017-12-24T08:47:20Z</time>
      </trkpt>
      <trkpt lat="43.72013" lon="3.43654">
        <ele>228.2</ele>
        <time>2017-12-24T08:47:21Z</time>
      </trkpt>
      <trkpt lat="43.72014" lon="3.43657">
        <ele>228.5</ele>
        <time>2017-12-24T08:47:22Z</time>
      </trkpt>
      <trkpt lat="43.72017" lon="3.43662">
        <ele>229</ele>
        <time>2017-12-24T08:47:24Z</time>
      </trkpt>
      <trkpt lat="43.72019" lon="3.43665">
        <ele>229.3</ele>
        <time>2017-12-24T08:47:25Z</time>
      </trkpt>
      <trkpt lat="43.72022" lon="3.4367">
        <ele>229.7</ele>
        <time>2017-12-24T08:47:27Z</time>
      </trkpt>
      <trkpt lat="43.72025" lon="3.43674">
        <ele>230</ele>
        <time>2017-12-24T08:47:29Z</time>
      </trkpt>
      <trkpt lat="43.72028" lon="3.43679">
        <ele>230.6</ele>
        <time>2017-12-24T08:47:31Z</time>
      </trkpt>
      <trkpt lat="43.72032" lon="3.43683">
        <ele>231.1</ele>
        <time>2017-12-24T08:47:33Z</time>
      </trkpt>
      <trkpt lat="43.72034" lon="3.43685">
        <ele>231.3</ele>
        <time>2017-12-24T08:47:35Z</time>
      </trkpt>
      <trkpt lat="43.72037" lon="3.43688">
        <ele>231.7</ele>
        <time>2017-12-24T08:47:37Z</time>
      </trkpt>
      <trkpt lat="43.7204" lon="3.43691">
        <ele>232.1</ele>
        <time>2017-12-24T08:47:39Z</time>
      </trkpt>
      <trkpt lat="43.72042" lon="3.43694">
        <ele>232.5</ele>
        <time>2017-12-24T08:47:41Z</time>
      </trkpt>
      <trkpt lat="43.72046" lon="3.43697">
        <ele>233.1</ele>
        <time>2017-12-24T08:47:43Z</time>
      </trkpt>
      <trkpt lat="43.72048" lon="3.43701">
        <ele>233.7</ele>
        <time>2017-12-24T08:47:45Z</time>
      </trkpt>
      <trkpt lat="43.72051" lon="3.43704">
        <ele>234.1</ele>
        <time>2017-12-24T08:47:47Z</time>
      </trkpt>
      <trkpt lat="43.72054" lon="3.43707">
        <ele>234.5</ele>
        <time>2017-12-24T08:47:49Z</time>
      </trkpt>
      <trkpt lat="43.72057" lon="3.43711">
        <ele>235</ele>
        <time>2017-12-24T08:47:51Z</time>
      </trkpt>
      <trkpt lat="43.72059" lon="3.43715">
        <ele>235.8</ele>
        <time>2017-12-24T08:47:53Z</time>
      </trkpt>
      <trkpt lat="43.72062" lon="3.43719">
        <ele>236.5</ele>
        <time>2017-12-24T08:47:55Z</time>
      </trkpt>
      <trkpt lat="43.72065" lon="3.43722">
        <ele>237.3</ele>
        <time>2017-12-24T08:47:57Z</time>
      </trkpt>
      <trkpt lat="43.72067" lon="3.43726">
        <ele>238</ele>
        <time>2017-12-24T08:47:59Z</time>
      </trkpt>
      <trkpt lat="43.7207" lon="3.43729">
        <ele>238.6</ele>
        <time>2017-12-24T08:48:01Z</time>
      </trkpt>
      <trkpt lat="43.72073" lon="3.43733">
        <ele>239.3</ele>
        <time>2017-12-24T08:48:03Z</time>
      </trkpt>
      <trkpt lat="43.72075" lon="3.43737">
        <ele>239.8</ele>
        <time>2017-12-24T08:48:05Z</time>
      </trkpt>
      <trkpt lat="43.72078" lon="3.43741">
        <ele>240.4</ele>
        <time>2017-12-24T08:48:07Z</time>
      </trkpt>
      <trkpt lat="43.72081" lon="3.43744">
        <ele>241.3</ele>
        <time>2017-12-24T08:48:09Z</time>
      </trkpt>
      <trkpt lat="43.72083" lon="3.43748">
        <ele>242.1</ele>
        <time>2017-12-24T08:48:11Z</time>
      </trkpt>
      <trkpt lat="43.72085" lon="3.43751">
        <ele>242.7</ele>
        <time>2017-12-24T08:48:13Z</time>
      </trkpt>
      <trkpt lat="43.72086" lon="3.43754">
        <ele>243.1</ele>
        <time>2017-12-24T08:48:15Z</time>
      </trkpt>
      <trkpt lat="43.72088" lon="3.43758">
        <ele>243.5</ele>
        <time>2017-12-24T08:48:17Z</time>
      </trkpt>
      <trkpt lat="43.7209" lon="3.43762">
        <ele>244</ele>
        <time>2017-12-24T08:48:19Z</time>
      </trkpt>
      <trkpt lat="43.72091" lon="3.43767">
        <ele>244.7</ele>
        <time>2017-12-24T08:48:21Z</time>
      </trkpt>
      <trkpt lat="43.72093" lon="3.43772">
        <ele>245.5</ele>
        <time>2017-12-24T08:48:23Z</time>
      </trkpt>
      <trkpt lat="43.72095" lon="3.43777">
        <ele>246.3</ele>
        <time>2017-12-24T08:48:25Z</time>
      </trkpt>
      <trkpt lat="43.72097" lon="3.43783">
        <ele>247.3</ele>
        <time>2017-12-24T08:48:27Z</time>
      </trkpt>
      <trkpt lat="43.72099" lon="3.43787">
        <ele>247.9</ele>
        <time>2017-12-24T08:48:29Z</time>
      </trkpt>
      <trkpt lat="43.72101" lon="3.43792">
        <ele>248.8</ele>
        <time>2017-12-24T08:48:31Z</time>
      </trkpt>
      <trkpt lat="43.72104" lon="3.43794">
        <ele>249.6</ele>
        <time>2017-12-24T08:48:33Z</time>
      </trkpt>
      <trkpt lat="43.72106" lon="3.43797">
        <ele>250.6</ele>
        <time>2017-12-24T08:48:36Z</time>
      </trkpt>
      <trkpt lat="43.72109" lon="3.43799">
        <ele>251.1</ele>
        <time>2017-12-24T08:48:38Z</time>
      </trkpt>
      <trkpt lat="43.72112" lon="3.43799">
        <ele>251.5</ele>
        <time>2017-12-24T08:48:40Z</time>
      </trkpt>
      <trkpt lat="43.72115" lon="3.43798">
        <ele>251.9</ele>
        <time>2017-12-24T08:48:42Z</time>
      </trkpt>
      <trkpt lat="43.72118" lon="3.43797">
        <ele>252.5</ele>
        <time>2017-12-24T08:48:44Z</time>
      </trkpt>
      <trkpt lat="43.72121" lon="3.43795">
        <ele>252.9</ele>
        <time>2017-12-24T08:48:46Z</time>
      </trkpt>
      <trkpt lat="43.72124" lon="3.43795">
        <ele>253.3</ele>
        <time>2017-12-24T08:48:48Z</time>
      </trkpt>
      <trkpt lat="43.72127" lon="3.43795">
        <ele>253.7</ele>
        <time>2017-12-24T08:48:50Z</time>
      </trkpt>
      <trkpt lat="43.7213" lon="3.43794">
        <ele>254.1</ele>
        <time>2017-12-24T08:48:52Z</time>
      </trkpt>
      <trkpt lat="43.72134" lon="3.43794">
        <ele>254.5</ele>
        <time>2017-12-24T08:48:54Z</time>
      </trkpt>
      <trkpt lat="43.72137" lon="3.43793">
        <ele>254.7</ele>
        <time>2017-12-24T08:48:55Z</time>
      </trkpt>
      <trkpt lat="43.72141" lon="3.43791">
        <ele>255.1</ele>
        <time>2017-12-24T08:48:56Z</time>
      </trkpt>
      <trkpt lat="43.72144" lon="3.43789">
        <ele>255.6</ele>
        <time>2017-12-24T08:48:57Z</time>
      </trkpt>
      <trkpt lat="43.72147" lon="3.43786">
        <ele>255.9</ele>
        <time>2017-12-24T08:48:58Z</time>
      </trkpt>
      <trkpt lat="43.72148" lon="3.43783">
        <ele>256.2</ele>
        <time>2017-12-24T08:48:59Z</time>
      </trkpt>
      <trkpt lat="43.72149" lon="3.4378">
        <ele>256.1</ele>
        <time>2017-12-24T08:49:00Z</time>
      </trkpt>
      <trkpt lat="43.72149" lon="3.43774">
        <ele>255.9</ele>
        <time>2017-12-24T08:49:02Z</time>
      </trkpt>
      <trkpt lat="43.72149" lon="3.43768">
        <ele>255.4</ele>
        <time>2017-12-24T08:49:04Z</time>
      </trkpt>
      <trkpt lat="43.72149" lon="3.43763">
        <ele>254.9</ele>
        <time>2017-12-24T08:49:06Z</time>
      </trkpt>
      <trkpt lat="43.7215" lon="3.43758">
        <ele>254.6</ele>
        <time>2017-12-24T08:49:08Z</time>
      </trkpt>
      <trkpt lat="43.72151" lon="3.43753">
        <ele>254.6</ele>
        <time>2017-12-24T08:49:10Z</time>
      </trkpt>
      <trkpt lat="43.72154" lon="3.43749">
        <ele>254.5</ele>
        <time>2017-12-24T08:49:13Z</time>
      </trkpt>
      <trkpt lat="43.72157" lon="3.4375">
        <ele>254.3</ele>
        <time>2017-12-24T08:49:15Z</time>
      </trkpt>
      <trkpt lat="43.7216" lon="3.43752">
        <ele>248.6</ele>
        <time>2017-12-24T08:49:17Z</time>
      </trkpt>
      <trkpt lat="43.72163" lon="3.43752">
        <ele>243.2</ele>
        <time>2017-12-24T08:49:19Z</time>
      </trkpt>
      <trkpt lat="43.72166" lon="3.43753">
        <ele>243.8</ele>
        <time>2017-12-24T08:49:21Z</time>
      </trkpt>
      <trkpt lat="43.72168" lon="3.43754">
        <ele>244.3</ele>
        <time>2017-12-24T08:49:23Z</time>
      </trkpt>
      <trkpt lat="43.72171" lon="3.43755">
        <ele>244.8</ele>
        <time>2017-12-24T08:49:25Z</time>
      </trkpt>
      <trkpt lat="43.72174" lon="3.43758">
        <ele>245.7</ele>
        <time>2017-12-24T08:49:28Z</time>
      </trkpt>
      <trkpt lat="43.72177" lon="3.4376">
        <ele>246.3</ele>
        <time>2017-12-24T08:49:30Z</time>
      </trkpt>
      <trkpt lat="43.7218" lon="3.43763">
        <ele>247</ele>
        <time>2017-12-24T08:49:32Z</time>
      </trkpt>
      <trkpt lat="43.72182" lon="3.43766">
        <ele>247.5</ele>
        <time>2017-12-24T08:49:34Z</time>
      </trkpt>
      <trkpt lat="43.72185" lon="3.43769">
        <ele>248.1</ele>
        <time>2017-12-24T08:49:36Z</time>
      </trkpt>
      <trkpt lat="43.72189" lon="3.43771">
        <ele>248.8</ele>
        <time>2017-12-24T08:49:39Z</time>
      </trkpt>
      <trkpt lat="43.72192" lon="3.43772">
        <ele>249.5</ele>
        <time>2017-12-24T08:49:42Z</time>
      </trkpt>
      <trkpt lat="43.72196" lon="3.43774">
        <ele>249.9</ele>
        <time>2017-12-24T08:49:45Z</time>
      </trkpt>
      <trkpt lat="43.72199" lon="3.43775">
        <ele>250.4</ele>
        <time>2017-12-24T08:49:48Z</time>
      </trkpt>
      <trkpt lat="43.72203" lon="3.43775">
        <ele>251</ele>
        <time>2017-12-24T08:49:51Z</time>
      </trkpt>
      <trkpt lat="43.72206" lon="3.43776">
        <ele>251.5</ele>
        <time>2017-12-24T08:49:54Z</time>
      </trkpt>
      <trkpt lat="43.72209" lon="3.43778">
        <ele>252.1</ele>
        <time>2017-12-24T08:49:57Z</time>
      </trkpt>
      <trkpt lat="43.72213" lon="3.43779">
        <ele>252.7</ele>
        <time>2017-12-24T08:50:00Z</time>
      </trkpt>
      <trkpt lat="43.72216" lon="3.43781">
        <ele>253.2</ele>
        <time>2017-12-24T08:50:02Z</time>
      </trkpt>
      <trkpt lat="43.7222" lon="3.43782">
        <ele>253.9</ele>
        <time>2017-12-24T08:50:05Z</time>
      </trkpt>
      <trkpt lat="43.72223" lon="3.43784">
        <ele>254.6</ele>
        <time>2017-12-24T08:50:08Z</time>
      </trkpt>
      <trkpt lat="43.72226" lon="3.43787">
        <ele>255.4</ele>
        <time>2017-12-24T08:50:11Z</time>
      </trkpt>
      <trkpt lat="43.7223" lon="3.43789">
        <ele>256.1</ele>
        <time>2017-12-24T08:50:14Z</time>
      </trkpt>
      <trkpt lat="43.72232" lon="3.43791">
        <ele>256.5</ele>
        <time>2017-12-24T08:50:16Z</time>
      </trkpt>
      <trkpt lat="43.72235" lon="3.43793">
        <ele>257</ele>
        <time>2017-12-24T08:50:18Z</time>
      </trkpt>
      <trkpt lat="43.72238" lon="3.43796">
        <ele>257.4</ele>
        <time>2017-12-24T08:50:21Z</time>
      </trkpt>
      <trkpt lat="43.72241" lon="3.43798">
        <ele>257.7</ele>
        <time>2017-12-24T08:50:24Z</time>
      </trkpt>
      <trkpt lat="43.72244" lon="3.43799">
        <ele>258.1</ele>
        <time>2017-12-24T08:50:27Z</time>
      </trkpt>
      <trkpt lat="43.72247" lon="3.438">
        <ele>258.7</ele>
        <time>2017-12-24T08:50:30Z</time>
      </trkpt>
      <trkpt lat="43.72249" lon="3.43801">
        <ele>259.2</ele>
        <time>2017-12-24T08:50:32Z</time>
      </trkpt>
      <trkpt lat="43.72253" lon="3.43803">
        <ele>259.7</ele>
        <time>2017-12-24T08:50:35Z</time>
      </trkpt>
      <trkpt lat="43.72256" lon="3.43804">
        <ele>260.2</ele>
        <time>2017-12-24T08:50:38Z</time>
      </trkpt>
      <trkpt lat="43.72259" lon="3.43806">
        <ele>260.7</ele>
        <time>2017-12-24T08:50:41Z</time>
      </trkpt>
      <trkpt lat="43.72263" lon="3.43807">
        <ele>261.2</ele>
        <time>2017-12-24T08:50:44Z</time>
      </trkpt>
      <trkpt lat="43.72267" lon="3.43809">
        <ele>261.8</ele>
        <time>2017-12-24T08:50:47Z</time>
      </trkpt>
      <trkpt lat="43.7227" lon="3.4381">
        <ele>262.4</ele>
        <time>2017-12-24T08:50:50Z</time>
      </trkpt>
      <trkpt lat="43.72274" lon="3.43812">
        <ele>263.1</ele>
        <time>2017-12-24T08:50:53Z</time>
      </trkpt>
      <trkpt lat="43.72278" lon="3.43814">
        <ele>263.7</ele>
        <time>2017-12-24T08:50:56Z</time>
      </trkpt>
      <trkpt lat="43.72281" lon="3.43816">
        <ele>264.1</ele>
        <time>2017-12-24T08:50:58Z</time>
      </trkpt>
      <trkpt lat="43.72284" lon="3.43817">
        <ele>264.5</ele>
        <time>2017-12-24T08:51:00Z</time>
      </trkpt>
      <trkpt lat="43.72286" lon="3.43819">
        <ele>264.8</ele>
        <time>2017-12-24T08:51:03Z</time>
      </trkpt>
      <trkpt lat="43.7229" lon="3.43821">
        <ele>265.3</ele>
        <time>2017-12-24T08:51:05Z</time>
      </trkpt>
      <trkpt lat="43.72293" lon="3.43823">
        <ele>265.8</ele>
        <time>2017-12-24T08:51:07Z</time>
      </trkpt>
      <trkpt lat="43.72296" lon="3.43825">
        <ele>266.1</ele>
        <time>2017-12-24T08:51:09Z</time>
      </trkpt>
      <trkpt lat="43.723" lon="3.43826">
        <ele>266.5</ele>
        <time>2017-12-24T08:51:12Z</time>
      </trkpt>
      <trkpt lat="43.72303" lon="3.43828">
        <ele>267</ele>
        <time>2017-12-24T08:51:14Z</time>
      </trkpt>
      <trkpt lat="43.72306" lon="3.43829">
        <ele>267.4</ele>
        <time>2017-12-24T08:51:16Z</time>
      </trkpt>
      <trkpt lat="43.72309" lon="3.4383">
        <ele>267.8</ele>
        <time>2017-12-24T08:51:18Z</time>
      </trkpt>
      <trkpt lat="43.72313" lon="3.43831">
        <ele>268.3</ele>
        <time>2017-12-24T08:51:20Z</time>
      </trkpt>
      <trkpt lat="43.72316" lon="3.43833">
        <ele>268.9</ele>
        <time>2017-12-24T08:51:22Z</time>
      </trkpt>
      <trkpt lat="43.7232" lon="3.43834">
        <ele>269.2</ele>
        <time>2017-12-24T08:51:25Z</time>
      </trkpt>
      <trkpt lat="43.72323" lon="3.43834">
        <ele>269.2</ele>
        <time>2017-12-24T08:51:27Z</time>
      </trkpt>
      <trkpt lat="43.72326" lon="3.43832">
        <ele>269.1</ele>
        <time>2017-12-24T08:51:30Z</time>
      </trkpt>
      <trkpt lat="43.72329" lon="3.43829">
        <ele>269</ele>
        <time>2017-12-24T08:51:32Z</time>
      </trkpt>
      <trkpt lat="43.72333" lon="3.43825">
        <ele>269</ele>
        <time>2017-12-24T08:51:34Z</time>
      </trkpt>
      <trkpt lat="43.72336" lon="3.43823">
        <ele>269.3</ele>
        <time>2017-12-24T08:51:36Z</time>
      </trkpt>
      <trkpt lat="43.72338" lon="3.43822">
        <ele>269.7</ele>
        <time>2017-12-24T08:51:38Z</time>
      </trkpt>
      <trkpt lat="43.72341" lon="3.43821">
        <ele>269.9</ele>
        <time>2017-12-24T08:51:40Z</time>
      </trkpt>
      <trkpt lat="43.72345" lon="3.43822">
        <ele>270.3</ele>
        <time>2017-12-24T08:51:42Z</time>
      </trkpt>
      <trkpt lat="43.72348" lon="3.43823">
        <ele>270.8</ele>
        <time>2017-12-24T08:51:44Z</time>
      </trkpt>
      <trkpt lat="43.72351" lon="3.43824">
        <ele>271.1</ele>
        <time>2017-12-24T08:51:46Z</time>
      </trkpt>
      <trkpt lat="43.72354" lon="3.43825">
        <ele>271.6</ele>
        <time>2017-12-24T08:51:49Z</time>
      </trkpt>
      <trkpt lat="43.72358" lon="3.43825">
        <ele>271.8</ele>
        <time>2017-12-24T08:51:52Z</time>
      </trkpt>
      <trkpt lat="43.72361" lon="3.43825">
        <ele>272.1</ele>
        <time>2017-12-24T08:51:55Z</time>
      </trkpt>
      <trkpt lat="43.72364" lon="3.43825">
        <ele>272.3</ele>
        <time>2017-12-24T08:51:58Z</time>
      </trkpt>
      <trkpt lat="43.72368" lon="3.43824">
        <ele>272.6</ele>
        <time>2017-12-24T08:52:02Z</time>
      </trkpt>
      <trkpt lat="43.72371" lon="3.43824">
        <ele>272.8</ele>
        <time>2017-12-24T08:52:05Z</time>
      </trkpt>
      <trkpt lat="43.72374" lon="3.43825">
        <ele>272.9</ele>
        <time>2017-12-24T08:52:07Z</time>
      </trkpt>
      <trkpt lat="43.72378" lon="3.43825">
        <ele>273.1</ele>
        <time>2017-12-24T08:52:10Z</time>
      </trkpt>
      <trkpt lat="43.72381" lon="3.43826">
        <ele>273.2</ele>
        <time>2017-12-24T08:52:12Z</time>
      </trkpt>
      <trkpt lat="43.72384" lon="3.43827">
        <ele>273.4</ele>
        <time>2017-12-24T08:52:14Z</time>
      </trkpt>
      <trkpt lat="43.72387" lon="3.43828">
        <ele>273.6</ele>
        <time>2017-12-24T08:52:16Z</time>
      </trkpt>
      <trkpt lat="43.7239" lon="3.43829">
        <ele>273.9</ele>
        <time>2017-12-24T08:52:18Z</time>
      </trkpt>
      <trkpt lat="43.72393" lon="3.4383">
        <ele>274.1</ele>
        <time>2017-12-24T08:52:20Z</time>
      </trkpt>
      <trkpt lat="43.72395" lon="3.43832">
        <ele>274.4</ele>
        <time>2017-12-24T08:52:22Z</time>
      </trkpt>
      <trkpt lat="43.72399" lon="3.43834">
        <ele>274.6</ele>
        <time>2017-12-24T08:52:25Z</time>
      </trkpt>
      <trkpt lat="43.72402" lon="3.43837">
        <ele>275.1</ele>
        <time>2017-12-24T08:52:29Z</time>
      </trkpt>
      <trkpt lat="43.72404" lon="3.43837">
        <ele>275.5</ele>
        <time>2017-12-24T08:52:32Z</time>
      </trkpt>
      <trkpt lat="43.72407" lon="3.43838">
        <ele>275.9</ele>
        <time>2017-12-24T08:52:35Z</time>
      </trkpt>
      <trkpt lat="43.7241" lon="3.4384">
        <ele>276</ele>
        <time>2017-12-24T08:52:38Z</time>
      </trkpt>
      <trkpt lat="43.72413" lon="3.43842">
        <ele>275.9</ele>
        <time>2017-12-24T08:52:42Z</time>
      </trkpt>
      <trkpt lat="43.72416" lon="3.43844">
        <ele>275.9</ele>
        <time>2017-12-24T08:52:46Z</time>
      </trkpt>
      <trkpt lat="43.72419" lon="3.43847">
        <ele>276</ele>
        <time>2017-12-24T08:52:49Z</time>
      </trkpt>
      <trkpt lat="43.72422" lon="3.43848">
        <ele>276</ele>
        <time>2017-12-24T08:52:53Z</time>
      </trkpt>
      <trkpt lat="43.72425" lon="3.4385">
        <ele>275.9</ele>
        <time>2017-12-24T08:52:57Z</time>
      </trkpt>
      <trkpt lat="43.72428" lon="3.43852">
        <ele>275.8</ele>
        <time>2017-12-24T08:53:00Z</time>
      </trkpt>
      <trkpt lat="43.7243" lon="3.43853">
        <ele>275.7</ele>
        <time>2017-12-24T08:53:02Z</time>
      </trkpt>
      <trkpt lat="43.72434" lon="3.43856">
        <ele>275.8</ele>
        <time>2017-12-24T08:53:05Z</time>
      </trkpt>
      <trkpt lat="43.72436" lon="3.43859">
        <ele>275.9</ele>
        <time>2017-12-24T08:53:08Z</time>
      </trkpt>
      <trkpt lat="43.72438" lon="3.43862">
        <ele>276.1</ele>
        <time>2017-12-24T08:53:11Z</time>
      </trkpt>
      <trkpt lat="43.7244" lon="3.43864">
        <ele>276.3</ele>
        <time>2017-12-24T08:53:14Z</time>
      </trkpt>
      <trkpt lat="43.72443" lon="3.43868">
        <ele>276.7</ele>
        <time>2017-12-24T08:53:17Z</time>
      </trkpt>
      <trkpt lat="43.72446" lon="3.4387">
        <ele>277.1</ele>
        <time>2017-12-24T08:53:20Z</time>
      </trkpt>
      <trkpt lat="43.72449" lon="3.43873">
        <ele>277.6</ele>
        <time>2017-12-24T08:53:23Z</time>
      </trkpt>
      <trkpt lat="43.72452" lon="3.43876">
        <ele>278.1</ele>
        <time>2017-12-24T08:53:26Z</time>
      </trkpt>
      <trkpt lat="43.72454" lon="3.43879">
        <ele>278.4</ele>
        <time>2017-12-24T08:53:28Z</time>
      </trkpt>
      <trkpt lat="43.72456" lon="3.43883">
        <ele>278.7</ele>
        <time>2017-12-24T08:53:31Z</time>
      </trkpt>
      <trkpt lat="43.72459" lon="3.43886">
        <ele>278.7</ele>
        <time>2017-12-24T08:53:34Z</time>
      </trkpt>
      <trkpt lat="43.72461" lon="3.43889">
        <ele>278.7</ele>
        <time>2017-12-24T08:53:36Z</time>
      </trkpt>
      <trkpt lat="43.72463" lon="3.43893">
        <ele>278.6</ele>
        <time>2017-12-24T08:53:39Z</time>
      </trkpt>
      <trkpt lat="43.72466" lon="3.43897">
        <ele>278.4</ele>
        <time>2017-12-24T08:53:42Z</time>
      </trkpt>
      <trkpt lat="43.72469" lon="3.439">
        <ele>278.1</ele>
        <time>2017-12-24T08:53:45Z</time>
      </trkpt>
      <trkpt lat="43.72471" lon="3.43902">
        <ele>278</ele>
        <time>2017-12-24T08:53:47Z</time>
      </trkpt>
      <trkpt lat="43.72474" lon="3.43906">
        <ele>278</ele>
        <time>2017-12-24T08:53:49Z</time>
      </trkpt>
      <trkpt lat="43.72476" lon="3.43909">
        <ele>277.9</ele>
        <time>2017-12-24T08:53:51Z</time>
      </trkpt>
      <trkpt lat="43.72478" lon="3.43911">
        <ele>277.9</ele>
        <time>2017-12-24T08:53:53Z</time>
      </trkpt>
      <trkpt lat="43.72481" lon="3.43915">
        <ele>277.9</ele>
        <time>2017-12-24T08:53:56Z</time>
      </trkpt>
      <trkpt lat="43.72484" lon="3.43917">
        <ele>278</ele>
        <time>2017-12-24T08:53:59Z</time>
      </trkpt>
      <trkpt lat="43.72487" lon="3.43921">
        <ele>278.1</ele>
        <time>2017-12-24T08:54:02Z</time>
      </trkpt>
      <trkpt lat="43.72489" lon="3.43924">
        <ele>278.2</ele>
        <time>2017-12-24T08:54:04Z</time>
      </trkpt>
      <trkpt lat="43.72491" lon="3.43927">
        <ele>278.7</ele>
        <time>2017-12-24T08:54:06Z</time>
      </trkpt>
      <trkpt lat="43.72493" lon="3.43931">
        <ele>279.2</ele>
        <time>2017-12-24T08:54:09Z</time>
      </trkpt>
      <trkpt lat="43.72495" lon="3.43935">
        <ele>279.5</ele>
        <time>2017-12-24T08:54:11Z</time>
      </trkpt>
      <trkpt lat="43.72497" lon="3.43939">
        <ele>279.7</ele>
        <time>2017-12-24T08:54:14Z</time>
      </trkpt>
      <trkpt lat="43.72501" lon="3.43942">
        <ele>280</ele>
        <time>2017-12-24T08:54:17Z</time>
      </trkpt>
      <trkpt lat="43.72503" lon="3.43945">
        <ele>280.1</ele>
        <time>2017-12-24T08:54:19Z</time>
      </trkpt>
      <trkpt lat="43.72505" lon="3.43948">
        <ele>280.3</ele>
        <time>2017-12-24T08:54:22Z</time>
      </trkpt>
      <trkpt lat="43.72507" lon="3.43951">
        <ele>280.6</ele>
        <time>2017-12-24T08:54:25Z</time>
      </trkpt>
      <trkpt lat="43.72509" lon="3.43955">
        <ele>281.1</ele>
        <time>2017-12-24T08:54:28Z</time>
      </trkpt>
      <trkpt lat="43.7251" lon="3.43961">
        <ele>281.5</ele>
        <time>2017-12-24T08:54:31Z</time>
      </trkpt>
      <trkpt lat="43.72511" lon="3.43965">
        <ele>281.7</ele>
        <time>2017-12-24T08:54:36Z</time>
      </trkpt>
      <trkpt lat="43.72514" lon="3.43962">
        <ele>281.7</ele>
        <time>2017-12-24T08:55:29Z</time>
      </trkpt>
      <trkpt lat="43.72515" lon="3.43955">
        <ele>281.4</ele>
        <time>2017-12-24T08:55:31Z</time>
      </trkpt>
      <trkpt lat="43.72514" lon="3.43948">
        <ele>280.8</ele>
        <time>2017-12-24T08:55:32Z</time>
      </trkpt>
      <trkpt lat="43.72512" lon="3.4394">
        <ele>280.2</ele>
        <time>2017-12-24T08:55:33Z</time>
      </trkpt>
      <trkpt lat="43.72512" lon="3.43935">
        <ele>280.1</ele>
        <time>2017-12-24T08:55:34Z</time>
      </trkpt>
      <trkpt lat="43.72512" lon="3.43928">
        <ele>279.9</ele>
        <time>2017-12-24T08:55:36Z</time>
      </trkpt>
      <trkpt lat="43.72513" lon="3.43924">
        <ele>278.2</ele>
        <time>2017-12-24T08:55:38Z</time>
      </trkpt>
      <trkpt lat="43.72515" lon="3.43921">
        <ele>277.2</ele>
        <time>2017-12-24T08:55:39Z</time>
      </trkpt>
      <trkpt lat="43.72518" lon="3.43915">
        <ele>275.4</ele>
        <time>2017-12-24T08:55:41Z</time>
      </trkpt>
      <trkpt lat="43.72518" lon="3.43911">
        <ele>273.8</ele>
        <time>2017-12-24T08:55:44Z</time>
      </trkpt>
      <trkpt lat="43.72519" lon="3.43906">
        <ele>272</ele>
        <time>2017-12-24T08:55:46Z</time>
      </trkpt>
      <trkpt lat="43.72521" lon="3.439">
        <ele>271.2</ele>
        <time>2017-12-24T08:55:48Z</time>
      </trkpt>
      <trkpt lat="43.72522" lon="3.43896">
        <ele>269.5</ele>
        <time>2017-12-24T08:55:49Z</time>
      </trkpt>
      <trkpt lat="43.72521" lon="3.43892">
        <ele>268.6</ele>
        <time>2017-12-24T08:55:50Z</time>
      </trkpt>
      <trkpt lat="43.7252" lon="3.43885">
        <ele>267.7</ele>
        <time>2017-12-24T08:55:52Z</time>
      </trkpt>
      <trkpt lat="43.72519" lon="3.4388">
        <ele>266.8</ele>
        <time>2017-12-24T08:55:54Z</time>
      </trkpt>
      <trkpt lat="43.72518" lon="3.43876">
        <ele>266.8</ele>
        <time>2017-12-24T08:55:55Z</time>
      </trkpt>
      <trkpt lat="43.72516" lon="3.43872">
        <ele>265.7</ele>
        <time>2017-12-24T08:55:56Z</time>
      </trkpt>
      <trkpt lat="43.72515" lon="3.43865">
        <ele>264.9</ele>
        <time>2017-12-24T08:55:57Z</time>
      </trkpt>
      <trkpt lat="43.72516" lon="3.43855">
        <ele>262.7</ele>
        <time>2017-12-24T08:55:58Z</time>
      </trkpt>
      <trkpt lat="43.72516" lon="3.43846">
        <ele>261.9</ele>
        <time>2017-12-24T08:55:59Z</time>
      </trkpt>
      <trkpt lat="43.72516" lon="3.43842">
        <ele>260.4</ele>
        <time>2017-12-24T08:56:00Z</time>
      </trkpt>
      <trkpt lat="43.72514" lon="3.43837">
        <ele>260.2</ele>
        <time>2017-12-24T08:56:01Z</time>
      </trkpt>
      <trkpt lat="43.72513" lon="3.43833">
        <ele>259.5</ele>
        <time>2017-12-24T08:56:02Z</time>
      </trkpt>
      <trkpt lat="43.72513" lon="3.43828">
        <ele>258.8</ele>
        <time>2017-12-24T08:56:03Z</time>
      </trkpt>
      <trkpt lat="43.72514" lon="3.43821">
        <ele>258.2</ele>
        <time>2017-12-24T08:56:05Z</time>
      </trkpt>
      <trkpt lat="43.72516" lon="3.43816">
        <ele>256.9</ele>
        <time>2017-12-24T08:56:06Z</time>
      </trkpt>
      <trkpt lat="43.72518" lon="3.43813">
        <ele>256.3</ele>
        <time>2017-12-24T08:56:07Z</time>
      </trkpt>
      <trkpt lat="43.7252" lon="3.43808">
        <ele>255.1</ele>
        <time>2017-12-24T08:56:08Z</time>
      </trkpt>
      <trkpt lat="43.72525" lon="3.43804">
        <ele>253.4</ele>
        <time>2017-12-24T08:56:10Z</time>
      </trkpt>
      <trkpt lat="43.72527" lon="3.43801">
        <ele>252.7</ele>
        <time>2017-12-24T08:56:11Z</time>
      </trkpt>
      <trkpt lat="43.72532" lon="3.43796">
        <ele>251</ele>
        <time>2017-12-24T08:56:13Z</time>
      </trkpt>
      <trkpt lat="43.72537" lon="3.43794">
        <ele>249.4</ele>
        <time>2017-12-24T08:56:15Z</time>
      </trkpt>
      <trkpt lat="43.7254" lon="3.43791">
        <ele>248.9</ele>
        <time>2017-12-24T08:56:17Z</time>
      </trkpt>
      <trkpt lat="43.72541" lon="3.43787">
        <ele>248.3</ele>
        <time>2017-12-24T08:56:18Z</time>
      </trkpt>
      <trkpt lat="43.72541" lon="3.43783">
        <ele>247.8</ele>
        <time>2017-12-24T08:56:25Z</time>
      </trkpt>
      <trkpt lat="43.72538" lon="3.43782">
        <ele>248.1</ele>
        <time>2017-12-24T08:58:22Z</time>
      </trkpt>
      <trkpt lat="43.72536" lon="3.43781">
        <ele>248</ele>
        <time>2017-12-24T08:58:25Z</time>
      </trkpt>
      <trkpt lat="43.72533" lon="3.4378">
        <ele>248.3</ele>
        <time>2017-12-24T08:58:30Z</time>
      </trkpt>
      <trkpt lat="43.7253" lon="3.43778">
        <ele>248.7</ele>
        <time>2017-12-24T08:58:35Z</time>
      </trkpt>
      <trkpt lat="43.72527" lon="3.43776">
        <ele>248.6</ele>
        <time>2017-12-24T08:58:39Z</time>
      </trkpt>
      <trkpt lat="43.72524" lon="3.43776">
        <ele>249</ele>
        <time>2017-12-24T08:58:42Z</time>
      </trkpt>
      <trkpt lat="43.7252" lon="3.43775">
        <ele>249.4</ele>
        <time>2017-12-24T08:58:47Z</time>
      </trkpt>
      <trkpt lat="43.72517" lon="3.43773">
        <ele>249.3</ele>
        <time>2017-12-24T08:58:51Z</time>
      </trkpt>
      <trkpt lat="43.72514" lon="3.43771">
        <ele>249.8</ele>
        <time>2017-12-24T08:58:55Z</time>
      </trkpt>
      <trkpt lat="43.72511" lon="3.43768">
        <ele>249.7</ele>
        <time>2017-12-24T08:58:58Z</time>
      </trkpt>
      <trkpt lat="43.72508" lon="3.43767">
        <ele>250.2</ele>
        <time>2017-12-24T08:59:02Z</time>
      </trkpt>
      <trkpt lat="43.72506" lon="3.43766">
        <ele>250.7</ele>
        <time>2017-12-24T08:59:05Z</time>
      </trkpt>
      <trkpt lat="43.72503" lon="3.43765">
        <ele>250.6</ele>
        <time>2017-12-24T08:59:09Z</time>
      </trkpt>
      <trkpt lat="43.72499" lon="3.43765">
        <ele>251.9</ele>
        <time>2017-12-24T08:59:13Z</time>
      </trkpt>
      <trkpt lat="43.72495" lon="3.43764">
        <ele>252</ele>
        <time>2017-12-24T08:59:16Z</time>
      </trkpt>
      <trkpt lat="43.72492" lon="3.43765">
        <ele>253.2</ele>
        <time>2017-12-24T08:59:19Z</time>
      </trkpt>
      <trkpt lat="43.72488" lon="3.43763">
        <ele>253.3</ele>
        <time>2017-12-24T08:59:23Z</time>
      </trkpt>
      <trkpt lat="43.72486" lon="3.43761">
        <ele>253.9</ele>
        <time>2017-12-24T08:59:27Z</time>
      </trkpt>
      <trkpt lat="43.72483" lon="3.43759">
        <ele>254</ele>
        <time>2017-12-24T08:59:31Z</time>
      </trkpt>
      <trkpt lat="43.72481" lon="3.43757">
        <ele>254.6</ele>
        <time>2017-12-24T08:59:34Z</time>
      </trkpt>
      <trkpt lat="43.72477" lon="3.43756">
        <ele>254.6</ele>
        <time>2017-12-24T08:59:38Z</time>
      </trkpt>
      <trkpt lat="43.72475" lon="3.43755">
        <ele>255.3</ele>
        <time>2017-12-24T08:59:41Z</time>
      </trkpt>
      <trkpt lat="43.72472" lon="3.43752">
        <ele>255.3</ele>
        <time>2017-12-24T08:59:45Z</time>
      </trkpt>
      <trkpt lat="43.7247" lon="3.43749">
        <ele>255.3</ele>
        <time>2017-12-24T08:59:49Z</time>
      </trkpt>
      <trkpt lat="43.72467" lon="3.43746">
        <ele>255.3</ele>
        <time>2017-12-24T09:00:08Z</time>
      </trkpt>
      <trkpt lat="43.72467" lon="3.4374">
        <ele>254.6</ele>
        <time>2017-12-24T09:00:47Z</time>
      </trkpt>
      <trkpt lat="43.72469" lon="3.43738">
        <ele>253.2</ele>
        <time>2017-12-24T09:00:49Z</time>
      </trkpt>
      <trkpt lat="43.72472" lon="3.43735">
        <ele>251.8</ele>
        <time>2017-12-24T09:00:51Z</time>
      </trkpt>
      <trkpt lat="43.72476" lon="3.43733">
        <ele>251</ele>
        <time>2017-12-24T09:00:53Z</time>
      </trkpt>
      <trkpt lat="43.72478" lon="3.4373">
        <ele>249.6</ele>
        <time>2017-12-24T09:00:55Z</time>
      </trkpt>
      <trkpt lat="43.72479" lon="3.43725">
        <ele>249</ele>
        <time>2017-12-24T09:01:00Z</time>
      </trkpt>
      <trkpt lat="43.72481" lon="3.4372">
        <ele>247.7</ele>
        <time>2017-12-24T09:01:02Z</time>
      </trkpt>
      <trkpt lat="43.72482" lon="3.43716">
        <ele>247</ele>
        <time>2017-12-24T09:01:03Z</time>
      </trkpt>
      <trkpt lat="43.72483" lon="3.4371">
        <ele>246.3</ele>
        <time>2017-12-24T09:01:04Z</time>
      </trkpt>
      <trkpt lat="43.72485" lon="3.43707">
        <ele>245.1</ele>
        <time>2017-12-24T09:01:05Z</time>
      </trkpt>
      <trkpt lat="43.72487" lon="3.43703">
        <ele>244.5</ele>
        <time>2017-12-24T09:01:07Z</time>
      </trkpt>
      <trkpt lat="43.72487" lon="3.43708">
        <ele>244.4</ele>
        <time>2017-12-24T09:01:14Z</time>
      </trkpt>
      <trkpt lat="43.72487" lon="3.43712">
        <ele>245.4</ele>
        <time>2017-12-24T09:01:18Z</time>
      </trkpt>
      <trkpt lat="43.72488" lon="3.43707">
        <ele>244.2</ele>
        <time>2017-12-24T09:01:27Z</time>
      </trkpt>
      <trkpt lat="43.7249" lon="3.43702">
        <ele>243.7</ele>
        <time>2017-12-24T09:01:28Z</time>
      </trkpt>
      <trkpt lat="43.72492" lon="3.43696">
        <ele>242.2</ele>
        <time>2017-12-24T09:01:29Z</time>
      </trkpt>
      <trkpt lat="43.72493" lon="3.43692">
        <ele>241.7</ele>
        <time>2017-12-24T09:01:30Z</time>
      </trkpt>
      <trkpt lat="43.72494" lon="3.43688">
        <ele>240.7</ele>
        <time>2017-12-24T09:01:31Z</time>
      </trkpt>
      <trkpt lat="43.72496" lon="3.43684">
        <ele>240.6</ele>
        <time>2017-12-24T09:01:32Z</time>
      </trkpt>
      <trkpt lat="43.72499" lon="3.4368">
        <ele>239.6</ele>
        <time>2017-12-24T09:01:33Z</time>
      </trkpt>
      <trkpt lat="43.72503" lon="3.43677">
        <ele>238.2</ele>
        <time>2017-12-24T09:01:34Z</time>
      </trkpt>
      <trkpt lat="43.72507" lon="3.43674">
        <ele>237.2</ele>
        <time>2017-12-24T09:01:35Z</time>
      </trkpt>
      <trkpt lat="43.72512" lon="3.4367">
        <ele>236.2</ele>
        <time>2017-12-24T09:01:36Z</time>
      </trkpt>
      <trkpt lat="43.72515" lon="3.43669">
        <ele>235.4</ele>
        <time>2017-12-24T09:01:37Z</time>
      </trkpt>
      <trkpt lat="43.72519" lon="3.43666">
        <ele>234.4</ele>
        <time>2017-12-24T09:01:38Z</time>
      </trkpt>
      <trkpt lat="43.72525" lon="3.43663">
        <ele>233.5</ele>
        <time>2017-12-24T09:01:39Z</time>
      </trkpt>
      <trkpt lat="43.72528" lon="3.43662">
        <ele>233.1</ele>
        <time>2017-12-24T09:01:40Z</time>
      </trkpt>
      <trkpt lat="43.72532" lon="3.43659">
        <ele>232.2</ele>
        <time>2017-12-24T09:01:41Z</time>
      </trkpt>
      <trkpt lat="43.72534" lon="3.43656">
        <ele>231.3</ele>
        <time>2017-12-24T09:01:43Z</time>
      </trkpt>
      <trkpt lat="43.72535" lon="3.43652">
        <ele>230.7</ele>
        <time>2017-12-24T09:01:44Z</time>
      </trkpt>
      <trkpt lat="43.72537" lon="3.43648">
        <ele>229.9</ele>
        <time>2017-12-24T09:01:46Z</time>
      </trkpt>
      <trkpt lat="43.72542" lon="3.4364">
        <ele>229</ele>
        <time>2017-12-24T09:01:48Z</time>
      </trkpt>
      <trkpt lat="43.72544" lon="3.43636">
        <ele>227.6</ele>
        <time>2017-12-24T09:01:49Z</time>
      </trkpt>
      <trkpt lat="43.72545" lon="3.43632">
        <ele>227.5</ele>
        <time>2017-12-24T09:01:50Z</time>
      </trkpt>
      <trkpt lat="43.72547" lon="3.43627">
        <ele>226.1</ele>
        <time>2017-12-24T09:01:51Z</time>
      </trkpt>
      <trkpt lat="43.72548" lon="3.43622">
        <ele>225.3</ele>
        <time>2017-12-24T09:01:52Z</time>
      </trkpt>
      <trkpt lat="43.72548" lon="3.43617">
        <ele>224.6</ele>
        <time>2017-12-24T09:01:53Z</time>
      </trkpt>
      <trkpt lat="43.72549" lon="3.43611">
        <ele>223.9</ele>
        <time>2017-12-24T09:01:54Z</time>
      </trkpt>
      <trkpt lat="43.7255" lon="3.43606">
        <ele>222.4</ele>
        <time>2017-12-24T09:01:55Z</time>
      </trkpt>
      <trkpt lat="43.72549" lon="3.43601">
        <ele>221.8</ele>
        <time>2017-12-24T09:01:56Z</time>
      </trkpt>
      <trkpt lat="43.7255" lon="3.43597">
        <ele>221.1</ele>
        <time>2017-12-24T09:01:57Z</time>
      </trkpt>
      <trkpt lat="43.72552" lon="3.43593">
        <ele>220.4</ele>
        <time>2017-12-24T09:01:58Z</time>
      </trkpt>
      <trkpt lat="43.72554" lon="3.43587">
        <ele>219.6</ele>
        <time>2017-12-24T09:01:59Z</time>
      </trkpt>
      <trkpt lat="43.72556" lon="3.43582">
        <ele>218.7</ele>
        <time>2017-12-24T09:02:00Z</time>
      </trkpt>
      <trkpt lat="43.72559" lon="3.43578">
        <ele>217.9</ele>
        <time>2017-12-24T09:02:01Z</time>
      </trkpt>
      <trkpt lat="43.72562" lon="3.43573">
        <ele>217.1</ele>
        <time>2017-12-24T09:02:02Z</time>
      </trkpt>
      <trkpt lat="43.72564" lon="3.43569">
        <ele>216.4</ele>
        <time>2017-12-24T09:02:03Z</time>
      </trkpt>
      <trkpt lat="43.72567" lon="3.43564">
        <ele>215.6</ele>
        <time>2017-12-24T09:02:04Z</time>
      </trkpt>
      <trkpt lat="43.7257" lon="3.43562">
        <ele>215</ele>
        <time>2017-12-24T09:02:05Z</time>
      </trkpt>
      <trkpt lat="43.72572" lon="3.43558">
        <ele>214.3</ele>
        <time>2017-12-24T09:02:08Z</time>
      </trkpt>
      <trkpt lat="43.72572" lon="3.43553">
        <ele>213.6</ele>
        <time>2017-12-24T09:02:10Z</time>
      </trkpt>
      <trkpt lat="43.72571" lon="3.43549">
        <ele>213</ele>
        <time>2017-12-24T09:02:12Z</time>
      </trkpt>
      <trkpt lat="43.72569" lon="3.43544">
        <ele>212.3</ele>
        <time>2017-12-24T09:02:14Z</time>
      </trkpt>
      <trkpt lat="43.7257" lon="3.43539">
        <ele>211.6</ele>
        <time>2017-12-24T09:02:16Z</time>
      </trkpt>
      <trkpt lat="43.7257" lon="3.43535">
        <ele>210.9</ele>
        <time>2017-12-24T09:02:17Z</time>
      </trkpt>
      <trkpt lat="43.7257" lon="3.43531">
        <ele>210.3</ele>
        <time>2017-12-24T09:02:18Z</time>
      </trkpt>
      <trkpt lat="43.72568" lon="3.43529">
        <ele>209.6</ele>
        <time>2017-12-24T09:02:19Z</time>
      </trkpt>
      <trkpt lat="43.72564" lon="3.43522">
        <ele>209</ele>
        <time>2017-12-24T09:02:21Z</time>
      </trkpt>
      <trkpt lat="43.72562" lon="3.43516">
        <ele>207.9</ele>
        <time>2017-12-24T09:02:22Z</time>
      </trkpt>
      <trkpt lat="43.7256" lon="3.4351">
        <ele>207.4</ele>
        <time>2017-12-24T09:02:23Z</time>
      </trkpt>
      <trkpt lat="43.72559" lon="3.43506">
        <ele>206.9</ele>
        <time>2017-12-24T09:02:24Z</time>
      </trkpt>
      <trkpt lat="43.72558" lon="3.435">
        <ele>206.4</ele>
        <time>2017-12-24T09:02:26Z</time>
      </trkpt>
      <trkpt lat="43.7256" lon="3.43497">
        <ele>206.5</ele>
        <time>2017-12-24T09:02:32Z</time>
      </trkpt>
      <trkpt lat="43.72561" lon="3.43493">
        <ele>206.5</ele>
        <time>2017-12-24T09:02:41Z</time>
      </trkpt>
      <trkpt lat="43.7256" lon="3.43496">
        <ele>206.4</ele>
        <time>2017-12-24T09:03:12Z</time>
      </trkpt>
      <trkpt lat="43.7256" lon="3.43492">
        <ele>206.3</ele>
        <time>2017-12-24T09:05:19Z</time>
      </trkpt>
      <trkpt lat="43.7256" lon="3.43489">
        <ele>206.1</ele>
        <time>2017-12-24T09:05:22Z</time>
      </trkpt>
      <trkpt lat="43.72563" lon="3.43488">
        <ele>205.9</ele>
        <time>2017-12-24T09:05:36Z</time>
      </trkpt>
      <trkpt lat="43.72566" lon="3.43491">
        <ele>205.8</ele>
        <time>2017-12-24T09:05:39Z</time>
      </trkpt>
      <trkpt lat="43.72568" lon="3.43494">
        <ele>205.8</ele>
        <time>2017-12-24T09:05:46Z</time>
      </trkpt>
      <trkpt lat="43.72571" lon="3.43496">
        <ele>205.9</ele>
        <time>2017-12-24T09:05:49Z</time>
      </trkpt>
      <trkpt lat="43.72574" lon="3.43497">
        <ele>206</ele>
        <time>2017-12-24T09:06:00Z</time>
      </trkpt>
      <trkpt lat="43.72577" lon="3.43495">
        <ele>206.2</ele>
        <time>2017-12-24T09:06:08Z</time>
      </trkpt>
      <trkpt lat="43.7258" lon="3.43493">
        <ele>206.4</ele>
        <time>2017-12-24T09:06:17Z</time>
      </trkpt>
      <trkpt lat="43.72583" lon="3.43492">
        <ele>206.7</ele>
        <time>2017-12-24T09:06:20Z</time>
      </trkpt>
      <trkpt lat="43.72586" lon="3.43494">
        <ele>207</ele>
        <time>2017-12-24T09:06:24Z</time>
      </trkpt>
      <trkpt lat="43.72588" lon="3.43495">
        <ele>207.2</ele>
        <time>2017-12-24T09:06:28Z</time>
      </trkpt>
      <trkpt lat="43.7259" lon="3.43499">
        <ele>207.5</ele>
        <time>2017-12-24T09:06:32Z</time>
      </trkpt>
      <trkpt lat="43.7259" lon="3.43503">
        <ele>207.7</ele>
        <time>2017-12-24T09:06:35Z</time>
      </trkpt>
      <trkpt lat="43.72591" lon="3.43507">
        <ele>208</ele>
        <time>2017-12-24T09:06:38Z</time>
      </trkpt>
      <trkpt lat="43.72593" lon="3.43511">
        <ele>208.5</ele>
        <time>2017-12-24T09:06:42Z</time>
      </trkpt>
      <trkpt lat="43.72593" lon="3.43515">
        <ele>208.9</ele>
        <time>2017-12-24T09:06:48Z</time>
      </trkpt>
      <trkpt lat="43.72594" lon="3.4352">
        <ele>209.4</ele>
        <time>2017-12-24T09:06:52Z</time>
      </trkpt>
      <trkpt lat="43.72595" lon="3.43524">
        <ele>209.7</ele>
        <time>2017-12-24T09:06:55Z</time>
      </trkpt>
      <trkpt lat="43.72597" lon="3.43528">
        <ele>210.1</ele>
        <time>2017-12-24T09:06:59Z</time>
      </trkpt>
      <trkpt lat="43.72599" lon="3.43531">
        <ele>210.5</ele>
        <time>2017-12-24T09:07:03Z</time>
      </trkpt>
      <trkpt lat="43.72601" lon="3.43534">
        <ele>210.9</ele>
        <time>2017-12-24T09:07:09Z</time>
      </trkpt>
      <trkpt lat="43.72604" lon="3.43537">
        <ele>211.4</ele>
        <time>2017-12-24T09:07:30Z</time>
      </trkpt>
      <trkpt lat="43.72607" lon="3.43539">
        <ele>211.6</ele>
        <time>2017-12-24T09:07:35Z</time>
      </trkpt>
      <trkpt lat="43.72609" lon="3.43542">
        <ele>211.7</ele>
        <time>2017-12-24T09:07:38Z</time>
      </trkpt>
      <trkpt lat="43.72611" lon="3.43545">
        <ele>211.8</ele>
        <time>2017-12-24T09:07:41Z</time>
      </trkpt>
      <trkpt lat="43.72614" lon="3.43548">
        <ele>212.1</ele>
        <time>2017-12-24T09:07:46Z</time>
      </trkpt>
      <trkpt lat="43.72618" lon="3.43549">
        <ele>212.4</ele>
        <time>2017-12-24T09:08:08Z</time>
      </trkpt>
      <trkpt lat="43.72621" lon="3.43551">
        <ele>212.7</ele>
        <time>2017-12-24T09:08:10Z</time>
      </trkpt>
      <trkpt lat="43.72624" lon="3.43555">
        <ele>213.1</ele>
        <time>2017-12-24T09:08:12Z</time>
      </trkpt>
      <trkpt lat="43.72626" lon="3.43558">
        <ele>214</ele>
        <time>2017-12-24T09:08:15Z</time>
      </trkpt>
      <trkpt lat="43.72628" lon="3.43559">
        <ele>213.8</ele>
        <time>2017-12-24T09:08:27Z</time>
      </trkpt>
      <trkpt lat="43.72631" lon="3.43559">
        <ele>213.4</ele>
        <time>2017-12-24T09:08:32Z</time>
      </trkpt>
      <trkpt lat="43.72634" lon="3.43555">
        <ele>213.1</ele>
        <time>2017-12-24T09:08:42Z</time>
      </trkpt>
      <trkpt lat="43.72636" lon="3.4355">
        <ele>213.1</ele>
        <time>2017-12-24T09:08:44Z</time>
      </trkpt>
      <trkpt lat="43.72639" lon="3.43546">
        <ele>213.2</ele>
        <time>2017-12-24T09:08:46Z</time>
      </trkpt>
      <trkpt lat="43.72643" lon="3.43542">
        <ele>213.3</ele>
        <time>2017-12-24T09:08:48Z</time>
      </trkpt>
      <trkpt lat="43.72646" lon="3.4354">
        <ele>213.4</ele>
        <time>2017-12-24T09:08:49Z</time>
      </trkpt>
      <trkpt lat="43.72649" lon="3.43538">
        <ele>213.4</ele>
        <time>2017-12-24T09:08:50Z</time>
      </trkpt>
      <trkpt lat="43.72652" lon="3.43536">
        <ele>213.4</ele>
        <time>2017-12-24T09:08:51Z</time>
      </trkpt>
      <trkpt lat="43.72655" lon="3.43534">
        <ele>213.4</ele>
        <time>2017-12-24T09:08:52Z</time>
      </trkpt>
      <trkpt lat="43.72658" lon="3.43533">
        <ele>213.5</ele>
        <time>2017-12-24T09:08:53Z</time>
      </trkpt>
      <trkpt lat="43.72662" lon="3.43531">
        <ele>213.7</ele>
        <time>2017-12-24T09:08:54Z</time>
      </trkpt>
      <trkpt lat="43.72665" lon="3.43529">
        <ele>213.7</ele>
        <time>2017-12-24T09:08:55Z</time>
      </trkpt>
      <trkpt lat="43.72669" lon="3.43527">
        <ele>213.8</ele>
        <time>2017-12-24T09:08:56Z</time>
      </trkpt>
      <trkpt lat="43.72673" lon="3.43526">
        <ele>213.9</ele>
        <time>2017-12-24T09:08:57Z</time>
      </trkpt>
      <trkpt lat="43.72678" lon="3.43524">
        <ele>214.1</ele>
        <time>2017-12-24T09:08:58Z</time>
      </trkpt>
      <trkpt lat="43.72682" lon="3.43521">
        <ele>214.1</ele>
        <time>2017-12-24T09:08:59Z</time>
      </trkpt>
      <trkpt lat="43.72687" lon="3.43519">
        <ele>214.2</ele>
        <time>2017-12-24T09:09:00Z</time>
      </trkpt>
      <trkpt lat="43.72691" lon="3.43516">
        <ele>214.5</ele>
        <time>2017-12-24T09:09:01Z</time>
      </trkpt>
      <trkpt lat="43.72696" lon="3.43514">
        <ele>214.7</ele>
        <time>2017-12-24T09:09:02Z</time>
      </trkpt>
      <trkpt lat="43.72701" lon="3.43511">
        <ele>215.1</ele>
        <time>2017-12-24T09:09:03Z</time>
      </trkpt>
      <trkpt lat="43.72706" lon="3.43508">
        <ele>215.3</ele>
        <time>2017-12-24T09:09:04Z</time>
      </trkpt>
      <trkpt lat="43.72712" lon="3.43505">
        <ele>215.6</ele>
        <time>2017-12-24T09:09:05Z</time>
      </trkpt>
      <trkpt lat="43.72718" lon="3.43502">
        <ele>216.1</ele>
        <time>2017-12-24T09:09:06Z</time>
      </trkpt>
      <trkpt lat="43.72724" lon="3.43499">
        <ele>216.4</ele>
        <time>2017-12-24T09:09:07Z</time>
      </trkpt>
      <trkpt lat="43.7273" lon="3.43496">
        <ele>216.7</ele>
        <time>2017-12-24T09:09:08Z</time>
      </trkpt>
      <trkpt lat="43.72736" lon="3.43493">
        <ele>217.1</ele>
        <time>2017-12-24T09:09:09Z</time>
      </trkpt>
      <trkpt lat="43.72742" lon="3.43491">
        <ele>217.6</ele>
        <time>2017-12-24T09:09:10Z</time>
      </trkpt>
      <trkpt lat="43.72749" lon="3.43489">
        <ele>218.1</ele>
        <time>2017-12-24T09:09:11Z</time>
      </trkpt>
      <trkpt lat="43.72756" lon="3.43488">
        <ele>218.3</ele>
        <time>2017-12-24T09:09:12Z</time>
      </trkpt>
      <trkpt lat="43.72762" lon="3.43488">
        <ele>218.9</ele>
        <time>2017-12-24T09:09:13Z</time>
      </trkpt>
      <trkpt lat="43.72769" lon="3.43488">
        <ele>219.4</ele>
        <time>2017-12-24T09:09:14Z</time>
      </trkpt>
      <trkpt lat="43.72775" lon="3.43488">
        <ele>219.8</ele>
        <time>2017-12-24T09:09:15Z</time>
      </trkpt>
      <trkpt lat="43.7278" lon="3.43488">
        <ele>220.1</ele>
        <time>2017-12-24T09:09:16Z</time>
      </trkpt>
      <trkpt lat="43.72785" lon="3.43485">
        <ele>220.3</ele>
        <time>2017-12-24T09:09:17Z</time>
      </trkpt>
      <trkpt lat="43.7279" lon="3.43483">
        <ele>220.5</ele>
        <time>2017-12-24T09:09:18Z</time>
      </trkpt>
      <trkpt lat="43.72793" lon="3.43481">
        <ele>220.7</ele>
        <time>2017-12-24T09:09:19Z</time>
      </trkpt>
      <trkpt lat="43.72797" lon="3.43479">
        <ele>220.9</ele>
        <time>2017-12-24T09:09:20Z</time>
      </trkpt>
      <trkpt lat="43.728" lon="3.43477">
        <ele>221</ele>
        <time>2017-12-24T09:09:21Z</time>
      </trkpt>
      <trkpt lat="43.72804" lon="3.43475">
        <ele>221.1</ele>
        <time>2017-12-24T09:09:22Z</time>
      </trkpt>
      <trkpt lat="43.72807" lon="3.43475">
        <ele>221.3</ele>
        <time>2017-12-24T09:09:23Z</time>
      </trkpt>
      <trkpt lat="43.72811" lon="3.43473">
        <ele>221.8</ele>
        <time>2017-12-24T09:09:25Z</time>
      </trkpt>
      <trkpt lat="43.72815" lon="3.43472">
        <ele>222.2</ele>
        <time>2017-12-24T09:09:27Z</time>
      </trkpt>
      <trkpt lat="43.72819" lon="3.43472">
        <ele>222.6</ele>
        <time>2017-12-24T09:09:29Z</time>
      </trkpt>
      <trkpt lat="43.72823" lon="3.43471">
        <ele>223</ele>
        <time>2017-12-24T09:09:31Z</time>
      </trkpt>
      <trkpt lat="43.72826" lon="3.43471">
        <ele>223.5</ele>
        <time>2017-12-24T09:09:33Z</time>
      </trkpt>
      <trkpt lat="43.72829" lon="3.43471">
        <ele>223.9</ele>
        <time>2017-12-24T09:09:35Z</time>
      </trkpt>
      <trkpt lat="43.72833" lon="3.4347">
        <ele>224.3</ele>
        <time>2017-12-24T09:09:37Z</time>
      </trkpt>
      <trkpt lat="43.72836" lon="3.4347">
        <ele>224.7</ele>
        <time>2017-12-24T09:09:39Z</time>
      </trkpt>
      <trkpt lat="43.72838" lon="3.4347">
        <ele>225.1</ele>
        <time>2017-12-24T09:09:41Z</time>
      </trkpt>
      <trkpt lat="43.72842" lon="3.4347">
        <ele>225.7</ele>
        <time>2017-12-24T09:09:44Z</time>
      </trkpt>
      <trkpt lat="43.72845" lon="3.4347">
        <ele>226.2</ele>
        <time>2017-12-24T09:09:46Z</time>
      </trkpt>
      <trkpt lat="43.7285" lon="3.43469">
        <ele>226.7</ele>
        <time>2017-12-24T09:09:48Z</time>
      </trkpt>
      <trkpt lat="43.72854" lon="3.43467">
        <ele>227</ele>
        <time>2017-12-24T09:09:51Z</time>
      </trkpt>
      <trkpt lat="43.72856" lon="3.43466">
        <ele>227</ele>
        <time>2017-12-24T09:09:53Z</time>
      </trkpt>
      <trkpt lat="43.7286" lon="3.43465">
        <ele>227</ele>
        <time>2017-12-24T09:09:55Z</time>
      </trkpt>
      <trkpt lat="43.72864" lon="3.43465">
        <ele>227.2</ele>
        <time>2017-12-24T09:09:57Z</time>
      </trkpt>
      <trkpt lat="43.72867" lon="3.43466">
        <ele>227.5</ele>
        <time>2017-12-24T09:09:59Z</time>
      </trkpt>
      <trkpt lat="43.72871" lon="3.43467">
        <ele>227.6</ele>
        <time>2017-12-24T09:10:01Z</time>
      </trkpt>
      <trkpt lat="43.72874" lon="3.43467">
        <ele>227.7</ele>
        <time>2017-12-24T09:10:03Z</time>
      </trkpt>
      <trkpt lat="43.72877" lon="3.43468">
        <ele>227.8</ele>
        <time>2017-12-24T09:10:05Z</time>
      </trkpt>
      <trkpt lat="43.72879" lon="3.43469">
        <ele>227.9</ele>
        <time>2017-12-24T09:10:07Z</time>
      </trkpt>
      <trkpt lat="43.72883" lon="3.4347">
        <ele>228</ele>
        <time>2017-12-24T09:10:09Z</time>
      </trkpt>
      <trkpt lat="43.72886" lon="3.4347">
        <ele>228</ele>
        <time>2017-12-24T09:10:11Z</time>
      </trkpt>
      <trkpt lat="43.7289" lon="3.4347">
        <ele>228.2</ele>
        <time>2017-12-24T09:10:13Z</time>
      </trkpt>
      <trkpt lat="43.72894" lon="3.4347">
        <ele>228.3</ele>
        <time>2017-12-24T09:10:15Z</time>
      </trkpt>
      <trkpt lat="43.72897" lon="3.43469">
        <ele>228.5</ele>
        <time>2017-12-24T09:10:17Z</time>
      </trkpt>
      <trkpt lat="43.729" lon="3.43468">
        <ele>228.7</ele>
        <time>2017-12-24T09:10:19Z</time>
      </trkpt>
      <trkpt lat="43.72904" lon="3.43468">
        <ele>229</ele>
        <time>2017-12-24T09:10:21Z</time>
      </trkpt>
      <trkpt lat="43.72907" lon="3.43468">
        <ele>229.1</ele>
        <time>2017-12-24T09:10:23Z</time>
      </trkpt>
      <trkpt lat="43.72911" lon="3.43469">
        <ele>229.2</ele>
        <time>2017-12-24T09:10:25Z</time>
      </trkpt>
      <trkpt lat="43.72914" lon="3.43469">
        <ele>229.4</ele>
        <time>2017-12-24T09:10:27Z</time>
      </trkpt>
      <trkpt lat="43.72917" lon="3.43469">
        <ele>229.5</ele>
        <time>2017-12-24T09:10:29Z</time>
      </trkpt>
      <trkpt lat="43.72921" lon="3.4347">
        <ele>229.7</ele>
        <time>2017-12-24T09:10:31Z</time>
      </trkpt>
      <trkpt lat="43.72924" lon="3.43471">
        <ele>229.8</ele>
        <time>2017-12-24T09:10:33Z</time>
      </trkpt>
      <trkpt lat="43.72928" lon="3.43472">
        <ele>230</ele>
        <time>2017-12-24T09:10:35Z</time>
      </trkpt>
      <trkpt lat="43.72931" lon="3.43474">
        <ele>230.2</ele>
        <time>2017-12-24T09:10:37Z</time>
      </trkpt>
      <trkpt lat="43.72934" lon="3.43475">
        <ele>230.3</ele>
        <time>2017-12-24T09:10:39Z</time>
      </trkpt>
      <trkpt lat="43.72937" lon="3.43477">
        <ele>230.4</ele>
        <time>2017-12-24T09:10:41Z</time>
      </trkpt>
      <trkpt lat="43.72941" lon="3.43479">
        <ele>230.5</ele>
        <time>2017-12-24T09:10:43Z</time>
      </trkpt>
      <trkpt lat="43.72944" lon="3.43481">
        <ele>230.7</ele>
        <time>2017-12-24T09:10:45Z</time>
      </trkpt>
      <trkpt lat="43.72948" lon="3.43482">
        <ele>230.9</ele>
        <time>2017-12-24T09:10:47Z</time>
      </trkpt>
      <trkpt lat="43.72951" lon="3.43483">
        <ele>230.9</ele>
        <time>2017-12-24T09:10:49Z</time>
      </trkpt>
      <trkpt lat="43.72954" lon="3.43484">
        <ele>231.1</ele>
        <time>2017-12-24T09:10:51Z</time>
      </trkpt>
      <trkpt lat="43.72958" lon="3.43484">
        <ele>231.1</ele>
        <time>2017-12-24T09:10:53Z</time>
      </trkpt>
      <trkpt lat="43.72961" lon="3.43485">
        <ele>231.3</ele>
        <time>2017-12-24T09:10:55Z</time>
      </trkpt>
      <trkpt lat="43.72964" lon="3.43486">
        <ele>231.5</ele>
        <time>2017-12-24T09:10:57Z</time>
      </trkpt>
      <trkpt lat="43.72967" lon="3.43487">
        <ele>231.7</ele>
        <time>2017-12-24T09:10:59Z</time>
      </trkpt>
      <trkpt lat="43.7297" lon="3.43488">
        <ele>231.8</ele>
        <time>2017-12-24T09:11:01Z</time>
      </trkpt>
      <trkpt lat="43.72973" lon="3.43489">
        <ele>232</ele>
        <time>2017-12-24T09:11:03Z</time>
      </trkpt>
      <trkpt lat="43.72976" lon="3.43489">
        <ele>232.1</ele>
        <time>2017-12-24T09:11:05Z</time>
      </trkpt>
      <trkpt lat="43.72979" lon="3.4349">
        <ele>232.3</ele>
        <time>2017-12-24T09:11:07Z</time>
      </trkpt>
      <trkpt lat="43.72982" lon="3.43491">
        <ele>232.4</ele>
        <time>2017-12-24T09:11:09Z</time>
      </trkpt>
      <trkpt lat="43.72985" lon="3.43492">
        <ele>232.6</ele>
        <time>2017-12-24T09:11:11Z</time>
      </trkpt>
      <trkpt lat="43.72988" lon="3.43491">
        <ele>232.8</ele>
        <time>2017-12-24T09:11:13Z</time>
      </trkpt>
      <trkpt lat="43.72992" lon="3.43491">
        <ele>232.9</ele>
        <time>2017-12-24T09:11:15Z</time>
      </trkpt>
      <trkpt lat="43.72995" lon="3.4349">
        <ele>233</ele>
        <time>2017-12-24T09:11:17Z</time>
      </trkpt>
      <trkpt lat="43.72999" lon="3.43491">
        <ele>233.2</ele>
        <time>2017-12-24T09:11:20Z</time>
      </trkpt>
      <trkpt lat="43.73002" lon="3.43493">
        <ele>233.4</ele>
        <time>2017-12-24T09:11:22Z</time>
      </trkpt>
      <trkpt lat="43.73004" lon="3.43496">
        <ele>233.6</ele>
        <time>2017-12-24T09:11:24Z</time>
      </trkpt>
      <trkpt lat="43.73005" lon="3.43501">
        <ele>233.8</ele>
        <time>2017-12-24T09:11:26Z</time>
      </trkpt>
      <trkpt lat="43.73003" lon="3.43505">
        <ele>233.8</ele>
        <time>2017-12-24T09:11:28Z</time>
      </trkpt>
      <trkpt lat="43.72999" lon="3.43508">
        <ele>233.7</ele>
        <time>2017-12-24T09:11:30Z</time>
      </trkpt>
      <trkpt lat="43.72994" lon="3.43508">
        <ele>233.4</ele>
        <time>2017-12-24T09:11:32Z</time>
      </trkpt>
      <trkpt lat="43.72989" lon="3.43509">
        <ele>233.1</ele>
        <time>2017-12-24T09:11:34Z</time>
      </trkpt>
      <trkpt lat="43.72986" lon="3.43508">
        <ele>232.8</ele>
        <time>2017-12-24T09:11:35Z</time>
      </trkpt>
      <trkpt lat="43.72981" lon="3.43509">
        <ele>232.5</ele>
        <time>2017-12-24T09:11:37Z</time>
      </trkpt>
      <trkpt lat="43.72977" lon="3.4351">
        <ele>232.3</ele>
        <time>2017-12-24T09:11:39Z</time>
      </trkpt>
      <trkpt lat="43.72973" lon="3.4351">
        <ele>232</ele>
        <time>2017-12-24T09:11:41Z</time>
      </trkpt>
      <trkpt lat="43.7297" lon="3.43511">
        <ele>231.9</ele>
        <time>2017-12-24T09:11:43Z</time>
      </trkpt>
      <trkpt lat="43.72966" lon="3.43512">
        <ele>231.7</ele>
        <time>2017-12-24T09:11:45Z</time>
      </trkpt>
      <trkpt lat="43.72963" lon="3.43512">
        <ele>231.5</ele>
        <time>2017-12-24T09:11:47Z</time>
      </trkpt>
      <trkpt lat="43.7296" lon="3.43513">
        <ele>231.4</ele>
        <time>2017-12-24T09:11:49Z</time>
      </trkpt>
      <trkpt lat="43.72956" lon="3.43514">
        <ele>231.2</ele>
        <time>2017-12-24T09:11:51Z</time>
      </trkpt>
      <trkpt lat="43.72953" lon="3.43516">
        <ele>231</ele>
        <time>2017-12-24T09:11:53Z</time>
      </trkpt>
      <trkpt lat="43.72949" lon="3.43517">
        <ele>230.8</ele>
        <time>2017-12-24T09:11:55Z</time>
      </trkpt>
      <trkpt lat="43.72946" lon="3.43519">
        <ele>230.7</ele>
        <time>2017-12-24T09:11:57Z</time>
      </trkpt>
      <trkpt lat="43.72943" lon="3.4352">
        <ele>230.6</ele>
        <time>2017-12-24T09:11:59Z</time>
      </trkpt>
      <trkpt lat="43.7294" lon="3.43521">
        <ele>230.5</ele>
        <time>2017-12-24T09:12:01Z</time>
      </trkpt>
      <trkpt lat="43.72936" lon="3.43522">
        <ele>230.4</ele>
        <time>2017-12-24T09:12:03Z</time>
      </trkpt>
      <trkpt lat="43.72933" lon="3.43524">
        <ele>230.4</ele>
        <time>2017-12-24T09:12:05Z</time>
      </trkpt>
      <trkpt lat="43.7293" lon="3.43526">
        <ele>230.4</ele>
        <time>2017-12-24T09:12:07Z</time>
      </trkpt>
      <trkpt lat="43.72927" lon="3.43527">
        <ele>230.5</ele>
        <time>2017-12-24T09:12:09Z</time>
      </trkpt>
      <trkpt lat="43.72923" lon="3.43529">
        <ele>230.5</ele>
        <time>2017-12-24T09:12:11Z</time>
      </trkpt>
      <trkpt lat="43.72919" lon="3.43531">
        <ele>230.5</ele>
        <time>2017-12-24T09:12:13Z</time>
      </trkpt>
      <trkpt lat="43.72916" lon="3.43532">
        <ele>230.5</ele>
        <time>2017-12-24T09:12:15Z</time>
      </trkpt>
      <trkpt lat="43.72912" lon="3.43534">
        <ele>230.4</ele>
        <time>2017-12-24T09:12:17Z</time>
      </trkpt>
      <trkpt lat="43.72909" lon="3.43536">
        <ele>230.5</ele>
        <time>2017-12-24T09:12:19Z</time>
      </trkpt>
      <trkpt lat="43.72906" lon="3.43539">
        <ele>230.6</ele>
        <time>2017-12-24T09:12:21Z</time>
      </trkpt>
      <trkpt lat="43.72903" lon="3.43541">
        <ele>230.8</ele>
        <time>2017-12-24T09:12:23Z</time>
      </trkpt>
      <trkpt lat="43.72899" lon="3.43543">
        <ele>231</ele>
        <time>2017-12-24T09:12:25Z</time>
      </trkpt>
      <trkpt lat="43.72895" lon="3.43545">
        <ele>231.3</ele>
        <time>2017-12-24T09:12:27Z</time>
      </trkpt>
      <trkpt lat="43.72891" lon="3.43547">
        <ele>231.5</ele>
        <time>2017-12-24T09:12:29Z</time>
      </trkpt>
      <trkpt lat="43.72888" lon="3.4355">
        <ele>231.8</ele>
        <time>2017-12-24T09:12:31Z</time>
      </trkpt>
      <trkpt lat="43.72884" lon="3.43551">
        <ele>232.1</ele>
        <time>2017-12-24T09:12:33Z</time>
      </trkpt>
      <trkpt lat="43.72881" lon="3.43554">
        <ele>232.3</ele>
        <time>2017-12-24T09:12:35Z</time>
      </trkpt>
      <trkpt lat="43.72878" lon="3.43557">
        <ele>232.5</ele>
        <time>2017-12-24T09:12:37Z</time>
      </trkpt>
      <trkpt lat="43.72874" lon="3.43558">
        <ele>232.8</ele>
        <time>2017-12-24T09:12:39Z</time>
      </trkpt>
      <trkpt lat="43.7287" lon="3.4356">
        <ele>233.1</ele>
        <time>2017-12-24T09:12:41Z</time>
      </trkpt>
      <trkpt lat="43.72867" lon="3.43562">
        <ele>233.2</ele>
        <time>2017-12-24T09:12:43Z</time>
      </trkpt>
      <trkpt lat="43.72863" lon="3.43564">
        <ele>233.4</ele>
        <time>2017-12-24T09:12:45Z</time>
      </trkpt>
      <trkpt lat="43.7286" lon="3.43565">
        <ele>233.2</ele>
        <time>2017-12-24T09:12:47Z</time>
      </trkpt>
      <trkpt lat="43.72856" lon="3.43567">
        <ele>232.9</ele>
        <time>2017-12-24T09:12:49Z</time>
      </trkpt>
      <trkpt lat="43.72852" lon="3.43569">
        <ele>233.1</ele>
        <time>2017-12-24T09:12:51Z</time>
      </trkpt>
      <trkpt lat="43.72848" lon="3.4357">
        <ele>233.3</ele>
        <time>2017-12-24T09:12:53Z</time>
      </trkpt>
      <trkpt lat="43.72844" lon="3.43571">
        <ele>233.3</ele>
        <time>2017-12-24T09:12:55Z</time>
      </trkpt>
      <trkpt lat="43.72841" lon="3.43572">
        <ele>233.4</ele>
        <time>2017-12-24T09:12:57Z</time>
      </trkpt>
      <trkpt lat="43.72837" lon="3.43573">
        <ele>233.4</ele>
        <time>2017-12-24T09:12:59Z</time>
      </trkpt>
      <trkpt lat="43.72833" lon="3.43575">
        <ele>233.4</ele>
        <time>2017-12-24T09:13:01Z</time>
      </trkpt>
      <trkpt lat="43.72829" lon="3.43577">
        <ele>233.5</ele>
        <time>2017-12-24T09:13:03Z</time>
      </trkpt>
      <trkpt lat="43.72826" lon="3.43578">
        <ele>233.6</ele>
        <time>2017-12-24T09:13:05Z</time>
      </trkpt>
      <trkpt lat="43.72822" lon="3.43579">
        <ele>233.6</ele>
        <time>2017-12-24T09:13:07Z</time>
      </trkpt>
      <trkpt lat="43.72818" lon="3.43581">
        <ele>233.3</ele>
        <time>2017-12-24T09:13:09Z</time>
      </trkpt>
      <trkpt lat="43.72814" lon="3.43583">
        <ele>233.3</ele>
        <time>2017-12-24T09:13:11Z</time>
      </trkpt>
      <trkpt lat="43.7281" lon="3.43586">
        <ele>233.6</ele>
        <time>2017-12-24T09:13:13Z</time>
      </trkpt>
      <trkpt lat="43.72807" lon="3.43588">
        <ele>233.8</ele>
        <time>2017-12-24T09:13:15Z</time>
      </trkpt>
      <trkpt lat="43.72804" lon="3.43591">
        <ele>234</ele>
        <time>2017-12-24T09:13:17Z</time>
      </trkpt>
      <trkpt lat="43.72801" lon="3.43594">
        <ele>234.2</ele>
        <time>2017-12-24T09:13:19Z</time>
      </trkpt>
      <trkpt lat="43.72799" lon="3.43598">
        <ele>234.9</ele>
        <time>2017-12-24T09:13:21Z</time>
      </trkpt>
      <trkpt lat="43.72796" lon="3.43602">
        <ele>235.6</ele>
        <time>2017-12-24T09:13:23Z</time>
      </trkpt>
      <trkpt lat="43.72794" lon="3.43605">
        <ele>236.3</ele>
        <time>2017-12-24T09:13:25Z</time>
      </trkpt>
      <trkpt lat="43.72792" lon="3.43609">
        <ele>237.2</ele>
        <time>2017-12-24T09:13:27Z</time>
      </trkpt>
      <trkpt lat="43.72789" lon="3.43614">
        <ele>238</ele>
        <time>2017-12-24T09:13:29Z</time>
      </trkpt>
      <trkpt lat="43.72786" lon="3.43618">
        <ele>238.8</ele>
        <time>2017-12-24T09:13:31Z</time>
      </trkpt>
      <trkpt lat="43.72784" lon="3.43621">
        <ele>239.3</ele>
        <time>2017-12-24T09:13:33Z</time>
      </trkpt>
      <trkpt lat="43.72782" lon="3.43624">
        <ele>239.8</ele>
        <time>2017-12-24T09:13:35Z</time>
      </trkpt>
      <trkpt lat="43.7278" lon="3.43627">
        <ele>240.3</ele>
        <time>2017-12-24T09:13:37Z</time>
      </trkpt>
      <trkpt lat="43.72778" lon="3.4363">
        <ele>240.7</ele>
        <time>2017-12-24T09:13:39Z</time>
      </trkpt>
      <trkpt lat="43.72776" lon="3.43633">
        <ele>241.3</ele>
        <time>2017-12-24T09:13:41Z</time>
      </trkpt>
      <trkpt lat="43.72773" lon="3.43636">
        <ele>241.8</ele>
        <time>2017-12-24T09:13:43Z</time>
      </trkpt>
      <trkpt lat="43.7277" lon="3.43639">
        <ele>242.3</ele>
        <time>2017-12-24T09:13:45Z</time>
      </trkpt>
      <trkpt lat="43.72767" lon="3.43642">
        <ele>242.6</ele>
        <time>2017-12-24T09:13:47Z</time>
      </trkpt>
      <trkpt lat="43.72764" lon="3.43645">
        <ele>242.7</ele>
        <time>2017-12-24T09:13:49Z</time>
      </trkpt>
      <trkpt lat="43.72761" lon="3.43648">
        <ele>242.9</ele>
        <time>2017-12-24T09:13:51Z</time>
      </trkpt>
      <trkpt lat="43.72758" lon="3.43652">
        <ele>243.3</ele>
        <time>2017-12-24T09:13:53Z</time>
      </trkpt>
      <trkpt lat="43.72756" lon="3.43656">
        <ele>243.6</ele>
        <time>2017-12-24T09:13:55Z</time>
      </trkpt>
      <trkpt lat="43.72753" lon="3.4366">
        <ele>243.6</ele>
        <time>2017-12-24T09:13:57Z</time>
      </trkpt>
      <trkpt lat="43.7275" lon="3.43664">
        <ele>243.7</ele>
        <time>2017-12-24T09:13:59Z</time>
      </trkpt>
      <trkpt lat="43.72748" lon="3.43668">
        <ele>244.5</ele>
        <time>2017-12-24T09:14:01Z</time>
      </trkpt>
      <trkpt lat="43.72746" lon="3.43672">
        <ele>244.8</ele>
        <time>2017-12-24T09:14:03Z</time>
      </trkpt>
      <trkpt lat="43.72745" lon="3.43677">
        <ele>245</ele>
        <time>2017-12-24T09:14:05Z</time>
      </trkpt>
      <trkpt lat="43.72743" lon="3.43683">
        <ele>245</ele>
        <time>2017-12-24T09:14:07Z</time>
      </trkpt>
      <trkpt lat="43.72742" lon="3.43688">
        <ele>245.4</ele>
        <time>2017-12-24T09:14:09Z</time>
      </trkpt>
      <trkpt lat="43.72741" lon="3.43694">
        <ele>246.1</ele>
        <time>2017-12-24T09:14:11Z</time>
      </trkpt>
      <trkpt lat="43.7274" lon="3.43699">
        <ele>246.6</ele>
        <time>2017-12-24T09:14:13Z</time>
      </trkpt>
      <trkpt lat="43.7274" lon="3.43704">
        <ele>247</ele>
        <time>2017-12-24T09:14:15Z</time>
      </trkpt>
      <trkpt lat="43.72739" lon="3.43709">
        <ele>247.8</ele>
        <time>2017-12-24T09:14:17Z</time>
      </trkpt>
      <trkpt lat="43.72738" lon="3.43715">
        <ele>249</ele>
        <time>2017-12-24T09:14:19Z</time>
      </trkpt>
      <trkpt lat="43.72737" lon="3.43721">
        <ele>249.6</ele>
        <time>2017-12-24T09:14:21Z</time>
      </trkpt>
      <trkpt lat="43.72737" lon="3.43726">
        <ele>250.1</ele>
        <time>2017-12-24T09:14:23Z</time>
      </trkpt>
      <trkpt lat="43.72736" lon="3.43733">
        <ele>251</ele>
        <time>2017-12-24T09:14:25Z</time>
      </trkpt>
      <trkpt lat="43.72734" lon="3.4374">
        <ele>251.5</ele>
        <time>2017-12-24T09:14:27Z</time>
      </trkpt>
      <trkpt lat="43.72732" lon="3.43745">
        <ele>251.9</ele>
        <time>2017-12-24T09:14:29Z</time>
      </trkpt>
      <trkpt lat="43.72731" lon="3.43749">
        <ele>252.1</ele>
        <time>2017-12-24T09:14:31Z</time>
      </trkpt>
      <trkpt lat="43.72728" lon="3.43754">
        <ele>252.3</ele>
        <time>2017-12-24T09:14:33Z</time>
      </trkpt>
      <trkpt lat="43.72726" lon="3.43758">
        <ele>252.5</ele>
        <time>2017-12-24T09:14:35Z</time>
      </trkpt>
      <trkpt lat="43.72725" lon="3.43763">
        <ele>252.7</ele>
        <time>2017-12-24T09:14:37Z</time>
      </trkpt>
      <trkpt lat="43.72723" lon="3.43767">
        <ele>253</ele>
        <time>2017-12-24T09:14:39Z</time>
      </trkpt>
      <trkpt lat="43.72721" lon="3.43772">
        <ele>253.5</ele>
        <time>2017-12-24T09:14:41Z</time>
      </trkpt>
      <trkpt lat="43.7272" lon="3.43776">
        <ele>253.9</ele>
        <time>2017-12-24T09:14:43Z</time>
      </trkpt>
      <trkpt lat="43.72719" lon="3.4378">
        <ele>254.2</ele>
        <time>2017-12-24T09:14:45Z</time>
      </trkpt>
      <trkpt lat="43.72718" lon="3.43786">
        <ele>254.8</ele>
        <time>2017-12-24T09:14:47Z</time>
      </trkpt>
      <trkpt lat="43.72718" lon="3.43791">
        <ele>255.3</ele>
        <time>2017-12-24T09:14:49Z</time>
      </trkpt>
      <trkpt lat="43.72718" lon="3.43796">
        <ele>255.8</ele>
        <time>2017-12-24T09:14:51Z</time>
      </trkpt>
      <trkpt lat="43.72718" lon="3.43801">
        <ele>256.1</ele>
        <time>2017-12-24T09:14:53Z</time>
      </trkpt>
      <trkpt lat="43.72717" lon="3.43807">
        <ele>256.6</ele>
        <time>2017-12-24T09:14:55Z</time>
      </trkpt>
      <trkpt lat="43.72717" lon="3.43812">
        <ele>257.2</ele>
        <time>2017-12-24T09:14:57Z</time>
      </trkpt>
      <trkpt lat="43.72717" lon="3.43817">
        <ele>257.7</ele>
        <time>2017-12-24T09:14:59Z</time>
      </trkpt>
      <trkpt lat="43.72716" lon="3.43822">
        <ele>258.1</ele>
        <time>2017-12-24T09:15:01Z</time>
      </trkpt>
      <trkpt lat="43.72716" lon="3.43828">
        <ele>258.5</ele>
        <time>2017-12-24T09:15:03Z</time>
      </trkpt>
      <trkpt lat="43.72715" lon="3.43832">
        <ele>258.9</ele>
        <time>2017-12-24T09:15:05Z</time>
      </trkpt>
      <trkpt lat="43.72715" lon="3.43837">
        <ele>259.4</ele>
        <time>2017-12-24T09:15:07Z</time>
      </trkpt>
      <trkpt lat="43.72714" lon="3.43841">
        <ele>259.8</ele>
        <time>2017-12-24T09:15:09Z</time>
      </trkpt>
      <trkpt lat="43.72714" lon="3.43847">
        <ele>260.4</ele>
        <time>2017-12-24T09:15:11Z</time>
      </trkpt>
      <trkpt lat="43.72714" lon="3.43852">
        <ele>260.9</ele>
        <time>2017-12-24T09:15:13Z</time>
      </trkpt>
      <trkpt lat="43.72714" lon="3.43858">
        <ele>261.4</ele>
        <time>2017-12-24T09:15:15Z</time>
      </trkpt>
      <trkpt lat="43.72715" lon="3.43863">
        <ele>262</ele>
        <time>2017-12-24T09:15:17Z</time>
      </trkpt>
      <trkpt lat="43.72716" lon="3.43869">
        <ele>262.7</ele>
        <time>2017-12-24T09:15:19Z</time>
      </trkpt>
      <trkpt lat="43.72717" lon="3.43874">
        <ele>263.4</ele>
        <time>2017-12-24T09:15:21Z</time>
      </trkpt>
      <trkpt lat="43.72717" lon="3.43879">
        <ele>263.8</ele>
        <time>2017-12-24T09:15:23Z</time>
      </trkpt>
      <trkpt lat="43.72718" lon="3.43885">
        <ele>264.5</ele>
        <time>2017-12-24T09:15:25Z</time>
      </trkpt>
      <trkpt lat="43.72718" lon="3.4389">
        <ele>265.4</ele>
        <time>2017-12-24T09:15:27Z</time>
      </trkpt>
      <trkpt lat="43.72718" lon="3.43895">
        <ele>265.9</ele>
        <time>2017-12-24T09:15:29Z</time>
      </trkpt>
      <trkpt lat="43.72718" lon="3.439">
        <ele>266.1</ele>
        <time>2017-12-24T09:15:31Z</time>
      </trkpt>
      <trkpt lat="43.72717" lon="3.43906">
        <ele>266.5</ele>
        <time>2017-12-24T09:15:33Z</time>
      </trkpt>
      <trkpt lat="43.72716" lon="3.43911">
        <ele>267</ele>
        <time>2017-12-24T09:15:35Z</time>
      </trkpt>
      <trkpt lat="43.72714" lon="3.43917">
        <ele>267.5</ele>
        <time>2017-12-24T09:15:37Z</time>
      </trkpt>
      <trkpt lat="43.72715" lon="3.43923">
        <ele>268.2</ele>
        <time>2017-12-24T09:15:39Z</time>
      </trkpt>
      <trkpt lat="43.72717" lon="3.43926">
        <ele>268.6</ele>
        <time>2017-12-24T09:15:40Z</time>
      </trkpt>
      <trkpt lat="43.7272" lon="3.43927">
        <ele>269.2</ele>
        <time>2017-12-24T09:15:41Z</time>
      </trkpt>
      <trkpt lat="43.72724" lon="3.43925">
        <ele>271</ele>
        <time>2017-12-24T09:15:43Z</time>
      </trkpt>
      <trkpt lat="43.72726" lon="3.4392">
        <ele>271.6</ele>
        <time>2017-12-24T09:15:45Z</time>
      </trkpt>
      <trkpt lat="43.72727" lon="3.43914">
        <ele>271.2</ele>
        <time>2017-12-24T09:15:47Z</time>
      </trkpt>
      <trkpt lat="43.72728" lon="3.43909">
        <ele>270.8</ele>
        <time>2017-12-24T09:15:49Z</time>
      </trkpt>
      <trkpt lat="43.72728" lon="3.43903">
        <ele>270.5</ele>
        <time>2017-12-24T09:15:51Z</time>
      </trkpt>
      <trkpt lat="43.72729" lon="3.43896">
        <ele>270.5</ele>
        <time>2017-12-24T09:15:53Z</time>
      </trkpt>
      <trkpt lat="43.7273" lon="3.43891">
        <ele>270.6</ele>
        <time>2017-12-24T09:15:55Z</time>
      </trkpt>
      <trkpt lat="43.72731" lon="3.43886">
        <ele>270.7</ele>
        <time>2017-12-24T09:15:57Z</time>
      </trkpt>
      <trkpt lat="43.72733" lon="3.43883">
        <ele>270.7</ele>
        <time>2017-12-24T09:15:59Z</time>
      </trkpt>
      <trkpt lat="43.72735" lon="3.43878">
        <ele>270.5</ele>
        <time>2017-12-24T09:16:01Z</time>
      </trkpt>
      <trkpt lat="43.72737" lon="3.43874">
        <ele>270.5</ele>
        <time>2017-12-24T09:16:03Z</time>
      </trkpt>
      <trkpt lat="43.7274" lon="3.43871">
        <ele>271</ele>
        <time>2017-12-24T09:16:05Z</time>
      </trkpt>
      <trkpt lat="43.72744" lon="3.43867">
        <ele>271.6</ele>
        <time>2017-12-24T09:16:07Z</time>
      </trkpt>
      <trkpt lat="43.72748" lon="3.43864">
        <ele>271.8</ele>
        <time>2017-12-24T09:16:09Z</time>
      </trkpt>
      <trkpt lat="43.72751" lon="3.4386">
        <ele>272.2</ele>
        <time>2017-12-24T09:16:11Z</time>
      </trkpt>
      <trkpt lat="43.72754" lon="3.43857">
        <ele>272.8</ele>
        <time>2017-12-24T09:16:13Z</time>
      </trkpt>
      <trkpt lat="43.72758" lon="3.43854">
        <ele>273.5</ele>
        <time>2017-12-24T09:16:15Z</time>
      </trkpt>
      <trkpt lat="43.72761" lon="3.43852">
        <ele>274.2</ele>
        <time>2017-12-24T09:16:17Z</time>
      </trkpt>
      <trkpt lat="43.72765" lon="3.43849">
        <ele>274.9</ele>
        <time>2017-12-24T09:16:19Z</time>
      </trkpt>
      <trkpt lat="43.72768" lon="3.43846">
        <ele>275.5</ele>
        <time>2017-12-24T09:16:21Z</time>
      </trkpt>
      <trkpt lat="43.72773" lon="3.43844">
        <ele>276.1</ele>
        <time>2017-12-24T09:16:23Z</time>
      </trkpt>
      <trkpt lat="43.72776" lon="3.43842">
        <ele>276.3</ele>
        <time>2017-12-24T09:16:25Z</time>
      </trkpt>
      <trkpt lat="43.7278" lon="3.43839">
        <ele>276.5</ele>
        <time>2017-12-24T09:16:27Z</time>
      </trkpt>
      <trkpt lat="43.72782" lon="3.43836">
        <ele>277.1</ele>
        <time>2017-12-24T09:16:29Z</time>
      </trkpt>
      <trkpt lat="43.72786" lon="3.43833">
        <ele>277.9</ele>
        <time>2017-12-24T09:16:31Z</time>
      </trkpt>
      <trkpt lat="43.7279" lon="3.4383">
        <ele>278.4</ele>
        <time>2017-12-24T09:16:33Z</time>
      </trkpt>
      <trkpt lat="43.72793" lon="3.43826">
        <ele>278.6</ele>
        <time>2017-12-24T09:16:35Z</time>
      </trkpt>
      <trkpt lat="43.72796" lon="3.43823">
        <ele>279</ele>
        <time>2017-12-24T09:16:37Z</time>
      </trkpt>
      <trkpt lat="43.72799" lon="3.43821">
        <ele>279.4</ele>
        <time>2017-12-24T09:16:39Z</time>
      </trkpt>
      <trkpt lat="43.72802" lon="3.43819">
        <ele>279.7</ele>
        <time>2017-12-24T09:16:41Z</time>
      </trkpt>
      <trkpt lat="43.72805" lon="3.43818">
        <ele>280.2</ele>
        <time>2017-12-24T09:16:43Z</time>
      </trkpt>
      <trkpt lat="43.72808" lon="3.43816">
        <ele>280.5</ele>
        <time>2017-12-24T09:16:45Z</time>
      </trkpt>
      <trkpt lat="43.72811" lon="3.43814">
        <ele>280.9</ele>
        <time>2017-12-24T09:16:47Z</time>
      </trkpt>
      <trkpt lat="43.72814" lon="3.43811">
        <ele>281.3</ele>
        <time>2017-12-24T09:16:49Z</time>
      </trkpt>
      <trkpt lat="43.72817" lon="3.43809">
        <ele>281.7</ele>
        <time>2017-12-24T09:16:51Z</time>
      </trkpt>
      <trkpt lat="43.7282" lon="3.43807">
        <ele>281.7</ele>
        <time>2017-12-24T09:16:53Z</time>
      </trkpt>
      <trkpt lat="43.72822" lon="3.43804">
        <ele>281.8</ele>
        <time>2017-12-24T09:16:55Z</time>
      </trkpt>
      <trkpt lat="43.72825" lon="3.43802">
        <ele>282.2</ele>
        <time>2017-12-24T09:16:57Z</time>
      </trkpt>
      <trkpt lat="43.72829" lon="3.438">
        <ele>282.7</ele>
        <time>2017-12-24T09:16:59Z</time>
      </trkpt>
      <trkpt lat="43.72832" lon="3.43799">
        <ele>283.1</ele>
        <time>2017-12-24T09:17:01Z</time>
      </trkpt>
      <trkpt lat="43.72835" lon="3.43797">
        <ele>283.4</ele>
        <time>2017-12-24T09:17:03Z</time>
      </trkpt>
      <trkpt lat="43.72839" lon="3.43795">
        <ele>283.8</ele>
        <time>2017-12-24T09:17:05Z</time>
      </trkpt>
      <trkpt lat="43.72842" lon="3.43793">
        <ele>284.2</ele>
        <time>2017-12-24T09:17:07Z</time>
      </trkpt>
      <trkpt lat="43.72845" lon="3.43791">
        <ele>284.6</ele>
        <time>2017-12-24T09:17:09Z</time>
      </trkpt>
      <trkpt lat="43.72848" lon="3.43789">
        <ele>284.9</ele>
        <time>2017-12-24T09:17:11Z</time>
      </trkpt>
      <trkpt lat="43.72852" lon="3.43787">
        <ele>285.2</ele>
        <time>2017-12-24T09:17:13Z</time>
      </trkpt>
      <trkpt lat="43.72855" lon="3.43785">
        <ele>285.7</ele>
        <time>2017-12-24T09:17:15Z</time>
      </trkpt>
      <trkpt lat="43.72858" lon="3.43784">
        <ele>286.2</ele>
        <time>2017-12-24T09:17:17Z</time>
      </trkpt>
      <trkpt lat="43.72861" lon="3.43782">
        <ele>286.4</ele>
        <time>2017-12-24T09:17:19Z</time>
      </trkpt>
      <trkpt lat="43.72864" lon="3.4378">
        <ele>286.7</ele>
        <time>2017-12-24T09:17:21Z</time>
      </trkpt>
      <trkpt lat="43.72868" lon="3.43779">
        <ele>287.2</ele>
        <time>2017-12-24T09:17:23Z</time>
      </trkpt>
      <trkpt lat="43.72871" lon="3.43777">
        <ele>288</ele>
        <time>2017-12-24T09:17:25Z</time>
      </trkpt>
      <trkpt lat="43.72875" lon="3.43776">
        <ele>288.8</ele>
        <time>2017-12-24T09:17:27Z</time>
      </trkpt>
      <trkpt lat="43.72878" lon="3.43775">
        <ele>289.2</ele>
        <time>2017-12-24T09:17:28Z</time>
      </trkpt>
      <trkpt lat="43.72883" lon="3.43774">
        <ele>289.8</ele>
        <time>2017-12-24T09:17:30Z</time>
      </trkpt>
      <trkpt lat="43.72886" lon="3.43772">
        <ele>290.3</ele>
        <time>2017-12-24T09:17:32Z</time>
      </trkpt>
      <trkpt lat="43.7289" lon="3.43771">
        <ele>290.8</ele>
        <time>2017-12-24T09:17:34Z</time>
      </trkpt>
      <trkpt lat="43.72894" lon="3.43769">
        <ele>291.4</ele>
        <time>2017-12-24T09:17:36Z</time>
      </trkpt>
      <trkpt lat="43.72898" lon="3.43769">
        <ele>292</ele>
        <time>2017-12-24T09:17:38Z</time>
      </trkpt>
      <trkpt lat="43.72902" lon="3.43768">
        <ele>292.5</ele>
        <time>2017-12-24T09:17:40Z</time>
      </trkpt>
      <trkpt lat="43.72906" lon="3.43767">
        <ele>293</ele>
        <time>2017-12-24T09:17:42Z</time>
      </trkpt>
      <trkpt lat="43.7291" lon="3.43766">
        <ele>293.4</ele>
        <time>2017-12-24T09:17:44Z</time>
      </trkpt>
      <trkpt lat="43.72913" lon="3.43765">
        <ele>293.6</ele>
        <time>2017-12-24T09:17:46Z</time>
      </trkpt>
      <trkpt lat="43.72917" lon="3.43764">
        <ele>293.9</ele>
        <time>2017-12-24T09:17:48Z</time>
      </trkpt>
      <trkpt lat="43.7292" lon="3.43763">
        <ele>294.1</ele>
        <time>2017-12-24T09:17:50Z</time>
      </trkpt>
      <trkpt lat="43.72924" lon="3.43762">
        <ele>294.2</ele>
        <time>2017-12-24T09:17:52Z</time>
      </trkpt>
      <trkpt lat="43.72928" lon="3.43761">
        <ele>294.5</ele>
        <time>2017-12-24T09:17:54Z</time>
      </trkpt>
      <trkpt lat="43.72932" lon="3.4376">
        <ele>294.9</ele>
        <time>2017-12-24T09:17:56Z</time>
      </trkpt>
      <trkpt lat="43.72936" lon="3.43758">
        <ele>295.4</ele>
        <time>2017-12-24T09:17:58Z</time>
      </trkpt>
      <trkpt lat="43.72939" lon="3.43758">
        <ele>295.8</ele>
        <time>2017-12-24T09:18:00Z</time>
      </trkpt>
      <trkpt lat="43.72943" lon="3.43757">
        <ele>296.3</ele>
        <time>2017-12-24T09:18:02Z</time>
      </trkpt>
      <trkpt lat="43.72947" lon="3.43756">
        <ele>296.7</ele>
        <time>2017-12-24T09:18:04Z</time>
      </trkpt>
      <trkpt lat="43.7295" lon="3.43756">
        <ele>297.2</ele>
        <time>2017-12-24T09:18:06Z</time>
      </trkpt>
      <trkpt lat="43.72954" lon="3.43755">
        <ele>297</ele>
        <time>2017-12-24T09:18:08Z</time>
      </trkpt>
      <trkpt lat="43.72958" lon="3.43755">
        <ele>296.7</ele>
        <time>2017-12-24T09:18:10Z</time>
      </trkpt>
      <trkpt lat="43.72961" lon="3.43755">
        <ele>296.9</ele>
        <time>2017-12-24T09:18:12Z</time>
      </trkpt>
      <trkpt lat="43.72965" lon="3.43755">
        <ele>297.1</ele>
        <time>2017-12-24T09:18:14Z</time>
      </trkpt>
      <trkpt lat="43.72969" lon="3.43754">
        <ele>297.3</ele>
        <time>2017-12-24T09:18:16Z</time>
      </trkpt>
      <trkpt lat="43.72973" lon="3.43755">
        <ele>297.4</ele>
        <time>2017-12-24T09:18:18Z</time>
      </trkpt>
      <trkpt lat="43.72976" lon="3.43755">
        <ele>297.6</ele>
        <time>2017-12-24T09:18:20Z</time>
      </trkpt>
      <trkpt lat="43.72981" lon="3.43755">
        <ele>297.7</ele>
        <time>2017-12-24T09:18:22Z</time>
      </trkpt>
      <trkpt lat="43.72985" lon="3.43756">
        <ele>298</ele>
        <time>2017-12-24T09:18:24Z</time>
      </trkpt>
      <trkpt lat="43.72988" lon="3.43757">
        <ele>298.7</ele>
        <time>2017-12-24T09:18:26Z</time>
      </trkpt>
      <trkpt lat="43.72992" lon="3.43757">
        <ele>299.3</ele>
        <time>2017-12-24T09:18:28Z</time>
      </trkpt>
      <trkpt lat="43.72995" lon="3.43757">
        <ele>299.4</ele>
        <time>2017-12-24T09:18:30Z</time>
      </trkpt>
      <trkpt lat="43.72999" lon="3.43758">
        <ele>299.6</ele>
        <time>2017-12-24T09:18:32Z</time>
      </trkpt>
      <trkpt lat="43.73003" lon="3.43758">
        <ele>299.7</ele>
        <time>2017-12-24T09:18:34Z</time>
      </trkpt>
      <trkpt lat="43.73006" lon="3.43759">
        <ele>299.9</ele>
        <time>2017-12-24T09:18:36Z</time>
      </trkpt>
      <trkpt lat="43.73009" lon="3.4376">
        <ele>300.1</ele>
        <time>2017-12-24T09:18:38Z</time>
      </trkpt>
      <trkpt lat="43.73012" lon="3.4376">
        <ele>300.3</ele>
        <time>2017-12-24T09:18:40Z</time>
      </trkpt>
      <trkpt lat="43.73016" lon="3.43761">
        <ele>300.5</ele>
        <time>2017-12-24T09:18:42Z</time>
      </trkpt>
      <trkpt lat="43.7302" lon="3.43761">
        <ele>301.2</ele>
        <time>2017-12-24T09:18:44Z</time>
      </trkpt>
      <trkpt lat="43.73024" lon="3.43762">
        <ele>302</ele>
        <time>2017-12-24T09:18:46Z</time>
      </trkpt>
      <trkpt lat="43.73027" lon="3.43762">
        <ele>302.5</ele>
        <time>2017-12-24T09:18:48Z</time>
      </trkpt>
      <trkpt lat="43.7303" lon="3.43763">
        <ele>302.6</ele>
        <time>2017-12-24T09:18:50Z</time>
      </trkpt>
      <trkpt lat="43.73034" lon="3.43764">
        <ele>302.8</ele>
        <time>2017-12-24T09:18:52Z</time>
      </trkpt>
      <trkpt lat="43.73038" lon="3.43764">
        <ele>302.9</ele>
        <time>2017-12-24T09:18:54Z</time>
      </trkpt>
      <trkpt lat="43.73042" lon="3.43765">
        <ele>303</ele>
        <time>2017-12-24T09:18:56Z</time>
      </trkpt>
      <trkpt lat="43.73046" lon="3.43766">
        <ele>303.6</ele>
        <time>2017-12-24T09:18:58Z</time>
      </trkpt>
      <trkpt lat="43.7305" lon="3.43766">
        <ele>304.2</ele>
        <time>2017-12-24T09:19:00Z</time>
      </trkpt>
      <trkpt lat="43.73053" lon="3.43767">
        <ele>304.4</ele>
        <time>2017-12-24T09:19:02Z</time>
      </trkpt>
      <trkpt lat="43.73057" lon="3.43768">
        <ele>304.2</ele>
        <time>2017-12-24T09:19:04Z</time>
      </trkpt>
      <trkpt lat="43.7306" lon="3.43769">
        <ele>304</ele>
        <time>2017-12-24T09:19:06Z</time>
      </trkpt>
      <trkpt lat="43.73064" lon="3.4377">
        <ele>303.9</ele>
        <time>2017-12-24T09:19:08Z</time>
      </trkpt>
      <trkpt lat="43.73068" lon="3.43771">
        <ele>303.7</ele>
        <time>2017-12-24T09:19:10Z</time>
      </trkpt>
      <trkpt lat="43.73072" lon="3.43771">
        <ele>304</ele>
        <time>2017-12-24T09:19:12Z</time>
      </trkpt>
      <trkpt lat="43.73076" lon="3.43773">
        <ele>304.4</ele>
        <time>2017-12-24T09:19:14Z</time>
      </trkpt>
      <trkpt lat="43.73081" lon="3.43773">
        <ele>304.1</ele>
        <time>2017-12-24T09:19:16Z</time>
      </trkpt>
      <trkpt lat="43.73085" lon="3.43774">
        <ele>304</ele>
        <time>2017-12-24T09:19:18Z</time>
      </trkpt>
      <trkpt lat="43.73089" lon="3.43775">
        <ele>304.2</ele>
        <time>2017-12-24T09:19:20Z</time>
      </trkpt>
      <trkpt lat="43.73094" lon="3.43776">
        <ele>304.2</ele>
        <time>2017-12-24T09:19:22Z</time>
      </trkpt>
      <trkpt lat="43.73098" lon="3.43778">
        <ele>303.7</ele>
        <time>2017-12-24T09:19:24Z</time>
      </trkpt>
      <trkpt lat="43.73101" lon="3.43779">
        <ele>303.3</ele>
        <time>2017-12-24T09:19:26Z</time>
      </trkpt>
      <trkpt lat="43.73104" lon="3.4378">
        <ele>303</ele>
        <time>2017-12-24T09:19:28Z</time>
      </trkpt>
      <trkpt lat="43.73108" lon="3.43781">
        <ele>302.7</ele>
        <time>2017-12-24T09:19:30Z</time>
      </trkpt>
      <trkpt lat="43.73113" lon="3.43781">
        <ele>302.8</ele>
        <time>2017-12-24T09:19:32Z</time>
      </trkpt>
      <trkpt lat="43.73117" lon="3.43782">
        <ele>302.6</ele>
        <time>2017-12-24T09:19:34Z</time>
      </trkpt>
      <trkpt lat="43.73121" lon="3.43783">
        <ele>301.8</ele>
        <time>2017-12-24T09:19:36Z</time>
      </trkpt>
      <trkpt lat="43.73125" lon="3.43783">
        <ele>301.3</ele>
        <time>2017-12-24T09:19:38Z</time>
      </trkpt>
      <trkpt lat="43.73129" lon="3.43784">
        <ele>301.5</ele>
        <time>2017-12-24T09:19:40Z</time>
      </trkpt>
      <trkpt lat="43.73133" lon="3.43785">
        <ele>301.3</ele>
        <time>2017-12-24T09:19:42Z</time>
      </trkpt>
      <trkpt lat="43.73137" lon="3.43787">
        <ele>300.4</ele>
        <time>2017-12-24T09:19:44Z</time>
      </trkpt>
      <trkpt lat="43.7314" lon="3.43789">
        <ele>299.8</ele>
        <time>2017-12-24T09:19:46Z</time>
      </trkpt>
      <trkpt lat="43.73144" lon="3.43791">
        <ele>299.7</ele>
        <time>2017-12-24T09:19:48Z</time>
      </trkpt>
      <trkpt lat="43.73146" lon="3.43793">
        <ele>299.6</ele>
        <time>2017-12-24T09:19:50Z</time>
      </trkpt>
      <trkpt lat="43.7315" lon="3.43795">
        <ele>299.5</ele>
        <time>2017-12-24T09:19:52Z</time>
      </trkpt>
      <trkpt lat="43.73154" lon="3.43797">
        <ele>299.4</ele>
        <time>2017-12-24T09:19:54Z</time>
      </trkpt>
      <trkpt lat="43.73159" lon="3.43799">
        <ele>300.6</ele>
        <time>2017-12-24T09:19:56Z</time>
      </trkpt>
      <trkpt lat="43.73163" lon="3.438">
        <ele>301.8</ele>
        <time>2017-12-24T09:19:58Z</time>
      </trkpt>
      <trkpt lat="43.73166" lon="3.43801">
        <ele>301.8</ele>
        <time>2017-12-24T09:20:00Z</time>
      </trkpt>
      <trkpt lat="43.7317" lon="3.43803">
        <ele>301.9</ele>
        <time>2017-12-24T09:20:02Z</time>
      </trkpt>
      <trkpt lat="43.73174" lon="3.43805">
        <ele>302.2</ele>
        <time>2017-12-24T09:20:04Z</time>
      </trkpt>
      <trkpt lat="43.73177" lon="3.43809">
        <ele>302.6</ele>
        <time>2017-12-24T09:20:06Z</time>
      </trkpt>
      <trkpt lat="43.7318" lon="3.43811">
        <ele>303</ele>
        <time>2017-12-24T09:20:08Z</time>
      </trkpt>
      <trkpt lat="43.73184" lon="3.43814">
        <ele>303.4</ele>
        <time>2017-12-24T09:20:10Z</time>
      </trkpt>
      <trkpt lat="43.73188" lon="3.43818">
        <ele>303.8</ele>
        <time>2017-12-24T09:20:12Z</time>
      </trkpt>
      <trkpt lat="43.73192" lon="3.4382">
        <ele>304</ele>
        <time>2017-12-24T09:20:14Z</time>
      </trkpt>
      <trkpt lat="43.73196" lon="3.43825">
        <ele>304.1</ele>
        <time>2017-12-24T09:20:16Z</time>
      </trkpt>
      <trkpt lat="43.73199" lon="3.43828">
        <ele>304.2</ele>
        <time>2017-12-24T09:20:18Z</time>
      </trkpt>
      <trkpt lat="43.73202" lon="3.43831">
        <ele>304.6</ele>
        <time>2017-12-24T09:20:20Z</time>
      </trkpt>
      <trkpt lat="43.73205" lon="3.43834">
        <ele>305.4</ele>
        <time>2017-12-24T09:20:22Z</time>
      </trkpt>
      <trkpt lat="43.73209" lon="3.43838">
        <ele>305.8</ele>
        <time>2017-12-24T09:20:24Z</time>
      </trkpt>
      <trkpt lat="43.73212" lon="3.43841">
        <ele>305.8</ele>
        <time>2017-12-24T09:20:26Z</time>
      </trkpt>
      <trkpt lat="43.73215" lon="3.43845">
        <ele>306.2</ele>
        <time>2017-12-24T09:20:28Z</time>
      </trkpt>
      <trkpt lat="43.73217" lon="3.4385">
        <ele>306.8</ele>
        <time>2017-12-24T09:20:30Z</time>
      </trkpt>
      <trkpt lat="43.7322" lon="3.43853">
        <ele>307.9</ele>
        <time>2017-12-24T09:20:32Z</time>
      </trkpt>
      <trkpt lat="43.73222" lon="3.43857">
        <ele>309.2</ele>
        <time>2017-12-24T09:20:34Z</time>
      </trkpt>
      <trkpt lat="43.73224" lon="3.43861">
        <ele>310.2</ele>
        <time>2017-12-24T09:20:36Z</time>
      </trkpt>
      <trkpt lat="43.73226" lon="3.43864">
        <ele>310.5</ele>
        <time>2017-12-24T09:20:38Z</time>
      </trkpt>
      <trkpt lat="43.73228" lon="3.43868">
        <ele>310.9</ele>
        <time>2017-12-24T09:20:40Z</time>
      </trkpt>
      <trkpt lat="43.73231" lon="3.43872">
        <ele>311.6</ele>
        <time>2017-12-24T09:20:42Z</time>
      </trkpt>
      <trkpt lat="43.73234" lon="3.43875">
        <ele>312.3</ele>
        <time>2017-12-24T09:20:44Z</time>
      </trkpt>
      <trkpt lat="43.73236" lon="3.43879">
        <ele>312.9</ele>
        <time>2017-12-24T09:20:46Z</time>
      </trkpt>
      <trkpt lat="43.73239" lon="3.43882">
        <ele>313.4</ele>
        <time>2017-12-24T09:20:48Z</time>
      </trkpt>
      <trkpt lat="43.73241" lon="3.43886">
        <ele>314</ele>
        <time>2017-12-24T09:20:50Z</time>
      </trkpt>
      <trkpt lat="43.73244" lon="3.4389">
        <ele>315.2</ele>
        <time>2017-12-24T09:20:52Z</time>
      </trkpt>
      <trkpt lat="43.73247" lon="3.43895">
        <ele>316.2</ele>
        <time>2017-12-24T09:20:54Z</time>
      </trkpt>
      <trkpt lat="43.73249" lon="3.43899">
        <ele>316.8</ele>
        <time>2017-12-24T09:20:56Z</time>
      </trkpt>
      <trkpt lat="43.73252" lon="3.43903">
        <ele>317.3</ele>
        <time>2017-12-24T09:20:58Z</time>
      </trkpt>
      <trkpt lat="43.73255" lon="3.43907">
        <ele>317.8</ele>
        <time>2017-12-24T09:21:00Z</time>
      </trkpt>
      <trkpt lat="43.73257" lon="3.4391">
        <ele>318.3</ele>
        <time>2017-12-24T09:21:02Z</time>
      </trkpt>
      <trkpt lat="43.7326" lon="3.43914">
        <ele>318.8</ele>
        <time>2017-12-24T09:21:04Z</time>
      </trkpt>
      <trkpt lat="43.73262" lon="3.43917">
        <ele>319.3</ele>
        <time>2017-12-24T09:21:06Z</time>
      </trkpt>
      <trkpt lat="43.73264" lon="3.4392">
        <ele>319.7</ele>
        <time>2017-12-24T09:21:08Z</time>
      </trkpt>
      <trkpt lat="43.73267" lon="3.43924">
        <ele>320.4</ele>
        <time>2017-12-24T09:21:11Z</time>
      </trkpt>
      <trkpt lat="43.73268" lon="3.43927">
        <ele>320.9</ele>
        <time>2017-12-24T09:21:13Z</time>
      </trkpt>
      <trkpt lat="43.73269" lon="3.43932">
        <ele>321.6</ele>
        <time>2017-12-24T09:21:15Z</time>
      </trkpt>
      <trkpt lat="43.73265" lon="3.43932">
        <ele>322.6</ele>
        <time>2017-12-24T09:21:18Z</time>
      </trkpt>
      <trkpt lat="43.73262" lon="3.4393">
        <ele>322.6</ele>
        <time>2017-12-24T09:21:20Z</time>
      </trkpt>
      <trkpt lat="43.7326" lon="3.43926">
        <ele>322.5</ele>
        <time>2017-12-24T09:21:22Z</time>
      </trkpt>
      <trkpt lat="43.73257" lon="3.43922">
        <ele>321.8</ele>
        <time>2017-12-24T09:21:24Z</time>
      </trkpt>
      <trkpt lat="43.73254" lon="3.43919">
        <ele>321.3</ele>
        <time>2017-12-24T09:21:26Z</time>
      </trkpt>
      <trkpt lat="43.73251" lon="3.43915">
        <ele>321.4</ele>
        <time>2017-12-24T09:21:28Z</time>
      </trkpt>
      <trkpt lat="43.73248" lon="3.43911">
        <ele>321.1</ele>
        <time>2017-12-24T09:21:30Z</time>
      </trkpt>
      <trkpt lat="43.73245" lon="3.43908">
        <ele>320.6</ele>
        <time>2017-12-24T09:21:31Z</time>
      </trkpt>
      <trkpt lat="43.73243" lon="3.43905">
        <ele>320.1</ele>
        <time>2017-12-24T09:21:32Z</time>
      </trkpt>
      <trkpt lat="43.73239" lon="3.43902">
        <ele>320.2</ele>
        <time>2017-12-24T09:21:34Z</time>
      </trkpt>
      <trkpt lat="43.73235" lon="3.43898">
        <ele>320</ele>
        <time>2017-12-24T09:21:36Z</time>
      </trkpt>
      <trkpt lat="43.73231" lon="3.43894">
        <ele>319.3</ele>
        <time>2017-12-24T09:21:38Z</time>
      </trkpt>
      <trkpt lat="43.73227" lon="3.4389">
        <ele>319.3</ele>
        <time>2017-12-24T09:21:40Z</time>
      </trkpt>
      <trkpt lat="43.73222" lon="3.43887">
        <ele>319.2</ele>
        <time>2017-12-24T09:21:42Z</time>
      </trkpt>
      <trkpt lat="43.73218" lon="3.43884">
        <ele>318.6</ele>
        <time>2017-12-24T09:21:44Z</time>
      </trkpt>
      <trkpt lat="43.73214" lon="3.43881">
        <ele>318.7</ele>
        <time>2017-12-24T09:21:46Z</time>
      </trkpt>
      <trkpt lat="43.7321" lon="3.43878">
        <ele>318.7</ele>
        <time>2017-12-24T09:21:48Z</time>
      </trkpt>
      <trkpt lat="43.73205" lon="3.43875">
        <ele>318.8</ele>
        <time>2017-12-24T09:21:50Z</time>
      </trkpt>
      <trkpt lat="43.732" lon="3.43874">
        <ele>319.2</ele>
        <time>2017-12-24T09:21:52Z</time>
      </trkpt>
      <trkpt lat="43.73196" lon="3.43873">
        <ele>319.8</ele>
        <time>2017-12-24T09:21:54Z</time>
      </trkpt>
      <trkpt lat="43.73193" lon="3.43873">
        <ele>320.6</ele>
        <time>2017-12-24T09:21:55Z</time>
      </trkpt>
      <trkpt lat="43.73188" lon="3.43871">
        <ele>321.8</ele>
        <time>2017-12-24T09:21:57Z</time>
      </trkpt>
      <trkpt lat="43.73183" lon="3.43869">
        <ele>321.7</ele>
        <time>2017-12-24T09:21:59Z</time>
      </trkpt>
      <trkpt lat="43.73178" lon="3.43867">
        <ele>321.7</ele>
        <time>2017-12-24T09:22:01Z</time>
      </trkpt>
      <trkpt lat="43.73174" lon="3.43866">
        <ele>322</ele>
        <time>2017-12-24T09:22:03Z</time>
      </trkpt>
      <trkpt lat="43.73169" lon="3.43863">
        <ele>322.5</ele>
        <time>2017-12-24T09:22:05Z</time>
      </trkpt>
      <trkpt lat="43.73166" lon="3.43863">
        <ele>323</ele>
        <time>2017-12-24T09:22:06Z</time>
      </trkpt>
      <trkpt lat="43.73161" lon="3.43861">
        <ele>323.6</ele>
        <time>2017-12-24T09:22:08Z</time>
      </trkpt>
      <trkpt lat="43.73156" lon="3.4386">
        <ele>323.8</ele>
        <time>2017-12-24T09:22:10Z</time>
      </trkpt>
      <trkpt lat="43.73152" lon="3.43859">
        <ele>324.5</ele>
        <time>2017-12-24T09:22:12Z</time>
      </trkpt>
      <trkpt lat="43.73149" lon="3.43859">
        <ele>325.2</ele>
        <time>2017-12-24T09:22:13Z</time>
      </trkpt>
      <trkpt lat="43.73145" lon="3.43859">
        <ele>326</ele>
        <time>2017-12-24T09:22:15Z</time>
      </trkpt>
      <trkpt lat="43.7314" lon="3.43859">
        <ele>326.2</ele>
        <time>2017-12-24T09:22:17Z</time>
      </trkpt>
      <trkpt lat="43.73135" lon="3.43859">
        <ele>326.8</ele>
        <time>2017-12-24T09:22:19Z</time>
      </trkpt>
      <trkpt lat="43.7313" lon="3.43858">
        <ele>327.8</ele>
        <time>2017-12-24T09:22:21Z</time>
      </trkpt>
      <trkpt lat="43.73126" lon="3.43859">
        <ele>328.6</ele>
        <time>2017-12-24T09:22:23Z</time>
      </trkpt>
      <trkpt lat="43.73122" lon="3.43861">
        <ele>329.4</ele>
        <time>2017-12-24T09:22:25Z</time>
      </trkpt>
      <trkpt lat="43.73117" lon="3.43861">
        <ele>330.1</ele>
        <time>2017-12-24T09:22:27Z</time>
      </trkpt>
      <trkpt lat="43.73112" lon="3.43861">
        <ele>330.9</ele>
        <time>2017-12-24T09:22:29Z</time>
      </trkpt>
      <trkpt lat="43.73109" lon="3.43861">
        <ele>331.1</ele>
        <time>2017-12-24T09:22:30Z</time>
      </trkpt>
      <trkpt lat="43.73104" lon="3.43862">
        <ele>331.7</ele>
        <time>2017-12-24T09:22:32Z</time>
      </trkpt>
      <trkpt lat="43.73101" lon="3.43862">
        <ele>332.2</ele>
        <time>2017-12-24T09:22:33Z</time>
      </trkpt>
      <trkpt lat="43.73096" lon="3.43862">
        <ele>333.3</ele>
        <time>2017-12-24T09:22:35Z</time>
      </trkpt>
      <trkpt lat="43.73092" lon="3.43862">
        <ele>334.1</ele>
        <time>2017-12-24T09:22:37Z</time>
      </trkpt>
      <trkpt lat="43.73087" lon="3.43862">
        <ele>334.2</ele>
        <time>2017-12-24T09:22:39Z</time>
      </trkpt>
      <trkpt lat="43.73083" lon="3.43863">
        <ele>334.4</ele>
        <time>2017-12-24T09:22:41Z</time>
      </trkpt>
      <trkpt lat="43.73079" lon="3.43863">
        <ele>334.6</ele>
        <time>2017-12-24T09:22:43Z</time>
      </trkpt>
      <trkpt lat="43.73074" lon="3.43865">
        <ele>335.1</ele>
        <time>2017-12-24T09:22:45Z</time>
      </trkpt>
      <trkpt lat="43.7307" lon="3.43867">
        <ele>336</ele>
        <time>2017-12-24T09:22:47Z</time>
      </trkpt>
      <trkpt lat="43.73066" lon="3.43868">
        <ele>336.7</ele>
        <time>2017-12-24T09:22:49Z</time>
      </trkpt>
      <trkpt lat="43.73062" lon="3.43869">
        <ele>337.5</ele>
        <time>2017-12-24T09:22:51Z</time>
      </trkpt>
      <trkpt lat="43.73057" lon="3.43871">
        <ele>338.5</ele>
        <time>2017-12-24T09:22:53Z</time>
      </trkpt>
      <trkpt lat="43.73052" lon="3.43874">
        <ele>339.7</ele>
        <time>2017-12-24T09:22:55Z</time>
      </trkpt>
      <trkpt lat="43.73049" lon="3.43875">
        <ele>340.1</ele>
        <time>2017-12-24T09:22:56Z</time>
      </trkpt>
      <trkpt lat="43.73046" lon="3.43877">
        <ele>340.4</ele>
        <time>2017-12-24T09:22:57Z</time>
      </trkpt>
      <trkpt lat="43.73042" lon="3.43879">
        <ele>340.7</ele>
        <time>2017-12-24T09:22:59Z</time>
      </trkpt>
      <trkpt lat="43.73038" lon="3.4388">
        <ele>340.3</ele>
        <time>2017-12-24T09:23:01Z</time>
      </trkpt>
      <trkpt lat="43.73034" lon="3.43882">
        <ele>339.9</ele>
        <time>2017-12-24T09:23:03Z</time>
      </trkpt>
      <trkpt lat="43.73031" lon="3.43884">
        <ele>340.1</ele>
        <time>2017-12-24T09:23:05Z</time>
      </trkpt>
      <trkpt lat="43.73027" lon="3.43886">
        <ele>340.3</ele>
        <time>2017-12-24T09:23:07Z</time>
      </trkpt>
      <trkpt lat="43.73023" lon="3.43888">
        <ele>340.3</ele>
        <time>2017-12-24T09:23:09Z</time>
      </trkpt>
      <trkpt lat="43.7302" lon="3.4389">
        <ele>340.4</ele>
        <time>2017-12-24T09:23:11Z</time>
      </trkpt>
      <trkpt lat="43.73016" lon="3.43892">
        <ele>340.9</ele>
        <time>2017-12-24T09:23:13Z</time>
      </trkpt>
      <trkpt lat="43.73013" lon="3.43895">
        <ele>341.6</ele>
        <time>2017-12-24T09:23:15Z</time>
      </trkpt>
      <trkpt lat="43.7301" lon="3.43899">
        <ele>341.9</ele>
        <time>2017-12-24T09:23:17Z</time>
      </trkpt>
      <trkpt lat="43.73007" lon="3.43902">
        <ele>342</ele>
        <time>2017-12-24T09:23:19Z</time>
      </trkpt>
      <trkpt lat="43.73003" lon="3.43905">
        <ele>342.2</ele>
        <time>2017-12-24T09:23:21Z</time>
      </trkpt>
      <trkpt lat="43.73001" lon="3.43908">
        <ele>342.6</ele>
        <time>2017-12-24T09:23:23Z</time>
      </trkpt>
      <trkpt lat="43.72998" lon="3.43911">
        <ele>342.7</ele>
        <time>2017-12-24T09:23:25Z</time>
      </trkpt>
      <trkpt lat="43.72995" lon="3.43914">
        <ele>342.5</ele>
        <time>2017-12-24T09:23:27Z</time>
      </trkpt>
      <trkpt lat="43.72991" lon="3.43917">
        <ele>342.5</ele>
        <time>2017-12-24T09:23:29Z</time>
      </trkpt>
      <trkpt lat="43.72987" lon="3.4392">
        <ele>342.7</ele>
        <time>2017-12-24T09:23:31Z</time>
      </trkpt>
      <trkpt lat="43.72984" lon="3.43923">
        <ele>342.4</ele>
        <time>2017-12-24T09:23:33Z</time>
      </trkpt>
      <trkpt lat="43.72981" lon="3.43927">
        <ele>341.8</ele>
        <time>2017-12-24T09:23:35Z</time>
      </trkpt>
      <trkpt lat="43.72978" lon="3.43931">
        <ele>341.6</ele>
        <time>2017-12-24T09:23:37Z</time>
      </trkpt>
      <trkpt lat="43.72975" lon="3.43935">
        <ele>341.7</ele>
        <time>2017-12-24T09:23:39Z</time>
      </trkpt>
      <trkpt lat="43.72971" lon="3.43939">
        <ele>341.4</ele>
        <time>2017-12-24T09:23:41Z</time>
      </trkpt>
      <trkpt lat="43.72968" lon="3.43944">
        <ele>341</ele>
        <time>2017-12-24T09:23:43Z</time>
      </trkpt>
      <trkpt lat="43.72966" lon="3.43948">
        <ele>341.5</ele>
        <time>2017-12-24T09:23:45Z</time>
      </trkpt>
      <trkpt lat="43.72962" lon="3.43953">
        <ele>342</ele>
        <time>2017-12-24T09:23:47Z</time>
      </trkpt>
      <trkpt lat="43.72959" lon="3.43957">
        <ele>342.4</ele>
        <time>2017-12-24T09:23:49Z</time>
      </trkpt>
      <trkpt lat="43.72957" lon="3.43962">
        <ele>342.6</ele>
        <time>2017-12-24T09:23:51Z</time>
      </trkpt>
      <trkpt lat="43.72955" lon="3.43967">
        <ele>342.3</ele>
        <time>2017-12-24T09:23:53Z</time>
      </trkpt>
      <trkpt lat="43.72953" lon="3.43972">
        <ele>342.3</ele>
        <time>2017-12-24T09:23:55Z</time>
      </trkpt>
      <trkpt lat="43.72952" lon="3.43977">
        <ele>342.4</ele>
        <time>2017-12-24T09:23:57Z</time>
      </trkpt>
      <trkpt lat="43.7295" lon="3.43983">
        <ele>342.8</ele>
        <time>2017-12-24T09:23:59Z</time>
      </trkpt>
      <trkpt lat="43.72949" lon="3.43988">
        <ele>343.3</ele>
        <time>2017-12-24T09:24:01Z</time>
      </trkpt>
      <trkpt lat="43.72948" lon="3.43995">
        <ele>343.9</ele>
        <time>2017-12-24T09:24:03Z</time>
      </trkpt>
      <trkpt lat="43.72947" lon="3.44001">
        <ele>344.6</ele>
        <time>2017-12-24T09:24:05Z</time>
      </trkpt>
      <trkpt lat="43.72946" lon="3.44006">
        <ele>345.1</ele>
        <time>2017-12-24T09:24:07Z</time>
      </trkpt>
      <trkpt lat="43.72946" lon="3.44011">
        <ele>345.1</ele>
        <time>2017-12-24T09:24:09Z</time>
      </trkpt>
      <trkpt lat="43.72946" lon="3.44017">
        <ele>345.1</ele>
        <time>2017-12-24T09:24:11Z</time>
      </trkpt>
      <trkpt lat="43.72947" lon="3.44021">
        <ele>345.9</ele>
        <time>2017-12-24T09:24:12Z</time>
      </trkpt>
      <trkpt lat="43.72948" lon="3.44027">
        <ele>347.2</ele>
        <time>2017-12-24T09:24:14Z</time>
      </trkpt>
      <trkpt lat="43.7295" lon="3.44033">
        <ele>348.1</ele>
        <time>2017-12-24T09:24:16Z</time>
      </trkpt>
      <trkpt lat="43.72951" lon="3.44039">
        <ele>348.7</ele>
        <time>2017-12-24T09:24:18Z</time>
      </trkpt>
      <trkpt lat="43.72953" lon="3.44044">
        <ele>349.2</ele>
        <time>2017-12-24T09:24:20Z</time>
      </trkpt>
      <trkpt lat="43.72955" lon="3.4405">
        <ele>350.3</ele>
        <time>2017-12-24T09:24:22Z</time>
      </trkpt>
      <trkpt lat="43.72956" lon="3.44056">
        <ele>351.4</ele>
        <time>2017-12-24T09:24:24Z</time>
      </trkpt>
      <trkpt lat="43.72957" lon="3.44062">
        <ele>352.4</ele>
        <time>2017-12-24T09:24:26Z</time>
      </trkpt>
      <trkpt lat="43.72957" lon="3.44067">
        <ele>352.9</ele>
        <time>2017-12-24T09:24:28Z</time>
      </trkpt>
      <trkpt lat="43.72957" lon="3.44072">
        <ele>353.4</ele>
        <time>2017-12-24T09:24:30Z</time>
      </trkpt>
      <trkpt lat="43.72957" lon="3.44077">
        <ele>354.1</ele>
        <time>2017-12-24T09:24:32Z</time>
      </trkpt>
      <trkpt lat="43.72958" lon="3.44083">
        <ele>354.8</ele>
        <time>2017-12-24T09:24:34Z</time>
      </trkpt>
      <trkpt lat="43.72958" lon="3.44089">
        <ele>355.1</ele>
        <time>2017-12-24T09:24:36Z</time>
      </trkpt>
      <trkpt lat="43.72958" lon="3.44093">
        <ele>355.2</ele>
        <time>2017-12-24T09:24:38Z</time>
      </trkpt>
      <trkpt lat="43.72957" lon="3.44097">
        <ele>355.5</ele>
        <time>2017-12-24T09:24:40Z</time>
      </trkpt>
      <trkpt lat="43.72956" lon="3.44101">
        <ele>355.7</ele>
        <time>2017-12-24T09:24:42Z</time>
      </trkpt>
      <trkpt lat="43.72956" lon="3.44106">
        <ele>355.9</ele>
        <time>2017-12-24T09:24:44Z</time>
      </trkpt>
      <trkpt lat="43.72956" lon="3.4411">
        <ele>355.9</ele>
        <time>2017-12-24T09:24:46Z</time>
      </trkpt>
      <trkpt lat="43.72956" lon="3.44115">
        <ele>355.9</ele>
        <time>2017-12-24T09:24:47Z</time>
      </trkpt>
      <trkpt lat="43.72955" lon="3.4412">
        <ele>356</ele>
        <time>2017-12-24T09:24:48Z</time>
      </trkpt>
      <trkpt lat="43.72955" lon="3.44124">
        <ele>356.2</ele>
        <time>2017-12-24T09:24:49Z</time>
      </trkpt>
      <trkpt lat="43.72954" lon="3.4413">
        <ele>356.5</ele>
        <time>2017-12-24T09:24:51Z</time>
      </trkpt>
      <trkpt lat="43.72953" lon="3.44136">
        <ele>356.9</ele>
        <time>2017-12-24T09:24:53Z</time>
      </trkpt>
      <trkpt lat="43.72951" lon="3.4414">
        <ele>357.1</ele>
        <time>2017-12-24T09:24:55Z</time>
      </trkpt>
      <trkpt lat="43.7295" lon="3.44145">
        <ele>357.3</ele>
        <time>2017-12-24T09:24:57Z</time>
      </trkpt>
      <trkpt lat="43.72949" lon="3.4415">
        <ele>357.3</ele>
        <time>2017-12-24T09:24:59Z</time>
      </trkpt>
      <trkpt lat="43.72947" lon="3.44156">
        <ele>357.1</ele>
        <time>2017-12-24T09:25:01Z</time>
      </trkpt>
      <trkpt lat="43.72946" lon="3.44163">
        <ele>357.9</ele>
        <time>2017-12-24T09:25:03Z</time>
      </trkpt>
      <trkpt lat="43.72946" lon="3.44169">
        <ele>358.3</ele>
        <time>2017-12-24T09:25:05Z</time>
      </trkpt>
      <trkpt lat="43.72945" lon="3.44174">
        <ele>358.2</ele>
        <time>2017-12-24T09:25:07Z</time>
      </trkpt>
      <trkpt lat="43.72944" lon="3.44179">
        <ele>358.1</ele>
        <time>2017-12-24T09:25:09Z</time>
      </trkpt>
      <trkpt lat="43.72943" lon="3.44186">
        <ele>358</ele>
        <time>2017-12-24T09:25:11Z</time>
      </trkpt>
      <trkpt lat="43.72942" lon="3.4419">
        <ele>358</ele>
        <time>2017-12-24T09:25:13Z</time>
      </trkpt>
      <trkpt lat="43.7294" lon="3.44194">
        <ele>358</ele>
        <time>2017-12-24T09:25:15Z</time>
      </trkpt>
      <trkpt lat="43.72937" lon="3.44198">
        <ele>358</ele>
        <time>2017-12-24T09:25:17Z</time>
      </trkpt>
      <trkpt lat="43.72935" lon="3.44202">
        <ele>357.8</ele>
        <time>2017-12-24T09:25:19Z</time>
      </trkpt>
      <trkpt lat="43.72933" lon="3.44206">
        <ele>357.6</ele>
        <time>2017-12-24T09:25:21Z</time>
      </trkpt>
      <trkpt lat="43.7293" lon="3.44211">
        <ele>357.2</ele>
        <time>2017-12-24T09:25:23Z</time>
      </trkpt>
      <trkpt lat="43.72928" lon="3.44214">
        <ele>356.7</ele>
        <time>2017-12-24T09:25:25Z</time>
      </trkpt>
      <trkpt lat="43.72924" lon="3.44217">
        <ele>355.9</ele>
        <time>2017-12-24T09:25:27Z</time>
      </trkpt>
      <trkpt lat="43.72922" lon="3.44222">
        <ele>355.2</ele>
        <time>2017-12-24T09:25:29Z</time>
      </trkpt>
      <trkpt lat="43.7292" lon="3.44227">
        <ele>354.7</ele>
        <time>2017-12-24T09:25:31Z</time>
      </trkpt>
      <trkpt lat="43.72917" lon="3.44232">
        <ele>354.6</ele>
        <time>2017-12-24T09:25:33Z</time>
      </trkpt>
      <trkpt lat="43.72915" lon="3.44237">
        <ele>354.5</ele>
        <time>2017-12-24T09:25:35Z</time>
      </trkpt>
      <trkpt lat="43.72913" lon="3.44243">
        <ele>354.4</ele>
        <time>2017-12-24T09:25:37Z</time>
      </trkpt>
      <trkpt lat="43.72911" lon="3.44248">
        <ele>354.1</ele>
        <time>2017-12-24T09:25:39Z</time>
      </trkpt>
      <trkpt lat="43.72909" lon="3.44252">
        <ele>353.8</ele>
        <time>2017-12-24T09:25:41Z</time>
      </trkpt>
      <trkpt lat="43.72907" lon="3.44256">
        <ele>353.9</ele>
        <time>2017-12-24T09:25:43Z</time>
      </trkpt>
      <trkpt lat="43.72904" lon="3.4426">
        <ele>354</ele>
        <time>2017-12-24T09:25:45Z</time>
      </trkpt>
      <trkpt lat="43.72902" lon="3.44265">
        <ele>354.5</ele>
        <time>2017-12-24T09:25:47Z</time>
      </trkpt>
      <trkpt lat="43.729" lon="3.4427">
        <ele>354.9</ele>
        <time>2017-12-24T09:25:49Z</time>
      </trkpt>
      <trkpt lat="43.72899" lon="3.44273">
        <ele>354.7</ele>
        <time>2017-12-24T09:25:50Z</time>
      </trkpt>
      <trkpt lat="43.72896" lon="3.44278">
        <ele>354.4</ele>
        <time>2017-12-24T09:25:52Z</time>
      </trkpt>
      <trkpt lat="43.72893" lon="3.44281">
        <ele>354.2</ele>
        <time>2017-12-24T09:25:54Z</time>
      </trkpt>
      <trkpt lat="43.7289" lon="3.44284">
        <ele>354</ele>
        <time>2017-12-24T09:25:56Z</time>
      </trkpt>
      <trkpt lat="43.72887" lon="3.44289">
        <ele>354.1</ele>
        <time>2017-12-24T09:25:58Z</time>
      </trkpt>
      <trkpt lat="43.72885" lon="3.44292">
        <ele>354.2</ele>
        <time>2017-12-24T09:25:59Z</time>
      </trkpt>
      <trkpt lat="43.72882" lon="3.44297">
        <ele>354.4</ele>
        <time>2017-12-24T09:26:01Z</time>
      </trkpt>
      <trkpt lat="43.72878" lon="3.44301">
        <ele>354.5</ele>
        <time>2017-12-24T09:26:03Z</time>
      </trkpt>
      <trkpt lat="43.72876" lon="3.44305">
        <ele>354.5</ele>
        <time>2017-12-24T09:26:05Z</time>
      </trkpt>
      <trkpt lat="43.72872" lon="3.44308">
        <ele>354.7</ele>
        <time>2017-12-24T09:26:07Z</time>
      </trkpt>
      <trkpt lat="43.72869" lon="3.44312">
        <ele>354.8</ele>
        <time>2017-12-24T09:26:09Z</time>
      </trkpt>
      <trkpt lat="43.72866" lon="3.44316">
        <ele>354.9</ele>
        <time>2017-12-24T09:26:11Z</time>
      </trkpt>
      <trkpt lat="43.72862" lon="3.4432">
        <ele>355</ele>
        <time>2017-12-24T09:26:13Z</time>
      </trkpt>
      <trkpt lat="43.72858" lon="3.44324">
        <ele>355.2</ele>
        <time>2017-12-24T09:26:15Z</time>
      </trkpt>
      <trkpt lat="43.72856" lon="3.44328">
        <ele>355.3</ele>
        <time>2017-12-24T09:26:17Z</time>
      </trkpt>
      <trkpt lat="43.72853" lon="3.44332">
        <ele>355.4</ele>
        <time>2017-12-24T09:26:19Z</time>
      </trkpt>
      <trkpt lat="43.72851" lon="3.44336">
        <ele>355.5</ele>
        <time>2017-12-24T09:26:21Z</time>
      </trkpt>
      <trkpt lat="43.72849" lon="3.44341">
        <ele>355.7</ele>
        <time>2017-12-24T09:26:23Z</time>
      </trkpt>
      <trkpt lat="43.72846" lon="3.44345">
        <ele>355.9</ele>
        <time>2017-12-24T09:26:25Z</time>
      </trkpt>
      <trkpt lat="43.72844" lon="3.44349">
        <ele>356.1</ele>
        <time>2017-12-24T09:26:27Z</time>
      </trkpt>
      <trkpt lat="43.72842" lon="3.44354">
        <ele>356.3</ele>
        <time>2017-12-24T09:26:29Z</time>
      </trkpt>
      <trkpt lat="43.7284" lon="3.44359">
        <ele>356.6</ele>
        <time>2017-12-24T09:26:31Z</time>
      </trkpt>
      <trkpt lat="43.72838" lon="3.44363">
        <ele>357.2</ele>
        <time>2017-12-24T09:26:33Z</time>
      </trkpt>
      <trkpt lat="43.72835" lon="3.44367">
        <ele>357.7</ele>
        <time>2017-12-24T09:26:35Z</time>
      </trkpt>
      <trkpt lat="43.72833" lon="3.44371">
        <ele>357.8</ele>
        <time>2017-12-24T09:26:37Z</time>
      </trkpt>
      <trkpt lat="43.72831" lon="3.44375">
        <ele>358</ele>
        <time>2017-12-24T09:26:39Z</time>
      </trkpt>
      <trkpt lat="43.72828" lon="3.44382">
        <ele>358.5</ele>
        <time>2017-12-24T09:26:41Z</time>
      </trkpt>
      <trkpt lat="43.72825" lon="3.44387">
        <ele>358.9</ele>
        <time>2017-12-24T09:26:43Z</time>
      </trkpt>
      <trkpt lat="43.72822" lon="3.44391">
        <ele>359.3</ele>
        <time>2017-12-24T09:26:45Z</time>
      </trkpt>
      <trkpt lat="43.72819" lon="3.44395">
        <ele>359.7</ele>
        <time>2017-12-24T09:26:47Z</time>
      </trkpt>
      <trkpt lat="43.72816" lon="3.44399">
        <ele>360</ele>
        <time>2017-12-24T09:26:49Z</time>
      </trkpt>
      <trkpt lat="43.72813" lon="3.44403">
        <ele>360.3</ele>
        <time>2017-12-24T09:26:51Z</time>
      </trkpt>
      <trkpt lat="43.7281" lon="3.44407">
        <ele>360.5</ele>
        <time>2017-12-24T09:26:53Z</time>
      </trkpt>
      <trkpt lat="43.72807" lon="3.4441">
        <ele>360.6</ele>
        <time>2017-12-24T09:26:55Z</time>
      </trkpt>
      <trkpt lat="43.72805" lon="3.44414">
        <ele>360.6</ele>
        <time>2017-12-24T09:26:57Z</time>
      </trkpt>
      <trkpt lat="43.72802" lon="3.44417">
        <ele>360.4</ele>
        <time>2017-12-24T09:26:59Z</time>
      </trkpt>
      <trkpt lat="43.72798" lon="3.4442">
        <ele>360.5</ele>
        <time>2017-12-24T09:27:01Z</time>
      </trkpt>
      <trkpt lat="43.72795" lon="3.44423">
        <ele>360.9</ele>
        <time>2017-12-24T09:27:03Z</time>
      </trkpt>
      <trkpt lat="43.72792" lon="3.44426">
        <ele>361.2</ele>
        <time>2017-12-24T09:27:05Z</time>
      </trkpt>
      <trkpt lat="43.72789" lon="3.4443">
        <ele>361.4</ele>
        <time>2017-12-24T09:27:07Z</time>
      </trkpt>
      <trkpt lat="43.72786" lon="3.44433">
        <ele>361.8</ele>
        <time>2017-12-24T09:27:09Z</time>
      </trkpt>
      <trkpt lat="43.72783" lon="3.44436">
        <ele>362.2</ele>
        <time>2017-12-24T09:27:11Z</time>
      </trkpt>
      <trkpt lat="43.7278" lon="3.44439">
        <ele>362.6</ele>
        <time>2017-12-24T09:27:13Z</time>
      </trkpt>
      <trkpt lat="43.72778" lon="3.44442">
        <ele>363</ele>
        <time>2017-12-24T09:27:15Z</time>
      </trkpt>
      <trkpt lat="43.72776" lon="3.44446">
        <ele>363.3</ele>
        <time>2017-12-24T09:27:17Z</time>
      </trkpt>
      <trkpt lat="43.72773" lon="3.44451">
        <ele>363.8</ele>
        <time>2017-12-24T09:27:19Z</time>
      </trkpt>
      <trkpt lat="43.72772" lon="3.44454">
        <ele>364</ele>
        <time>2017-12-24T09:27:21Z</time>
      </trkpt>
      <trkpt lat="43.72772" lon="3.44458">
        <ele>364</ele>
        <time>2017-12-24T09:27:24Z</time>
      </trkpt>
      <trkpt lat="43.72769" lon="3.44461">
        <ele>364</ele>
        <time>2017-12-24T09:27:33Z</time>
      </trkpt>
      <trkpt lat="43.72767" lon="3.44464">
        <ele>364.2</ele>
        <time>2017-12-24T09:27:35Z</time>
      </trkpt>
      <trkpt lat="43.72764" lon="3.44466">
        <ele>364.5</ele>
        <time>2017-12-24T09:27:37Z</time>
      </trkpt>
      <trkpt lat="43.7276" lon="3.44467">
        <ele>364.7</ele>
        <time>2017-12-24T09:27:40Z</time>
      </trkpt>
      <trkpt lat="43.72756" lon="3.44468">
        <ele>364.9</ele>
        <time>2017-12-24T09:27:42Z</time>
      </trkpt>
      <trkpt lat="43.72752" lon="3.4447">
        <ele>364.7</ele>
        <time>2017-12-24T09:27:44Z</time>
      </trkpt>
      <trkpt lat="43.72748" lon="3.44471">
        <ele>364.5</ele>
        <time>2017-12-24T09:27:46Z</time>
      </trkpt>
      <trkpt lat="43.72744" lon="3.44471">
        <ele>364.3</ele>
        <time>2017-12-24T09:27:48Z</time>
      </trkpt>
      <trkpt lat="43.7274" lon="3.44471">
        <ele>364.2</ele>
        <time>2017-12-24T09:27:50Z</time>
      </trkpt>
      <trkpt lat="43.72736" lon="3.4447">
        <ele>364.2</ele>
        <time>2017-12-24T09:27:52Z</time>
      </trkpt>
      <trkpt lat="43.72731" lon="3.4447">
        <ele>364.2</ele>
        <time>2017-12-24T09:27:54Z</time>
      </trkpt>
      <trkpt lat="43.72727" lon="3.4447">
        <ele>364.1</ele>
        <time>2017-12-24T09:27:56Z</time>
      </trkpt>
      <trkpt lat="43.72723" lon="3.44469">
        <ele>363.6</ele>
        <time>2017-12-24T09:27:58Z</time>
      </trkpt>
      <trkpt lat="43.7272" lon="3.44469">
        <ele>363.3</ele>
        <time>2017-12-24T09:27:59Z</time>
      </trkpt>
      <trkpt lat="43.72714" lon="3.44466">
        <ele>363.4</ele>
        <time>2017-12-24T09:28:01Z</time>
      </trkpt>
      <trkpt lat="43.7271" lon="3.44464">
        <ele>363.3</ele>
        <time>2017-12-24T09:28:03Z</time>
      </trkpt>
      <trkpt lat="43.72705" lon="3.44461">
        <ele>362.9</ele>
        <time>2017-12-24T09:28:05Z</time>
      </trkpt>
      <trkpt lat="43.72702" lon="3.44458">
        <ele>362.5</ele>
        <time>2017-12-24T09:28:06Z</time>
      </trkpt>
      <trkpt lat="43.727" lon="3.44456">
        <ele>362</ele>
        <time>2017-12-24T09:28:07Z</time>
      </trkpt>
      <trkpt lat="43.72696" lon="3.44452">
        <ele>361.3</ele>
        <time>2017-12-24T09:28:09Z</time>
      </trkpt>
      <trkpt lat="43.72693" lon="3.44448">
        <ele>361.1</ele>
        <time>2017-12-24T09:28:11Z</time>
      </trkpt>
      <trkpt lat="43.72689" lon="3.44445">
        <ele>360.7</ele>
        <time>2017-12-24T09:28:13Z</time>
      </trkpt>
      <trkpt lat="43.72685" lon="3.44441">
        <ele>359.7</ele>
        <time>2017-12-24T09:28:15Z</time>
      </trkpt>
      <trkpt lat="43.7268" lon="3.44438">
        <ele>359.3</ele>
        <time>2017-12-24T09:28:17Z</time>
      </trkpt>
      <trkpt lat="43.72676" lon="3.44434">
        <ele>359</ele>
        <time>2017-12-24T09:28:19Z</time>
      </trkpt>
      <trkpt lat="43.72671" lon="3.44432">
        <ele>359.1</ele>
        <time>2017-12-24T09:28:21Z</time>
      </trkpt>
      <trkpt lat="43.72667" lon="3.44429">
        <ele>359.1</ele>
        <time>2017-12-24T09:28:23Z</time>
      </trkpt>
      <trkpt lat="43.72663" lon="3.44427">
        <ele>359</ele>
        <time>2017-12-24T09:28:25Z</time>
      </trkpt>
      <trkpt lat="43.72658" lon="3.44425">
        <ele>359.2</ele>
        <time>2017-12-24T09:28:27Z</time>
      </trkpt>
      <trkpt lat="43.72654" lon="3.44423">
        <ele>359.8</ele>
        <time>2017-12-24T09:28:29Z</time>
      </trkpt>
      <trkpt lat="43.7265" lon="3.44423">
        <ele>360.4</ele>
        <time>2017-12-24T09:28:31Z</time>
      </trkpt>
      <trkpt lat="43.72646" lon="3.44422">
        <ele>361.1</ele>
        <time>2017-12-24T09:28:33Z</time>
      </trkpt>
      <trkpt lat="43.72642" lon="3.44422">
        <ele>361.5</ele>
        <time>2017-12-24T09:28:35Z</time>
      </trkpt>
      <trkpt lat="43.72637" lon="3.44422">
        <ele>361.4</ele>
        <time>2017-12-24T09:28:37Z</time>
      </trkpt>
      <trkpt lat="43.72633" lon="3.44422">
        <ele>361.7</ele>
        <time>2017-12-24T09:28:39Z</time>
      </trkpt>
      <trkpt lat="43.72629" lon="3.44421">
        <ele>362.5</ele>
        <time>2017-12-24T09:28:41Z</time>
      </trkpt>
      <trkpt lat="43.72625" lon="3.4442">
        <ele>363.2</ele>
        <time>2017-12-24T09:28:43Z</time>
      </trkpt>
      <trkpt lat="43.72622" lon="3.44419">
        <ele>363.7</ele>
        <time>2017-12-24T09:28:45Z</time>
      </trkpt>
      <trkpt lat="43.72617" lon="3.44419">
        <ele>364.3</ele>
        <time>2017-12-24T09:28:47Z</time>
      </trkpt>
      <trkpt lat="43.72614" lon="3.44418">
        <ele>364.3</ele>
        <time>2017-12-24T09:28:49Z</time>
      </trkpt>
      <trkpt lat="43.7261" lon="3.44416">
        <ele>364.4</ele>
        <time>2017-12-24T09:28:51Z</time>
      </trkpt>
      <trkpt lat="43.72606" lon="3.44414">
        <ele>364.5</ele>
        <time>2017-12-24T09:28:53Z</time>
      </trkpt>
      <trkpt lat="43.72603" lon="3.44412">
        <ele>364.6</ele>
        <time>2017-12-24T09:28:55Z</time>
      </trkpt>
      <trkpt lat="43.726" lon="3.4441">
        <ele>364.9</ele>
        <time>2017-12-24T09:28:57Z</time>
      </trkpt>
      <trkpt lat="43.72595" lon="3.44407">
        <ele>365.1</ele>
        <time>2017-12-24T09:28:59Z</time>
      </trkpt>
      <trkpt lat="43.72593" lon="3.44405">
        <ele>365.2</ele>
        <time>2017-12-24T09:29:00Z</time>
      </trkpt>
      <trkpt lat="43.72589" lon="3.44402">
        <ele>365.2</ele>
        <time>2017-12-24T09:29:02Z</time>
      </trkpt>
      <trkpt lat="43.72586" lon="3.44398">
        <ele>365.2</ele>
        <time>2017-12-24T09:29:04Z</time>
      </trkpt>
      <trkpt lat="43.72583" lon="3.44396">
        <ele>365.1</ele>
        <time>2017-12-24T09:29:06Z</time>
      </trkpt>
      <trkpt lat="43.72579" lon="3.44393">
        <ele>365</ele>
        <time>2017-12-24T09:29:08Z</time>
      </trkpt>
      <trkpt lat="43.72575" lon="3.4439">
        <ele>364.9</ele>
        <time>2017-12-24T09:29:10Z</time>
      </trkpt>
      <trkpt lat="43.72571" lon="3.44388">
        <ele>364.7</ele>
        <time>2017-12-24T09:29:12Z</time>
      </trkpt>
      <trkpt lat="43.72567" lon="3.44387">
        <ele>364.5</ele>
        <time>2017-12-24T09:29:14Z</time>
      </trkpt>
      <trkpt lat="43.72563" lon="3.44385">
        <ele>364.4</ele>
        <time>2017-12-24T09:29:16Z</time>
      </trkpt>
      <trkpt lat="43.72559" lon="3.44385">
        <ele>364.9</ele>
        <time>2017-12-24T09:29:18Z</time>
      </trkpt>
      <trkpt lat="43.72554" lon="3.44385">
        <ele>365.5</ele>
        <time>2017-12-24T09:29:20Z</time>
      </trkpt>
      <trkpt lat="43.7255" lon="3.44385">
        <ele>366.1</ele>
        <time>2017-12-24T09:29:22Z</time>
      </trkpt>
      <trkpt lat="43.72546" lon="3.44386">
        <ele>366.5</ele>
        <time>2017-12-24T09:29:24Z</time>
      </trkpt>
      <trkpt lat="43.72542" lon="3.44386">
        <ele>366.9</ele>
        <time>2017-12-24T09:29:26Z</time>
      </trkpt>
      <trkpt lat="43.72539" lon="3.44388">
        <ele>367.3</ele>
        <time>2017-12-24T09:29:28Z</time>
      </trkpt>
      <trkpt lat="43.72534" lon="3.4439">
        <ele>368</ele>
        <time>2017-12-24T09:29:30Z</time>
      </trkpt>
      <trkpt lat="43.72531" lon="3.44392">
        <ele>368.8</ele>
        <time>2017-12-24T09:29:32Z</time>
      </trkpt>
      <trkpt lat="43.72527" lon="3.44393">
        <ele>369.2</ele>
        <time>2017-12-24T09:29:34Z</time>
      </trkpt>
      <trkpt lat="43.72522" lon="3.44395">
        <ele>369.5</ele>
        <time>2017-12-24T09:29:36Z</time>
      </trkpt>
      <trkpt lat="43.72518" lon="3.44396">
        <ele>369.7</ele>
        <time>2017-12-24T09:29:38Z</time>
      </trkpt>
      <trkpt lat="43.72514" lon="3.44397">
        <ele>370</ele>
        <time>2017-12-24T09:29:40Z</time>
      </trkpt>
      <trkpt lat="43.72511" lon="3.44398">
        <ele>370.5</ele>
        <time>2017-12-24T09:29:42Z</time>
      </trkpt>
      <trkpt lat="43.72508" lon="3.44403">
        <ele>371.1</ele>
        <time>2017-12-24T09:29:44Z</time>
      </trkpt>
      <trkpt lat="43.72511" lon="3.44407">
        <ele>371.6</ele>
        <time>2017-12-24T09:29:47Z</time>
      </trkpt>
      <trkpt lat="43.72514" lon="3.44406">
        <ele>372</ele>
        <time>2017-12-24T09:29:49Z</time>
      </trkpt>
      <trkpt lat="43.72518" lon="3.44405">
        <ele>372.3</ele>
        <time>2017-12-24T09:29:51Z</time>
      </trkpt>
      <trkpt lat="43.72521" lon="3.44405">
        <ele>372.5</ele>
        <time>2017-12-24T09:29:53Z</time>
      </trkpt>
      <trkpt lat="43.72525" lon="3.44406">
        <ele>372.8</ele>
        <time>2017-12-24T09:29:55Z</time>
      </trkpt>
      <trkpt lat="43.72529" lon="3.44407">
        <ele>373</ele>
        <time>2017-12-24T09:29:57Z</time>
      </trkpt>
      <trkpt lat="43.72532" lon="3.44408">
        <ele>373.2</ele>
        <time>2017-12-24T09:29:59Z</time>
      </trkpt>
      <trkpt lat="43.72535" lon="3.4441">
        <ele>373.4</ele>
        <time>2017-12-24T09:30:01Z</time>
      </trkpt>
      <trkpt lat="43.7254" lon="3.44412">
        <ele>373.6</ele>
        <time>2017-12-24T09:30:03Z</time>
      </trkpt>
      <trkpt lat="43.72543" lon="3.44414">
        <ele>374.2</ele>
        <time>2017-12-24T09:30:05Z</time>
      </trkpt>
      <trkpt lat="43.72546" lon="3.44416">
        <ele>374.8</ele>
        <time>2017-12-24T09:30:07Z</time>
      </trkpt>
      <trkpt lat="43.7255" lon="3.44419">
        <ele>375.3</ele>
        <time>2017-12-24T09:30:09Z</time>
      </trkpt>
      <trkpt lat="43.72553" lon="3.44421">
        <ele>375.7</ele>
        <time>2017-12-24T09:30:11Z</time>
      </trkpt>
      <trkpt lat="43.72556" lon="3.44424">
        <ele>375.9</ele>
        <time>2017-12-24T09:30:13Z</time>
      </trkpt>
      <trkpt lat="43.72559" lon="3.44427">
        <ele>376.2</ele>
        <time>2017-12-24T09:30:15Z</time>
      </trkpt>
      <trkpt lat="43.72562" lon="3.4443">
        <ele>376.5</ele>
        <time>2017-12-24T09:30:17Z</time>
      </trkpt>
      <trkpt lat="43.72565" lon="3.44433">
        <ele>377.2</ele>
        <time>2017-12-24T09:30:19Z</time>
      </trkpt>
      <trkpt lat="43.72568" lon="3.44435">
        <ele>377.9</ele>
        <time>2017-12-24T09:30:21Z</time>
      </trkpt>
      <trkpt lat="43.72571" lon="3.44438">
        <ele>378.3</ele>
        <time>2017-12-24T09:30:23Z</time>
      </trkpt>
      <trkpt lat="43.72574" lon="3.44441">
        <ele>378.7</ele>
        <time>2017-12-24T09:30:25Z</time>
      </trkpt>
      <trkpt lat="43.72577" lon="3.44444">
        <ele>379</ele>
        <time>2017-12-24T09:30:27Z</time>
      </trkpt>
      <trkpt lat="43.7258" lon="3.44447">
        <ele>379.2</ele>
        <time>2017-12-24T09:30:29Z</time>
      </trkpt>
      <trkpt lat="43.72583" lon="3.44451">
        <ele>379.5</ele>
        <time>2017-12-24T09:30:31Z</time>
      </trkpt>
      <trkpt lat="43.72586" lon="3.44455">
        <ele>380.1</ele>
        <time>2017-12-24T09:30:33Z</time>
      </trkpt>
      <trkpt lat="43.72589" lon="3.44457">
        <ele>380.7</ele>
        <time>2017-12-24T09:30:35Z</time>
      </trkpt>
      <trkpt lat="43.72591" lon="3.44461">
        <ele>381.5</ele>
        <time>2017-12-24T09:30:37Z</time>
      </trkpt>
      <trkpt lat="43.72594" lon="3.44463">
        <ele>382.1</ele>
        <time>2017-12-24T09:30:39Z</time>
      </trkpt>
      <trkpt lat="43.72597" lon="3.44466">
        <ele>382.4</ele>
        <time>2017-12-24T09:30:41Z</time>
      </trkpt>
      <trkpt lat="43.726" lon="3.4447">
        <ele>382.7</ele>
        <time>2017-12-24T09:30:43Z</time>
      </trkpt>
      <trkpt lat="43.72603" lon="3.44473">
        <ele>383.3</ele>
        <time>2017-12-24T09:30:45Z</time>
      </trkpt>
      <trkpt lat="43.72606" lon="3.44478">
        <ele>384.3</ele>
        <time>2017-12-24T09:30:47Z</time>
      </trkpt>
      <trkpt lat="43.72608" lon="3.44483">
        <ele>384.7</ele>
        <time>2017-12-24T09:30:49Z</time>
      </trkpt>
      <trkpt lat="43.7261" lon="3.44489">
        <ele>385.1</ele>
        <time>2017-12-24T09:30:51Z</time>
      </trkpt>
      <trkpt lat="43.72611" lon="3.44494">
        <ele>385.4</ele>
        <time>2017-12-24T09:30:53Z</time>
      </trkpt>
      <trkpt lat="43.72612" lon="3.445">
        <ele>385.6</ele>
        <time>2017-12-24T09:30:55Z</time>
      </trkpt>
      <trkpt lat="43.72611" lon="3.44505">
        <ele>386.2</ele>
        <time>2017-12-24T09:30:57Z</time>
      </trkpt>
      <trkpt lat="43.72611" lon="3.4451">
        <ele>386.9</ele>
        <time>2017-12-24T09:30:59Z</time>
      </trkpt>
      <trkpt lat="43.7261" lon="3.44516">
        <ele>387.5</ele>
        <time>2017-12-24T09:31:01Z</time>
      </trkpt>
      <trkpt lat="43.72608" lon="3.44522">
        <ele>387.8</ele>
        <time>2017-12-24T09:31:03Z</time>
      </trkpt>
      <trkpt lat="43.72607" lon="3.44527">
        <ele>388</ele>
        <time>2017-12-24T09:31:05Z</time>
      </trkpt>
      <trkpt lat="43.72606" lon="3.44533">
        <ele>388.4</ele>
        <time>2017-12-24T09:31:07Z</time>
      </trkpt>
      <trkpt lat="43.72606" lon="3.4454">
        <ele>389</ele>
        <time>2017-12-24T09:31:09Z</time>
      </trkpt>
      <trkpt lat="43.72608" lon="3.44547">
        <ele>389.8</ele>
        <time>2017-12-24T09:31:11Z</time>
      </trkpt>
      <trkpt lat="43.7261" lon="3.4455">
        <ele>390.3</ele>
        <time>2017-12-24T09:31:12Z</time>
      </trkpt>
      <trkpt lat="43.72614" lon="3.44555">
        <ele>391.1</ele>
        <time>2017-12-24T09:31:14Z</time>
      </trkpt>
      <trkpt lat="43.72617" lon="3.44559">
        <ele>391.7</ele>
        <time>2017-12-24T09:31:16Z</time>
      </trkpt>
      <trkpt lat="43.72621" lon="3.44563">
        <ele>391.9</ele>
        <time>2017-12-24T09:31:18Z</time>
      </trkpt>
      <trkpt lat="43.72624" lon="3.44566">
        <ele>392.2</ele>
        <time>2017-12-24T09:31:20Z</time>
      </trkpt>
      <trkpt lat="43.72627" lon="3.4457">
        <ele>392.4</ele>
        <time>2017-12-24T09:31:22Z</time>
      </trkpt>
      <trkpt lat="43.72631" lon="3.44573">
        <ele>392.9</ele>
        <time>2017-12-24T09:31:24Z</time>
      </trkpt>
      <trkpt lat="43.72634" lon="3.44576">
        <ele>393.6</ele>
        <time>2017-12-24T09:31:26Z</time>
      </trkpt>
      <trkpt lat="43.72638" lon="3.4458">
        <ele>394.1</ele>
        <time>2017-12-24T09:31:28Z</time>
      </trkpt>
      <trkpt lat="43.72643" lon="3.44583">
        <ele>394.6</ele>
        <time>2017-12-24T09:31:30Z</time>
      </trkpt>
      <trkpt lat="43.72645" lon="3.44585">
        <ele>394.8</ele>
        <time>2017-12-24T09:31:31Z</time>
      </trkpt>
      <trkpt lat="43.72649" lon="3.44588">
        <ele>395</ele>
        <time>2017-12-24T09:31:33Z</time>
      </trkpt>
      <trkpt lat="43.72652" lon="3.44591">
        <ele>395.3</ele>
        <time>2017-12-24T09:31:35Z</time>
      </trkpt>
      <trkpt lat="43.72657" lon="3.44595">
        <ele>396.1</ele>
        <time>2017-12-24T09:31:37Z</time>
      </trkpt>
      <trkpt lat="43.7266" lon="3.44599">
        <ele>396.8</ele>
        <time>2017-12-24T09:31:39Z</time>
      </trkpt>
      <trkpt lat="43.72662" lon="3.44603">
        <ele>397.3</ele>
        <time>2017-12-24T09:31:41Z</time>
      </trkpt>
      <trkpt lat="43.72665" lon="3.44607">
        <ele>397.6</ele>
        <time>2017-12-24T09:31:43Z</time>
      </trkpt>
      <trkpt lat="43.72668" lon="3.44611">
        <ele>397.8</ele>
        <time>2017-12-24T09:31:45Z</time>
      </trkpt>
      <trkpt lat="43.7267" lon="3.44616">
        <ele>398</ele>
        <time>2017-12-24T09:31:47Z</time>
      </trkpt>
      <trkpt lat="43.72672" lon="3.44618">
        <ele>398.2</ele>
        <time>2017-12-24T09:31:49Z</time>
      </trkpt>
      <trkpt lat="43.72675" lon="3.44622">
        <ele>398.3</ele>
        <time>2017-12-24T09:31:51Z</time>
      </trkpt>
      <trkpt lat="43.72678" lon="3.44626">
        <ele>398.8</ele>
        <time>2017-12-24T09:31:53Z</time>
      </trkpt>
      <trkpt lat="43.7268" lon="3.44629">
        <ele>399.1</ele>
        <time>2017-12-24T09:31:54Z</time>
      </trkpt>
      <trkpt lat="43.72683" lon="3.44634">
        <ele>399.8</ele>
        <time>2017-12-24T09:31:56Z</time>
      </trkpt>
      <trkpt lat="43.72687" lon="3.44638">
        <ele>400.4</ele>
        <time>2017-12-24T09:31:59Z</time>
      </trkpt>
      <trkpt lat="43.7269" lon="3.4464">
        <ele>400.7</ele>
        <time>2017-12-24T09:32:01Z</time>
      </trkpt>
      <trkpt lat="43.72694" lon="3.44643">
        <ele>400.9</ele>
        <time>2017-12-24T09:32:03Z</time>
      </trkpt>
      <trkpt lat="43.72698" lon="3.44647">
        <ele>401.1</ele>
        <time>2017-12-24T09:32:05Z</time>
      </trkpt>
      <trkpt lat="43.72702" lon="3.44649">
        <ele>401.4</ele>
        <time>2017-12-24T09:32:07Z</time>
      </trkpt>
      <trkpt lat="43.72705" lon="3.44652">
        <ele>401.6</ele>
        <time>2017-12-24T09:32:09Z</time>
      </trkpt>
      <trkpt lat="43.72709" lon="3.44655">
        <ele>401.9</ele>
        <time>2017-12-24T09:32:11Z</time>
      </trkpt>
      <trkpt lat="43.72713" lon="3.44658">
        <ele>402.4</ele>
        <time>2017-12-24T09:32:13Z</time>
      </trkpt>
      <trkpt lat="43.72716" lon="3.4466">
        <ele>402.9</ele>
        <time>2017-12-24T09:32:15Z</time>
      </trkpt>
      <trkpt lat="43.7272" lon="3.44662">
        <ele>403.4</ele>
        <time>2017-12-24T09:32:17Z</time>
      </trkpt>
      <trkpt lat="43.72723" lon="3.44664">
        <ele>403.7</ele>
        <time>2017-12-24T09:32:19Z</time>
      </trkpt>
      <trkpt lat="43.72726" lon="3.44665">
        <ele>403.9</ele>
        <time>2017-12-24T09:32:20Z</time>
      </trkpt>
      <trkpt lat="43.72729" lon="3.44667">
        <ele>404.2</ele>
        <time>2017-12-24T09:32:22Z</time>
      </trkpt>
      <trkpt lat="43.72733" lon="3.44668">
        <ele>404.4</ele>
        <time>2017-12-24T09:32:24Z</time>
      </trkpt>
      <trkpt lat="43.72738" lon="3.44668">
        <ele>404.7</ele>
        <time>2017-12-24T09:32:26Z</time>
      </trkpt>
      <trkpt lat="43.72741" lon="3.44668">
        <ele>405</ele>
        <time>2017-12-24T09:32:28Z</time>
      </trkpt>
      <trkpt lat="43.72745" lon="3.44666">
        <ele>405.5</ele>
        <time>2017-12-24T09:32:30Z</time>
      </trkpt>
      <trkpt lat="43.72749" lon="3.44664">
        <ele>406.3</ele>
        <time>2017-12-24T09:32:32Z</time>
      </trkpt>
      <trkpt lat="43.72754" lon="3.44662">
        <ele>407.1</ele>
        <time>2017-12-24T09:32:34Z</time>
      </trkpt>
      <trkpt lat="43.72757" lon="3.44661">
        <ele>407.5</ele>
        <time>2017-12-24T09:32:36Z</time>
      </trkpt>
      <trkpt lat="43.72761" lon="3.4466">
        <ele>407.8</ele>
        <time>2017-12-24T09:32:38Z</time>
      </trkpt>
      <trkpt lat="43.72764" lon="3.4466">
        <ele>408.1</ele>
        <time>2017-12-24T09:32:40Z</time>
      </trkpt>
      <trkpt lat="43.72768" lon="3.44659">
        <ele>408.6</ele>
        <time>2017-12-24T09:32:42Z</time>
      </trkpt>
      <trkpt lat="43.72773" lon="3.44658">
        <ele>409.3</ele>
        <time>2017-12-24T09:32:44Z</time>
      </trkpt>
      <trkpt lat="43.72775" lon="3.44657">
        <ele>409.8</ele>
        <time>2017-12-24T09:32:45Z</time>
      </trkpt>
      <trkpt lat="43.72779" lon="3.44656">
        <ele>410.3</ele>
        <time>2017-12-24T09:32:47Z</time>
      </trkpt>
      <trkpt lat="43.72782" lon="3.44655">
        <ele>410.5</ele>
        <time>2017-12-24T09:32:49Z</time>
      </trkpt>
      <trkpt lat="43.72785" lon="3.44654">
        <ele>410.7</ele>
        <time>2017-12-24T09:32:51Z</time>
      </trkpt>
      <trkpt lat="43.72789" lon="3.44653">
        <ele>410.9</ele>
        <time>2017-12-24T09:32:53Z</time>
      </trkpt>
      <trkpt lat="43.72792" lon="3.44653">
        <ele>411.1</ele>
        <time>2017-12-24T09:32:54Z</time>
      </trkpt>
      <trkpt lat="43.72798" lon="3.44653">
        <ele>411.5</ele>
        <time>2017-12-24T09:32:56Z</time>
      </trkpt>
      <trkpt lat="43.72802" lon="3.44651">
        <ele>412</ele>
        <time>2017-12-24T09:32:58Z</time>
      </trkpt>
      <trkpt lat="43.72806" lon="3.4465">
        <ele>412.7</ele>
        <time>2017-12-24T09:33:00Z</time>
      </trkpt>
      <trkpt lat="43.72808" lon="3.44649">
        <ele>413.1</ele>
        <time>2017-12-24T09:33:02Z</time>
      </trkpt>
      <trkpt lat="43.72812" lon="3.44647">
        <ele>413.4</ele>
        <time>2017-12-24T09:33:04Z</time>
      </trkpt>
      <trkpt lat="43.72815" lon="3.44646">
        <ele>413.6</ele>
        <time>2017-12-24T09:33:05Z</time>
      </trkpt>
      <trkpt lat="43.72818" lon="3.44645">
        <ele>413.9</ele>
        <time>2017-12-24T09:33:07Z</time>
      </trkpt>
      <trkpt lat="43.72822" lon="3.44643">
        <ele>414.2</ele>
        <time>2017-12-24T09:33:09Z</time>
      </trkpt>
      <trkpt lat="43.72826" lon="3.4464">
        <ele>414.4</ele>
        <time>2017-12-24T09:33:11Z</time>
      </trkpt>
      <trkpt lat="43.72829" lon="3.44639">
        <ele>414.8</ele>
        <time>2017-12-24T09:33:12Z</time>
      </trkpt>
      <trkpt lat="43.72834" lon="3.44639">
        <ele>415.6</ele>
        <time>2017-12-24T09:33:14Z</time>
      </trkpt>
      <trkpt lat="43.72838" lon="3.44638">
        <ele>416.2</ele>
        <time>2017-12-24T09:33:16Z</time>
      </trkpt>
      <trkpt lat="43.72842" lon="3.44637">
        <ele>416.5</ele>
        <time>2017-12-24T09:33:18Z</time>
      </trkpt>
      <trkpt lat="43.72845" lon="3.44635">
        <ele>416.7</ele>
        <time>2017-12-24T09:33:20Z</time>
      </trkpt>
      <trkpt lat="43.72848" lon="3.44632">
        <ele>416.9</ele>
        <time>2017-12-24T09:33:22Z</time>
      </trkpt>
      <trkpt lat="43.72853" lon="3.44628">
        <ele>417.2</ele>
        <time>2017-12-24T09:33:24Z</time>
      </trkpt>
      <trkpt lat="43.72857" lon="3.44626">
        <ele>417.6</ele>
        <time>2017-12-24T09:33:26Z</time>
      </trkpt>
      <trkpt lat="43.72861" lon="3.44623">
        <ele>418.5</ele>
        <time>2017-12-24T09:33:28Z</time>
      </trkpt>
      <trkpt lat="43.72866" lon="3.44622">
        <ele>419.4</ele>
        <time>2017-12-24T09:33:30Z</time>
      </trkpt>
      <trkpt lat="43.7287" lon="3.4462">
        <ele>419.9</ele>
        <time>2017-12-24T09:33:32Z</time>
      </trkpt>
      <trkpt lat="43.72874" lon="3.44619">
        <ele>420.3</ele>
        <time>2017-12-24T09:33:34Z</time>
      </trkpt>
      <trkpt lat="43.72877" lon="3.44617">
        <ele>420.6</ele>
        <time>2017-12-24T09:33:36Z</time>
      </trkpt>
      <trkpt lat="43.72882" lon="3.44616">
        <ele>421.3</ele>
        <time>2017-12-24T09:33:38Z</time>
      </trkpt>
      <trkpt lat="43.72885" lon="3.44613">
        <ele>421.9</ele>
        <time>2017-12-24T09:33:40Z</time>
      </trkpt>
      <trkpt lat="43.72888" lon="3.44612">
        <ele>422.3</ele>
        <time>2017-12-24T09:33:41Z</time>
      </trkpt>
      <trkpt lat="43.72892" lon="3.44609">
        <ele>422.6</ele>
        <time>2017-12-24T09:33:43Z</time>
      </trkpt>
      <trkpt lat="43.72896" lon="3.44607">
        <ele>422.8</ele>
        <time>2017-12-24T09:33:45Z</time>
      </trkpt>
      <trkpt lat="43.729" lon="3.44605">
        <ele>423.1</ele>
        <time>2017-12-24T09:33:47Z</time>
      </trkpt>
      <trkpt lat="43.72904" lon="3.44603">
        <ele>423.4</ele>
        <time>2017-12-24T09:33:49Z</time>
      </trkpt>
      <trkpt lat="43.72907" lon="3.44602">
        <ele>423.6</ele>
        <time>2017-12-24T09:33:51Z</time>
      </trkpt>
      <trkpt lat="43.7291" lon="3.446">
        <ele>424.2</ele>
        <time>2017-12-24T09:33:53Z</time>
      </trkpt>
      <trkpt lat="43.72913" lon="3.446">
        <ele>424.8</ele>
        <time>2017-12-24T09:33:55Z</time>
      </trkpt>
      <trkpt lat="43.72918" lon="3.44599">
        <ele>425.6</ele>
        <time>2017-12-24T09:33:57Z</time>
      </trkpt>
      <trkpt lat="43.72922" lon="3.44598">
        <ele>425.9</ele>
        <time>2017-12-24T09:33:59Z</time>
      </trkpt>
      <trkpt lat="43.72926" lon="3.44597">
        <ele>426.2</ele>
        <time>2017-12-24T09:34:01Z</time>
      </trkpt>
      <trkpt lat="43.7293" lon="3.44596">
        <ele>426.5</ele>
        <time>2017-12-24T09:34:03Z</time>
      </trkpt>
      <trkpt lat="43.72933" lon="3.44594">
        <ele>426.6</ele>
        <time>2017-12-24T09:34:05Z</time>
      </trkpt>
      <trkpt lat="43.72936" lon="3.44591">
        <ele>426.9</ele>
        <time>2017-12-24T09:34:07Z</time>
      </trkpt>
      <trkpt lat="43.7294" lon="3.44589">
        <ele>427.6</ele>
        <time>2017-12-24T09:34:09Z</time>
      </trkpt>
      <trkpt lat="43.72943" lon="3.44587">
        <ele>428.3</ele>
        <time>2017-12-24T09:34:11Z</time>
      </trkpt>
      <trkpt lat="43.72947" lon="3.44585">
        <ele>428.9</ele>
        <time>2017-12-24T09:34:13Z</time>
      </trkpt>
      <trkpt lat="43.7295" lon="3.44584">
        <ele>429.2</ele>
        <time>2017-12-24T09:34:15Z</time>
      </trkpt>
      <trkpt lat="43.72954" lon="3.44582">
        <ele>429.5</ele>
        <time>2017-12-24T09:34:17Z</time>
      </trkpt>
      <trkpt lat="43.72957" lon="3.4458">
        <ele>429.7</ele>
        <time>2017-12-24T09:34:19Z</time>
      </trkpt>
      <trkpt lat="43.7296" lon="3.44578">
        <ele>430</ele>
        <time>2017-12-24T09:34:21Z</time>
      </trkpt>
      <trkpt lat="43.72964" lon="3.44575">
        <ele>430.7</ele>
        <time>2017-12-24T09:34:23Z</time>
      </trkpt>
      <trkpt lat="43.72968" lon="3.44573">
        <ele>431.4</ele>
        <time>2017-12-24T09:34:25Z</time>
      </trkpt>
      <trkpt lat="43.72972" lon="3.44571">
        <ele>431.8</ele>
        <time>2017-12-24T09:34:27Z</time>
      </trkpt>
      <trkpt lat="43.72975" lon="3.4457">
        <ele>432</ele>
        <time>2017-12-24T09:34:28Z</time>
      </trkpt>
      <trkpt lat="43.72979" lon="3.44568">
        <ele>432.2</ele>
        <time>2017-12-24T09:34:29Z</time>
      </trkpt>
      <trkpt lat="43.72982" lon="3.44568">
        <ele>432.3</ele>
        <time>2017-12-24T09:34:30Z</time>
      </trkpt>
      <trkpt lat="43.72984" lon="3.44567">
        <ele>432.5</ele>
        <time>2017-12-24T09:34:31Z</time>
      </trkpt>
      <trkpt lat="43.72989" lon="3.44565">
        <ele>432.7</ele>
        <time>2017-12-24T09:34:33Z</time>
      </trkpt>
      <trkpt lat="43.72993" lon="3.44565">
        <ele>432.9</ele>
        <time>2017-12-24T09:34:35Z</time>
      </trkpt>
      <trkpt lat="43.72997" lon="3.44564">
        <ele>433.4</ele>
        <time>2017-12-24T09:34:37Z</time>
      </trkpt>
      <trkpt lat="43.73001" lon="3.44564">
        <ele>434</ele>
        <time>2017-12-24T09:34:39Z</time>
      </trkpt>
      <trkpt lat="43.73006" lon="3.44564">
        <ele>434.7</ele>
        <time>2017-12-24T09:34:41Z</time>
      </trkpt>
      <trkpt lat="43.73009" lon="3.44563">
        <ele>435.1</ele>
        <time>2017-12-24T09:34:42Z</time>
      </trkpt>
      <trkpt lat="43.73014" lon="3.44563">
        <ele>435.5</ele>
        <time>2017-12-24T09:34:44Z</time>
      </trkpt>
      <trkpt lat="43.73019" lon="3.44566">
        <ele>435.7</ele>
        <time>2017-12-24T09:34:46Z</time>
      </trkpt>
      <trkpt lat="43.73022" lon="3.44567">
        <ele>435.9</ele>
        <time>2017-12-24T09:34:47Z</time>
      </trkpt>
      <trkpt lat="43.73026" lon="3.4457">
        <ele>436.2</ele>
        <time>2017-12-24T09:34:49Z</time>
      </trkpt>
      <trkpt lat="43.73029" lon="3.44573">
        <ele>436.4</ele>
        <time>2017-12-24T09:34:51Z</time>
      </trkpt>
      <trkpt lat="43.73031" lon="3.44575">
        <ele>436.5</ele>
        <time>2017-12-24T09:34:53Z</time>
      </trkpt>
      <trkpt lat="43.73034" lon="3.44579">
        <ele>437</ele>
        <time>2017-12-24T09:34:55Z</time>
      </trkpt>
      <trkpt lat="43.73037" lon="3.44583">
        <ele>437.5</ele>
        <time>2017-12-24T09:34:57Z</time>
      </trkpt>
      <trkpt lat="43.7304" lon="3.44585">
        <ele>437.9</ele>
        <time>2017-12-24T09:34:59Z</time>
      </trkpt>
      <trkpt lat="43.73042" lon="3.44589">
        <ele>438.3</ele>
        <time>2017-12-24T09:35:01Z</time>
      </trkpt>
      <trkpt lat="43.73045" lon="3.44591">
        <ele>438.6</ele>
        <time>2017-12-24T09:35:03Z</time>
      </trkpt>
      <trkpt lat="43.73048" lon="3.44595">
        <ele>438.8</ele>
        <time>2017-12-24T09:35:05Z</time>
      </trkpt>
      <trkpt lat="43.73051" lon="3.44598">
        <ele>439</ele>
        <time>2017-12-24T09:35:07Z</time>
      </trkpt>
      <trkpt lat="43.73054" lon="3.44602">
        <ele>439.2</ele>
        <time>2017-12-24T09:35:09Z</time>
      </trkpt>
      <trkpt lat="43.73057" lon="3.44605">
        <ele>439.5</ele>
        <time>2017-12-24T09:35:11Z</time>
      </trkpt>
      <trkpt lat="43.7306" lon="3.4461">
        <ele>440.3</ele>
        <time>2017-12-24T09:35:13Z</time>
      </trkpt>
      <trkpt lat="43.73062" lon="3.44614">
        <ele>440.9</ele>
        <time>2017-12-24T09:35:15Z</time>
      </trkpt>
      <trkpt lat="43.73065" lon="3.44619">
        <ele>441.6</ele>
        <time>2017-12-24T09:35:17Z</time>
      </trkpt>
      <trkpt lat="43.73068" lon="3.44625">
        <ele>441.9</ele>
        <time>2017-12-24T09:35:19Z</time>
      </trkpt>
      <trkpt lat="43.7307" lon="3.44629">
        <ele>442.1</ele>
        <time>2017-12-24T09:35:21Z</time>
      </trkpt>
      <trkpt lat="43.73072" lon="3.44633">
        <ele>442.3</ele>
        <time>2017-12-24T09:35:23Z</time>
      </trkpt>
      <trkpt lat="43.73074" lon="3.44637">
        <ele>442.6</ele>
        <time>2017-12-24T09:35:25Z</time>
      </trkpt>
      <trkpt lat="43.73077" lon="3.44642">
        <ele>442.9</ele>
        <time>2017-12-24T09:35:27Z</time>
      </trkpt>
      <trkpt lat="43.73079" lon="3.44647">
        <ele>443.5</ele>
        <time>2017-12-24T09:35:29Z</time>
      </trkpt>
      <trkpt lat="43.73081" lon="3.44653">
        <ele>444.2</ele>
        <time>2017-12-24T09:35:31Z</time>
      </trkpt>
      <trkpt lat="43.73083" lon="3.44658">
        <ele>444.6</ele>
        <time>2017-12-24T09:35:33Z</time>
      </trkpt>
      <trkpt lat="43.73084" lon="3.44664">
        <ele>445</ele>
        <time>2017-12-24T09:35:35Z</time>
      </trkpt>
      <trkpt lat="43.73086" lon="3.4467">
        <ele>445.3</ele>
        <time>2017-12-24T09:35:37Z</time>
      </trkpt>
      <trkpt lat="43.73087" lon="3.44675">
        <ele>445.6</ele>
        <time>2017-12-24T09:35:39Z</time>
      </trkpt>
      <trkpt lat="43.73088" lon="3.44681">
        <ele>445.8</ele>
        <time>2017-12-24T09:35:41Z</time>
      </trkpt>
      <trkpt lat="43.7309" lon="3.44686">
        <ele>446.2</ele>
        <time>2017-12-24T09:35:43Z</time>
      </trkpt>
      <trkpt lat="43.73091" lon="3.44693">
        <ele>447.1</ele>
        <time>2017-12-24T09:35:45Z</time>
      </trkpt>
      <trkpt lat="43.73092" lon="3.44699">
        <ele>447.6</ele>
        <time>2017-12-24T09:35:47Z</time>
      </trkpt>
      <trkpt lat="43.73094" lon="3.44704">
        <ele>448</ele>
        <time>2017-12-24T09:35:49Z</time>
      </trkpt>
      <trkpt lat="43.73096" lon="3.44711">
        <ele>448.4</ele>
        <time>2017-12-24T09:35:51Z</time>
      </trkpt>
      <trkpt lat="43.73097" lon="3.44716">
        <ele>448.7</ele>
        <time>2017-12-24T09:35:53Z</time>
      </trkpt>
      <trkpt lat="43.73099" lon="3.44721">
        <ele>449.1</ele>
        <time>2017-12-24T09:35:55Z</time>
      </trkpt>
      <trkpt lat="43.731" lon="3.44727">
        <ele>449.6</ele>
        <time>2017-12-24T09:35:57Z</time>
      </trkpt>
      <trkpt lat="43.73101" lon="3.44732">
        <ele>450.3</ele>
        <time>2017-12-24T09:35:59Z</time>
      </trkpt>
      <trkpt lat="43.73101" lon="3.44737">
        <ele>450.8</ele>
        <time>2017-12-24T09:36:01Z</time>
      </trkpt>
      <trkpt lat="43.73101" lon="3.44741">
        <ele>451</ele>
        <time>2017-12-24T09:36:03Z</time>
      </trkpt>
      <trkpt lat="43.73102" lon="3.44746">
        <ele>451.2</ele>
        <time>2017-12-24T09:36:05Z</time>
      </trkpt>
      <trkpt lat="43.73102" lon="3.44752">
        <ele>451.4</ele>
        <time>2017-12-24T09:36:07Z</time>
      </trkpt>
      <trkpt lat="43.73102" lon="3.44758">
        <ele>451.6</ele>
        <time>2017-12-24T09:36:09Z</time>
      </trkpt>
      <trkpt lat="43.73103" lon="3.44763">
        <ele>451.8</ele>
        <time>2017-12-24T09:36:11Z</time>
      </trkpt>
      <trkpt lat="43.73103" lon="3.44768">
        <ele>452</ele>
        <time>2017-12-24T09:36:13Z</time>
      </trkpt>
      <trkpt lat="43.73104" lon="3.44775">
        <ele>452.3</ele>
        <time>2017-12-24T09:36:15Z</time>
      </trkpt>
      <trkpt lat="43.73105" lon="3.44781">
        <ele>452.6</ele>
        <time>2017-12-24T09:36:17Z</time>
      </trkpt>
      <trkpt lat="43.73106" lon="3.44787">
        <ele>453.1</ele>
        <time>2017-12-24T09:36:19Z</time>
      </trkpt>
      <trkpt lat="43.73108" lon="3.44793">
        <ele>453.7</ele>
        <time>2017-12-24T09:36:21Z</time>
      </trkpt>
      <trkpt lat="43.7311" lon="3.44798">
        <ele>454</ele>
        <time>2017-12-24T09:36:23Z</time>
      </trkpt>
      <trkpt lat="43.73112" lon="3.44804">
        <ele>454.2</ele>
        <time>2017-12-24T09:36:25Z</time>
      </trkpt>
      <trkpt lat="43.73114" lon="3.44808">
        <ele>454.2</ele>
        <time>2017-12-24T09:36:27Z</time>
      </trkpt>
      <trkpt lat="43.73116" lon="3.44812">
        <ele>454.3</ele>
        <time>2017-12-24T09:36:29Z</time>
      </trkpt>
      <trkpt lat="43.73119" lon="3.44816">
        <ele>454.4</ele>
        <time>2017-12-24T09:36:31Z</time>
      </trkpt>
      <trkpt lat="43.73122" lon="3.4482">
        <ele>454.5</ele>
        <time>2017-12-24T09:36:33Z</time>
      </trkpt>
      <trkpt lat="43.73125" lon="3.44823">
        <ele>454.6</ele>
        <time>2017-12-24T09:36:35Z</time>
      </trkpt>
      <trkpt lat="43.73128" lon="3.44827">
        <ele>454.6</ele>
        <time>2017-12-24T09:36:37Z</time>
      </trkpt>
      <trkpt lat="43.73132" lon="3.4483">
        <ele>454.7</ele>
        <time>2017-12-24T09:36:39Z</time>
      </trkpt>
      <trkpt lat="43.73136" lon="3.44835">
        <ele>454.7</ele>
        <time>2017-12-24T09:36:41Z</time>
      </trkpt>
      <trkpt lat="43.7314" lon="3.44839">
        <ele>454.8</ele>
        <time>2017-12-24T09:36:43Z</time>
      </trkpt>
      <trkpt lat="43.73143" lon="3.44845">
        <ele>454.8</ele>
        <time>2017-12-24T09:36:45Z</time>
      </trkpt>
      <trkpt lat="43.73145" lon="3.4485">
        <ele>454.9</ele>
        <time>2017-12-24T09:36:47Z</time>
      </trkpt>
      <trkpt lat="43.73146" lon="3.44855">
        <ele>454.9</ele>
        <time>2017-12-24T09:36:49Z</time>
      </trkpt>
      <trkpt lat="43.73146" lon="3.4486">
        <ele>454.9</ele>
        <time>2017-12-24T09:36:51Z</time>
      </trkpt>
      <trkpt lat="43.73144" lon="3.44863">
        <ele>455</ele>
        <time>2017-12-24T09:36:52Z</time>
      </trkpt>
      <trkpt lat="43.73141" lon="3.44865">
        <ele>455.6</ele>
        <time>2017-12-24T09:36:54Z</time>
      </trkpt>
      <trkpt lat="43.73138" lon="3.44866">
        <ele>456</ele>
        <time>2017-12-24T09:36:56Z</time>
      </trkpt>
      <trkpt lat="43.73135" lon="3.44868">
        <ele>456.3</ele>
        <time>2017-12-24T09:36:58Z</time>
      </trkpt>
      <trkpt lat="43.73132" lon="3.44869">
        <ele>456.5</ele>
        <time>2017-12-24T09:37:00Z</time>
      </trkpt>
      <trkpt lat="43.73128" lon="3.4487">
        <ele>456.9</ele>
        <time>2017-12-24T09:37:02Z</time>
      </trkpt>
      <trkpt lat="43.73125" lon="3.44871">
        <ele>457.2</ele>
        <time>2017-12-24T09:37:03Z</time>
      </trkpt>
      <trkpt lat="43.73121" lon="3.44872">
        <ele>457.5</ele>
        <time>2017-12-24T09:37:05Z</time>
      </trkpt>
      <trkpt lat="43.73117" lon="3.44872">
        <ele>457.7</ele>
        <time>2017-12-24T09:37:07Z</time>
      </trkpt>
      <trkpt lat="43.73114" lon="3.44871">
        <ele>458.1</ele>
        <time>2017-12-24T09:37:09Z</time>
      </trkpt>
      <trkpt lat="43.7311" lon="3.4487">
        <ele>458.7</ele>
        <time>2017-12-24T09:37:11Z</time>
      </trkpt>
      <trkpt lat="43.73107" lon="3.44869">
        <ele>459.3</ele>
        <time>2017-12-24T09:37:13Z</time>
      </trkpt>
      <trkpt lat="43.73103" lon="3.44869">
        <ele>459.7</ele>
        <time>2017-12-24T09:37:15Z</time>
      </trkpt>
      <trkpt lat="43.73099" lon="3.44869">
        <ele>460.1</ele>
        <time>2017-12-24T09:37:17Z</time>
      </trkpt>
      <trkpt lat="43.73096" lon="3.44868">
        <ele>460.6</ele>
        <time>2017-12-24T09:37:19Z</time>
      </trkpt>
      <trkpt lat="43.73092" lon="3.44867">
        <ele>461</ele>
        <time>2017-12-24T09:37:21Z</time>
      </trkpt>
      <trkpt lat="43.73088" lon="3.44866">
        <ele>461.6</ele>
        <time>2017-12-24T09:37:23Z</time>
      </trkpt>
      <trkpt lat="43.73084" lon="3.44865">
        <ele>462.2</ele>
        <time>2017-12-24T09:37:25Z</time>
      </trkpt>
      <trkpt lat="43.73081" lon="3.44864">
        <ele>462.8</ele>
        <time>2017-12-24T09:37:27Z</time>
      </trkpt>
      <trkpt lat="43.73077" lon="3.44864">
        <ele>463.5</ele>
        <time>2017-12-24T09:37:29Z</time>
      </trkpt>
      <trkpt lat="43.73073" lon="3.44864">
        <ele>464.5</ele>
        <time>2017-12-24T09:37:31Z</time>
      </trkpt>
      <trkpt lat="43.73069" lon="3.44862">
        <ele>465.1</ele>
        <time>2017-12-24T09:37:33Z</time>
      </trkpt>
      <trkpt lat="43.73065" lon="3.44862">
        <ele>465.6</ele>
        <time>2017-12-24T09:37:35Z</time>
      </trkpt>
      <trkpt lat="43.73061" lon="3.44861">
        <ele>466.1</ele>
        <time>2017-12-24T09:37:37Z</time>
      </trkpt>
      <trkpt lat="43.73056" lon="3.44862">
        <ele>466.5</ele>
        <time>2017-12-24T09:37:39Z</time>
      </trkpt>
      <trkpt lat="43.73053" lon="3.44862">
        <ele>466.9</ele>
        <time>2017-12-24T09:37:41Z</time>
      </trkpt>
      <trkpt lat="43.73049" lon="3.44861">
        <ele>467.7</ele>
        <time>2017-12-24T09:37:43Z</time>
      </trkpt>
      <trkpt lat="43.73046" lon="3.44862">
        <ele>468.5</ele>
        <time>2017-12-24T09:37:45Z</time>
      </trkpt>
      <trkpt lat="43.73041" lon="3.44861">
        <ele>469.1</ele>
        <time>2017-12-24T09:37:47Z</time>
      </trkpt>
      <trkpt lat="43.73037" lon="3.44861">
        <ele>469.7</ele>
        <time>2017-12-24T09:37:49Z</time>
      </trkpt>
      <trkpt lat="43.73032" lon="3.4486">
        <ele>470.5</ele>
        <time>2017-12-24T09:37:51Z</time>
      </trkpt>
      <trkpt lat="43.73027" lon="3.44859">
        <ele>471.2</ele>
        <time>2017-12-24T09:37:53Z</time>
      </trkpt>
      <trkpt lat="43.73023" lon="3.44858">
        <ele>471.9</ele>
        <time>2017-12-24T09:37:55Z</time>
      </trkpt>
      <trkpt lat="43.73019" lon="3.44856">
        <ele>472.5</ele>
        <time>2017-12-24T09:37:57Z</time>
      </trkpt>
      <trkpt lat="43.73015" lon="3.44856">
        <ele>472.9</ele>
        <time>2017-12-24T09:37:59Z</time>
      </trkpt>
      <trkpt lat="43.73011" lon="3.44857">
        <ele>473.3</ele>
        <time>2017-12-24T09:38:01Z</time>
      </trkpt>
      <trkpt lat="43.73008" lon="3.44858">
        <ele>473.5</ele>
        <time>2017-12-24T09:38:02Z</time>
      </trkpt>
      <trkpt lat="43.73005" lon="3.44859">
        <ele>473.7</ele>
        <time>2017-12-24T09:38:03Z</time>
      </trkpt>
      <trkpt lat="43.73001" lon="3.44861">
        <ele>474</ele>
        <time>2017-12-24T09:38:05Z</time>
      </trkpt>
      <trkpt lat="43.72998" lon="3.44861">
        <ele>474.2</ele>
        <time>2017-12-24T09:38:06Z</time>
      </trkpt>
      <trkpt lat="43.72995" lon="3.44862">
        <ele>474.4</ele>
        <time>2017-12-24T09:38:07Z</time>
      </trkpt>
      <trkpt lat="43.72992" lon="3.44863">
        <ele>474.5</ele>
        <time>2017-12-24T09:38:08Z</time>
      </trkpt>
      <trkpt lat="43.72987" lon="3.44864">
        <ele>474.7</ele>
        <time>2017-12-24T09:38:10Z</time>
      </trkpt>
      <trkpt lat="43.72983" lon="3.44865">
        <ele>474.7</ele>
        <time>2017-12-24T09:38:12Z</time>
      </trkpt>
      <trkpt lat="43.72979" lon="3.44866">
        <ele>474.7</ele>
        <time>2017-12-24T09:38:14Z</time>
      </trkpt>
      <trkpt lat="43.72975" lon="3.44866">
        <ele>474.4</ele>
        <time>2017-12-24T09:38:16Z</time>
      </trkpt>
      <trkpt lat="43.7297" lon="3.44867">
        <ele>474.2</ele>
        <time>2017-12-24T09:38:18Z</time>
      </trkpt>
      <trkpt lat="43.72965" lon="3.44867">
        <ele>474.2</ele>
        <time>2017-12-24T09:38:20Z</time>
      </trkpt>
      <trkpt lat="43.72959" lon="3.44867">
        <ele>474</ele>
        <time>2017-12-24T09:38:22Z</time>
      </trkpt>
      <trkpt lat="43.72955" lon="3.44865">
        <ele>473.8</ele>
        <time>2017-12-24T09:38:24Z</time>
      </trkpt>
      <trkpt lat="43.72951" lon="3.44863">
        <ele>473.6</ele>
        <time>2017-12-24T09:38:26Z</time>
      </trkpt>
      <trkpt lat="43.72947" lon="3.44861">
        <ele>473.4</ele>
        <time>2017-12-24T09:38:28Z</time>
      </trkpt>
      <trkpt lat="43.72942" lon="3.44858">
        <ele>473.1</ele>
        <time>2017-12-24T09:38:30Z</time>
      </trkpt>
      <trkpt lat="43.72939" lon="3.44856">
        <ele>473</ele>
        <time>2017-12-24T09:38:32Z</time>
      </trkpt>
      <trkpt lat="43.72936" lon="3.44855">
        <ele>473</ele>
        <time>2017-12-24T09:38:34Z</time>
      </trkpt>
      <trkpt lat="43.72933" lon="3.44854">
        <ele>472.8</ele>
        <time>2017-12-24T09:38:36Z</time>
      </trkpt>
      <trkpt lat="43.72931" lon="3.44853">
        <ele>472.6</ele>
        <time>2017-12-24T09:38:37Z</time>
      </trkpt>
      <trkpt lat="43.72926" lon="3.44851">
        <ele>472.7</ele>
        <time>2017-12-24T09:38:39Z</time>
      </trkpt>
      <trkpt lat="43.72922" lon="3.44849">
        <ele>472.8</ele>
        <time>2017-12-24T09:38:41Z</time>
      </trkpt>
      <trkpt lat="43.72918" lon="3.44848">
        <ele>472.9</ele>
        <time>2017-12-24T09:38:43Z</time>
      </trkpt>
      <trkpt lat="43.72914" lon="3.44844">
        <ele>473</ele>
        <time>2017-12-24T09:38:45Z</time>
      </trkpt>
      <trkpt lat="43.72911" lon="3.44842">
        <ele>473.1</ele>
        <time>2017-12-24T09:38:46Z</time>
      </trkpt>
      <trkpt lat="43.72908" lon="3.4484">
        <ele>473.1</ele>
        <time>2017-12-24T09:38:47Z</time>
      </trkpt>
      <trkpt lat="43.72905" lon="3.44839">
        <ele>473</ele>
        <time>2017-12-24T09:38:48Z</time>
      </trkpt>
      <trkpt lat="43.72896" lon="3.44838">
        <ele>472.6</ele>
        <time>2017-12-24T09:38:50Z</time>
      </trkpt>
      <trkpt lat="43.72889" lon="3.44839">
        <ele>471.4</ele>
        <time>2017-12-24T09:38:51Z</time>
      </trkpt>
      <trkpt lat="43.72882" lon="3.4484">
        <ele>470.4</ele>
        <time>2017-12-24T09:38:52Z</time>
      </trkpt>
      <trkpt lat="43.72876" lon="3.44842">
        <ele>469.8</ele>
        <time>2017-12-24T09:38:53Z</time>
      </trkpt>
      <trkpt lat="43.72869" lon="3.44844">
        <ele>468.9</ele>
        <time>2017-12-24T09:38:54Z</time>
      </trkpt>
      <trkpt lat="43.72863" lon="3.44846">
        <ele>468.3</ele>
        <time>2017-12-24T09:38:55Z</time>
      </trkpt>
      <trkpt lat="43.72855" lon="3.44848">
        <ele>467.7</ele>
        <time>2017-12-24T09:38:56Z</time>
      </trkpt>
      <trkpt lat="43.72848" lon="3.44848">
        <ele>467.2</ele>
        <time>2017-12-24T09:38:57Z</time>
      </trkpt>
      <trkpt lat="43.7284" lon="3.44849">
        <ele>466.7</ele>
        <time>2017-12-24T09:38:58Z</time>
      </trkpt>
      <trkpt lat="43.72834" lon="3.44848">
        <ele>466.4</ele>
        <time>2017-12-24T09:38:59Z</time>
      </trkpt>
      <trkpt lat="43.72827" lon="3.44847">
        <ele>465.9</ele>
        <time>2017-12-24T09:39:00Z</time>
      </trkpt>
      <trkpt lat="43.7282" lon="3.44847">
        <ele>465.6</ele>
        <time>2017-12-24T09:39:01Z</time>
      </trkpt>
      <trkpt lat="43.72811" lon="3.44846">
        <ele>465.1</ele>
        <time>2017-12-24T09:39:02Z</time>
      </trkpt>
      <trkpt lat="43.72803" lon="3.44844">
        <ele>464.6</ele>
        <time>2017-12-24T09:39:03Z</time>
      </trkpt>
      <trkpt lat="43.72794" lon="3.44841">
        <ele>464.1</ele>
        <time>2017-12-24T09:39:04Z</time>
      </trkpt>
      <trkpt lat="43.72784" lon="3.44839">
        <ele>463.3</ele>
        <time>2017-12-24T09:39:05Z</time>
      </trkpt>
      <trkpt lat="43.72775" lon="3.44837">
        <ele>462.6</ele>
        <time>2017-12-24T09:39:06Z</time>
      </trkpt>
      <trkpt lat="43.72767" lon="3.44835">
        <ele>461.8</ele>
        <time>2017-12-24T09:39:07Z</time>
      </trkpt>
      <trkpt lat="43.72759" lon="3.44834">
        <ele>461.3</ele>
        <time>2017-12-24T09:39:08Z</time>
      </trkpt>
      <trkpt lat="43.72751" lon="3.44833">
        <ele>460.9</ele>
        <time>2017-12-24T09:39:09Z</time>
      </trkpt>
      <trkpt lat="43.72744" lon="3.44832">
        <ele>460.7</ele>
        <time>2017-12-24T09:39:10Z</time>
      </trkpt>
      <trkpt lat="43.72738" lon="3.44834">
        <ele>460.7</ele>
        <time>2017-12-24T09:39:11Z</time>
      </trkpt>
      <trkpt lat="43.72731" lon="3.44836">
        <ele>460.6</ele>
        <time>2017-12-24T09:39:12Z</time>
      </trkpt>
      <trkpt lat="43.72726" lon="3.44836">
        <ele>460.5</ele>
        <time>2017-12-24T09:39:13Z</time>
      </trkpt>
      <trkpt lat="43.7272" lon="3.44836">
        <ele>460.6</ele>
        <time>2017-12-24T09:39:14Z</time>
      </trkpt>
      <trkpt lat="43.72715" lon="3.44836">
        <ele>460.6</ele>
        <time>2017-12-24T09:39:15Z</time>
      </trkpt>
      <trkpt lat="43.72709" lon="3.44836">
        <ele>460.6</ele>
        <time>2017-12-24T09:39:16Z</time>
      </trkpt>
      <trkpt lat="43.72704" lon="3.44835">
        <ele>460.6</ele>
        <time>2017-12-24T09:39:17Z</time>
      </trkpt>
      <trkpt lat="43.72699" lon="3.44835">
        <ele>460.8</ele>
        <time>2017-12-24T09:39:18Z</time>
      </trkpt>
      <trkpt lat="43.72694" lon="3.44834">
        <ele>460.9</ele>
        <time>2017-12-24T09:39:19Z</time>
      </trkpt>
      <trkpt lat="43.7269" lon="3.44834">
        <ele>461</ele>
        <time>2017-12-24T09:39:20Z</time>
      </trkpt>
      <trkpt lat="43.72686" lon="3.44833">
        <ele>461.1</ele>
        <time>2017-12-24T09:39:21Z</time>
      </trkpt>
      <trkpt lat="43.72681" lon="3.44834">
        <ele>461.3</ele>
        <time>2017-12-24T09:39:22Z</time>
      </trkpt>
      <trkpt lat="43.72676" lon="3.44834">
        <ele>461.4</ele>
        <time>2017-12-24T09:39:23Z</time>
      </trkpt>
      <trkpt lat="43.72671" lon="3.44835">
        <ele>461.5</ele>
        <time>2017-12-24T09:39:24Z</time>
      </trkpt>
      <trkpt lat="43.72666" lon="3.44836">
        <ele>461.7</ele>
        <time>2017-12-24T09:39:25Z</time>
      </trkpt>
      <trkpt lat="43.7266" lon="3.44836">
        <ele>461.9</ele>
        <time>2017-12-24T09:39:26Z</time>
      </trkpt>
      <trkpt lat="43.72654" lon="3.44836">
        <ele>462.1</ele>
        <time>2017-12-24T09:39:27Z</time>
      </trkpt>
      <trkpt lat="43.72648" lon="3.44835">
        <ele>462.3</ele>
        <time>2017-12-24T09:39:28Z</time>
      </trkpt>
      <trkpt lat="43.72641" lon="3.44834">
        <ele>462.8</ele>
        <time>2017-12-24T09:39:29Z</time>
      </trkpt>
      <trkpt lat="43.72634" lon="3.44833">
        <ele>463.1</ele>
        <time>2017-12-24T09:39:30Z</time>
      </trkpt>
      <trkpt lat="43.72626" lon="3.44832">
        <ele>463.6</ele>
        <time>2017-12-24T09:39:31Z</time>
      </trkpt>
      <trkpt lat="43.72619" lon="3.44832">
        <ele>463.8</ele>
        <time>2017-12-24T09:39:32Z</time>
      </trkpt>
      <trkpt lat="43.72612" lon="3.44833">
        <ele>464</ele>
        <time>2017-12-24T09:39:33Z</time>
      </trkpt>
      <trkpt lat="43.72605" lon="3.44833">
        <ele>464.2</ele>
        <time>2017-12-24T09:39:34Z</time>
      </trkpt>
      <trkpt lat="43.72599" lon="3.44833">
        <ele>464.4</ele>
        <time>2017-12-24T09:39:35Z</time>
      </trkpt>
      <trkpt lat="43.72593" lon="3.44833">
        <ele>464.3</ele>
        <time>2017-12-24T09:39:36Z</time>
      </trkpt>
      <trkpt lat="43.72587" lon="3.44831">
        <ele>464.4</ele>
        <time>2017-12-24T09:39:37Z</time>
      </trkpt>
      <trkpt lat="43.72581" lon="3.44828">
        <ele>464.6</ele>
        <time>2017-12-24T09:39:38Z</time>
      </trkpt>
      <trkpt lat="43.72575" lon="3.44826">
        <ele>464.8</ele>
        <time>2017-12-24T09:39:39Z</time>
      </trkpt>
      <trkpt lat="43.72569" lon="3.44824">
        <ele>464.9</ele>
        <time>2017-12-24T09:39:40Z</time>
      </trkpt>
      <trkpt lat="43.72563" lon="3.44822">
        <ele>465.1</ele>
        <time>2017-12-24T09:39:41Z</time>
      </trkpt>
      <trkpt lat="43.72558" lon="3.4482">
        <ele>465.4</ele>
        <time>2017-12-24T09:39:42Z</time>
      </trkpt>
      <trkpt lat="43.72553" lon="3.44819">
        <ele>465.8</ele>
        <time>2017-12-24T09:39:43Z</time>
      </trkpt>
      <trkpt lat="43.72548" lon="3.44819">
        <ele>466</ele>
        <time>2017-12-24T09:39:44Z</time>
      </trkpt>
      <trkpt lat="43.72542" lon="3.44818">
        <ele>466.2</ele>
        <time>2017-12-24T09:39:45Z</time>
      </trkpt>
      <trkpt lat="43.72537" lon="3.44819">
        <ele>466.5</ele>
        <time>2017-12-24T09:39:46Z</time>
      </trkpt>
      <trkpt lat="43.72531" lon="3.44819">
        <ele>466.8</ele>
        <time>2017-12-24T09:39:47Z</time>
      </trkpt>
      <trkpt lat="43.72525" lon="3.4482">
        <ele>467.1</ele>
        <time>2017-12-24T09:39:48Z</time>
      </trkpt>
      <trkpt lat="43.72518" lon="3.4482">
        <ele>467.4</ele>
        <time>2017-12-24T09:39:49Z</time>
      </trkpt>
      <trkpt lat="43.72511" lon="3.4482">
        <ele>467.6</ele>
        <time>2017-12-24T09:39:50Z</time>
      </trkpt>
      <trkpt lat="43.72505" lon="3.4482">
        <ele>467.7</ele>
        <time>2017-12-24T09:39:51Z</time>
      </trkpt>
      <trkpt lat="43.72498" lon="3.4482">
        <ele>467.8</ele>
        <time>2017-12-24T09:39:52Z</time>
      </trkpt>
      <trkpt lat="43.7249" lon="3.4482">
        <ele>467.9</ele>
        <time>2017-12-24T09:39:53Z</time>
      </trkpt>
      <trkpt lat="43.72482" lon="3.44819">
        <ele>468</ele>
        <time>2017-12-24T09:39:54Z</time>
      </trkpt>
      <trkpt lat="43.72474" lon="3.44817">
        <ele>468.4</ele>
        <time>2017-12-24T09:39:55Z</time>
      </trkpt>
      <trkpt lat="43.72467" lon="3.44816">
        <ele>468.8</ele>
        <time>2017-12-24T09:39:56Z</time>
      </trkpt>
      <trkpt lat="43.7246" lon="3.44815">
        <ele>469</ele>
        <time>2017-12-24T09:39:57Z</time>
      </trkpt>
      <trkpt lat="43.72455" lon="3.44814">
        <ele>469.4</ele>
        <time>2017-12-24T09:39:58Z</time>
      </trkpt>
      <trkpt lat="43.7245" lon="3.44814">
        <ele>469.8</ele>
        <time>2017-12-24T09:39:59Z</time>
      </trkpt>
      <trkpt lat="43.72446" lon="3.44814">
        <ele>469.9</ele>
        <time>2017-12-24T09:40:00Z</time>
      </trkpt>
      <trkpt lat="43.72442" lon="3.44814">
        <ele>470.1</ele>
        <time>2017-12-24T09:40:01Z</time>
      </trkpt>
      <trkpt lat="43.72438" lon="3.44814">
        <ele>470.2</ele>
        <time>2017-12-24T09:40:02Z</time>
      </trkpt>
      <trkpt lat="43.72435" lon="3.44816">
        <ele>470.2</ele>
        <time>2017-12-24T09:40:03Z</time>
      </trkpt>
      <trkpt lat="43.72431" lon="3.44817">
        <ele>470.2</ele>
        <time>2017-12-24T09:40:04Z</time>
      </trkpt>
      <trkpt lat="43.72428" lon="3.44819">
        <ele>470.2</ele>
        <time>2017-12-24T09:40:05Z</time>
      </trkpt>
      <trkpt lat="43.72424" lon="3.44821">
        <ele>470.3</ele>
        <time>2017-12-24T09:40:06Z</time>
      </trkpt>
      <trkpt lat="43.7242" lon="3.44824">
        <ele>470.4</ele>
        <time>2017-12-24T09:40:07Z</time>
      </trkpt>
      <trkpt lat="43.72416" lon="3.44826">
        <ele>470.4</ele>
        <time>2017-12-24T09:40:08Z</time>
      </trkpt>
      <trkpt lat="43.72413" lon="3.44828">
        <ele>470.3</ele>
        <time>2017-12-24T09:40:09Z</time>
      </trkpt>
      <trkpt lat="43.7241" lon="3.44829">
        <ele>470.1</ele>
        <time>2017-12-24T09:40:10Z</time>
      </trkpt>
      <trkpt lat="43.72406" lon="3.44831">
        <ele>469.9</ele>
        <time>2017-12-24T09:40:11Z</time>
      </trkpt>
      <trkpt lat="43.72403" lon="3.44832">
        <ele>469.5</ele>
        <time>2017-12-24T09:40:12Z</time>
      </trkpt>
      <trkpt lat="43.724" lon="3.44834">
        <ele>469.3</ele>
        <time>2017-12-24T09:40:13Z</time>
      </trkpt>
      <trkpt lat="43.72397" lon="3.44836">
        <ele>469</ele>
        <time>2017-12-24T09:40:14Z</time>
      </trkpt>
      <trkpt lat="43.72394" lon="3.44839">
        <ele>468.7</ele>
        <time>2017-12-24T09:40:16Z</time>
      </trkpt>
      <trkpt lat="43.72389" lon="3.44839">
        <ele>468.2</ele>
        <time>2017-12-24T09:40:18Z</time>
      </trkpt>
      <trkpt lat="43.72384" lon="3.4484">
        <ele>467.7</ele>
        <time>2017-12-24T09:40:20Z</time>
      </trkpt>
      <trkpt lat="43.72381" lon="3.4484">
        <ele>467.4</ele>
        <time>2017-12-24T09:40:21Z</time>
      </trkpt>
      <trkpt lat="43.72378" lon="3.4484">
        <ele>467.4</ele>
        <time>2017-12-24T09:40:22Z</time>
      </trkpt>
      <trkpt lat="43.72372" lon="3.44839">
        <ele>467.5</ele>
        <time>2017-12-24T09:40:24Z</time>
      </trkpt>
      <trkpt lat="43.72368" lon="3.44839">
        <ele>467.6</ele>
        <time>2017-12-24T09:40:26Z</time>
      </trkpt>
      <trkpt lat="43.72363" lon="3.44839">
        <ele>467.5</ele>
        <time>2017-12-24T09:40:28Z</time>
      </trkpt>
      <trkpt lat="43.72358" lon="3.44838">
        <ele>467.5</ele>
        <time>2017-12-24T09:40:30Z</time>
      </trkpt>
      <trkpt lat="43.72355" lon="3.44838">
        <ele>467.4</ele>
        <time>2017-12-24T09:40:31Z</time>
      </trkpt>
      <trkpt lat="43.72352" lon="3.44837">
        <ele>467.3</ele>
        <time>2017-12-24T09:40:32Z</time>
      </trkpt>
      <trkpt lat="43.72349" lon="3.44836">
        <ele>467.3</ele>
        <time>2017-12-24T09:40:33Z</time>
      </trkpt>
      <trkpt lat="43.72345" lon="3.44836">
        <ele>467.2</ele>
        <time>2017-12-24T09:40:34Z</time>
      </trkpt>
      <trkpt lat="43.72342" lon="3.44835">
        <ele>467.2</ele>
        <time>2017-12-24T09:40:35Z</time>
      </trkpt>
      <trkpt lat="43.72339" lon="3.44834">
        <ele>467.2</ele>
        <time>2017-12-24T09:40:36Z</time>
      </trkpt>
      <trkpt lat="43.72336" lon="3.44833">
        <ele>467.2</ele>
        <time>2017-12-24T09:40:37Z</time>
      </trkpt>
      <trkpt lat="43.72333" lon="3.44832">
        <ele>467.2</ele>
        <time>2017-12-24T09:40:38Z</time>
      </trkpt>
      <trkpt lat="43.7233" lon="3.44831">
        <ele>467.2</ele>
        <time>2017-12-24T09:40:39Z</time>
      </trkpt>
      <trkpt lat="43.72325" lon="3.4483">
        <ele>467.8</ele>
        <time>2017-12-24T09:40:41Z</time>
      </trkpt>
      <trkpt lat="43.7232" lon="3.44827">
        <ele>468.1</ele>
        <time>2017-12-24T09:40:43Z</time>
      </trkpt>
      <trkpt lat="43.72316" lon="3.44824">
        <ele>468.1</ele>
        <time>2017-12-24T09:40:45Z</time>
      </trkpt>
      <trkpt lat="43.72312" lon="3.4482">
        <ele>468.3</ele>
        <time>2017-12-24T09:40:47Z</time>
      </trkpt>
      <trkpt lat="43.72309" lon="3.44817">
        <ele>468.6</ele>
        <time>2017-12-24T09:40:49Z</time>
      </trkpt>
      <trkpt lat="43.72305" lon="3.44813">
        <ele>468.8</ele>
        <time>2017-12-24T09:40:51Z</time>
      </trkpt>
      <trkpt lat="43.72302" lon="3.4481">
        <ele>468.9</ele>
        <time>2017-12-24T09:40:53Z</time>
      </trkpt>
      <trkpt lat="43.72299" lon="3.44807">
        <ele>469</ele>
        <time>2017-12-24T09:40:55Z</time>
      </trkpt>
      <trkpt lat="43.72296" lon="3.44806">
        <ele>469.2</ele>
        <time>2017-12-24T09:40:58Z</time>
      </trkpt>
      <trkpt lat="43.72293" lon="3.44805">
        <ele>469.3</ele>
        <time>2017-12-24T09:41:00Z</time>
      </trkpt>
      <trkpt lat="43.72289" lon="3.44804">
        <ele>469.4</ele>
        <time>2017-12-24T09:41:02Z</time>
      </trkpt>
      <trkpt lat="43.72286" lon="3.44804">
        <ele>469.6</ele>
        <time>2017-12-24T09:41:04Z</time>
      </trkpt>
      <trkpt lat="43.72282" lon="3.44804">
        <ele>469.7</ele>
        <time>2017-12-24T09:41:06Z</time>
      </trkpt>
      <trkpt lat="43.72278" lon="3.44803">
        <ele>469.9</ele>
        <time>2017-12-24T09:41:08Z</time>
      </trkpt>
      <trkpt lat="43.72274" lon="3.44802">
        <ele>470</ele>
        <time>2017-12-24T09:41:10Z</time>
      </trkpt>
      <trkpt lat="43.72271" lon="3.448">
        <ele>469.7</ele>
        <time>2017-12-24T09:41:12Z</time>
      </trkpt>
      <trkpt lat="43.72262" lon="3.44796">
        <ele>469.2</ele>
        <time>2017-12-24T09:48:56Z</time>
      </trkpt>
      <trkpt lat="43.72263" lon="3.44791">
        <ele>469.3</ele>
        <time>2017-12-24T09:48:59Z</time>
      </trkpt>
      <trkpt lat="43.72265" lon="3.44788">
        <ele>469.4</ele>
        <time>2017-12-24T09:49:01Z</time>
      </trkpt>
      <trkpt lat="43.72267" lon="3.44785">
        <ele>469.6</ele>
        <time>2017-12-24T09:49:03Z</time>
      </trkpt>
      <trkpt lat="43.72269" lon="3.44782">
        <ele>469.5</ele>
        <time>2017-12-24T09:49:06Z</time>
      </trkpt>
      <trkpt lat="43.72272" lon="3.44781">
        <ele>469.7</ele>
        <time>2017-12-24T09:49:08Z</time>
      </trkpt>
      <trkpt lat="43.72275" lon="3.44778">
        <ele>469.8</ele>
        <time>2017-12-24T09:49:12Z</time>
      </trkpt>
      <trkpt lat="43.72274" lon="3.44773">
        <ele>470</ele>
        <time>2017-12-24T09:49:15Z</time>
      </trkpt>
      <trkpt lat="43.72271" lon="3.4477">
        <ele>469.5</ele>
        <time>2017-12-24T09:49:18Z</time>
      </trkpt>
      <trkpt lat="43.72269" lon="3.44768">
        <ele>469.1</ele>
        <time>2017-12-24T09:49:20Z</time>
      </trkpt>
      <trkpt lat="43.72266" lon="3.44767">
        <ele>468.6</ele>
        <time>2017-12-24T09:49:23Z</time>
      </trkpt>
      <trkpt lat="43.72264" lon="3.44764">
        <ele>468.4</ele>
        <time>2017-12-24T09:49:26Z</time>
      </trkpt>
      <trkpt lat="43.72261" lon="3.44759">
        <ele>467.7</ele>
        <time>2017-12-24T09:49:31Z</time>
      </trkpt>
      <trkpt lat="43.72259" lon="3.44755">
        <ele>467</ele>
        <time>2017-12-24T09:49:34Z</time>
      </trkpt>
      <trkpt lat="43.72257" lon="3.4475">
        <ele>466.3</ele>
        <time>2017-12-24T09:49:36Z</time>
      </trkpt>
      <trkpt lat="43.72255" lon="3.44746">
        <ele>465.8</ele>
        <time>2017-12-24T09:49:38Z</time>
      </trkpt>
      <trkpt lat="43.72257" lon="3.44741">
        <ele>465.4</ele>
        <time>2017-12-24T09:49:41Z</time>
      </trkpt>
      <trkpt lat="43.72259" lon="3.44738">
        <ele>465.1</ele>
        <time>2017-12-24T09:49:43Z</time>
      </trkpt>
      <trkpt lat="43.72261" lon="3.44736">
        <ele>465.2</ele>
        <time>2017-12-24T09:49:48Z</time>
      </trkpt>
      <trkpt lat="43.72263" lon="3.44733">
        <ele>464.8</ele>
        <time>2017-12-24T09:49:56Z</time>
      </trkpt>
      <trkpt lat="43.72264" lon="3.44729">
        <ele>464.6</ele>
        <time>2017-12-24T09:49:58Z</time>
      </trkpt>
      <trkpt lat="43.72265" lon="3.44725">
        <ele>464.1</ele>
        <time>2017-12-24T09:50:03Z</time>
      </trkpt>
      <trkpt lat="43.72266" lon="3.44721">
        <ele>463.7</ele>
        <time>2017-12-24T09:50:11Z</time>
      </trkpt>
      <trkpt lat="43.72265" lon="3.44717">
        <ele>463.2</ele>
        <time>2017-12-24T09:50:16Z</time>
      </trkpt>
      <trkpt lat="43.72265" lon="3.44713">
        <ele>462.8</ele>
        <time>2017-12-24T09:50:23Z</time>
      </trkpt>
      <trkpt lat="43.72265" lon="3.44709">
        <ele>462.3</ele>
        <time>2017-12-24T09:50:25Z</time>
      </trkpt>
      <trkpt lat="43.72267" lon="3.44704">
        <ele>461.8</ele>
        <time>2017-12-24T09:50:28Z</time>
      </trkpt>
      <trkpt lat="43.72271" lon="3.44701">
        <ele>461.7</ele>
        <time>2017-12-24T09:50:31Z</time>
      </trkpt>
      <trkpt lat="43.72274" lon="3.44701">
        <ele>461.7</ele>
        <time>2017-12-24T09:50:33Z</time>
      </trkpt>
      <trkpt lat="43.72277" lon="3.44703">
        <ele>461.6</ele>
        <time>2017-12-24T09:50:36Z</time>
      </trkpt>
      <trkpt lat="43.7228" lon="3.44703">
        <ele>461.6</ele>
        <time>2017-12-24T09:50:38Z</time>
      </trkpt>
      <trkpt lat="43.72285" lon="3.44703">
        <ele>461.5</ele>
        <time>2017-12-24T09:50:41Z</time>
      </trkpt>
      <trkpt lat="43.72288" lon="3.447">
        <ele>461.5</ele>
        <time>2017-12-24T09:50:44Z</time>
      </trkpt>
      <trkpt lat="43.72292" lon="3.44698">
        <ele>461</ele>
        <time>2017-12-24T09:50:47Z</time>
      </trkpt>
      <trkpt lat="43.72295" lon="3.44698">
        <ele>461</ele>
        <time>2017-12-24T09:50:50Z</time>
      </trkpt>
      <trkpt lat="43.72299" lon="3.44696">
        <ele>461.1</ele>
        <time>2017-12-24T09:50:52Z</time>
      </trkpt>
      <trkpt lat="43.72301" lon="3.44693">
        <ele>460.4</ele>
        <time>2017-12-24T09:50:54Z</time>
      </trkpt>
      <trkpt lat="43.72299" lon="3.44689">
        <ele>459.8</ele>
        <time>2017-12-24T09:50:56Z</time>
      </trkpt>
      <trkpt lat="43.72296" lon="3.44686">
        <ele>459.1</ele>
        <time>2017-12-24T09:50:59Z</time>
      </trkpt>
      <trkpt lat="43.72293" lon="3.44683">
        <ele>458.4</ele>
        <time>2017-12-24T09:51:02Z</time>
      </trkpt>
      <trkpt lat="43.72292" lon="3.44678">
        <ele>457.8</ele>
        <time>2017-12-24T09:51:05Z</time>
      </trkpt>
      <trkpt lat="43.72294" lon="3.44675">
        <ele>457.7</ele>
        <time>2017-12-24T09:51:22Z</time>
      </trkpt>
      <trkpt lat="43.72294" lon="3.44671">
        <ele>457.1</ele>
        <time>2017-12-24T09:52:05Z</time>
      </trkpt>
      <trkpt lat="43.72297" lon="3.4467">
        <ele>456.5</ele>
        <time>2017-12-24T09:52:22Z</time>
      </trkpt>
      <trkpt lat="43.723" lon="3.44667">
        <ele>456.4</ele>
        <time>2017-12-24T09:52:24Z</time>
      </trkpt>
      <trkpt lat="43.72303" lon="3.44664">
        <ele>455.7</ele>
        <time>2017-12-24T09:52:26Z</time>
      </trkpt>
      <trkpt lat="43.72305" lon="3.44662">
        <ele>454.8</ele>
        <time>2017-12-24T09:52:28Z</time>
      </trkpt>
      <trkpt lat="43.72309" lon="3.44658">
        <ele>454.7</ele>
        <time>2017-12-24T09:52:30Z</time>
      </trkpt>
      <trkpt lat="43.72312" lon="3.44656">
        <ele>453.8</ele>
        <time>2017-12-24T09:52:31Z</time>
      </trkpt>
      <trkpt lat="43.72315" lon="3.44656">
        <ele>453.6</ele>
        <time>2017-12-24T09:52:32Z</time>
      </trkpt>
      <trkpt lat="43.72319" lon="3.44655">
        <ele>453.4</ele>
        <time>2017-12-24T09:52:34Z</time>
      </trkpt>
      <trkpt lat="43.72324" lon="3.44652">
        <ele>452.3</ele>
        <time>2017-12-24T09:52:36Z</time>
      </trkpt>
      <trkpt lat="43.72326" lon="3.44648">
        <ele>451.3</ele>
        <time>2017-12-24T09:52:37Z</time>
      </trkpt>
      <trkpt lat="43.72329" lon="3.44643">
        <ele>450.4</ele>
        <time>2017-12-24T09:52:38Z</time>
      </trkpt>
      <trkpt lat="43.7233" lon="3.44636">
        <ele>448.8</ele>
        <time>2017-12-24T09:52:40Z</time>
      </trkpt>
      <trkpt lat="43.72332" lon="3.44629">
        <ele>448</ele>
        <time>2017-12-24T09:52:42Z</time>
      </trkpt>
      <trkpt lat="43.72333" lon="3.44624">
        <ele>447</ele>
        <time>2017-12-24T09:52:44Z</time>
      </trkpt>
      <trkpt lat="43.72333" lon="3.4462">
        <ele>446.1</ele>
        <time>2017-12-24T09:52:45Z</time>
      </trkpt>
      <trkpt lat="43.72334" lon="3.44612">
        <ele>444.4</ele>
        <time>2017-12-24T09:52:46Z</time>
      </trkpt>
      <trkpt lat="43.72336" lon="3.44601">
        <ele>441.5</ele>
        <time>2017-12-24T09:52:48Z</time>
      </trkpt>
      <trkpt lat="43.72339" lon="3.44595">
        <ele>440.1</ele>
        <time>2017-12-24T09:52:50Z</time>
      </trkpt>
      <trkpt lat="43.72342" lon="3.44588">
        <ele>438</ele>
        <time>2017-12-24T09:52:52Z</time>
      </trkpt>
      <trkpt lat="43.72344" lon="3.44584">
        <ele>437</ele>
        <time>2017-12-24T09:52:53Z</time>
      </trkpt>
      <trkpt lat="43.72348" lon="3.44581">
        <ele>436</ele>
        <time>2017-12-24T09:52:54Z</time>
      </trkpt>
      <trkpt lat="43.72351" lon="3.44577">
        <ele>435</ele>
        <time>2017-12-24T09:52:55Z</time>
      </trkpt>
      <trkpt lat="43.72353" lon="3.44573">
        <ele>433.6</ele>
        <time>2017-12-24T09:52:56Z</time>
      </trkpt>
      <trkpt lat="43.72354" lon="3.4457">
        <ele>432.2</ele>
        <time>2017-12-24T09:52:57Z</time>
      </trkpt>
      <trkpt lat="43.72356" lon="3.44567">
        <ele>431.1</ele>
        <time>2017-12-24T09:52:58Z</time>
      </trkpt>
      <trkpt lat="43.72358" lon="3.44564">
        <ele>430.6</ele>
        <time>2017-12-24T09:52:59Z</time>
      </trkpt>
      <trkpt lat="43.72361" lon="3.44562">
        <ele>429</ele>
        <time>2017-12-24T09:53:00Z</time>
      </trkpt>
      <trkpt lat="43.72364" lon="3.44557">
        <ele>427.4</ele>
        <time>2017-12-24T09:53:02Z</time>
      </trkpt>
      <trkpt lat="43.72365" lon="3.44552">
        <ele>426.2</ele>
        <time>2017-12-24T09:53:03Z</time>
      </trkpt>
      <trkpt lat="43.72366" lon="3.44548">
        <ele>425.1</ele>
        <time>2017-12-24T09:53:05Z</time>
      </trkpt>
      <trkpt lat="43.72369" lon="3.44544">
        <ele>423.5</ele>
        <time>2017-12-24T09:53:11Z</time>
      </trkpt>
      <trkpt lat="43.72372" lon="3.4454">
        <ele>421.9</ele>
        <time>2017-12-24T09:53:14Z</time>
      </trkpt>
      <trkpt lat="43.72375" lon="3.44539">
        <ele>421.2</ele>
        <time>2017-12-24T09:53:15Z</time>
      </trkpt>
      <trkpt lat="43.72379" lon="3.44537">
        <ele>419</ele>
        <time>2017-12-24T09:53:17Z</time>
      </trkpt>
      <trkpt lat="43.72381" lon="3.44533">
        <ele>418.9</ele>
        <time>2017-12-24T09:53:19Z</time>
      </trkpt>
      <trkpt lat="43.7238" lon="3.44528">
        <ele>416.5</ele>
        <time>2017-12-24T09:53:21Z</time>
      </trkpt>
      <trkpt lat="43.7238" lon="3.44524">
        <ele>416.3</ele>
        <time>2017-12-24T09:53:23Z</time>
      </trkpt>
      <trkpt lat="43.7238" lon="3.44519">
        <ele>413.8</ele>
        <time>2017-12-24T09:53:25Z</time>
      </trkpt>
      <trkpt lat="43.7238" lon="3.44514">
        <ele>412.5</ele>
        <time>2017-12-24T09:53:27Z</time>
      </trkpt>
      <trkpt lat="43.7238" lon="3.44511">
        <ele>411.2</ele>
        <time>2017-12-24T09:53:28Z</time>
      </trkpt>
      <trkpt lat="43.72378" lon="3.44505">
        <ele>410.5</ele>
        <time>2017-12-24T09:53:30Z</time>
      </trkpt>
      <trkpt lat="43.72375" lon="3.445">
        <ele>409.7</ele>
        <time>2017-12-24T09:53:32Z</time>
      </trkpt>
      <trkpt lat="43.72374" lon="3.44496">
        <ele>408.5</ele>
        <time>2017-12-24T09:53:33Z</time>
      </trkpt>
      <trkpt lat="43.72372" lon="3.44493">
        <ele>407.8</ele>
        <time>2017-12-24T09:53:34Z</time>
      </trkpt>
      <trkpt lat="43.7237" lon="3.44487">
        <ele>406.6</ele>
        <time>2017-12-24T09:53:35Z</time>
      </trkpt>
      <trkpt lat="43.72369" lon="3.4448">
        <ele>404.7</ele>
        <time>2017-12-24T09:53:36Z</time>
      </trkpt>
      <trkpt lat="43.72368" lon="3.44475">
        <ele>403.3</ele>
        <time>2017-12-24T09:53:37Z</time>
      </trkpt>
      <trkpt lat="43.72366" lon="3.44469">
        <ele>402.4</ele>
        <time>2017-12-24T09:53:38Z</time>
      </trkpt>
      <trkpt lat="43.72365" lon="3.44465">
        <ele>401</ele>
        <time>2017-12-24T09:53:39Z</time>
      </trkpt>
      <trkpt lat="43.72363" lon="3.44461">
        <ele>399.7</ele>
        <time>2017-12-24T09:53:40Z</time>
      </trkpt>
      <trkpt lat="43.72362" lon="3.44456">
        <ele>398.9</ele>
        <time>2017-12-24T09:53:41Z</time>
      </trkpt>
      <trkpt lat="43.72362" lon="3.44449">
        <ele>396.5</ele>
        <time>2017-12-24T09:53:42Z</time>
      </trkpt>
      <trkpt lat="43.72361" lon="3.44442">
        <ele>394.1</ele>
        <time>2017-12-24T09:53:43Z</time>
      </trkpt>
      <trkpt lat="43.72362" lon="3.44436">
        <ele>392.8</ele>
        <time>2017-12-24T09:53:44Z</time>
      </trkpt>
      <trkpt lat="43.72363" lon="3.44431">
        <ele>391.5</ele>
        <time>2017-12-24T09:53:45Z</time>
      </trkpt>
      <trkpt lat="43.72363" lon="3.44425">
        <ele>388.7</ele>
        <time>2017-12-24T09:53:46Z</time>
      </trkpt>
      <trkpt lat="43.72364" lon="3.44421">
        <ele>387.5</ele>
        <time>2017-12-24T09:53:47Z</time>
      </trkpt>
      <trkpt lat="43.72363" lon="3.44415">
        <ele>386.3</ele>
        <time>2017-12-24T09:53:48Z</time>
      </trkpt>
      <trkpt lat="43.72362" lon="3.44411">
        <ele>385.5</ele>
        <time>2017-12-24T09:53:49Z</time>
      </trkpt>
      <trkpt lat="43.72361" lon="3.44407">
        <ele>384.5</ele>
        <time>2017-12-24T09:53:50Z</time>
      </trkpt>
      <trkpt lat="43.72358" lon="3.44404">
        <ele>383.8</ele>
        <time>2017-12-24T09:53:51Z</time>
      </trkpt>
      <trkpt lat="43.72355" lon="3.444">
        <ele>383.9</ele>
        <time>2017-12-24T09:53:53Z</time>
      </trkpt>
      <trkpt lat="43.72354" lon="3.44394">
        <ele>382.1</ele>
        <time>2017-12-24T09:53:55Z</time>
      </trkpt>
      <trkpt lat="43.72355" lon="3.44385">
        <ele>380.2</ele>
        <time>2017-12-24T09:53:56Z</time>
      </trkpt>
      <trkpt lat="43.72354" lon="3.44378">
        <ele>378.5</ele>
        <time>2017-12-24T09:53:57Z</time>
      </trkpt>
      <trkpt lat="43.72356" lon="3.44369">
        <ele>377</ele>
        <time>2017-12-24T09:53:58Z</time>
      </trkpt>
      <trkpt lat="43.72358" lon="3.44358">
        <ele>375.5</ele>
        <time>2017-12-24T09:53:59Z</time>
      </trkpt>
      <trkpt lat="43.72357" lon="3.44348">
        <ele>374</ele>
        <time>2017-12-24T09:54:00Z</time>
      </trkpt>
      <trkpt lat="43.72357" lon="3.4434">
        <ele>372.8</ele>
        <time>2017-12-24T09:54:01Z</time>
      </trkpt>
      <trkpt lat="43.72357" lon="3.44332">
        <ele>372.4</ele>
        <time>2017-12-24T09:54:02Z</time>
      </trkpt>
      <trkpt lat="43.72358" lon="3.44326">
        <ele>371.3</ele>
        <time>2017-12-24T09:54:03Z</time>
      </trkpt>
      <trkpt lat="43.72361" lon="3.44319">
        <ele>370.6</ele>
        <time>2017-12-24T09:54:04Z</time>
      </trkpt>
      <trkpt lat="43.72362" lon="3.44312">
        <ele>369.9</ele>
        <time>2017-12-24T09:54:05Z</time>
      </trkpt>
      <trkpt lat="43.72363" lon="3.44303">
        <ele>368.9</ele>
        <time>2017-12-24T09:54:06Z</time>
      </trkpt>
      <trkpt lat="43.72364" lon="3.44299">
        <ele>368.5</ele>
        <time>2017-12-24T09:54:07Z</time>
      </trkpt>
      <trkpt lat="43.72364" lon="3.44295">
        <ele>368</ele>
        <time>2017-12-24T09:54:08Z</time>
      </trkpt>
      <trkpt lat="43.72364" lon="3.4429">
        <ele>367.6</ele>
        <time>2017-12-24T09:54:09Z</time>
      </trkpt>
      <trkpt lat="43.72366" lon="3.44284">
        <ele>367.6</ele>
        <time>2017-12-24T09:54:10Z</time>
      </trkpt>
      <trkpt lat="43.72368" lon="3.4428">
        <ele>367.5</ele>
        <time>2017-12-24T09:54:11Z</time>
      </trkpt>
      <trkpt lat="43.72369" lon="3.44277">
        <ele>367.5</ele>
        <time>2017-12-24T09:54:12Z</time>
      </trkpt>
      <trkpt lat="43.72371" lon="3.44272">
        <ele>367.5</ele>
        <time>2017-12-24T09:54:14Z</time>
      </trkpt>
      <trkpt lat="43.72372" lon="3.44269">
        <ele>367.5</ele>
        <time>2017-12-24T09:54:18Z</time>
      </trkpt>
      <trkpt lat="43.72375" lon="3.44271">
        <ele>367.5</ele>
        <time>2017-12-24T09:54:21Z</time>
      </trkpt>
      <trkpt lat="43.72374" lon="3.44275">
        <ele>367.5</ele>
        <time>2017-12-24T09:54:25Z</time>
      </trkpt>
      <trkpt lat="43.72371" lon="3.44275">
        <ele>367.5</ele>
        <time>2017-12-24T09:56:16Z</time>
      </trkpt>
      <trkpt lat="43.72372" lon="3.44271">
        <ele>367.5</ele>
        <time>2017-12-24T09:57:43Z</time>
      </trkpt>
      <trkpt lat="43.72375" lon="3.44275">
        <ele>367.6</ele>
        <time>2017-12-24T09:58:18Z</time>
      </trkpt>
      <trkpt lat="43.72378" lon="3.44278">
        <ele>367.5</ele>
        <time>2017-12-24T09:58:20Z</time>
      </trkpt>
      <trkpt lat="43.72381" lon="3.44281">
        <ele>367.5</ele>
        <time>2017-12-24T09:58:21Z</time>
      </trkpt>
      <trkpt lat="43.72384" lon="3.44283">
        <ele>367.5</ele>
        <time>2017-12-24T09:58:22Z</time>
      </trkpt>
      <trkpt lat="43.72386" lon="3.44287">
        <ele>367.5</ele>
        <time>2017-12-24T09:58:23Z</time>
      </trkpt>
      <trkpt lat="43.72389" lon="3.4429">
        <ele>367.5</ele>
        <time>2017-12-24T09:58:24Z</time>
      </trkpt>
      <trkpt lat="43.72392" lon="3.44293">
        <ele>367.4</ele>
        <time>2017-12-24T09:58:25Z</time>
      </trkpt>
      <trkpt lat="43.72396" lon="3.44296">
        <ele>367.4</ele>
        <time>2017-12-24T09:58:26Z</time>
      </trkpt>
      <trkpt lat="43.72399" lon="3.44299">
        <ele>367.4</ele>
        <time>2017-12-24T09:58:27Z</time>
      </trkpt>
      <trkpt lat="43.72403" lon="3.44302">
        <ele>367.3</ele>
        <time>2017-12-24T09:58:28Z</time>
      </trkpt>
      <trkpt lat="43.72406" lon="3.44304">
        <ele>367.2</ele>
        <time>2017-12-24T09:58:29Z</time>
      </trkpt>
      <trkpt lat="43.7241" lon="3.44307">
        <ele>367.2</ele>
        <time>2017-12-24T09:58:30Z</time>
      </trkpt>
      <trkpt lat="43.72415" lon="3.44311">
        <ele>367.1</ele>
        <time>2017-12-24T09:58:31Z</time>
      </trkpt>
      <trkpt lat="43.72419" lon="3.44316">
        <ele>367</ele>
        <time>2017-12-24T09:58:32Z</time>
      </trkpt>
      <trkpt lat="43.72424" lon="3.4432">
        <ele>366.7</ele>
        <time>2017-12-24T09:58:33Z</time>
      </trkpt>
      <trkpt lat="43.72429" lon="3.44326">
        <ele>366.4</ele>
        <time>2017-12-24T09:58:34Z</time>
      </trkpt>
      <trkpt lat="43.72434" lon="3.44332">
        <ele>366</ele>
        <time>2017-12-24T09:58:35Z</time>
      </trkpt>
      <trkpt lat="43.72439" lon="3.44338">
        <ele>365.7</ele>
        <time>2017-12-24T09:58:36Z</time>
      </trkpt>
      <trkpt lat="43.72443" lon="3.44345">
        <ele>365.3</ele>
        <time>2017-12-24T09:58:37Z</time>
      </trkpt>
      <trkpt lat="43.72448" lon="3.44352">
        <ele>365</ele>
        <time>2017-12-24T09:58:38Z</time>
      </trkpt>
      <trkpt lat="43.72452" lon="3.44358">
        <ele>364.7</ele>
        <time>2017-12-24T09:58:39Z</time>
      </trkpt>
      <trkpt lat="43.72457" lon="3.44366">
        <ele>364.4</ele>
        <time>2017-12-24T09:58:40Z</time>
      </trkpt>
      <trkpt lat="43.72462" lon="3.44372">
        <ele>364.2</ele>
        <time>2017-12-24T09:58:41Z</time>
      </trkpt>
      <trkpt lat="43.72466" lon="3.44378">
        <ele>364</ele>
        <time>2017-12-24T09:58:42Z</time>
      </trkpt>
      <trkpt lat="43.72469" lon="3.44383">
        <ele>364</ele>
        <time>2017-12-24T09:58:43Z</time>
      </trkpt>
      <trkpt lat="43.72473" lon="3.44386">
        <ele>363.9</ele>
        <time>2017-12-24T09:58:44Z</time>
      </trkpt>
      <trkpt lat="43.72477" lon="3.44389">
        <ele>363.9</ele>
        <time>2017-12-24T09:58:45Z</time>
      </trkpt>
      <trkpt lat="43.72481" lon="3.4439">
        <ele>363.9</ele>
        <time>2017-12-24T09:58:46Z</time>
      </trkpt>
      <trkpt lat="43.72486" lon="3.44391">
        <ele>363.9</ele>
        <time>2017-12-24T09:58:47Z</time>
      </trkpt>
      <trkpt lat="43.7249" lon="3.44391">
        <ele>364</ele>
        <time>2017-12-24T09:58:48Z</time>
      </trkpt>
      <trkpt lat="43.72494" lon="3.4439">
        <ele>364</ele>
        <time>2017-12-24T09:58:49Z</time>
      </trkpt>
      <trkpt lat="43.72497" lon="3.44388">
        <ele>364.1</ele>
        <time>2017-12-24T09:58:50Z</time>
      </trkpt>
      <trkpt lat="43.72499" lon="3.44387">
        <ele>364.2</ele>
        <time>2017-12-24T09:58:51Z</time>
      </trkpt>
      <trkpt lat="43.72502" lon="3.44386">
        <ele>364.3</ele>
        <time>2017-12-24T09:58:52Z</time>
      </trkpt>
      <trkpt lat="43.72505" lon="3.44384">
        <ele>364.4</ele>
        <time>2017-12-24T09:58:53Z</time>
      </trkpt>
      <trkpt lat="43.72508" lon="3.44383">
        <ele>364.6</ele>
        <time>2017-12-24T09:58:54Z</time>
      </trkpt>
      <trkpt lat="43.72511" lon="3.44381">
        <ele>365.1</ele>
        <time>2017-12-24T09:58:55Z</time>
      </trkpt>
      <trkpt lat="43.72517" lon="3.4438">
        <ele>366.4</ele>
        <time>2017-12-24T09:58:57Z</time>
      </trkpt>
      <trkpt lat="43.72519" lon="3.44379">
        <ele>366.8</ele>
        <time>2017-12-24T09:58:58Z</time>
      </trkpt>
      <trkpt lat="43.72522" lon="3.44378">
        <ele>367.2</ele>
        <time>2017-12-24T09:58:59Z</time>
      </trkpt>
      <trkpt lat="43.72527" lon="3.44381">
        <ele>367.7</ele>
        <time>2017-12-24T09:59:01Z</time>
      </trkpt>
      <trkpt lat="43.72527" lon="3.44387">
        <ele>369.1</ele>
        <time>2017-12-24T09:59:04Z</time>
      </trkpt>
      <trkpt lat="43.72523" lon="3.4439">
        <ele>369.4</ele>
        <time>2017-12-24T09:59:06Z</time>
      </trkpt>
      <trkpt lat="43.72517" lon="3.44391">
        <ele>369.8</ele>
        <time>2017-12-24T09:59:08Z</time>
      </trkpt>
      <trkpt lat="43.72515" lon="3.44392">
        <ele>369.9</ele>
        <time>2017-12-24T09:59:09Z</time>
      </trkpt>
      <trkpt lat="43.72512" lon="3.44393">
        <ele>370.4</ele>
        <time>2017-12-24T09:59:10Z</time>
      </trkpt>
      <trkpt lat="43.72509" lon="3.44395">
        <ele>370.8</ele>
        <time>2017-12-24T09:59:11Z</time>
      </trkpt>
      <trkpt lat="43.72505" lon="3.44399">
        <ele>371.5</ele>
        <time>2017-12-24T09:59:13Z</time>
      </trkpt>
      <trkpt lat="43.72505" lon="3.44403">
        <ele>371.7</ele>
        <time>2017-12-24T09:59:14Z</time>
      </trkpt>
      <trkpt lat="43.72507" lon="3.44407">
        <ele>372.1</ele>
        <time>2017-12-24T09:59:16Z</time>
      </trkpt>
      <trkpt lat="43.7251" lon="3.44407">
        <ele>372.3</ele>
        <time>2017-12-24T09:59:17Z</time>
      </trkpt>
      <trkpt lat="43.72513" lon="3.44406">
        <ele>372.5</ele>
        <time>2017-12-24T09:59:18Z</time>
      </trkpt>
      <trkpt lat="43.72517" lon="3.44405">
        <ele>372.8</ele>
        <time>2017-12-24T09:59:19Z</time>
      </trkpt>
      <trkpt lat="43.7252" lon="3.44404">
        <ele>373</ele>
        <time>2017-12-24T09:59:20Z</time>
      </trkpt>
      <trkpt lat="43.72523" lon="3.44404">
        <ele>373.1</ele>
        <time>2017-12-24T09:59:21Z</time>
      </trkpt>
      <trkpt lat="43.72526" lon="3.44405">
        <ele>373.3</ele>
        <time>2017-12-24T09:59:22Z</time>
      </trkpt>
      <trkpt lat="43.72528" lon="3.44406">
        <ele>373.4</ele>
        <time>2017-12-24T09:59:23Z</time>
      </trkpt>
      <trkpt lat="43.72532" lon="3.44407">
        <ele>373.6</ele>
        <time>2017-12-24T09:59:24Z</time>
      </trkpt>
      <trkpt lat="43.72537" lon="3.4441">
        <ele>374.5</ele>
        <time>2017-12-24T09:59:26Z</time>
      </trkpt>
      <trkpt lat="43.72539" lon="3.44412">
        <ele>375</ele>
        <time>2017-12-24T09:59:27Z</time>
      </trkpt>
      <trkpt lat="43.72542" lon="3.44414">
        <ele>375.3</ele>
        <time>2017-12-24T09:59:28Z</time>
      </trkpt>
      <trkpt lat="43.72544" lon="3.44416">
        <ele>375.6</ele>
        <time>2017-12-24T09:59:29Z</time>
      </trkpt>
      <trkpt lat="43.72548" lon="3.44418">
        <ele>375.9</ele>
        <time>2017-12-24T09:59:30Z</time>
      </trkpt>
      <trkpt lat="43.72551" lon="3.44419">
        <ele>376.2</ele>
        <time>2017-12-24T09:59:31Z</time>
      </trkpt>
      <trkpt lat="43.72556" lon="3.44423">
        <ele>376.6</ele>
        <time>2017-12-24T09:59:33Z</time>
      </trkpt>
      <trkpt lat="43.72559" lon="3.44425">
        <ele>377.2</ele>
        <time>2017-12-24T09:59:34Z</time>
      </trkpt>
      <trkpt lat="43.72561" lon="3.44428">
        <ele>377.7</ele>
        <time>2017-12-24T09:59:35Z</time>
      </trkpt>
      <trkpt lat="43.72563" lon="3.4443">
        <ele>378.2</ele>
        <time>2017-12-24T09:59:36Z</time>
      </trkpt>
      <trkpt lat="43.72568" lon="3.44434">
        <ele>378.7</ele>
        <time>2017-12-24T09:59:38Z</time>
      </trkpt>
      <trkpt lat="43.72572" lon="3.4444">
        <ele>379.1</ele>
        <time>2017-12-24T09:59:40Z</time>
      </trkpt>
      <trkpt lat="43.72576" lon="3.44444">
        <ele>379.5</ele>
        <time>2017-12-24T09:59:42Z</time>
      </trkpt>
      <trkpt lat="43.72579" lon="3.44449">
        <ele>380.1</ele>
        <time>2017-12-24T09:59:44Z</time>
      </trkpt>
      <trkpt lat="43.72582" lon="3.44453">
        <ele>381</ele>
        <time>2017-12-24T09:59:46Z</time>
      </trkpt>
      <trkpt lat="43.72585" lon="3.44457">
        <ele>381.7</ele>
        <time>2017-12-24T09:59:48Z</time>
      </trkpt>
      <trkpt lat="43.72588" lon="3.44461">
        <ele>382.2</ele>
        <time>2017-12-24T09:59:50Z</time>
      </trkpt>
      <trkpt lat="43.72591" lon="3.44465">
        <ele>382.6</ele>
        <time>2017-12-24T09:59:52Z</time>
      </trkpt>
      <trkpt lat="43.72594" lon="3.44468">
        <ele>382.9</ele>
        <time>2017-12-24T09:59:54Z</time>
      </trkpt>
      <trkpt lat="43.72597" lon="3.44471">
        <ele>383.7</ele>
        <time>2017-12-24T09:59:56Z</time>
      </trkpt>
      <trkpt lat="43.72599" lon="3.44475">
        <ele>384.4</ele>
        <time>2017-12-24T09:59:58Z</time>
      </trkpt>
      <trkpt lat="43.72602" lon="3.44478">
        <ele>384.7</ele>
        <time>2017-12-24T10:00:00Z</time>
      </trkpt>
      <trkpt lat="43.72604" lon="3.44482">
        <ele>385</ele>
        <time>2017-12-24T10:00:02Z</time>
      </trkpt>
      <trkpt lat="43.72606" lon="3.44486">
        <ele>385.2</ele>
        <time>2017-12-24T10:00:04Z</time>
      </trkpt>
      <trkpt lat="43.72608" lon="3.44489">
        <ele>385.5</ele>
        <time>2017-12-24T10:00:06Z</time>
      </trkpt>
      <trkpt lat="43.7261" lon="3.44494">
        <ele>385.8</ele>
        <time>2017-12-24T10:00:08Z</time>
      </trkpt>
      <trkpt lat="43.7261" lon="3.44498">
        <ele>386.3</ele>
        <time>2017-12-24T10:00:10Z</time>
      </trkpt>
      <trkpt lat="43.7261" lon="3.44503">
        <ele>387</ele>
        <time>2017-12-24T10:00:12Z</time>
      </trkpt>
      <trkpt lat="43.72609" lon="3.44507">
        <ele>387.4</ele>
        <time>2017-12-24T10:00:14Z</time>
      </trkpt>
      <trkpt lat="43.72609" lon="3.44513">
        <ele>387.7</ele>
        <time>2017-12-24T10:00:16Z</time>
      </trkpt>
      <trkpt lat="43.72608" lon="3.44519">
        <ele>388</ele>
        <time>2017-12-24T10:00:18Z</time>
      </trkpt>
      <trkpt lat="43.72606" lon="3.44524">
        <ele>388.3</ele>
        <time>2017-12-24T10:00:20Z</time>
      </trkpt>
      <trkpt lat="43.72604" lon="3.44529">
        <ele>388.7</ele>
        <time>2017-12-24T10:00:22Z</time>
      </trkpt>
      <trkpt lat="43.72603" lon="3.44533">
        <ele>389</ele>
        <time>2017-12-24T10:00:24Z</time>
      </trkpt>
      <trkpt lat="43.72604" lon="3.44539">
        <ele>389.6</ele>
        <time>2017-12-24T10:00:26Z</time>
      </trkpt>
      <trkpt lat="43.72606" lon="3.44543">
        <ele>390.3</ele>
        <time>2017-12-24T10:00:28Z</time>
      </trkpt>
      <trkpt lat="43.72609" lon="3.44548">
        <ele>390.9</ele>
        <time>2017-12-24T10:00:30Z</time>
      </trkpt>
      <trkpt lat="43.72612" lon="3.44551">
        <ele>391.5</ele>
        <time>2017-12-24T10:00:32Z</time>
      </trkpt>
      <trkpt lat="43.72615" lon="3.44557">
        <ele>391.9</ele>
        <time>2017-12-24T10:00:34Z</time>
      </trkpt>
      <trkpt lat="43.72617" lon="3.4456">
        <ele>392.1</ele>
        <time>2017-12-24T10:00:36Z</time>
      </trkpt>
      <trkpt lat="43.7262" lon="3.44564">
        <ele>392.3</ele>
        <time>2017-12-24T10:00:38Z</time>
      </trkpt>
      <trkpt lat="43.72623" lon="3.44567">
        <ele>392.5</ele>
        <time>2017-12-24T10:00:40Z</time>
      </trkpt>
      <trkpt lat="43.72626" lon="3.44569">
        <ele>392.9</ele>
        <time>2017-12-24T10:00:42Z</time>
      </trkpt>
      <trkpt lat="43.72628" lon="3.44572">
        <ele>393.4</ele>
        <time>2017-12-24T10:00:44Z</time>
      </trkpt>
      <trkpt lat="43.72631" lon="3.44576">
        <ele>394</ele>
        <time>2017-12-24T10:00:47Z</time>
      </trkpt>
      <trkpt lat="43.72635" lon="3.44578">
        <ele>394.4</ele>
        <time>2017-12-24T10:00:50Z</time>
      </trkpt>
      <trkpt lat="43.72639" lon="3.44581">
        <ele>394.7</ele>
        <time>2017-12-24T10:00:52Z</time>
      </trkpt>
      <trkpt lat="43.72641" lon="3.44583">
        <ele>394.9</ele>
        <time>2017-12-24T10:00:53Z</time>
      </trkpt>
      <trkpt lat="43.72646" lon="3.44586">
        <ele>395.1</ele>
        <time>2017-12-24T10:00:55Z</time>
      </trkpt>
      <trkpt lat="43.72649" lon="3.44588">
        <ele>395.6</ele>
        <time>2017-12-24T10:00:57Z</time>
      </trkpt>
      <trkpt lat="43.72652" lon="3.44593">
        <ele>396.3</ele>
        <time>2017-12-24T10:00:59Z</time>
      </trkpt>
      <trkpt lat="43.72656" lon="3.44597">
        <ele>397.1</ele>
        <time>2017-12-24T10:01:01Z</time>
      </trkpt>
      <trkpt lat="43.72659" lon="3.44601">
        <ele>397.4</ele>
        <time>2017-12-24T10:01:03Z</time>
      </trkpt>
      <trkpt lat="43.72661" lon="3.44603">
        <ele>397.6</ele>
        <time>2017-12-24T10:01:05Z</time>
      </trkpt>
      <trkpt lat="43.72664" lon="3.44606">
        <ele>397.8</ele>
        <time>2017-12-24T10:01:07Z</time>
      </trkpt>
      <trkpt lat="43.72665" lon="3.44609">
        <ele>397.9</ele>
        <time>2017-12-24T10:01:08Z</time>
      </trkpt>
      <trkpt lat="43.72668" lon="3.4461">
        <ele>398.1</ele>
        <time>2017-12-24T10:01:10Z</time>
      </trkpt>
      <trkpt lat="43.72669" lon="3.44614">
        <ele>398.2</ele>
        <time>2017-12-24T10:01:11Z</time>
      </trkpt>
      <trkpt lat="43.72672" lon="3.4462">
        <ele>398.5</ele>
        <time>2017-12-24T10:01:13Z</time>
      </trkpt>
      <trkpt lat="43.72673" lon="3.44624">
        <ele>399</ele>
        <time>2017-12-24T10:01:15Z</time>
      </trkpt>
      <trkpt lat="43.72675" lon="3.44628">
        <ele>399.4</ele>
        <time>2017-12-24T10:01:17Z</time>
      </trkpt>
      <trkpt lat="43.72678" lon="3.44632">
        <ele>400</ele>
        <time>2017-12-24T10:01:19Z</time>
      </trkpt>
      <trkpt lat="43.72682" lon="3.44636">
        <ele>400.6</ele>
        <time>2017-12-24T10:01:21Z</time>
      </trkpt>
      <trkpt lat="43.72686" lon="3.4464">
        <ele>400.8</ele>
        <time>2017-12-24T10:01:23Z</time>
      </trkpt>
      <trkpt lat="43.72689" lon="3.44643">
        <ele>401</ele>
        <time>2017-12-24T10:01:25Z</time>
      </trkpt>
      <trkpt lat="43.72693" lon="3.44645">
        <ele>401.2</ele>
        <time>2017-12-24T10:01:28Z</time>
      </trkpt>
      <trkpt lat="43.72697" lon="3.44646">
        <ele>401.4</ele>
        <time>2017-12-24T10:01:30Z</time>
      </trkpt>
      <trkpt lat="43.72702" lon="3.44648">
        <ele>401.8</ele>
        <time>2017-12-24T10:01:32Z</time>
      </trkpt>
      <trkpt lat="43.72705" lon="3.44648">
        <ele>402</ele>
        <time>2017-12-24T10:01:34Z</time>
      </trkpt>
      <trkpt lat="43.7271" lon="3.44651">
        <ele>402.7</ele>
        <time>2017-12-24T10:01:36Z</time>
      </trkpt>
      <trkpt lat="43.72714" lon="3.44652">
        <ele>403.2</ele>
        <time>2017-12-24T10:01:39Z</time>
      </trkpt>
      <trkpt lat="43.72717" lon="3.44653">
        <ele>403.6</ele>
        <time>2017-12-24T10:01:41Z</time>
      </trkpt>
      <trkpt lat="43.7272" lon="3.44654">
        <ele>403.8</ele>
        <time>2017-12-24T10:01:43Z</time>
      </trkpt>
      <trkpt lat="43.72724" lon="3.44655">
        <ele>404.1</ele>
        <time>2017-12-24T10:01:45Z</time>
      </trkpt>
      <trkpt lat="43.7273" lon="3.44656">
        <ele>404.5</ele>
        <time>2017-12-24T10:01:47Z</time>
      </trkpt>
      <trkpt lat="43.72733" lon="3.44656">
        <ele>404.7</ele>
        <time>2017-12-24T10:01:49Z</time>
      </trkpt>
      <trkpt lat="43.72737" lon="3.44656">
        <ele>404.9</ele>
        <time>2017-12-24T10:01:51Z</time>
      </trkpt>
      <trkpt lat="43.7274" lon="3.44655">
        <ele>405.2</ele>
        <time>2017-12-24T10:01:53Z</time>
      </trkpt>
      <trkpt lat="43.72744" lon="3.44654">
        <ele>405.8</ele>
        <time>2017-12-24T10:01:55Z</time>
      </trkpt>
      <trkpt lat="43.72747" lon="3.44653">
        <ele>406.5</ele>
        <time>2017-12-24T10:01:57Z</time>
      </trkpt>
      <trkpt lat="43.7275" lon="3.44651">
        <ele>407.1</ele>
        <time>2017-12-24T10:01:59Z</time>
      </trkpt>
      <trkpt lat="43.72755" lon="3.44651">
        <ele>407.6</ele>
        <time>2017-12-24T10:02:01Z</time>
      </trkpt>
      <trkpt lat="43.72758" lon="3.44652">
        <ele>407.9</ele>
        <time>2017-12-24T10:02:03Z</time>
      </trkpt>
      <trkpt lat="43.72762" lon="3.44654">
        <ele>408.2</ele>
        <time>2017-12-24T10:02:05Z</time>
      </trkpt>
      <trkpt lat="43.72766" lon="3.44655">
        <ele>408.8</ele>
        <time>2017-12-24T10:02:07Z</time>
      </trkpt>
      <trkpt lat="43.72769" lon="3.44655">
        <ele>409.3</ele>
        <time>2017-12-24T10:02:08Z</time>
      </trkpt>
      <trkpt lat="43.72772" lon="3.44655">
        <ele>409.8</ele>
        <time>2017-12-24T10:02:10Z</time>
      </trkpt>
      <trkpt lat="43.72775" lon="3.44655">
        <ele>410.2</ele>
        <time>2017-12-24T10:02:12Z</time>
      </trkpt>
      <trkpt lat="43.72779" lon="3.44655">
        <ele>410.5</ele>
        <time>2017-12-24T10:02:14Z</time>
      </trkpt>
      <trkpt lat="43.72783" lon="3.44654">
        <ele>410.7</ele>
        <time>2017-12-24T10:02:17Z</time>
      </trkpt>
      <trkpt lat="43.72786" lon="3.44653">
        <ele>410.9</ele>
        <time>2017-12-24T10:02:19Z</time>
      </trkpt>
      <trkpt lat="43.7279" lon="3.44653">
        <ele>411.2</ele>
        <time>2017-12-24T10:02:21Z</time>
      </trkpt>
      <trkpt lat="43.72793" lon="3.44654">
        <ele>411.4</ele>
        <time>2017-12-24T10:02:22Z</time>
      </trkpt>
      <trkpt lat="43.72798" lon="3.44655">
        <ele>411.7</ele>
        <time>2017-12-24T10:02:24Z</time>
      </trkpt>
      <trkpt lat="43.72802" lon="3.44654">
        <ele>412.4</ele>
        <time>2017-12-24T10:02:26Z</time>
      </trkpt>
      <trkpt lat="43.72805" lon="3.44654">
        <ele>413</ele>
        <time>2017-12-24T10:02:28Z</time>
      </trkpt>
      <trkpt lat="43.72809" lon="3.44653">
        <ele>413.3</ele>
        <time>2017-12-24T10:02:30Z</time>
      </trkpt>
      <trkpt lat="43.72813" lon="3.44651">
        <ele>413.7</ele>
        <time>2017-12-24T10:02:32Z</time>
      </trkpt>
      <trkpt lat="43.72817" lon="3.44649">
        <ele>413.9</ele>
        <time>2017-12-24T10:02:34Z</time>
      </trkpt>
      <trkpt lat="43.7282" lon="3.44647">
        <ele>414.2</ele>
        <time>2017-12-24T10:02:36Z</time>
      </trkpt>
      <trkpt lat="43.72824" lon="3.44644">
        <ele>414.5</ele>
        <time>2017-12-24T10:02:38Z</time>
      </trkpt>
      <trkpt lat="43.72827" lon="3.44641">
        <ele>415</ele>
        <time>2017-12-24T10:02:40Z</time>
      </trkpt>
      <trkpt lat="43.7283" lon="3.44639">
        <ele>415.6</ele>
        <time>2017-12-24T10:02:42Z</time>
      </trkpt>
      <trkpt lat="43.72834" lon="3.44637">
        <ele>416.1</ele>
        <time>2017-12-24T10:02:44Z</time>
      </trkpt>
      <trkpt lat="43.72837" lon="3.44634">
        <ele>416.4</ele>
        <time>2017-12-24T10:02:46Z</time>
      </trkpt>
      <trkpt lat="43.72841" lon="3.44632">
        <ele>416.7</ele>
        <time>2017-12-24T10:02:48Z</time>
      </trkpt>
      <trkpt lat="43.72845" lon="3.44629">
        <ele>416.9</ele>
        <time>2017-12-24T10:02:50Z</time>
      </trkpt>
      <trkpt lat="43.72849" lon="3.44626">
        <ele>417.2</ele>
        <time>2017-12-24T10:02:52Z</time>
      </trkpt>
      <trkpt lat="43.72853" lon="3.44625">
        <ele>417.5</ele>
        <time>2017-12-24T10:02:54Z</time>
      </trkpt>
      <trkpt lat="43.72857" lon="3.44623">
        <ele>418.3</ele>
        <time>2017-12-24T10:02:56Z</time>
      </trkpt>
      <trkpt lat="43.72861" lon="3.44621">
        <ele>419.1</ele>
        <time>2017-12-24T10:02:58Z</time>
      </trkpt>
      <trkpt lat="43.72865" lon="3.44619">
        <ele>419.8</ele>
        <time>2017-12-24T10:03:00Z</time>
      </trkpt>
      <trkpt lat="43.72869" lon="3.44618">
        <ele>420.2</ele>
        <time>2017-12-24T10:03:02Z</time>
      </trkpt>
      <trkpt lat="43.72873" lon="3.44618">
        <ele>420.5</ele>
        <time>2017-12-24T10:03:04Z</time>
      </trkpt>
      <trkpt lat="43.72877" lon="3.44616">
        <ele>420.9</ele>
        <time>2017-12-24T10:03:06Z</time>
      </trkpt>
      <trkpt lat="43.72882" lon="3.44614">
        <ele>421.7</ele>
        <time>2017-12-24T10:03:08Z</time>
      </trkpt>
      <trkpt lat="43.72886" lon="3.44613">
        <ele>422.3</ele>
        <time>2017-12-24T10:03:10Z</time>
      </trkpt>
      <trkpt lat="43.72891" lon="3.44611">
        <ele>422.6</ele>
        <time>2017-12-24T10:03:12Z</time>
      </trkpt>
      <trkpt lat="43.72893" lon="3.44609">
        <ele>422.8</ele>
        <time>2017-12-24T10:03:14Z</time>
      </trkpt>
      <trkpt lat="43.72897" lon="3.44608">
        <ele>423</ele>
        <time>2017-12-24T10:03:17Z</time>
      </trkpt>
      <trkpt lat="43.729" lon="3.44606">
        <ele>423.2</ele>
        <time>2017-12-24T10:03:19Z</time>
      </trkpt>
      <trkpt lat="43.72903" lon="3.44604">
        <ele>423.5</ele>
        <time>2017-12-24T10:03:21Z</time>
      </trkpt>
      <trkpt lat="43.72906" lon="3.44603">
        <ele>423.7</ele>
        <time>2017-12-24T10:03:23Z</time>
      </trkpt>
      <trkpt lat="43.72909" lon="3.44602">
        <ele>424.3</ele>
        <time>2017-12-24T10:03:25Z</time>
      </trkpt>
      <trkpt lat="43.72913" lon="3.446">
        <ele>425.1</ele>
        <time>2017-12-24T10:03:27Z</time>
      </trkpt>
      <trkpt lat="43.72916" lon="3.44598">
        <ele>425.7</ele>
        <time>2017-12-24T10:03:29Z</time>
      </trkpt>
      <trkpt lat="43.7292" lon="3.44596">
        <ele>425.9</ele>
        <time>2017-12-24T10:03:31Z</time>
      </trkpt>
      <trkpt lat="43.72924" lon="3.44596">
        <ele>426.3</ele>
        <time>2017-12-24T10:03:33Z</time>
      </trkpt>
      <trkpt lat="43.72929" lon="3.44596">
        <ele>426.5</ele>
        <time>2017-12-24T10:03:35Z</time>
      </trkpt>
      <trkpt lat="43.72933" lon="3.44593">
        <ele>426.8</ele>
        <time>2017-12-24T10:03:37Z</time>
      </trkpt>
      <trkpt lat="43.72937" lon="3.44592">
        <ele>427.2</ele>
        <time>2017-12-24T10:03:39Z</time>
      </trkpt>
      <trkpt lat="43.72939" lon="3.4459">
        <ele>427.7</ele>
        <time>2017-12-24T10:03:40Z</time>
      </trkpt>
      <trkpt lat="43.72942" lon="3.44588">
        <ele>428.4</ele>
        <time>2017-12-24T10:03:42Z</time>
      </trkpt>
      <trkpt lat="43.72947" lon="3.44585">
        <ele>429</ele>
        <time>2017-12-24T10:03:44Z</time>
      </trkpt>
      <trkpt lat="43.72951" lon="3.44582">
        <ele>429.4</ele>
        <time>2017-12-24T10:03:46Z</time>
      </trkpt>
      <trkpt lat="43.72956" lon="3.4458">
        <ele>429.7</ele>
        <time>2017-12-24T10:03:48Z</time>
      </trkpt>
      <trkpt lat="43.72959" lon="3.44578">
        <ele>430</ele>
        <time>2017-12-24T10:03:51Z</time>
      </trkpt>
      <trkpt lat="43.72962" lon="3.44576">
        <ele>430.6</ele>
        <time>2017-12-24T10:03:53Z</time>
      </trkpt>
      <trkpt lat="43.72967" lon="3.44574">
        <ele>431.3</ele>
        <time>2017-12-24T10:03:55Z</time>
      </trkpt>
      <trkpt lat="43.72971" lon="3.44573">
        <ele>431.7</ele>
        <time>2017-12-24T10:03:57Z</time>
      </trkpt>
      <trkpt lat="43.72974" lon="3.44572">
        <ele>432</ele>
        <time>2017-12-24T10:03:59Z</time>
      </trkpt>
      <trkpt lat="43.72979" lon="3.44571">
        <ele>432.2</ele>
        <time>2017-12-24T10:04:01Z</time>
      </trkpt>
      <trkpt lat="43.72983" lon="3.4457">
        <ele>432.4</ele>
        <time>2017-12-24T10:04:03Z</time>
      </trkpt>
      <trkpt lat="43.72986" lon="3.44568">
        <ele>432.6</ele>
        <time>2017-12-24T10:04:05Z</time>
      </trkpt>
      <trkpt lat="43.72989" lon="3.44566">
        <ele>432.7</ele>
        <time>2017-12-24T10:04:07Z</time>
      </trkpt>
      <trkpt lat="43.72994" lon="3.44565">
        <ele>433</ele>
        <time>2017-12-24T10:04:10Z</time>
      </trkpt>
      <trkpt lat="43.72999" lon="3.44565">
        <ele>433.8</ele>
        <time>2017-12-24T10:04:12Z</time>
      </trkpt>
      <trkpt lat="43.73003" lon="3.44564">
        <ele>434.4</ele>
        <time>2017-12-24T10:04:14Z</time>
      </trkpt>
      <trkpt lat="43.73007" lon="3.44563">
        <ele>434.9</ele>
        <time>2017-12-24T10:04:15Z</time>
      </trkpt>
      <trkpt lat="43.73011" lon="3.44562">
        <ele>435.3</ele>
        <time>2017-12-24T10:04:17Z</time>
      </trkpt>
      <trkpt lat="43.73016" lon="3.44564">
        <ele>435.6</ele>
        <time>2017-12-24T10:04:19Z</time>
      </trkpt>
      <trkpt lat="43.73019" lon="3.44568">
        <ele>435.8</ele>
        <time>2017-12-24T10:04:21Z</time>
      </trkpt>
      <trkpt lat="43.73023" lon="3.44572">
        <ele>436.1</ele>
        <time>2017-12-24T10:04:23Z</time>
      </trkpt>
      <trkpt lat="43.73026" lon="3.44575">
        <ele>436.3</ele>
        <time>2017-12-24T10:04:25Z</time>
      </trkpt>
      <trkpt lat="43.73028" lon="3.44577">
        <ele>436.5</ele>
        <time>2017-12-24T10:04:27Z</time>
      </trkpt>
      <trkpt lat="43.73031" lon="3.4458">
        <ele>436.7</ele>
        <time>2017-12-24T10:04:29Z</time>
      </trkpt>
      <trkpt lat="43.73034" lon="3.44583">
        <ele>437.2</ele>
        <time>2017-12-24T10:04:31Z</time>
      </trkpt>
      <trkpt lat="43.73037" lon="3.44588">
        <ele>437.8</ele>
        <time>2017-12-24T10:04:33Z</time>
      </trkpt>
      <trkpt lat="43.7304" lon="3.44592">
        <ele>438.2</ele>
        <time>2017-12-24T10:04:35Z</time>
      </trkpt>
      <trkpt lat="43.73043" lon="3.44596">
        <ele>438.6</ele>
        <time>2017-12-24T10:04:37Z</time>
      </trkpt>
      <trkpt lat="43.73046" lon="3.44599">
        <ele>438.8</ele>
        <time>2017-12-24T10:04:39Z</time>
      </trkpt>
      <trkpt lat="43.73049" lon="3.44603">
        <ele>439</ele>
        <time>2017-12-24T10:04:41Z</time>
      </trkpt>
      <trkpt lat="43.73052" lon="3.44608">
        <ele>439.2</ele>
        <time>2017-12-24T10:04:43Z</time>
      </trkpt>
      <trkpt lat="43.73055" lon="3.44612">
        <ele>439.7</ele>
        <time>2017-12-24T10:04:45Z</time>
      </trkpt>
      <trkpt lat="43.73058" lon="3.44617">
        <ele>440.4</ele>
        <time>2017-12-24T10:04:47Z</time>
      </trkpt>
      <trkpt lat="43.7306" lon="3.44621">
        <ele>441</ele>
        <time>2017-12-24T10:04:49Z</time>
      </trkpt>
      <trkpt lat="43.73061" lon="3.44626">
        <ele>441.6</ele>
        <time>2017-12-24T10:04:51Z</time>
      </trkpt>
      <trkpt lat="43.73063" lon="3.44631">
        <ele>441.8</ele>
        <time>2017-12-24T10:04:53Z</time>
      </trkpt>
      <trkpt lat="43.73066" lon="3.44635">
        <ele>442.1</ele>
        <time>2017-12-24T10:04:55Z</time>
      </trkpt>
      <trkpt lat="43.73068" lon="3.44639">
        <ele>442.3</ele>
        <time>2017-12-24T10:04:57Z</time>
      </trkpt>
      <trkpt lat="43.7307" lon="3.44643">
        <ele>442.6</ele>
        <time>2017-12-24T10:04:59Z</time>
      </trkpt>
      <trkpt lat="43.73072" lon="3.44648">
        <ele>442.8</ele>
        <time>2017-12-24T10:05:01Z</time>
      </trkpt>
      <trkpt lat="43.73074" lon="3.44653">
        <ele>443.3</ele>
        <time>2017-12-24T10:05:03Z</time>
      </trkpt>
      <trkpt lat="43.73076" lon="3.44658">
        <ele>443.9</ele>
        <time>2017-12-24T10:05:05Z</time>
      </trkpt>
      <trkpt lat="43.73078" lon="3.44663">
        <ele>444.5</ele>
        <time>2017-12-24T10:05:07Z</time>
      </trkpt>
      <trkpt lat="43.7308" lon="3.44668">
        <ele>444.8</ele>
        <time>2017-12-24T10:05:09Z</time>
      </trkpt>
      <trkpt lat="43.73081" lon="3.44673">
        <ele>445.1</ele>
        <time>2017-12-24T10:05:11Z</time>
      </trkpt>
      <trkpt lat="43.73082" lon="3.44679">
        <ele>445.4</ele>
        <time>2017-12-24T10:05:13Z</time>
      </trkpt>
      <trkpt lat="43.73082" lon="3.44684">
        <ele>445.6</ele>
        <time>2017-12-24T10:05:15Z</time>
      </trkpt>
      <trkpt lat="43.73083" lon="3.44689">
        <ele>445.8</ele>
        <time>2017-12-24T10:05:17Z</time>
      </trkpt>
      <trkpt lat="43.73084" lon="3.44694">
        <ele>446.2</ele>
        <time>2017-12-24T10:05:19Z</time>
      </trkpt>
      <trkpt lat="43.73085" lon="3.44699">
        <ele>446.8</ele>
        <time>2017-12-24T10:05:21Z</time>
      </trkpt>
      <trkpt lat="43.73087" lon="3.44705">
        <ele>447.5</ele>
        <time>2017-12-24T10:05:23Z</time>
      </trkpt>
      <trkpt lat="43.73089" lon="3.44711">
        <ele>447.9</ele>
        <time>2017-12-24T10:05:25Z</time>
      </trkpt>
      <trkpt lat="43.73091" lon="3.44717">
        <ele>448.3</ele>
        <time>2017-12-24T10:05:27Z</time>
      </trkpt>
      <trkpt lat="43.73093" lon="3.44723">
        <ele>448.6</ele>
        <time>2017-12-24T10:05:29Z</time>
      </trkpt>
      <trkpt lat="43.73094" lon="3.44727">
        <ele>448.9</ele>
        <time>2017-12-24T10:05:31Z</time>
      </trkpt>
      <trkpt lat="43.73094" lon="3.44732">
        <ele>449.2</ele>
        <time>2017-12-24T10:05:33Z</time>
      </trkpt>
      <trkpt lat="43.73094" lon="3.44738">
        <ele>449.9</ele>
        <time>2017-12-24T10:05:35Z</time>
      </trkpt>
      <trkpt lat="43.73094" lon="3.44744">
        <ele>450.6</ele>
        <time>2017-12-24T10:05:37Z</time>
      </trkpt>
      <trkpt lat="43.73095" lon="3.4475">
        <ele>451</ele>
        <time>2017-12-24T10:05:39Z</time>
      </trkpt>
      <trkpt lat="43.73095" lon="3.44757">
        <ele>451.2</ele>
        <time>2017-12-24T10:05:41Z</time>
      </trkpt>
      <trkpt lat="43.73096" lon="3.44764">
        <ele>451.5</ele>
        <time>2017-12-24T10:05:43Z</time>
      </trkpt>
      <trkpt lat="43.73097" lon="3.4477">
        <ele>451.7</ele>
        <time>2017-12-24T10:05:45Z</time>
      </trkpt>
      <trkpt lat="43.73098" lon="3.44776">
        <ele>452</ele>
        <time>2017-12-24T10:05:47Z</time>
      </trkpt>
      <trkpt lat="43.73099" lon="3.44781">
        <ele>452.2</ele>
        <time>2017-12-24T10:05:49Z</time>
      </trkpt>
      <trkpt lat="43.73101" lon="3.44788">
        <ele>452.4</ele>
        <time>2017-12-24T10:05:51Z</time>
      </trkpt>
      <trkpt lat="43.73102" lon="3.44791">
        <ele>452.7</ele>
        <time>2017-12-24T10:05:52Z</time>
      </trkpt>
      <trkpt lat="43.73104" lon="3.44797">
        <ele>453.3</ele>
        <time>2017-12-24T10:05:54Z</time>
      </trkpt>
      <trkpt lat="43.73106" lon="3.44801">
        <ele>453.7</ele>
        <time>2017-12-24T10:05:56Z</time>
      </trkpt>
      <trkpt lat="43.73109" lon="3.44805">
        <ele>454</ele>
        <time>2017-12-24T10:05:58Z</time>
      </trkpt>
      <trkpt lat="43.73112" lon="3.44809">
        <ele>454.2</ele>
        <time>2017-12-24T10:06:00Z</time>
      </trkpt>
      <trkpt lat="43.73115" lon="3.44814">
        <ele>454.3</ele>
        <time>2017-12-24T10:06:02Z</time>
      </trkpt>
      <trkpt lat="43.73118" lon="3.44817">
        <ele>454.3</ele>
        <time>2017-12-24T10:06:04Z</time>
      </trkpt>
      <trkpt lat="43.73121" lon="3.44821">
        <ele>454.4</ele>
        <time>2017-12-24T10:06:06Z</time>
      </trkpt>
      <trkpt lat="43.73125" lon="3.44825">
        <ele>454.5</ele>
        <time>2017-12-24T10:06:08Z</time>
      </trkpt>
      <trkpt lat="43.73128" lon="3.44828">
        <ele>454.6</ele>
        <time>2017-12-24T10:06:10Z</time>
      </trkpt>
      <trkpt lat="43.73132" lon="3.44832">
        <ele>454.6</ele>
        <time>2017-12-24T10:06:12Z</time>
      </trkpt>
      <trkpt lat="43.73136" lon="3.44837">
        <ele>454.7</ele>
        <time>2017-12-24T10:06:14Z</time>
      </trkpt>
      <trkpt lat="43.73139" lon="3.44842">
        <ele>454.7</ele>
        <time>2017-12-24T10:06:16Z</time>
      </trkpt>
      <trkpt lat="43.73141" lon="3.44845">
        <ele>454.8</ele>
        <time>2017-12-24T10:06:17Z</time>
      </trkpt>
      <trkpt lat="43.73143" lon="3.44849">
        <ele>454.8</ele>
        <time>2017-12-24T10:06:18Z</time>
      </trkpt>
      <trkpt lat="43.73143" lon="3.44852">
        <ele>454.8</ele>
        <time>2017-12-24T10:06:19Z</time>
      </trkpt>
      <trkpt lat="43.73143" lon="3.44857">
        <ele>454.9</ele>
        <time>2017-12-24T10:06:20Z</time>
      </trkpt>
      <trkpt lat="43.7314" lon="3.44861">
        <ele>454.9</ele>
        <time>2017-12-24T10:06:21Z</time>
      </trkpt>
      <trkpt lat="43.73137" lon="3.44864">
        <ele>455</ele>
        <time>2017-12-24T10:06:22Z</time>
      </trkpt>
      <trkpt lat="43.73133" lon="3.44866">
        <ele>456.4</ele>
        <time>2017-12-24T10:06:24Z</time>
      </trkpt>
      <trkpt lat="43.73128" lon="3.44869">
        <ele>456.9</ele>
        <time>2017-12-24T10:06:26Z</time>
      </trkpt>
      <trkpt lat="43.73124" lon="3.44869">
        <ele>457.3</ele>
        <time>2017-12-24T10:06:28Z</time>
      </trkpt>
      <trkpt lat="43.7312" lon="3.4487">
        <ele>457.5</ele>
        <time>2017-12-24T10:06:30Z</time>
      </trkpt>
      <trkpt lat="43.73117" lon="3.4487">
        <ele>457.7</ele>
        <time>2017-12-24T10:06:31Z</time>
      </trkpt>
      <trkpt lat="43.73112" lon="3.44869">
        <ele>458.4</ele>
        <time>2017-12-24T10:06:33Z</time>
      </trkpt>
      <trkpt lat="43.73107" lon="3.44867">
        <ele>459.2</ele>
        <time>2017-12-24T10:06:35Z</time>
      </trkpt>
      <trkpt lat="43.73103" lon="3.44866">
        <ele>459.7</ele>
        <time>2017-12-24T10:06:37Z</time>
      </trkpt>
      <trkpt lat="43.73098" lon="3.44866">
        <ele>460.2</ele>
        <time>2017-12-24T10:06:39Z</time>
      </trkpt>
      <trkpt lat="43.73094" lon="3.44865">
        <ele>460.8</ele>
        <time>2017-12-24T10:06:41Z</time>
      </trkpt>
      <trkpt lat="43.7309" lon="3.44864">
        <ele>461.3</ele>
        <time>2017-12-24T10:06:43Z</time>
      </trkpt>
      <trkpt lat="43.73086" lon="3.44863">
        <ele>462</ele>
        <time>2017-12-24T10:06:45Z</time>
      </trkpt>
      <trkpt lat="43.73082" lon="3.44863">
        <ele>462.6</ele>
        <time>2017-12-24T10:06:47Z</time>
      </trkpt>
      <trkpt lat="43.73078" lon="3.44863">
        <ele>463.3</ele>
        <time>2017-12-24T10:06:49Z</time>
      </trkpt>
      <trkpt lat="43.73074" lon="3.44863">
        <ele>464.2</ele>
        <time>2017-12-24T10:06:51Z</time>
      </trkpt>
      <trkpt lat="43.7307" lon="3.44862">
        <ele>464.9</ele>
        <time>2017-12-24T10:06:53Z</time>
      </trkpt>
      <trkpt lat="43.73066" lon="3.4486">
        <ele>465.5</ele>
        <time>2017-12-24T10:06:55Z</time>
      </trkpt>
      <trkpt lat="43.73062" lon="3.44859">
        <ele>466</ele>
        <time>2017-12-24T10:06:57Z</time>
      </trkpt>
      <trkpt lat="43.73058" lon="3.44858">
        <ele>466.4</ele>
        <time>2017-12-24T10:06:59Z</time>
      </trkpt>
      <trkpt lat="43.73055" lon="3.44859">
        <ele>466.7</ele>
        <time>2017-12-24T10:07:01Z</time>
      </trkpt>
      <trkpt lat="43.73051" lon="3.44859">
        <ele>467.6</ele>
        <time>2017-12-24T10:07:03Z</time>
      </trkpt>
      <trkpt lat="43.73047" lon="3.44858">
        <ele>468.3</ele>
        <time>2017-12-24T10:07:06Z</time>
      </trkpt>
      <trkpt lat="43.73044" lon="3.44858">
        <ele>468.8</ele>
        <time>2017-12-24T10:07:08Z</time>
      </trkpt>
      <trkpt lat="43.73041" lon="3.44859">
        <ele>469.3</ele>
        <time>2017-12-24T10:07:10Z</time>
      </trkpt>
      <trkpt lat="43.73038" lon="3.44859">
        <ele>469.6</ele>
        <time>2017-12-24T10:07:11Z</time>
      </trkpt>
      <trkpt lat="43.73034" lon="3.44858">
        <ele>470.3</ele>
        <time>2017-12-24T10:07:13Z</time>
      </trkpt>
      <trkpt lat="43.7303" lon="3.44858">
        <ele>470.9</ele>
        <time>2017-12-24T10:07:15Z</time>
      </trkpt>
      <trkpt lat="43.73026" lon="3.44858">
        <ele>471.4</ele>
        <time>2017-12-24T10:07:17Z</time>
      </trkpt>
      <trkpt lat="43.73023" lon="3.44857">
        <ele>472.1</ele>
        <time>2017-12-24T10:07:19Z</time>
      </trkpt>
      <trkpt lat="43.73019" lon="3.44856">
        <ele>472.6</ele>
        <time>2017-12-24T10:07:21Z</time>
      </trkpt>
      <trkpt lat="43.73017" lon="3.44855">
        <ele>472.9</ele>
        <time>2017-12-24T10:07:23Z</time>
      </trkpt>
      <trkpt lat="43.73014" lon="3.44854">
        <ele>473.2</ele>
        <time>2017-12-24T10:07:25Z</time>
      </trkpt>
      <trkpt lat="43.7301" lon="3.44854">
        <ele>473.5</ele>
        <time>2017-12-24T10:07:27Z</time>
      </trkpt>
      <trkpt lat="43.73006" lon="3.44854">
        <ele>473.7</ele>
        <time>2017-12-24T10:07:29Z</time>
      </trkpt>
      <trkpt lat="43.73003" lon="3.44855">
        <ele>473.9</ele>
        <time>2017-12-24T10:07:31Z</time>
      </trkpt>
      <trkpt lat="43.72998" lon="3.44856">
        <ele>474.2</ele>
        <time>2017-12-24T10:07:33Z</time>
      </trkpt>
      <trkpt lat="43.72994" lon="3.44855">
        <ele>474.4</ele>
        <time>2017-12-24T10:07:35Z</time>
      </trkpt>
      <trkpt lat="43.72991" lon="3.44855">
        <ele>474.6</ele>
        <time>2017-12-24T10:07:37Z</time>
      </trkpt>
      <trkpt lat="43.72987" lon="3.44855">
        <ele>474.7</ele>
        <time>2017-12-24T10:07:39Z</time>
      </trkpt>
      <trkpt lat="43.72983" lon="3.44856">
        <ele>474.8</ele>
        <time>2017-12-24T10:07:41Z</time>
      </trkpt>
      <trkpt lat="43.72979" lon="3.44857">
        <ele>474.6</ele>
        <time>2017-12-24T10:07:43Z</time>
      </trkpt>
      <trkpt lat="43.72975" lon="3.44857">
        <ele>474.4</ele>
        <time>2017-12-24T10:07:45Z</time>
      </trkpt>
      <trkpt lat="43.7297" lon="3.44857">
        <ele>474.2</ele>
        <time>2017-12-24T10:07:47Z</time>
      </trkpt>
      <trkpt lat="43.72965" lon="3.44857">
        <ele>474.2</ele>
        <time>2017-12-24T10:07:49Z</time>
      </trkpt>
      <trkpt lat="43.7296" lon="3.44856">
        <ele>474</ele>
        <time>2017-12-24T10:07:51Z</time>
      </trkpt>
      <trkpt lat="43.72957" lon="3.44855">
        <ele>473.8</ele>
        <time>2017-12-24T10:07:53Z</time>
      </trkpt>
      <trkpt lat="43.72952" lon="3.44854">
        <ele>473.6</ele>
        <time>2017-12-24T10:07:55Z</time>
      </trkpt>
      <trkpt lat="43.72949" lon="3.44853">
        <ele>473.4</ele>
        <time>2017-12-24T10:07:57Z</time>
      </trkpt>
      <trkpt lat="43.72944" lon="3.44852">
        <ele>473.2</ele>
        <time>2017-12-24T10:07:59Z</time>
      </trkpt>
      <trkpt lat="43.7294" lon="3.44851">
        <ele>473</ele>
        <time>2017-12-24T10:08:01Z</time>
      </trkpt>
      <trkpt lat="43.72937" lon="3.4485">
        <ele>473</ele>
        <time>2017-12-24T10:08:03Z</time>
      </trkpt>
      <trkpt lat="43.72933" lon="3.44848">
        <ele>472.8</ele>
        <time>2017-12-24T10:08:05Z</time>
      </trkpt>
      <trkpt lat="43.72929" lon="3.44846">
        <ele>472.6</ele>
        <time>2017-12-24T10:08:07Z</time>
      </trkpt>
      <trkpt lat="43.72926" lon="3.44845">
        <ele>472.7</ele>
        <time>2017-12-24T10:08:09Z</time>
      </trkpt>
      <trkpt lat="43.72923" lon="3.44843">
        <ele>472.8</ele>
        <time>2017-12-24T10:08:10Z</time>
      </trkpt>
      <trkpt lat="43.72918" lon="3.4484">
        <ele>472.9</ele>
        <time>2017-12-24T10:08:12Z</time>
      </trkpt>
      <trkpt lat="43.72915" lon="3.44838">
        <ele>473</ele>
        <time>2017-12-24T10:08:13Z</time>
      </trkpt>
      <trkpt lat="43.72912" lon="3.44836">
        <ele>473.1</ele>
        <time>2017-12-24T10:08:14Z</time>
      </trkpt>
      <trkpt lat="43.72909" lon="3.44835">
        <ele>473.1</ele>
        <time>2017-12-24T10:08:15Z</time>
      </trkpt>
      <trkpt lat="43.72903" lon="3.44835">
        <ele>472.9</ele>
        <time>2017-12-24T10:08:16Z</time>
      </trkpt>
      <trkpt lat="43.72898" lon="3.44836">
        <ele>472.7</ele>
        <time>2017-12-24T10:08:17Z</time>
      </trkpt>
      <trkpt lat="43.72893" lon="3.44837">
        <ele>472.4</ele>
        <time>2017-12-24T10:08:18Z</time>
      </trkpt>
      <trkpt lat="43.72886" lon="3.44839">
        <ele>470.9</ele>
        <time>2017-12-24T10:08:19Z</time>
      </trkpt>
      <trkpt lat="43.72879" lon="3.44842">
        <ele>470</ele>
        <time>2017-12-24T10:08:20Z</time>
      </trkpt>
      <trkpt lat="43.72873" lon="3.44844">
        <ele>469.4</ele>
        <time>2017-12-24T10:08:21Z</time>
      </trkpt>
      <trkpt lat="43.72868" lon="3.44847">
        <ele>468.6</ele>
        <time>2017-12-24T10:08:22Z</time>
      </trkpt>
      <trkpt lat="43.72861" lon="3.44848">
        <ele>468.1</ele>
        <time>2017-12-24T10:08:23Z</time>
      </trkpt>
      <trkpt lat="43.72855" lon="3.44849">
        <ele>467.6</ele>
        <time>2017-12-24T10:08:24Z</time>
      </trkpt>
      <trkpt lat="43.72848" lon="3.44849">
        <ele>467.2</ele>
        <time>2017-12-24T10:08:25Z</time>
      </trkpt>
      <trkpt lat="43.72841" lon="3.44849">
        <ele>466.8</ele>
        <time>2017-12-24T10:08:26Z</time>
      </trkpt>
      <trkpt lat="43.72834" lon="3.44849">
        <ele>466.4</ele>
        <time>2017-12-24T10:08:27Z</time>
      </trkpt>
      <trkpt lat="43.72827" lon="3.44849">
        <ele>465.9</ele>
        <time>2017-12-24T10:08:28Z</time>
      </trkpt>
      <trkpt lat="43.7282" lon="3.44848">
        <ele>465.5</ele>
        <time>2017-12-24T10:08:29Z</time>
      </trkpt>
      <trkpt lat="43.72812" lon="3.44847">
        <ele>465.1</ele>
        <time>2017-12-24T10:08:30Z</time>
      </trkpt>
      <trkpt lat="43.72804" lon="3.44844">
        <ele>464.6</ele>
        <time>2017-12-24T10:08:31Z</time>
      </trkpt>
      <trkpt lat="43.72794" lon="3.44843">
        <ele>464</ele>
        <time>2017-12-24T10:08:32Z</time>
      </trkpt>
      <trkpt lat="43.72785" lon="3.4484">
        <ele>463.3</ele>
        <time>2017-12-24T10:08:33Z</time>
      </trkpt>
      <trkpt lat="43.72777" lon="3.44839">
        <ele>462.7</ele>
        <time>2017-12-24T10:08:34Z</time>
      </trkpt>
      <trkpt lat="43.7277" lon="3.44837">
        <ele>462</ele>
        <time>2017-12-24T10:08:35Z</time>
      </trkpt>
      <trkpt lat="43.72764" lon="3.44836">
        <ele>461.5</ele>
        <time>2017-12-24T10:08:36Z</time>
      </trkpt>
      <trkpt lat="43.72758" lon="3.44836">
        <ele>461.2</ele>
        <time>2017-12-24T10:08:37Z</time>
      </trkpt>
      <trkpt lat="43.72753" lon="3.44837">
        <ele>461</ele>
        <time>2017-12-24T10:08:38Z</time>
      </trkpt>
      <trkpt lat="43.72748" lon="3.44837">
        <ele>460.8</ele>
        <time>2017-12-24T10:08:39Z</time>
      </trkpt>
      <trkpt lat="43.72742" lon="3.44837">
        <ele>460.7</ele>
        <time>2017-12-24T10:08:40Z</time>
      </trkpt>
      <trkpt lat="43.72737" lon="3.44837">
        <ele>460.6</ele>
        <time>2017-12-24T10:08:41Z</time>
      </trkpt>
      <trkpt lat="43.72732" lon="3.44838">
        <ele>460.6</ele>
        <time>2017-12-24T10:08:42Z</time>
      </trkpt>
      <trkpt lat="43.72727" lon="3.44838">
        <ele>460.5</ele>
        <time>2017-12-24T10:08:43Z</time>
      </trkpt>
      <trkpt lat="43.72723" lon="3.44838">
        <ele>460.5</ele>
        <time>2017-12-24T10:08:44Z</time>
      </trkpt>
      <trkpt lat="43.72718" lon="3.44838">
        <ele>460.6</ele>
        <time>2017-12-24T10:08:45Z</time>
      </trkpt>
      <trkpt lat="43.72713" lon="3.44838">
        <ele>460.6</ele>
        <time>2017-12-24T10:08:46Z</time>
      </trkpt>
      <trkpt lat="43.72709" lon="3.44838">
        <ele>460.6</ele>
        <time>2017-12-24T10:08:47Z</time>
      </trkpt>
      <trkpt lat="43.72704" lon="3.44838">
        <ele>460.6</ele>
        <time>2017-12-24T10:08:48Z</time>
      </trkpt>
      <trkpt lat="43.727" lon="3.44837">
        <ele>460.8</ele>
        <time>2017-12-24T10:08:49Z</time>
      </trkpt>
      <trkpt lat="43.72696" lon="3.44836">
        <ele>460.9</ele>
        <time>2017-12-24T10:08:50Z</time>
      </trkpt>
      <trkpt lat="43.72692" lon="3.44835">
        <ele>460.9</ele>
        <time>2017-12-24T10:08:51Z</time>
      </trkpt>
      <trkpt lat="43.72688" lon="3.44835">
        <ele>461.1</ele>
        <time>2017-12-24T10:08:52Z</time>
      </trkpt>
      <trkpt lat="43.72684" lon="3.44834">
        <ele>461.2</ele>
        <time>2017-12-24T10:08:53Z</time>
      </trkpt>
      <trkpt lat="43.7268" lon="3.44835">
        <ele>461.3</ele>
        <time>2017-12-24T10:08:54Z</time>
      </trkpt>
      <trkpt lat="43.72675" lon="3.44835">
        <ele>461.4</ele>
        <time>2017-12-24T10:08:55Z</time>
      </trkpt>
      <trkpt lat="43.72671" lon="3.44835">
        <ele>461.5</ele>
        <time>2017-12-24T10:08:56Z</time>
      </trkpt>
      <trkpt lat="43.72667" lon="3.44836">
        <ele>461.7</ele>
        <time>2017-12-24T10:08:57Z</time>
      </trkpt>
      <trkpt lat="43.72662" lon="3.44836">
        <ele>461.9</ele>
        <time>2017-12-24T10:08:58Z</time>
      </trkpt>
      <trkpt lat="43.72656" lon="3.44836">
        <ele>462.1</ele>
        <time>2017-12-24T10:08:59Z</time>
      </trkpt>
      <trkpt lat="43.7265" lon="3.44835">
        <ele>462.3</ele>
        <time>2017-12-24T10:09:00Z</time>
      </trkpt>
      <trkpt lat="43.72644" lon="3.44833">
        <ele>462.7</ele>
        <time>2017-12-24T10:09:01Z</time>
      </trkpt>
      <trkpt lat="43.72638" lon="3.44831">
        <ele>463</ele>
        <time>2017-12-24T10:09:02Z</time>
      </trkpt>
      <trkpt lat="43.72631" lon="3.4483">
        <ele>463.4</ele>
        <time>2017-12-24T10:09:03Z</time>
      </trkpt>
      <trkpt lat="43.72623" lon="3.44829">
        <ele>463.8</ele>
        <time>2017-12-24T10:09:04Z</time>
      </trkpt>
      <trkpt lat="43.72616" lon="3.44829">
        <ele>463.9</ele>
        <time>2017-12-24T10:09:05Z</time>
      </trkpt>
      <trkpt lat="43.72609" lon="3.4483">
        <ele>464.1</ele>
        <time>2017-12-24T10:09:06Z</time>
      </trkpt>
      <trkpt lat="43.72602" lon="3.4483">
        <ele>464.3</ele>
        <time>2017-12-24T10:09:07Z</time>
      </trkpt>
      <trkpt lat="43.72596" lon="3.44829">
        <ele>464.3</ele>
        <time>2017-12-24T10:09:08Z</time>
      </trkpt>
      <trkpt lat="43.7259" lon="3.44827">
        <ele>464.4</ele>
        <time>2017-12-24T10:09:09Z</time>
      </trkpt>
      <trkpt lat="43.72584" lon="3.44824">
        <ele>464.6</ele>
        <time>2017-12-24T10:09:10Z</time>
      </trkpt>
      <trkpt lat="43.72577" lon="3.44822">
        <ele>464.8</ele>
        <time>2017-12-24T10:09:11Z</time>
      </trkpt>
      <trkpt lat="43.72571" lon="3.44822">
        <ele>464.9</ele>
        <time>2017-12-24T10:09:12Z</time>
      </trkpt>
      <trkpt lat="43.72566" lon="3.44822">
        <ele>465.1</ele>
        <time>2017-12-24T10:09:13Z</time>
      </trkpt>
      <trkpt lat="43.72561" lon="3.44821">
        <ele>465.4</ele>
        <time>2017-12-24T10:09:14Z</time>
      </trkpt>
      <trkpt lat="43.72556" lon="3.4482">
        <ele>465.7</ele>
        <time>2017-12-24T10:09:15Z</time>
      </trkpt>
      <trkpt lat="43.72552" lon="3.44819">
        <ele>465.9</ele>
        <time>2017-12-24T10:09:16Z</time>
      </trkpt>
      <trkpt lat="43.72547" lon="3.44819">
        <ele>466.1</ele>
        <time>2017-12-24T10:09:17Z</time>
      </trkpt>
      <trkpt lat="43.72543" lon="3.44819">
        <ele>466.2</ele>
        <time>2017-12-24T10:09:18Z</time>
      </trkpt>
      <trkpt lat="43.72539" lon="3.44819">
        <ele>466.5</ele>
        <time>2017-12-24T10:09:19Z</time>
      </trkpt>
      <trkpt lat="43.72534" lon="3.4482">
        <ele>466.8</ele>
        <time>2017-12-24T10:09:20Z</time>
      </trkpt>
      <trkpt lat="43.72528" lon="3.44821">
        <ele>467.1</ele>
        <time>2017-12-24T10:09:21Z</time>
      </trkpt>
      <trkpt lat="43.72523" lon="3.44822">
        <ele>467.3</ele>
        <time>2017-12-24T10:09:22Z</time>
      </trkpt>
      <trkpt lat="43.72518" lon="3.44822">
        <ele>467.5</ele>
        <time>2017-12-24T10:09:23Z</time>
      </trkpt>
      <trkpt lat="43.72512" lon="3.44822">
        <ele>467.6</ele>
        <time>2017-12-24T10:09:24Z</time>
      </trkpt>
      <trkpt lat="43.72506" lon="3.44822">
        <ele>467.7</ele>
        <time>2017-12-24T10:09:25Z</time>
      </trkpt>
      <trkpt lat="43.72501" lon="3.44822">
        <ele>467.8</ele>
        <time>2017-12-24T10:09:26Z</time>
      </trkpt>
      <trkpt lat="43.72496" lon="3.44822">
        <ele>467.8</ele>
        <time>2017-12-24T10:09:27Z</time>
      </trkpt>
      <trkpt lat="43.72492" lon="3.44821">
        <ele>467.9</ele>
        <time>2017-12-24T10:09:28Z</time>
      </trkpt>
      <trkpt lat="43.72488" lon="3.44821">
        <ele>467.9</ele>
        <time>2017-12-24T10:09:29Z</time>
      </trkpt>
      <trkpt lat="43.72484" lon="3.4482">
        <ele>468</ele>
        <time>2017-12-24T10:09:30Z</time>
      </trkpt>
      <trkpt lat="43.7248" lon="3.44819">
        <ele>468.2</ele>
        <time>2017-12-24T10:09:31Z</time>
      </trkpt>
      <trkpt lat="43.72476" lon="3.44818">
        <ele>468.5</ele>
        <time>2017-12-24T10:09:32Z</time>
      </trkpt>
      <trkpt lat="43.72471" lon="3.44818">
        <ele>468.7</ele>
        <time>2017-12-24T10:09:33Z</time>
      </trkpt>
      <trkpt lat="43.72467" lon="3.44818">
        <ele>468.9</ele>
        <time>2017-12-24T10:09:34Z</time>
      </trkpt>
      <trkpt lat="43.72463" lon="3.44818">
        <ele>469</ele>
        <time>2017-12-24T10:09:35Z</time>
      </trkpt>
      <trkpt lat="43.72459" lon="3.44817">
        <ele>469.3</ele>
        <time>2017-12-24T10:09:36Z</time>
      </trkpt>
      <trkpt lat="43.72454" lon="3.44818">
        <ele>469.7</ele>
        <time>2017-12-24T10:09:37Z</time>
      </trkpt>
      <trkpt lat="43.7245" lon="3.44817">
        <ele>469.9</ele>
        <time>2017-12-24T10:09:38Z</time>
      </trkpt>
      <trkpt lat="43.72447" lon="3.44817">
        <ele>470</ele>
        <time>2017-12-24T10:09:39Z</time>
      </trkpt>
      <trkpt lat="43.72444" lon="3.44818">
        <ele>470.1</ele>
        <time>2017-12-24T10:09:40Z</time>
      </trkpt>
      <trkpt lat="43.7244" lon="3.44818">
        <ele>470.2</ele>
        <time>2017-12-24T10:09:41Z</time>
      </trkpt>
      <trkpt lat="43.72437" lon="3.44819">
        <ele>470.2</ele>
        <time>2017-12-24T10:09:42Z</time>
      </trkpt>
      <trkpt lat="43.72433" lon="3.4482">
        <ele>470.2</ele>
        <time>2017-12-24T10:09:43Z</time>
      </trkpt>
      <trkpt lat="43.7243" lon="3.44822">
        <ele>470.3</ele>
        <time>2017-12-24T10:09:44Z</time>
      </trkpt>
      <trkpt lat="43.72426" lon="3.44825">
        <ele>470.3</ele>
        <time>2017-12-24T10:09:45Z</time>
      </trkpt>
      <trkpt lat="43.72422" lon="3.44827">
        <ele>470.4</ele>
        <time>2017-12-24T10:09:46Z</time>
      </trkpt>
      <trkpt lat="43.72418" lon="3.44829">
        <ele>470.4</ele>
        <time>2017-12-24T10:09:47Z</time>
      </trkpt>
      <trkpt lat="43.72415" lon="3.4483">
        <ele>470.2</ele>
        <time>2017-12-24T10:09:48Z</time>
      </trkpt>
      <trkpt lat="43.72412" lon="3.4483">
        <ele>470.1</ele>
        <time>2017-12-24T10:09:49Z</time>
      </trkpt>
      <trkpt lat="43.72409" lon="3.44831">
        <ele>469.8</ele>
        <time>2017-12-24T10:09:50Z</time>
      </trkpt>
      <trkpt lat="43.72406" lon="3.44832">
        <ele>469.6</ele>
        <time>2017-12-24T10:09:51Z</time>
      </trkpt>
      <trkpt lat="43.72403" lon="3.44834">
        <ele>469.3</ele>
        <time>2017-12-24T10:09:52Z</time>
      </trkpt>
      <trkpt lat="43.724" lon="3.44835">
        <ele>469.1</ele>
        <time>2017-12-24T10:09:53Z</time>
      </trkpt>
      <trkpt lat="43.72397" lon="3.44834">
        <ele>468.8</ele>
        <time>2017-12-24T10:09:54Z</time>
      </trkpt>
      <trkpt lat="43.72393" lon="3.44834">
        <ele>468.4</ele>
        <time>2017-12-24T10:09:55Z</time>
      </trkpt>
      <trkpt lat="43.7239" lon="3.44835">
        <ele>468.2</ele>
        <time>2017-12-24T10:09:56Z</time>
      </trkpt>
      <trkpt lat="43.72387" lon="3.44836">
        <ele>467.8</ele>
        <time>2017-12-24T10:09:57Z</time>
      </trkpt>
      <trkpt lat="43.72384" lon="3.44835">
        <ele>467.4</ele>
        <time>2017-12-24T10:09:58Z</time>
      </trkpt>
      <trkpt lat="43.7238" lon="3.44836">
        <ele>467.4</ele>
        <time>2017-12-24T10:09:59Z</time>
      </trkpt>
      <trkpt lat="43.72376" lon="3.44837">
        <ele>467.5</ele>
        <time>2017-12-24T10:10:00Z</time>
      </trkpt>
      <trkpt lat="43.72372" lon="3.44836">
        <ele>467.5</ele>
        <time>2017-12-24T10:10:01Z</time>
      </trkpt>
      <trkpt lat="43.72368" lon="3.44836">
        <ele>467.6</ele>
        <time>2017-12-24T10:10:02Z</time>
      </trkpt>
      <trkpt lat="43.72364" lon="3.44836">
        <ele>467.5</ele>
        <time>2017-12-24T10:10:03Z</time>
      </trkpt>
      <trkpt lat="43.72361" lon="3.44835">
        <ele>467.5</ele>
        <time>2017-12-24T10:10:04Z</time>
      </trkpt>
      <trkpt lat="43.72358" lon="3.44835">
        <ele>467.4</ele>
        <time>2017-12-24T10:10:05Z</time>
      </trkpt>
      <trkpt lat="43.72354" lon="3.44834">
        <ele>467.3</ele>
        <time>2017-12-24T10:10:06Z</time>
      </trkpt>
      <trkpt lat="43.7235" lon="3.44834">
        <ele>467.3</ele>
        <time>2017-12-24T10:10:07Z</time>
      </trkpt>
      <trkpt lat="43.72346" lon="3.44833">
        <ele>467.2</ele>
        <time>2017-12-24T10:10:08Z</time>
      </trkpt>
      <trkpt lat="43.72342" lon="3.44833">
        <ele>467.2</ele>
        <time>2017-12-24T10:10:09Z</time>
      </trkpt>
      <trkpt lat="43.72339" lon="3.44832">
        <ele>467.2</ele>
        <time>2017-12-24T10:10:10Z</time>
      </trkpt>
      <trkpt lat="43.72335" lon="3.44832">
        <ele>467.2</ele>
        <time>2017-12-24T10:10:11Z</time>
      </trkpt>
      <trkpt lat="43.72332" lon="3.44831">
        <ele>467.2</ele>
        <time>2017-12-24T10:10:12Z</time>
      </trkpt>
      <trkpt lat="43.72329" lon="3.44831">
        <ele>467.6</ele>
        <time>2017-12-24T10:10:13Z</time>
      </trkpt>
      <trkpt lat="43.72326" lon="3.4483">
        <ele>468</ele>
        <time>2017-12-24T10:10:14Z</time>
      </trkpt>
      <trkpt lat="43.7232" lon="3.44829">
        <ele>468.1</ele>
        <time>2017-12-24T10:10:16Z</time>
      </trkpt>
      <trkpt lat="43.72315" lon="3.44828">
        <ele>468.2</ele>
        <time>2017-12-24T10:10:18Z</time>
      </trkpt>
      <trkpt lat="43.72312" lon="3.44826">
        <ele>468.4</ele>
        <time>2017-12-24T10:10:19Z</time>
      </trkpt>
      <trkpt lat="43.7231" lon="3.44825">
        <ele>468.5</ele>
        <time>2017-12-24T10:10:20Z</time>
      </trkpt>
      <trkpt lat="43.72307" lon="3.44823">
        <ele>468.7</ele>
        <time>2017-12-24T10:10:21Z</time>
      </trkpt>
      <trkpt lat="43.72303" lon="3.44819">
        <ele>468.9</ele>
        <time>2017-12-24T10:10:23Z</time>
      </trkpt>
      <trkpt lat="43.72301" lon="3.44817">
        <ele>468.9</ele>
        <time>2017-12-24T10:10:24Z</time>
      </trkpt>
      <trkpt lat="43.72297" lon="3.44813">
        <ele>469.1</ele>
        <time>2017-12-24T10:10:26Z</time>
      </trkpt>
      <trkpt lat="43.72295" lon="3.4481">
        <ele>469.2</ele>
        <time>2017-12-24T10:10:28Z</time>
      </trkpt>
      <trkpt lat="43.72293" lon="3.44807">
        <ele>469.4</ele>
        <time>2017-12-24T10:10:31Z</time>
      </trkpt>
      <trkpt lat="43.72289" lon="3.44806">
        <ele>469.5</ele>
        <time>2017-12-24T10:10:34Z</time>
      </trkpt>
      <trkpt lat="43.72285" lon="3.44806">
        <ele>469.7</ele>
        <time>2017-12-24T10:10:36Z</time>
      </trkpt>
      <trkpt lat="43.7228" lon="3.44809">
        <ele>469.9</ele>
        <time>2017-12-24T10:10:38Z</time>
      </trkpt>
      <trkpt lat="43.72277" lon="3.4481">
        <ele>470</ele>
        <time>2017-12-24T10:10:39Z</time>
      </trkpt>
      <trkpt lat="43.72275" lon="3.44812">
        <ele>469.8</ele>
        <time>2017-12-24T10:10:40Z</time>
      </trkpt>
      <trkpt lat="43.72272" lon="3.44814">
        <ele>469.6</ele>
        <time>2017-12-24T10:10:41Z</time>
      </trkpt>
      <trkpt lat="43.7227" lon="3.44817">
        <ele>469.4</ele>
        <time>2017-12-24T10:10:42Z</time>
      </trkpt>
      <trkpt lat="43.72267" lon="3.44819">
        <ele>469.3</ele>
        <time>2017-12-24T10:10:43Z</time>
      </trkpt>
      <trkpt lat="43.72264" lon="3.44822">
        <ele>469.1</ele>
        <time>2017-12-24T10:10:44Z</time>
      </trkpt>
      <trkpt lat="43.72261" lon="3.44824">
        <ele>468.9</ele>
        <time>2017-12-24T10:10:45Z</time>
      </trkpt>
      <trkpt lat="43.72259" lon="3.44825">
        <ele>468.7</ele>
        <time>2017-12-24T10:10:46Z</time>
      </trkpt>
      <trkpt lat="43.72254" lon="3.44829">
        <ele>468.3</ele>
        <time>2017-12-24T10:10:48Z</time>
      </trkpt>
      <trkpt lat="43.7225" lon="3.44831">
        <ele>468</ele>
        <time>2017-12-24T10:10:50Z</time>
      </trkpt>
      <trkpt lat="43.72246" lon="3.44835">
        <ele>467.8</ele>
        <time>2017-12-24T10:10:52Z</time>
      </trkpt>
      <trkpt lat="43.72242" lon="3.44838">
        <ele>467.7</ele>
        <time>2017-12-24T10:10:54Z</time>
      </trkpt>
      <trkpt lat="43.72238" lon="3.44841">
        <ele>467.6</ele>
        <time>2017-12-24T10:10:56Z</time>
      </trkpt>
      <trkpt lat="43.72233" lon="3.44844">
        <ele>467.4</ele>
        <time>2017-12-24T10:10:58Z</time>
      </trkpt>
      <trkpt lat="43.7223" lon="3.44849">
        <ele>467.4</ele>
        <time>2017-12-24T10:11:00Z</time>
      </trkpt>
      <trkpt lat="43.72227" lon="3.44856">
        <ele>467.4</ele>
        <time>2017-12-24T10:11:02Z</time>
      </trkpt>
      <trkpt lat="43.72226" lon="3.44859">
        <ele>467.4</ele>
        <time>2017-12-24T10:11:03Z</time>
      </trkpt>
      <trkpt lat="43.72223" lon="3.44863">
        <ele>467.4</ele>
        <time>2017-12-24T10:11:05Z</time>
      </trkpt>
      <trkpt lat="43.7222" lon="3.44865">
        <ele>467.5</ele>
        <time>2017-12-24T10:11:07Z</time>
      </trkpt>
      <trkpt lat="43.72217" lon="3.44866">
        <ele>467.6</ele>
        <time>2017-12-24T10:11:09Z</time>
      </trkpt>
      <trkpt lat="43.72213" lon="3.44868">
        <ele>467.8</ele>
        <time>2017-12-24T10:11:12Z</time>
      </trkpt>
      <trkpt lat="43.72211" lon="3.4487">
        <ele>467.8</ele>
        <time>2017-12-24T10:11:14Z</time>
      </trkpt>
      <trkpt lat="43.72207" lon="3.44872">
        <ele>467.9</ele>
        <time>2017-12-24T10:11:17Z</time>
      </trkpt>
      <trkpt lat="43.72205" lon="3.44874">
        <ele>468</ele>
        <time>2017-12-24T10:11:19Z</time>
      </trkpt>
      <trkpt lat="43.72202" lon="3.44874">
        <ele>468</ele>
        <time>2017-12-24T10:11:21Z</time>
      </trkpt>
      <trkpt lat="43.72199" lon="3.44873">
        <ele>468.1</ele>
        <time>2017-12-24T10:11:24Z</time>
      </trkpt>
      <trkpt lat="43.72195" lon="3.44874">
        <ele>468.2</ele>
        <time>2017-12-24T10:11:27Z</time>
      </trkpt>
      <trkpt lat="43.72193" lon="3.44879">
        <ele>468.3</ele>
        <time>2017-12-24T10:11:30Z</time>
      </trkpt>
      <trkpt lat="43.72194" lon="3.44884">
        <ele>468.3</ele>
        <time>2017-12-24T10:11:32Z</time>
      </trkpt>
      <trkpt lat="43.72195" lon="3.44888">
        <ele>468.4</ele>
        <time>2017-12-24T10:11:34Z</time>
      </trkpt>
      <trkpt lat="43.72197" lon="3.44892">
        <ele>468.3</ele>
        <time>2017-12-24T10:11:37Z</time>
      </trkpt>
      <trkpt lat="43.72199" lon="3.44905">
        <ele>467.9</ele>
        <time>2017-12-24T10:12:21Z</time>
      </trkpt>
      <trkpt lat="43.72199" lon="3.4491">
        <ele>468.2</ele>
        <time>2017-12-24T10:12:23Z</time>
      </trkpt>
      <trkpt lat="43.72199" lon="3.44915">
        <ele>468.1</ele>
        <time>2017-12-24T10:12:25Z</time>
      </trkpt>
      <trkpt lat="43.72199" lon="3.44921">
        <ele>467.8</ele>
        <time>2017-12-24T10:12:27Z</time>
      </trkpt>
      <trkpt lat="43.72201" lon="3.44926">
        <ele>467.9</ele>
        <time>2017-12-24T10:12:31Z</time>
      </trkpt>
      <trkpt lat="43.72204" lon="3.4493">
        <ele>467.6</ele>
        <time>2017-12-24T10:12:33Z</time>
      </trkpt>
      <trkpt lat="43.72207" lon="3.44932">
        <ele>467.4</ele>
        <time>2017-12-24T10:12:34Z</time>
      </trkpt>
      <trkpt lat="43.72211" lon="3.4493">
        <ele>467</ele>
        <time>2017-12-24T10:12:36Z</time>
      </trkpt>
      <trkpt lat="43.72215" lon="3.44928">
        <ele>466.8</ele>
        <time>2017-12-24T10:12:38Z</time>
      </trkpt>
      <trkpt lat="43.72219" lon="3.44928">
        <ele>466.6</ele>
        <time>2017-12-24T10:12:40Z</time>
      </trkpt>
      <trkpt lat="43.72223" lon="3.44931">
        <ele>466.3</ele>
        <time>2017-12-24T10:12:42Z</time>
      </trkpt>
      <trkpt lat="43.72227" lon="3.44934">
        <ele>465.2</ele>
        <time>2017-12-24T10:12:44Z</time>
      </trkpt>
      <trkpt lat="43.7223" lon="3.44938">
        <ele>464.7</ele>
        <time>2017-12-24T10:12:54Z</time>
      </trkpt>
      <trkpt lat="43.72236" lon="3.44941">
        <ele>464.2</ele>
        <time>2017-12-24T10:13:00Z</time>
      </trkpt>
      <trkpt lat="43.72241" lon="3.44942">
        <ele>463.4</ele>
        <time>2017-12-24T10:13:06Z</time>
      </trkpt>
      <trkpt lat="43.72244" lon="3.44943">
        <ele>463</ele>
        <time>2017-12-24T10:13:08Z</time>
      </trkpt>
      <trkpt lat="43.72247" lon="3.44943">
        <ele>462.5</ele>
        <time>2017-12-24T10:13:10Z</time>
      </trkpt>
      <trkpt lat="43.72251" lon="3.44939">
        <ele>462.3</ele>
        <time>2017-12-24T10:13:12Z</time>
      </trkpt>
      <trkpt lat="43.72254" lon="3.4494">
        <ele>461.8</ele>
        <time>2017-12-24T10:13:14Z</time>
      </trkpt>
      <trkpt lat="43.72258" lon="3.44944">
        <ele>460.4</ele>
        <time>2017-12-24T10:13:16Z</time>
      </trkpt>
      <trkpt lat="43.7226" lon="3.44947">
        <ele>460.2</ele>
        <time>2017-12-24T10:13:17Z</time>
      </trkpt>
      <trkpt lat="43.72263" lon="3.44948">
        <ele>459.7</ele>
        <time>2017-12-24T10:13:18Z</time>
      </trkpt>
      <trkpt lat="43.72267" lon="3.44948">
        <ele>458.6</ele>
        <time>2017-12-24T10:13:20Z</time>
      </trkpt>
      <trkpt lat="43.72271" lon="3.44948">
        <ele>458</ele>
        <time>2017-12-24T10:13:22Z</time>
      </trkpt>
      <trkpt lat="43.72274" lon="3.44953">
        <ele>457</ele>
        <time>2017-12-24T10:13:24Z</time>
      </trkpt>
      <trkpt lat="43.72277" lon="3.44958">
        <ele>455.4</ele>
        <time>2017-12-24T10:13:26Z</time>
      </trkpt>
      <trkpt lat="43.7228" lon="3.44966">
        <ele>454.2</ele>
        <time>2017-12-24T10:13:30Z</time>
      </trkpt>
      <trkpt lat="43.72281" lon="3.4497">
        <ele>453.8</ele>
        <time>2017-12-24T10:13:32Z</time>
      </trkpt>
      <trkpt lat="43.72281" lon="3.44976">
        <ele>452.6</ele>
        <time>2017-12-24T10:13:35Z</time>
      </trkpt>
      <trkpt lat="43.72281" lon="3.44981">
        <ele>452.3</ele>
        <time>2017-12-24T10:13:36Z</time>
      </trkpt>
      <trkpt lat="43.72283" lon="3.44987">
        <ele>451.1</ele>
        <time>2017-12-24T10:13:38Z</time>
      </trkpt>
      <trkpt lat="43.72285" lon="3.44992">
        <ele>450.4</ele>
        <time>2017-12-24T10:13:40Z</time>
      </trkpt>
      <trkpt lat="43.72285" lon="3.44999">
        <ele>450.2</ele>
        <time>2017-12-24T10:13:42Z</time>
      </trkpt>
      <trkpt lat="43.72284" lon="3.45004">
        <ele>450</ele>
        <time>2017-12-24T10:13:44Z</time>
      </trkpt>
      <trkpt lat="43.72283" lon="3.45008">
        <ele>449.8</ele>
        <time>2017-12-24T10:13:46Z</time>
      </trkpt>
      <trkpt lat="43.72285" lon="3.45017">
        <ele>449.3</ele>
        <time>2017-12-24T10:13:51Z</time>
      </trkpt>
      <trkpt lat="43.72286" lon="3.45021">
        <ele>448.2</ele>
        <time>2017-12-24T10:13:53Z</time>
      </trkpt>
      <trkpt lat="43.72288" lon="3.45025">
        <ele>448.1</ele>
        <time>2017-12-24T10:13:55Z</time>
      </trkpt>
      <trkpt lat="43.72291" lon="3.45029">
        <ele>447</ele>
        <time>2017-12-24T10:13:57Z</time>
      </trkpt>
      <trkpt lat="43.72295" lon="3.45031">
        <ele>445</ele>
        <time>2017-12-24T10:13:59Z</time>
      </trkpt>
      <trkpt lat="43.723" lon="3.45032">
        <ele>444.3</ele>
        <time>2017-12-24T10:14:02Z</time>
      </trkpt>
      <trkpt lat="43.72304" lon="3.45036">
        <ele>443.1</ele>
        <time>2017-12-24T10:14:07Z</time>
      </trkpt>
      <trkpt lat="43.72304" lon="3.4504">
        <ele>442</ele>
        <time>2017-12-24T10:14:10Z</time>
      </trkpt>
      <trkpt lat="43.72304" lon="3.45044">
        <ele>441.8</ele>
        <time>2017-12-24T10:14:15Z</time>
      </trkpt>
      <trkpt lat="43.72304" lon="3.45049">
        <ele>441.7</ele>
        <time>2017-12-24T10:14:19Z</time>
      </trkpt>
      <trkpt lat="43.72305" lon="3.45053">
        <ele>441.6</ele>
        <time>2017-12-24T10:14:23Z</time>
      </trkpt>
      <trkpt lat="43.72304" lon="3.45057">
        <ele>441.4</ele>
        <time>2017-12-24T10:14:27Z</time>
      </trkpt>
      <trkpt lat="43.72306" lon="3.45062">
        <ele>441.3</ele>
        <time>2017-12-24T10:14:30Z</time>
      </trkpt>
      <trkpt lat="43.72309" lon="3.45066">
        <ele>440.2</ele>
        <time>2017-12-24T10:14:32Z</time>
      </trkpt>
      <trkpt lat="43.72311" lon="3.45069">
        <ele>439.4</ele>
        <time>2017-12-24T10:14:34Z</time>
      </trkpt>
      <trkpt lat="43.72315" lon="3.45072">
        <ele>438.3</ele>
        <time>2017-12-24T10:14:36Z</time>
      </trkpt>
      <trkpt lat="43.72318" lon="3.45076">
        <ele>437.3</ele>
        <time>2017-12-24T10:14:38Z</time>
      </trkpt>
      <trkpt lat="43.72321" lon="3.45082">
        <ele>436.5</ele>
        <time>2017-12-24T10:14:40Z</time>
      </trkpt>
      <trkpt lat="43.72322" lon="3.45087">
        <ele>436.5</ele>
        <time>2017-12-24T10:14:42Z</time>
      </trkpt>
      <trkpt lat="43.72323" lon="3.45091">
        <ele>435.5</ele>
        <time>2017-12-24T10:14:45Z</time>
      </trkpt>
      <trkpt lat="43.72323" lon="3.45095">
        <ele>435.7</ele>
        <time>2017-12-24T10:14:49Z</time>
      </trkpt>
      <trkpt lat="43.72323" lon="3.45099">
        <ele>435.7</ele>
        <time>2017-12-24T10:14:52Z</time>
      </trkpt>
      <trkpt lat="43.72322" lon="3.45104">
        <ele>436.6</ele>
        <time>2017-12-24T10:14:55Z</time>
      </trkpt>
      <trkpt lat="43.72321" lon="3.45108">
        <ele>436.7</ele>
        <time>2017-12-24T10:14:57Z</time>
      </trkpt>
      <trkpt lat="43.72321" lon="3.45113">
        <ele>436.7</ele>
        <time>2017-12-24T10:15:05Z</time>
      </trkpt>
      <trkpt lat="43.72322" lon="3.45118">
        <ele>436.8</ele>
        <time>2017-12-24T10:15:08Z</time>
      </trkpt>
      <trkpt lat="43.72322" lon="3.45122">
        <ele>437</ele>
        <time>2017-12-24T10:15:10Z</time>
      </trkpt>
      <trkpt lat="43.72321" lon="3.45126">
        <ele>437.2</ele>
        <time>2017-12-24T10:15:18Z</time>
      </trkpt>
      <trkpt lat="43.72321" lon="3.45131">
        <ele>437.4</ele>
        <time>2017-12-24T10:15:22Z</time>
      </trkpt>
      <trkpt lat="43.72322" lon="3.45135">
        <ele>437.7</ele>
        <time>2017-12-24T10:15:26Z</time>
      </trkpt>
      <trkpt lat="43.72322" lon="3.45139">
        <ele>437.9</ele>
        <time>2017-12-24T10:15:30Z</time>
      </trkpt>
      <trkpt lat="43.72323" lon="3.45143">
        <ele>437.3</ele>
        <time>2017-12-24T10:15:32Z</time>
      </trkpt>
      <trkpt lat="43.72325" lon="3.45146">
        <ele>437.5</ele>
        <time>2017-12-24T10:15:35Z</time>
      </trkpt>
      <trkpt lat="43.72325" lon="3.45149">
        <ele>437.7</ele>
        <time>2017-12-24T10:15:38Z</time>
      </trkpt>
      <trkpt lat="43.72324" lon="3.45153">
        <ele>438</ele>
        <time>2017-12-24T10:15:40Z</time>
      </trkpt>
      <trkpt lat="43.72325" lon="3.45158">
        <ele>438.3</ele>
        <time>2017-12-24T10:15:44Z</time>
      </trkpt>
      <trkpt lat="43.72326" lon="3.45162">
        <ele>437.5</ele>
        <time>2017-12-24T10:15:47Z</time>
      </trkpt>
      <trkpt lat="43.72327" lon="3.45167">
        <ele>437.7</ele>
        <time>2017-12-24T10:15:52Z</time>
      </trkpt>
      <trkpt lat="43.72329" lon="3.45169">
        <ele>436.9</ele>
        <time>2017-12-24T10:15:55Z</time>
      </trkpt>
      <trkpt lat="43.72332" lon="3.45171">
        <ele>437.1</ele>
        <time>2017-12-24T10:15:57Z</time>
      </trkpt>
      <trkpt lat="43.72334" lon="3.45175">
        <ele>436.1</ele>
        <time>2017-12-24T10:15:58Z</time>
      </trkpt>
      <trkpt lat="43.72336" lon="3.45178">
        <ele>435.2</ele>
        <time>2017-12-24T10:15:59Z</time>
      </trkpt>
      <trkpt lat="43.72339" lon="3.45183">
        <ele>434.2</ele>
        <time>2017-12-24T10:16:00Z</time>
      </trkpt>
      <trkpt lat="43.72341" lon="3.45188">
        <ele>434.5</ele>
        <time>2017-12-24T10:16:01Z</time>
      </trkpt>
      <trkpt lat="43.72343" lon="3.45193">
        <ele>433.7</ele>
        <time>2017-12-24T10:16:02Z</time>
      </trkpt>
      <trkpt lat="43.72346" lon="3.45198">
        <ele>432.9</ele>
        <time>2017-12-24T10:16:03Z</time>
      </trkpt>
      <trkpt lat="43.72348" lon="3.45205">
        <ele>431.7</ele>
        <time>2017-12-24T10:16:04Z</time>
      </trkpt>
      <trkpt lat="43.7235" lon="3.45212">
        <ele>432.1</ele>
        <time>2017-12-24T10:16:05Z</time>
      </trkpt>
      <trkpt lat="43.72354" lon="3.4522">
        <ele>430</ele>
        <time>2017-12-24T10:16:06Z</time>
      </trkpt>
      <trkpt lat="43.72356" lon="3.45227">
        <ele>430.2</ele>
        <time>2017-12-24T10:16:07Z</time>
      </trkpt>
      <trkpt lat="43.72358" lon="3.45236">
        <ele>429</ele>
        <time>2017-12-24T10:16:08Z</time>
      </trkpt>
      <trkpt lat="43.7236" lon="3.45242">
        <ele>427.7</ele>
        <time>2017-12-24T10:16:09Z</time>
      </trkpt>
      <trkpt lat="43.72361" lon="3.45249">
        <ele>427.9</ele>
        <time>2017-12-24T10:16:10Z</time>
      </trkpt>
      <trkpt lat="43.72363" lon="3.4526">
        <ele>426.5</ele>
        <time>2017-12-24T10:16:11Z</time>
      </trkpt>
      <trkpt lat="43.72365" lon="3.45268">
        <ele>426.6</ele>
        <time>2017-12-24T10:16:12Z</time>
      </trkpt>
      <trkpt lat="43.72367" lon="3.45274">
        <ele>425.3</ele>
        <time>2017-12-24T10:16:13Z</time>
      </trkpt>
      <trkpt lat="43.72369" lon="3.4528">
        <ele>424.1</ele>
        <time>2017-12-24T10:16:14Z</time>
      </trkpt>
      <trkpt lat="43.72372" lon="3.45286">
        <ele>424.3</ele>
        <time>2017-12-24T10:16:15Z</time>
      </trkpt>
      <trkpt lat="43.72373" lon="3.45291">
        <ele>423.2</ele>
        <time>2017-12-24T10:16:16Z</time>
      </trkpt>
      <trkpt lat="43.72375" lon="3.45296">
        <ele>423.4</ele>
        <time>2017-12-24T10:16:17Z</time>
      </trkpt>
      <trkpt lat="43.72376" lon="3.453">
        <ele>422.3</ele>
        <time>2017-12-24T10:16:18Z</time>
      </trkpt>
      <trkpt lat="43.72377" lon="3.45304">
        <ele>422.5</ele>
        <time>2017-12-24T10:16:19Z</time>
      </trkpt>
      <trkpt lat="43.72378" lon="3.45308">
        <ele>422.7</ele>
        <time>2017-12-24T10:16:20Z</time>
      </trkpt>
      <trkpt lat="43.72379" lon="3.45313">
        <ele>421.6</ele>
        <time>2017-12-24T10:16:21Z</time>
      </trkpt>
      <trkpt lat="43.72381" lon="3.45318">
        <ele>421.8</ele>
        <time>2017-12-24T10:16:22Z</time>
      </trkpt>
      <trkpt lat="43.72383" lon="3.45324">
        <ele>420.6</ele>
        <time>2017-12-24T10:16:23Z</time>
      </trkpt>
      <trkpt lat="43.72385" lon="3.45331">
        <ele>420.9</ele>
        <time>2017-12-24T10:16:24Z</time>
      </trkpt>
      <trkpt lat="43.72387" lon="3.45337">
        <ele>419.7</ele>
        <time>2017-12-24T10:16:25Z</time>
      </trkpt>
      <trkpt lat="43.72392" lon="3.4535">
        <ele>417.2</ele>
        <time>2017-12-24T10:16:27Z</time>
      </trkpt>
      <trkpt lat="43.72394" lon="3.45358">
        <ele>417.3</ele>
        <time>2017-12-24T10:16:28Z</time>
      </trkpt>
      <trkpt lat="43.72395" lon="3.45366">
        <ele>416.1</ele>
        <time>2017-12-24T10:16:29Z</time>
      </trkpt>
      <trkpt lat="43.72395" lon="3.45376">
        <ele>416</ele>
        <time>2017-12-24T10:16:30Z</time>
      </trkpt>
      <trkpt lat="43.72394" lon="3.45384">
        <ele>416.1</ele>
        <time>2017-12-24T10:16:31Z</time>
      </trkpt>
      <trkpt lat="43.72394" lon="3.45392">
        <ele>416.1</ele>
        <time>2017-12-24T10:16:32Z</time>
      </trkpt>
      <trkpt lat="43.72396" lon="3.45401">
        <ele>416.3</ele>
        <time>2017-12-24T10:16:33Z</time>
      </trkpt>
      <trkpt lat="43.72398" lon="3.45404">
        <ele>415.2</ele>
        <time>2017-12-24T10:16:34Z</time>
      </trkpt>
      <trkpt lat="43.72401" lon="3.45408">
        <ele>414.2</ele>
        <time>2017-12-24T10:16:35Z</time>
      </trkpt>
      <trkpt lat="43.72404" lon="3.45416">
        <ele>413.2</ele>
        <time>2017-12-24T10:16:36Z</time>
      </trkpt>
      <trkpt lat="43.72407" lon="3.45421">
        <ele>412.2</ele>
        <time>2017-12-24T10:16:37Z</time>
      </trkpt>
      <trkpt lat="43.72409" lon="3.45426">
        <ele>412.4</ele>
        <time>2017-12-24T10:16:38Z</time>
      </trkpt>
      <trkpt lat="43.72411" lon="3.45433">
        <ele>411.3</ele>
        <time>2017-12-24T10:16:39Z</time>
      </trkpt>
      <trkpt lat="43.72412" lon="3.4544">
        <ele>411.4</ele>
        <time>2017-12-24T10:16:40Z</time>
      </trkpt>
      <trkpt lat="43.72413" lon="3.45447">
        <ele>410.2</ele>
        <time>2017-12-24T10:16:41Z</time>
      </trkpt>
      <trkpt lat="43.72416" lon="3.45453">
        <ele>410.2</ele>
        <time>2017-12-24T10:16:42Z</time>
      </trkpt>
      <trkpt lat="43.72419" lon="3.45462">
        <ele>407.4</ele>
        <time>2017-12-24T10:16:43Z</time>
      </trkpt>
      <trkpt lat="43.72421" lon="3.45468">
        <ele>407.4</ele>
        <time>2017-12-24T10:16:44Z</time>
      </trkpt>
      <trkpt lat="43.72424" lon="3.45473">
        <ele>405.8</ele>
        <time>2017-12-24T10:16:45Z</time>
      </trkpt>
      <trkpt lat="43.72426" lon="3.45479">
        <ele>404.6</ele>
        <time>2017-12-24T10:16:46Z</time>
      </trkpt>
      <trkpt lat="43.72429" lon="3.45483">
        <ele>403.3</ele>
        <time>2017-12-24T10:16:47Z</time>
      </trkpt>
      <trkpt lat="43.72433" lon="3.4549">
        <ele>402.1</ele>
        <time>2017-12-24T10:16:49Z</time>
      </trkpt>
      <trkpt lat="43.72435" lon="3.45493">
        <ele>400.8</ele>
        <time>2017-12-24T10:16:50Z</time>
      </trkpt>
      <trkpt lat="43.72438" lon="3.45498">
        <ele>399.5</ele>
        <time>2017-12-24T10:16:51Z</time>
      </trkpt>
      <trkpt lat="43.7244" lon="3.45502">
        <ele>399.4</ele>
        <time>2017-12-24T10:16:53Z</time>
      </trkpt>
      <trkpt lat="43.72444" lon="3.45501">
        <ele>398.1</ele>
        <time>2017-12-24T10:16:55Z</time>
      </trkpt>
      <trkpt lat="43.72446" lon="3.45497">
        <ele>397</ele>
        <time>2017-12-24T10:16:58Z</time>
      </trkpt>
      <trkpt lat="43.72449" lon="3.45493">
        <ele>395.9</ele>
        <time>2017-12-24T10:17:00Z</time>
      </trkpt>
      <trkpt lat="43.72453" lon="3.45492">
        <ele>394.6</ele>
        <time>2017-12-24T10:17:02Z</time>
      </trkpt>
      <trkpt lat="43.72456" lon="3.45489">
        <ele>393.6</ele>
        <time>2017-12-24T10:17:04Z</time>
      </trkpt>
      <trkpt lat="43.7246" lon="3.45486">
        <ele>391.5</ele>
        <time>2017-12-24T10:17:06Z</time>
      </trkpt>
      <trkpt lat="43.72463" lon="3.45485">
        <ele>390.4</ele>
        <time>2017-12-24T10:17:09Z</time>
      </trkpt>
      <trkpt lat="43.72465" lon="3.45488">
        <ele>390.4</ele>
        <time>2017-12-24T10:17:17Z</time>
      </trkpt>
      <trkpt lat="43.72467" lon="3.45489">
        <ele>389.2</ele>
        <time>2017-12-24T10:17:32Z</time>
      </trkpt>
      <trkpt lat="43.7247" lon="3.4549">
        <ele>388</ele>
        <time>2017-12-24T10:18:25Z</time>
      </trkpt>
      <trkpt lat="43.72467" lon="3.45488">
        <ele>389.6</ele>
        <time>2017-12-24T10:19:23Z</time>
      </trkpt>
      <trkpt lat="43.72467" lon="3.45493">
        <ele>389.6</ele>
        <time>2017-12-24T10:19:29Z</time>
      </trkpt>
      <trkpt lat="43.72467" lon="3.45497">
        <ele>389.6</ele>
        <time>2017-12-24T10:19:31Z</time>
      </trkpt>
      <trkpt lat="43.72468" lon="3.45502">
        <ele>389.5</ele>
        <time>2017-12-24T10:19:33Z</time>
      </trkpt>
      <trkpt lat="43.72468" lon="3.45507">
        <ele>389.3</ele>
        <time>2017-12-24T10:19:35Z</time>
      </trkpt>
      <trkpt lat="43.72469" lon="3.45512">
        <ele>387.9</ele>
        <time>2017-12-24T10:19:37Z</time>
      </trkpt>
      <trkpt lat="43.72469" lon="3.45516">
        <ele>387.9</ele>
        <time>2017-12-24T10:19:39Z</time>
      </trkpt>
      <trkpt lat="43.72468" lon="3.45521">
        <ele>389.2</ele>
        <time>2017-12-24T10:19:41Z</time>
      </trkpt>
      <trkpt lat="43.72468" lon="3.45528">
        <ele>389.2</ele>
        <time>2017-12-24T10:19:43Z</time>
      </trkpt>
      <trkpt lat="43.72467" lon="3.45534">
        <ele>388.8</ele>
        <time>2017-12-24T10:19:45Z</time>
      </trkpt>
      <trkpt lat="43.72467" lon="3.4554">
        <ele>388.7</ele>
        <time>2017-12-24T10:19:47Z</time>
      </trkpt>
      <trkpt lat="43.72467" lon="3.45547">
        <ele>388.2</ele>
        <time>2017-12-24T10:19:49Z</time>
      </trkpt>
      <trkpt lat="43.72464" lon="3.45554">
        <ele>389</ele>
        <time>2017-12-24T10:19:51Z</time>
      </trkpt>
      <trkpt lat="43.72462" lon="3.45558">
        <ele>389.7</ele>
        <time>2017-12-24T10:19:52Z</time>
      </trkpt>
      <trkpt lat="43.7246" lon="3.45562">
        <ele>389.4</ele>
        <time>2017-12-24T10:19:53Z</time>
      </trkpt>
      <trkpt lat="43.72459" lon="3.45566">
        <ele>390</ele>
        <time>2017-12-24T10:19:54Z</time>
      </trkpt>
      <trkpt lat="43.72456" lon="3.45572">
        <ele>390.1</ele>
        <time>2017-12-24T10:19:56Z</time>
      </trkpt>
      <trkpt lat="43.72455" lon="3.45576">
        <ele>389.7</ele>
        <time>2017-12-24T10:19:57Z</time>
      </trkpt>
      <trkpt lat="43.72454" lon="3.45579">
        <ele>389.9</ele>
        <time>2017-12-24T10:19:58Z</time>
      </trkpt>
      <trkpt lat="43.7245" lon="3.45584">
        <ele>389.9</ele>
        <time>2017-12-24T10:20:00Z</time>
      </trkpt>
      <trkpt lat="43.72449" lon="3.45588">
        <ele>391.2</ele>
        <time>2017-12-24T10:20:01Z</time>
      </trkpt>
      <trkpt lat="43.72447" lon="3.45592">
        <ele>390.8</ele>
        <time>2017-12-24T10:20:02Z</time>
      </trkpt>
      <trkpt lat="43.72444" lon="3.45597">
        <ele>390.9</ele>
        <time>2017-12-24T10:20:04Z</time>
      </trkpt>
      <trkpt lat="43.72441" lon="3.45602">
        <ele>391.6</ele>
        <time>2017-12-24T10:20:06Z</time>
      </trkpt>
      <trkpt lat="43.72437" lon="3.45607">
        <ele>393.1</ele>
        <time>2017-12-24T10:20:08Z</time>
      </trkpt>
      <trkpt lat="43.72433" lon="3.4561">
        <ele>394.2</ele>
        <time>2017-12-24T10:20:10Z</time>
      </trkpt>
      <trkpt lat="43.7243" lon="3.45614">
        <ele>394.7</ele>
        <time>2017-12-24T10:20:12Z</time>
      </trkpt>
      <trkpt lat="43.72427" lon="3.45618">
        <ele>395.3</ele>
        <time>2017-12-24T10:20:14Z</time>
      </trkpt>
      <trkpt lat="43.72422" lon="3.45623">
        <ele>397</ele>
        <time>2017-12-24T10:20:16Z</time>
      </trkpt>
      <trkpt lat="43.7242" lon="3.45626">
        <ele>396.6</ele>
        <time>2017-12-24T10:20:17Z</time>
      </trkpt>
      <trkpt lat="43.72416" lon="3.4563">
        <ele>397.3</ele>
        <time>2017-12-24T10:20:19Z</time>
      </trkpt>
      <trkpt lat="43.72413" lon="3.45634">
        <ele>397.9</ele>
        <time>2017-12-24T10:20:21Z</time>
      </trkpt>
      <trkpt lat="43.7241" lon="3.45637">
        <ele>398.4</ele>
        <time>2017-12-24T10:20:23Z</time>
      </trkpt>
      <trkpt lat="43.72407" lon="3.4564">
        <ele>398.9</ele>
        <time>2017-12-24T10:20:25Z</time>
      </trkpt>
      <trkpt lat="43.72404" lon="3.45643">
        <ele>400</ele>
        <time>2017-12-24T10:20:27Z</time>
      </trkpt>
      <trkpt lat="43.72402" lon="3.45646">
        <ele>400.3</ele>
        <time>2017-12-24T10:20:30Z</time>
      </trkpt>
      <trkpt lat="43.724" lon="3.4565">
        <ele>399.8</ele>
        <time>2017-12-24T10:20:35Z</time>
      </trkpt>
      <trkpt lat="43.72398" lon="3.45653">
        <ele>400.2</ele>
        <time>2017-12-24T10:20:39Z</time>
      </trkpt>
      <trkpt lat="43.72396" lon="3.45656">
        <ele>401.2</ele>
        <time>2017-12-24T10:20:47Z</time>
      </trkpt>
      <trkpt lat="43.72393" lon="3.45659">
        <ele>401.6</ele>
        <time>2017-12-24T10:21:13Z</time>
      </trkpt>
      <trkpt lat="43.72392" lon="3.45664">
        <ele>401.2</ele>
        <time>2017-12-24T10:21:18Z</time>
      </trkpt>
      <trkpt lat="43.72392" lon="3.45668">
        <ele>400.8</ele>
        <time>2017-12-24T10:21:22Z</time>
      </trkpt>
      <trkpt lat="43.72391" lon="3.45672">
        <ele>400.4</ele>
        <time>2017-12-24T10:21:24Z</time>
      </trkpt>
      <trkpt lat="43.7239" lon="3.45675">
        <ele>400.9</ele>
        <time>2017-12-24T10:21:26Z</time>
      </trkpt>
      <trkpt lat="43.72389" lon="3.45679">
        <ele>401.1</ele>
        <time>2017-12-24T10:21:28Z</time>
      </trkpt>
      <trkpt lat="43.72388" lon="3.45682">
        <ele>400.7</ele>
        <time>2017-12-24T10:21:31Z</time>
      </trkpt>
      <trkpt lat="43.72387" lon="3.45686">
        <ele>401.2</ele>
        <time>2017-12-24T10:21:34Z</time>
      </trkpt>
      <trkpt lat="43.72386" lon="3.45691">
        <ele>400.7</ele>
        <time>2017-12-24T10:21:38Z</time>
      </trkpt>
      <trkpt lat="43.72385" lon="3.45694">
        <ele>400.3</ele>
        <time>2017-12-24T10:21:41Z</time>
      </trkpt>
      <trkpt lat="43.72384" lon="3.45699">
        <ele>400.7</ele>
        <time>2017-12-24T10:21:57Z</time>
      </trkpt>
      <trkpt lat="43.72382" lon="3.45704">
        <ele>400.3</ele>
        <time>2017-12-24T10:21:59Z</time>
      </trkpt>
      <trkpt lat="43.72379" lon="3.45708">
        <ele>400.8</ele>
        <time>2017-12-24T10:22:01Z</time>
      </trkpt>
      <trkpt lat="43.72378" lon="3.45713">
        <ele>401.2</ele>
        <time>2017-12-24T10:22:03Z</time>
      </trkpt>
      <trkpt lat="43.72376" lon="3.45717">
        <ele>400.8</ele>
        <time>2017-12-24T10:22:05Z</time>
      </trkpt>
      <trkpt lat="43.72374" lon="3.4572">
        <ele>401.1</ele>
        <time>2017-12-24T10:22:07Z</time>
      </trkpt>
      <trkpt lat="43.72371" lon="3.45722">
        <ele>401.4</ele>
        <time>2017-12-24T10:22:09Z</time>
      </trkpt>
      <trkpt lat="43.72368" lon="3.45724">
        <ele>402.2</ele>
        <time>2017-12-24T10:22:10Z</time>
      </trkpt>
      <trkpt lat="43.72364" lon="3.45725">
        <ele>403.2</ele>
        <time>2017-12-24T10:22:12Z</time>
      </trkpt>
      <trkpt lat="43.72361" lon="3.45727">
        <ele>403.5</ele>
        <time>2017-12-24T10:22:14Z</time>
      </trkpt>
      <trkpt lat="43.72356" lon="3.45728">
        <ele>405.3</ele>
        <time>2017-12-24T10:22:16Z</time>
      </trkpt>
      <trkpt lat="43.72353" lon="3.45729">
        <ele>406.2</ele>
        <time>2017-12-24T10:22:17Z</time>
      </trkpt>
      <trkpt lat="43.72349" lon="3.45728">
        <ele>407.1</ele>
        <time>2017-12-24T10:22:19Z</time>
      </trkpt>
      <trkpt lat="43.72346" lon="3.45729">
        <ele>408.3</ele>
        <time>2017-12-24T10:22:21Z</time>
      </trkpt>
      <trkpt lat="43.7234" lon="3.45729">
        <ele>409.9</ele>
        <time>2017-12-24T10:22:23Z</time>
      </trkpt>
      <trkpt lat="43.72335" lon="3.45729">
        <ele>411.7</ele>
        <time>2017-12-24T10:22:25Z</time>
      </trkpt>
      <trkpt lat="43.72331" lon="3.4573">
        <ele>412.7</ele>
        <time>2017-12-24T10:22:27Z</time>
      </trkpt>
      <trkpt lat="43.72327" lon="3.45732">
        <ele>412.8</ele>
        <time>2017-12-24T10:22:29Z</time>
      </trkpt>
      <trkpt lat="43.72325" lon="3.45733">
        <ele>413.6</ele>
        <time>2017-12-24T10:22:30Z</time>
      </trkpt>
      <trkpt lat="43.7232" lon="3.45735">
        <ele>413.6</ele>
        <time>2017-12-24T10:22:32Z</time>
      </trkpt>
      <trkpt lat="43.72315" lon="3.45737">
        <ele>415.1</ele>
        <time>2017-12-24T10:22:34Z</time>
      </trkpt>
      <trkpt lat="43.72311" lon="3.4574">
        <ele>415.2</ele>
        <time>2017-12-24T10:22:36Z</time>
      </trkpt>
      <trkpt lat="43.72308" lon="3.45742">
        <ele>416.1</ele>
        <time>2017-12-24T10:22:37Z</time>
      </trkpt>
      <trkpt lat="43.72304" lon="3.45745">
        <ele>416.1</ele>
        <time>2017-12-24T10:22:39Z</time>
      </trkpt>
      <trkpt lat="43.72299" lon="3.45747">
        <ele>417.6</ele>
        <time>2017-12-24T10:22:41Z</time>
      </trkpt>
      <trkpt lat="43.72294" lon="3.45749">
        <ele>418.2</ele>
        <time>2017-12-24T10:22:43Z</time>
      </trkpt>
      <trkpt lat="43.72291" lon="3.45749">
        <ele>419</ele>
        <time>2017-12-24T10:22:44Z</time>
      </trkpt>
      <trkpt lat="43.72286" lon="3.45751">
        <ele>419.8</ele>
        <time>2017-12-24T10:22:46Z</time>
      </trkpt>
      <trkpt lat="43.72283" lon="3.45751">
        <ele>419.7</ele>
        <time>2017-12-24T10:22:47Z</time>
      </trkpt>
      <trkpt lat="43.7228" lon="3.45752">
        <ele>419.7</ele>
        <time>2017-12-24T10:22:48Z</time>
      </trkpt>
      <trkpt lat="43.72277" lon="3.45753">
        <ele>419.5</ele>
        <time>2017-12-24T10:22:49Z</time>
      </trkpt>
      <trkpt lat="43.72273" lon="3.45755">
        <ele>419.4</ele>
        <time>2017-12-24T10:22:51Z</time>
      </trkpt>
      <trkpt lat="43.72268" lon="3.45757">
        <ele>419.3</ele>
        <time>2017-12-24T10:22:53Z</time>
      </trkpt>
      <trkpt lat="43.72264" lon="3.45758">
        <ele>419.1</ele>
        <time>2017-12-24T10:22:55Z</time>
      </trkpt>
      <trkpt lat="43.7226" lon="3.45758">
        <ele>418.3</ele>
        <time>2017-12-24T10:22:56Z</time>
      </trkpt>
      <trkpt lat="43.72257" lon="3.45758">
        <ele>417.6</ele>
        <time>2017-12-24T10:22:57Z</time>
      </trkpt>
      <trkpt lat="43.72254" lon="3.45758">
        <ele>417.3</ele>
        <time>2017-12-24T10:22:58Z</time>
      </trkpt>
      <trkpt lat="43.72251" lon="3.45762">
        <ele>417</ele>
        <time>2017-12-24T10:23:00Z</time>
      </trkpt>
      <trkpt lat="43.72247" lon="3.45766">
        <ele>416.1</ele>
        <time>2017-12-24T10:23:02Z</time>
      </trkpt>
      <trkpt lat="43.72244" lon="3.4577">
        <ele>414.9</ele>
        <time>2017-12-24T10:23:04Z</time>
      </trkpt>
      <trkpt lat="43.72241" lon="3.45772">
        <ele>414.2</ele>
        <time>2017-12-24T10:23:05Z</time>
      </trkpt>
      <trkpt lat="43.72239" lon="3.45776">
        <ele>413.2</ele>
        <time>2017-12-24T10:23:07Z</time>
      </trkpt>
      <trkpt lat="43.72235" lon="3.45781">
        <ele>412</ele>
        <time>2017-12-24T10:23:09Z</time>
      </trkpt>
      <trkpt lat="43.72232" lon="3.45786">
        <ele>410.9</ele>
        <time>2017-12-24T10:23:11Z</time>
      </trkpt>
      <trkpt lat="43.72228" lon="3.4579">
        <ele>409.9</ele>
        <time>2017-12-24T10:23:13Z</time>
      </trkpt>
      <trkpt lat="43.72225" lon="3.45796">
        <ele>408.9</ele>
        <time>2017-12-24T10:23:15Z</time>
      </trkpt>
      <trkpt lat="43.72221" lon="3.45802">
        <ele>407.9</ele>
        <time>2017-12-24T10:23:17Z</time>
      </trkpt>
      <trkpt lat="43.7222" lon="3.45805">
        <ele>407.3</ele>
        <time>2017-12-24T10:23:18Z</time>
      </trkpt>
      <trkpt lat="43.72217" lon="3.45811">
        <ele>406</ele>
        <time>2017-12-24T10:23:20Z</time>
      </trkpt>
      <trkpt lat="43.72215" lon="3.45815">
        <ele>404.9</ele>
        <time>2017-12-24T10:23:21Z</time>
      </trkpt>
      <trkpt lat="43.72212" lon="3.45818">
        <ele>403.9</ele>
        <time>2017-12-24T10:23:22Z</time>
      </trkpt>
      <trkpt lat="43.7221" lon="3.45822">
        <ele>403.1</ele>
        <time>2017-12-24T10:23:23Z</time>
      </trkpt>
      <trkpt lat="43.72208" lon="3.45824">
        <ele>402.3</ele>
        <time>2017-12-24T10:23:24Z</time>
      </trkpt>
      <trkpt lat="43.72206" lon="3.45827">
        <ele>401.5</ele>
        <time>2017-12-24T10:23:25Z</time>
      </trkpt>
      <trkpt lat="43.72203" lon="3.45829">
        <ele>400.6</ele>
        <time>2017-12-24T10:23:26Z</time>
      </trkpt>
      <trkpt lat="43.722" lon="3.45832">
        <ele>400.2</ele>
        <time>2017-12-24T10:23:27Z</time>
      </trkpt>
      <trkpt lat="43.72197" lon="3.45834">
        <ele>400.3</ele>
        <time>2017-12-24T10:23:29Z</time>
      </trkpt>
      <trkpt lat="43.72193" lon="3.45838">
        <ele>400.1</ele>
        <time>2017-12-24T10:23:31Z</time>
      </trkpt>
      <trkpt lat="43.72188" lon="3.45841">
        <ele>399.2</ele>
        <time>2017-12-24T10:23:33Z</time>
      </trkpt>
      <trkpt lat="43.72184" lon="3.45845">
        <ele>398.7</ele>
        <time>2017-12-24T10:23:35Z</time>
      </trkpt>
      <trkpt lat="43.72182" lon="3.45848">
        <ele>398.5</ele>
        <time>2017-12-24T10:23:36Z</time>
      </trkpt>
      <trkpt lat="43.72178" lon="3.45851">
        <ele>398.2</ele>
        <time>2017-12-24T10:23:37Z</time>
      </trkpt>
      <trkpt lat="43.72175" lon="3.45853">
        <ele>397.9</ele>
        <time>2017-12-24T10:23:38Z</time>
      </trkpt>
      <trkpt lat="43.72172" lon="3.45856">
        <ele>397.6</ele>
        <time>2017-12-24T10:23:40Z</time>
      </trkpt>
      <trkpt lat="43.72169" lon="3.45859">
        <ele>397.5</ele>
        <time>2017-12-24T10:23:42Z</time>
      </trkpt>
      <trkpt lat="43.72167" lon="3.45861">
        <ele>397.4</ele>
        <time>2017-12-24T10:23:43Z</time>
      </trkpt>
      <trkpt lat="43.72164" lon="3.45863">
        <ele>397.4</ele>
        <time>2017-12-24T10:23:44Z</time>
      </trkpt>
      <trkpt lat="43.72162" lon="3.45865">
        <ele>397.3</ele>
        <time>2017-12-24T10:23:45Z</time>
      </trkpt>
      <trkpt lat="43.72159" lon="3.45867">
        <ele>397.3</ele>
        <time>2017-12-24T10:23:46Z</time>
      </trkpt>
      <trkpt lat="43.72156" lon="3.4587">
        <ele>396.5</ele>
        <time>2017-12-24T10:23:48Z</time>
      </trkpt>
      <trkpt lat="43.72152" lon="3.45873">
        <ele>395.7</ele>
        <time>2017-12-24T10:23:50Z</time>
      </trkpt>
      <trkpt lat="43.72148" lon="3.45876">
        <ele>395.2</ele>
        <time>2017-12-24T10:23:52Z</time>
      </trkpt>
      <trkpt lat="43.72144" lon="3.45879">
        <ele>396</ele>
        <time>2017-12-24T10:23:54Z</time>
      </trkpt>
      <trkpt lat="43.72139" lon="3.45881">
        <ele>396.8</ele>
        <time>2017-12-24T10:23:56Z</time>
      </trkpt>
      <trkpt lat="43.72135" lon="3.45882">
        <ele>396.8</ele>
        <time>2017-12-24T10:23:58Z</time>
      </trkpt>
      <trkpt lat="43.72132" lon="3.45884">
        <ele>396.8</ele>
        <time>2017-12-24T10:24:00Z</time>
      </trkpt>
      <trkpt lat="43.72128" lon="3.45885">
        <ele>397</ele>
        <time>2017-12-24T10:24:02Z</time>
      </trkpt>
      <trkpt lat="43.72124" lon="3.45886">
        <ele>397.2</ele>
        <time>2017-12-24T10:24:04Z</time>
      </trkpt>
      <trkpt lat="43.7212" lon="3.45888">
        <ele>397.1</ele>
        <time>2017-12-24T10:24:06Z</time>
      </trkpt>
      <trkpt lat="43.72116" lon="3.45891">
        <ele>397.2</ele>
        <time>2017-12-24T10:24:08Z</time>
      </trkpt>
      <trkpt lat="43.72114" lon="3.45892">
        <ele>397.4</ele>
        <time>2017-12-24T10:24:09Z</time>
      </trkpt>
      <trkpt lat="43.72109" lon="3.45894">
        <ele>397.7</ele>
        <time>2017-12-24T10:24:11Z</time>
      </trkpt>
      <trkpt lat="43.72105" lon="3.45897">
        <ele>397.7</ele>
        <time>2017-12-24T10:24:13Z</time>
      </trkpt>
      <trkpt lat="43.72102" lon="3.459">
        <ele>397.6</ele>
        <time>2017-12-24T10:24:15Z</time>
      </trkpt>
      <trkpt lat="43.72099" lon="3.45903">
        <ele>397.9</ele>
        <time>2017-12-24T10:24:17Z</time>
      </trkpt>
      <trkpt lat="43.72096" lon="3.45905">
        <ele>398.1</ele>
        <time>2017-12-24T10:24:19Z</time>
      </trkpt>
      <trkpt lat="43.72093" lon="3.45907">
        <ele>398.1</ele>
        <time>2017-12-24T10:24:21Z</time>
      </trkpt>
      <trkpt lat="43.7209" lon="3.45909">
        <ele>398.1</ele>
        <time>2017-12-24T10:24:23Z</time>
      </trkpt>
      <trkpt lat="43.72088" lon="3.45912">
        <ele>398.1</ele>
        <time>2017-12-24T10:24:25Z</time>
      </trkpt>
      <trkpt lat="43.72085" lon="3.45914">
        <ele>398.1</ele>
        <time>2017-12-24T10:24:27Z</time>
      </trkpt>
      <trkpt lat="43.72082" lon="3.45917">
        <ele>398</ele>
        <time>2017-12-24T10:24:29Z</time>
      </trkpt>
      <trkpt lat="43.7208" lon="3.4592">
        <ele>397.7</ele>
        <time>2017-12-24T10:24:31Z</time>
      </trkpt>
      <trkpt lat="43.72077" lon="3.45925">
        <ele>397.3</ele>
        <time>2017-12-24T10:24:33Z</time>
      </trkpt>
      <trkpt lat="43.72073" lon="3.4593">
        <ele>397.2</ele>
        <time>2017-12-24T10:24:35Z</time>
      </trkpt>
      <trkpt lat="43.7207" lon="3.45934">
        <ele>396.8</ele>
        <time>2017-12-24T10:24:37Z</time>
      </trkpt>
      <trkpt lat="43.72067" lon="3.45938">
        <ele>396.2</ele>
        <time>2017-12-24T10:24:39Z</time>
      </trkpt>
      <trkpt lat="43.72065" lon="3.45942">
        <ele>395.3</ele>
        <time>2017-12-24T10:24:41Z</time>
      </trkpt>
      <trkpt lat="43.72062" lon="3.45946">
        <ele>394.7</ele>
        <time>2017-12-24T10:24:43Z</time>
      </trkpt>
      <trkpt lat="43.72059" lon="3.45948">
        <ele>394.2</ele>
        <time>2017-12-24T10:24:45Z</time>
      </trkpt>
      <trkpt lat="43.72057" lon="3.45952">
        <ele>394</ele>
        <time>2017-12-24T10:24:48Z</time>
      </trkpt>
      <trkpt lat="43.72054" lon="3.45956">
        <ele>394</ele>
        <time>2017-12-24T10:24:51Z</time>
      </trkpt>
      <trkpt lat="43.72051" lon="3.45958">
        <ele>394.1</ele>
        <time>2017-12-24T10:24:53Z</time>
      </trkpt>
      <trkpt lat="43.72048" lon="3.4596">
        <ele>394.6</ele>
        <time>2017-12-24T10:24:55Z</time>
      </trkpt>
      <trkpt lat="43.72044" lon="3.45962">
        <ele>395.1</ele>
        <time>2017-12-24T10:24:57Z</time>
      </trkpt>
      <trkpt lat="43.7204" lon="3.45964">
        <ele>395.5</ele>
        <time>2017-12-24T10:24:59Z</time>
      </trkpt>
      <trkpt lat="43.72037" lon="3.45966">
        <ele>395.8</ele>
        <time>2017-12-24T10:25:01Z</time>
      </trkpt>
      <trkpt lat="43.72033" lon="3.45967">
        <ele>396</ele>
        <time>2017-12-24T10:25:03Z</time>
      </trkpt>
      <trkpt lat="43.72029" lon="3.45966">
        <ele>396.1</ele>
        <time>2017-12-24T10:25:05Z</time>
      </trkpt>
      <trkpt lat="43.72025" lon="3.45965">
        <ele>396.2</ele>
        <time>2017-12-24T10:25:07Z</time>
      </trkpt>
      <trkpt lat="43.72022" lon="3.45963">
        <ele>396.2</ele>
        <time>2017-12-24T10:25:09Z</time>
      </trkpt>
      <trkpt lat="43.7202" lon="3.45959">
        <ele>396.2</ele>
        <time>2017-12-24T10:25:11Z</time>
      </trkpt>
      <trkpt lat="43.72017" lon="3.45955">
        <ele>396.2</ele>
        <time>2017-12-24T10:25:13Z</time>
      </trkpt>
      <trkpt lat="43.72014" lon="3.45951">
        <ele>396.2</ele>
        <time>2017-12-24T10:25:15Z</time>
      </trkpt>
      <trkpt lat="43.72011" lon="3.45948">
        <ele>396.2</ele>
        <time>2017-12-24T10:25:17Z</time>
      </trkpt>
      <trkpt lat="43.72009" lon="3.45943">
        <ele>396.1</ele>
        <time>2017-12-24T10:25:19Z</time>
      </trkpt>
      <trkpt lat="43.72005" lon="3.45939">
        <ele>396.1</ele>
        <time>2017-12-24T10:25:21Z</time>
      </trkpt>
      <trkpt lat="43.72001" lon="3.45935">
        <ele>395.9</ele>
        <time>2017-12-24T10:25:23Z</time>
      </trkpt>
      <trkpt lat="43.71998" lon="3.45932">
        <ele>395.8</ele>
        <time>2017-12-24T10:25:25Z</time>
      </trkpt>
      <trkpt lat="43.71994" lon="3.45929">
        <ele>395.8</ele>
        <time>2017-12-24T10:25:27Z</time>
      </trkpt>
      <trkpt lat="43.7199" lon="3.45926">
        <ele>395.7</ele>
        <time>2017-12-24T10:25:29Z</time>
      </trkpt>
      <trkpt lat="43.71986" lon="3.45921">
        <ele>395.7</ele>
        <time>2017-12-24T10:25:31Z</time>
      </trkpt>
      <trkpt lat="43.71984" lon="3.45919">
        <ele>395.7</ele>
        <time>2017-12-24T10:25:32Z</time>
      </trkpt>
      <trkpt lat="43.71979" lon="3.45915">
        <ele>395.7</ele>
        <time>2017-12-24T10:25:34Z</time>
      </trkpt>
      <trkpt lat="43.71975" lon="3.45912">
        <ele>395.7</ele>
        <time>2017-12-24T10:25:36Z</time>
      </trkpt>
      <trkpt lat="43.71971" lon="3.45909">
        <ele>395.6</ele>
        <time>2017-12-24T10:25:37Z</time>
      </trkpt>
      <trkpt lat="43.71968" lon="3.45906">
        <ele>395.5</ele>
        <time>2017-12-24T10:25:38Z</time>
      </trkpt>
      <trkpt lat="43.71965" lon="3.45904">
        <ele>395.4</ele>
        <time>2017-12-24T10:25:39Z</time>
      </trkpt>
      <trkpt lat="43.71961" lon="3.459">
        <ele>395.3</ele>
        <time>2017-12-24T10:25:40Z</time>
      </trkpt>
      <trkpt lat="43.71959" lon="3.45897">
        <ele>395.3</ele>
        <time>2017-12-24T10:25:41Z</time>
      </trkpt>
      <trkpt lat="43.71956" lon="3.45894">
        <ele>395.2</ele>
        <time>2017-12-24T10:25:42Z</time>
      </trkpt>
      <trkpt lat="43.71953" lon="3.45891">
        <ele>395.1</ele>
        <time>2017-12-24T10:25:43Z</time>
      </trkpt>
      <trkpt lat="43.71949" lon="3.45888">
        <ele>395.1</ele>
        <time>2017-12-24T10:25:44Z</time>
      </trkpt>
      <trkpt lat="43.71945" lon="3.45885">
        <ele>395</ele>
        <time>2017-12-24T10:25:45Z</time>
      </trkpt>
      <trkpt lat="43.71942" lon="3.45882">
        <ele>394.9</ele>
        <time>2017-12-24T10:25:46Z</time>
      </trkpt>
      <trkpt lat="43.71938" lon="3.45879">
        <ele>394.8</ele>
        <time>2017-12-24T10:25:47Z</time>
      </trkpt>
      <trkpt lat="43.71935" lon="3.45876">
        <ele>394.7</ele>
        <time>2017-12-24T10:25:48Z</time>
      </trkpt>
      <trkpt lat="43.71931" lon="3.45876">
        <ele>394.6</ele>
        <time>2017-12-24T10:25:49Z</time>
      </trkpt>
      <trkpt lat="43.71927" lon="3.45876">
        <ele>394.6</ele>
        <time>2017-12-24T10:25:50Z</time>
      </trkpt>
      <trkpt lat="43.71922" lon="3.45877">
        <ele>394.6</ele>
        <time>2017-12-24T10:25:51Z</time>
      </trkpt>
      <trkpt lat="43.71917" lon="3.45879">
        <ele>394.6</ele>
        <time>2017-12-24T10:25:52Z</time>
      </trkpt>
      <trkpt lat="43.71913" lon="3.45882">
        <ele>394.7</ele>
        <time>2017-12-24T10:25:53Z</time>
      </trkpt>
      <trkpt lat="43.71909" lon="3.45885">
        <ele>394.7</ele>
        <time>2017-12-24T10:25:54Z</time>
      </trkpt>
      <trkpt lat="43.71905" lon="3.45889">
        <ele>394.8</ele>
        <time>2017-12-24T10:25:55Z</time>
      </trkpt>
      <trkpt lat="43.719" lon="3.45892">
        <ele>394.8</ele>
        <time>2017-12-24T10:25:56Z</time>
      </trkpt>
      <trkpt lat="43.71895" lon="3.45895">
        <ele>394.8</ele>
        <time>2017-12-24T10:25:57Z</time>
      </trkpt>
      <trkpt lat="43.7189" lon="3.45898">
        <ele>394.7</ele>
        <time>2017-12-24T10:25:58Z</time>
      </trkpt>
      <trkpt lat="43.71885" lon="3.459">
        <ele>394.6</ele>
        <time>2017-12-24T10:25:59Z</time>
      </trkpt>
      <trkpt lat="43.7188" lon="3.45902">
        <ele>394.4</ele>
        <time>2017-12-24T10:26:00Z</time>
      </trkpt>
      <trkpt lat="43.71875" lon="3.45904">
        <ele>394.3</ele>
        <time>2017-12-24T10:26:01Z</time>
      </trkpt>
      <trkpt lat="43.7187" lon="3.45908">
        <ele>394.1</ele>
        <time>2017-12-24T10:26:02Z</time>
      </trkpt>
      <trkpt lat="43.71865" lon="3.45914">
        <ele>393.8</ele>
        <time>2017-12-24T10:26:03Z</time>
      </trkpt>
      <trkpt lat="43.71861" lon="3.45919">
        <ele>393.4</ele>
        <time>2017-12-24T10:26:04Z</time>
      </trkpt>
      <trkpt lat="43.71856" lon="3.45924">
        <ele>393</ele>
        <time>2017-12-24T10:26:05Z</time>
      </trkpt>
      <trkpt lat="43.71851" lon="3.45929">
        <ele>392.8</ele>
        <time>2017-12-24T10:26:06Z</time>
      </trkpt>
      <trkpt lat="43.71846" lon="3.45933">
        <ele>392.7</ele>
        <time>2017-12-24T10:26:07Z</time>
      </trkpt>
      <trkpt lat="43.71842" lon="3.45937">
        <ele>392.5</ele>
        <time>2017-12-24T10:26:08Z</time>
      </trkpt>
      <trkpt lat="43.71837" lon="3.45939">
        <ele>392.2</ele>
        <time>2017-12-24T10:26:09Z</time>
      </trkpt>
      <trkpt lat="43.71831" lon="3.45942">
        <ele>391.8</ele>
        <time>2017-12-24T10:26:10Z</time>
      </trkpt>
      <trkpt lat="43.71825" lon="3.45944">
        <ele>391.5</ele>
        <time>2017-12-24T10:26:11Z</time>
      </trkpt>
      <trkpt lat="43.7182" lon="3.45946">
        <ele>391.2</ele>
        <time>2017-12-24T10:26:12Z</time>
      </trkpt>
      <trkpt lat="43.71814" lon="3.45948">
        <ele>391</ele>
        <time>2017-12-24T10:26:13Z</time>
      </trkpt>
      <trkpt lat="43.71809" lon="3.4595">
        <ele>391.1</ele>
        <time>2017-12-24T10:26:14Z</time>
      </trkpt>
      <trkpt lat="43.71804" lon="3.45951">
        <ele>391.3</ele>
        <time>2017-12-24T10:26:15Z</time>
      </trkpt>
      <trkpt lat="43.71799" lon="3.45951">
        <ele>391.5</ele>
        <time>2017-12-24T10:26:16Z</time>
      </trkpt>
      <trkpt lat="43.71794" lon="3.45951">
        <ele>391.6</ele>
        <time>2017-12-24T10:26:17Z</time>
      </trkpt>
      <trkpt lat="43.71789" lon="3.4595">
        <ele>391.6</ele>
        <time>2017-12-24T10:26:18Z</time>
      </trkpt>
      <trkpt lat="43.71784" lon="3.45951">
        <ele>391.3</ele>
        <time>2017-12-24T10:26:19Z</time>
      </trkpt>
      <trkpt lat="43.71779" lon="3.45953">
        <ele>390.7</ele>
        <time>2017-12-24T10:26:20Z</time>
      </trkpt>
      <trkpt lat="43.71775" lon="3.45956">
        <ele>390</ele>
        <time>2017-12-24T10:26:21Z</time>
      </trkpt>
      <trkpt lat="43.71771" lon="3.45961">
        <ele>389.3</ele>
        <time>2017-12-24T10:26:22Z</time>
      </trkpt>
      <trkpt lat="43.71767" lon="3.45968">
        <ele>388.7</ele>
        <time>2017-12-24T10:26:23Z</time>
      </trkpt>
      <trkpt lat="43.71764" lon="3.45976">
        <ele>388.4</ele>
        <time>2017-12-24T10:26:24Z</time>
      </trkpt>
      <trkpt lat="43.71761" lon="3.45983">
        <ele>388.3</ele>
        <time>2017-12-24T10:26:25Z</time>
      </trkpt>
      <trkpt lat="43.71758" lon="3.45989">
        <ele>388.2</ele>
        <time>2017-12-24T10:26:26Z</time>
      </trkpt>
      <trkpt lat="43.71754" lon="3.45996">
        <ele>388.4</ele>
        <time>2017-12-24T10:26:27Z</time>
      </trkpt>
      <trkpt lat="43.71751" lon="3.46002">
        <ele>388.7</ele>
        <time>2017-12-24T10:26:28Z</time>
      </trkpt>
      <trkpt lat="43.71747" lon="3.46006">
        <ele>389.1</ele>
        <time>2017-12-24T10:26:29Z</time>
      </trkpt>
      <trkpt lat="43.71742" lon="3.4601">
        <ele>389.4</ele>
        <time>2017-12-24T10:26:30Z</time>
      </trkpt>
      <trkpt lat="43.71738" lon="3.46015">
        <ele>389.5</ele>
        <time>2017-12-24T10:26:31Z</time>
      </trkpt>
      <trkpt lat="43.71734" lon="3.4602">
        <ele>389.4</ele>
        <time>2017-12-24T10:26:32Z</time>
      </trkpt>
      <trkpt lat="43.7173" lon="3.46025">
        <ele>389.1</ele>
        <time>2017-12-24T10:26:33Z</time>
      </trkpt>
      <trkpt lat="43.71726" lon="3.46031">
        <ele>388.8</ele>
        <time>2017-12-24T10:26:34Z</time>
      </trkpt>
      <trkpt lat="43.71722" lon="3.46037">
        <ele>388.5</ele>
        <time>2017-12-24T10:26:35Z</time>
      </trkpt>
      <trkpt lat="43.71718" lon="3.46044">
        <ele>388.3</ele>
        <time>2017-12-24T10:26:36Z</time>
      </trkpt>
      <trkpt lat="43.71715" lon="3.46051">
        <ele>388.1</ele>
        <time>2017-12-24T10:26:37Z</time>
      </trkpt>
      <trkpt lat="43.71713" lon="3.46059">
        <ele>387.9</ele>
        <time>2017-12-24T10:26:38Z</time>
      </trkpt>
      <trkpt lat="43.71711" lon="3.46066">
        <ele>387.7</ele>
        <time>2017-12-24T10:26:39Z</time>
      </trkpt>
      <trkpt lat="43.7171" lon="3.46074">
        <ele>387.6</ele>
        <time>2017-12-24T10:26:40Z</time>
      </trkpt>
      <trkpt lat="43.71709" lon="3.46082">
        <ele>387.6</ele>
        <time>2017-12-24T10:26:41Z</time>
      </trkpt>
      <trkpt lat="43.71707" lon="3.46089">
        <ele>387.8</ele>
        <time>2017-12-24T10:26:42Z</time>
      </trkpt>
      <trkpt lat="43.71704" lon="3.46097">
        <ele>388.2</ele>
        <time>2017-12-24T10:26:43Z</time>
      </trkpt>
      <trkpt lat="43.71701" lon="3.46105">
        <ele>388.6</ele>
        <time>2017-12-24T10:26:44Z</time>
      </trkpt>
      <trkpt lat="43.71699" lon="3.46112">
        <ele>389</ele>
        <time>2017-12-24T10:26:45Z</time>
      </trkpt>
      <trkpt lat="43.71696" lon="3.46118">
        <ele>389.3</ele>
        <time>2017-12-24T10:26:46Z</time>
      </trkpt>
      <trkpt lat="43.71693" lon="3.46123">
        <ele>389.4</ele>
        <time>2017-12-24T10:26:47Z</time>
      </trkpt>
      <trkpt lat="43.71689" lon="3.46129">
        <ele>389.3</ele>
        <time>2017-12-24T10:26:48Z</time>
      </trkpt>
      <trkpt lat="43.71686" lon="3.46134">
        <ele>389.1</ele>
        <time>2017-12-24T10:26:49Z</time>
      </trkpt>
      <trkpt lat="43.71682" lon="3.4614">
        <ele>388.9</ele>
        <time>2017-12-24T10:26:50Z</time>
      </trkpt>
      <trkpt lat="43.71678" lon="3.46145">
        <ele>388.7</ele>
        <time>2017-12-24T10:26:51Z</time>
      </trkpt>
      <trkpt lat="43.71676" lon="3.46151">
        <ele>388.7</ele>
        <time>2017-12-24T10:26:52Z</time>
      </trkpt>
      <trkpt lat="43.71673" lon="3.46158">
        <ele>388.7</ele>
        <time>2017-12-24T10:26:53Z</time>
      </trkpt>
      <trkpt lat="43.7167" lon="3.46165">
        <ele>388.6</ele>
        <time>2017-12-24T10:26:54Z</time>
      </trkpt>
      <trkpt lat="43.71666" lon="3.46172">
        <ele>388.6</ele>
        <time>2017-12-24T10:26:55Z</time>
      </trkpt>
      <trkpt lat="43.71663" lon="3.46178">
        <ele>388.6</ele>
        <time>2017-12-24T10:26:56Z</time>
      </trkpt>
      <trkpt lat="43.7166" lon="3.46184">
        <ele>388.7</ele>
        <time>2017-12-24T10:26:57Z</time>
      </trkpt>
      <trkpt lat="43.71658" lon="3.4619">
        <ele>389</ele>
        <time>2017-12-24T10:26:58Z</time>
      </trkpt>
      <trkpt lat="43.71655" lon="3.46198">
        <ele>389.3</ele>
        <time>2017-12-24T10:26:59Z</time>
      </trkpt>
      <trkpt lat="43.71654" lon="3.46205">
        <ele>389.6</ele>
        <time>2017-12-24T10:27:00Z</time>
      </trkpt>
      <trkpt lat="43.71652" lon="3.46212">
        <ele>389.9</ele>
        <time>2017-12-24T10:27:01Z</time>
      </trkpt>
      <trkpt lat="43.71652" lon="3.46219">
        <ele>390.1</ele>
        <time>2017-12-24T10:27:02Z</time>
      </trkpt>
      <trkpt lat="43.7165" lon="3.46226">
        <ele>390.4</ele>
        <time>2017-12-24T10:27:03Z</time>
      </trkpt>
      <trkpt lat="43.7165" lon="3.46235">
        <ele>390.8</ele>
        <time>2017-12-24T10:27:04Z</time>
      </trkpt>
      <trkpt lat="43.71649" lon="3.46244">
        <ele>391.2</ele>
        <time>2017-12-24T10:27:05Z</time>
      </trkpt>
      <trkpt lat="43.71647" lon="3.46252">
        <ele>391.5</ele>
        <time>2017-12-24T10:27:06Z</time>
      </trkpt>
      <trkpt lat="43.71645" lon="3.46259">
        <ele>391.6</ele>
        <time>2017-12-24T10:27:07Z</time>
      </trkpt>
      <trkpt lat="43.71643" lon="3.46266">
        <ele>391.8</ele>
        <time>2017-12-24T10:27:08Z</time>
      </trkpt>
      <trkpt lat="43.7164" lon="3.46273">
        <ele>391.9</ele>
        <time>2017-12-24T10:27:09Z</time>
      </trkpt>
      <trkpt lat="43.71638" lon="3.46281">
        <ele>392</ele>
        <time>2017-12-24T10:27:10Z</time>
      </trkpt>
      <trkpt lat="43.71636" lon="3.46288">
        <ele>391.9</ele>
        <time>2017-12-24T10:27:11Z</time>
      </trkpt>
      <trkpt lat="43.71633" lon="3.46296">
        <ele>391.8</ele>
        <time>2017-12-24T10:27:12Z</time>
      </trkpt>
      <trkpt lat="43.71629" lon="3.46303">
        <ele>391.7</ele>
        <time>2017-12-24T10:27:13Z</time>
      </trkpt>
      <trkpt lat="43.71625" lon="3.4631">
        <ele>391.7</ele>
        <time>2017-12-24T10:27:14Z</time>
      </trkpt>
      <trkpt lat="43.71621" lon="3.46317">
        <ele>391.9</ele>
        <time>2017-12-24T10:27:15Z</time>
      </trkpt>
      <trkpt lat="43.71617" lon="3.46324">
        <ele>392.2</ele>
        <time>2017-12-24T10:27:16Z</time>
      </trkpt>
      <trkpt lat="43.71614" lon="3.46331">
        <ele>392.4</ele>
        <time>2017-12-24T10:27:17Z</time>
      </trkpt>
      <trkpt lat="43.7161" lon="3.46339">
        <ele>392.6</ele>
        <time>2017-12-24T10:27:18Z</time>
      </trkpt>
      <trkpt lat="43.71607" lon="3.46346">
        <ele>392.6</ele>
        <time>2017-12-24T10:27:19Z</time>
      </trkpt>
      <trkpt lat="43.71604" lon="3.46353">
        <ele>392.7</ele>
        <time>2017-12-24T10:27:20Z</time>
      </trkpt>
      <trkpt lat="43.716" lon="3.4636">
        <ele>392.7</ele>
        <time>2017-12-24T10:27:21Z</time>
      </trkpt>
      <trkpt lat="43.71596" lon="3.46367">
        <ele>392.6</ele>
        <time>2017-12-24T10:27:22Z</time>
      </trkpt>
      <trkpt lat="43.71592" lon="3.46373">
        <ele>392.5</ele>
        <time>2017-12-24T10:27:23Z</time>
      </trkpt>
      <trkpt lat="43.71587" lon="3.46379">
        <ele>392.5</ele>
        <time>2017-12-24T10:27:24Z</time>
      </trkpt>
      <trkpt lat="43.71582" lon="3.46385">
        <ele>392.4</ele>
        <time>2017-12-24T10:27:25Z</time>
      </trkpt>
      <trkpt lat="43.71578" lon="3.4639">
        <ele>392.3</ele>
        <time>2017-12-24T10:27:26Z</time>
      </trkpt>
      <trkpt lat="43.71573" lon="3.46395">
        <ele>392.2</ele>
        <time>2017-12-24T10:27:27Z</time>
      </trkpt>
      <trkpt lat="43.71567" lon="3.46399">
        <ele>392.2</ele>
        <time>2017-12-24T10:27:28Z</time>
      </trkpt>
      <trkpt lat="43.71562" lon="3.46403">
        <ele>392.1</ele>
        <time>2017-12-24T10:27:29Z</time>
      </trkpt>
      <trkpt lat="43.71557" lon="3.46406">
        <ele>392</ele>
        <time>2017-12-24T10:27:30Z</time>
      </trkpt>
      <trkpt lat="43.71552" lon="3.4641">
        <ele>391.9</ele>
        <time>2017-12-24T10:27:31Z</time>
      </trkpt>
      <trkpt lat="43.71546" lon="3.46413">
        <ele>391.6</ele>
        <time>2017-12-24T10:27:32Z</time>
      </trkpt>
      <trkpt lat="43.71541" lon="3.46417">
        <ele>391.3</ele>
        <time>2017-12-24T10:27:33Z</time>
      </trkpt>
      <trkpt lat="43.71536" lon="3.46421">
        <ele>391</ele>
        <time>2017-12-24T10:27:34Z</time>
      </trkpt>
      <trkpt lat="43.71531" lon="3.46425">
        <ele>390.8</ele>
        <time>2017-12-24T10:27:35Z</time>
      </trkpt>
      <trkpt lat="43.71527" lon="3.46429">
        <ele>390.5</ele>
        <time>2017-12-24T10:27:36Z</time>
      </trkpt>
      <trkpt lat="43.71522" lon="3.46435">
        <ele>390.3</ele>
        <time>2017-12-24T10:27:37Z</time>
      </trkpt>
      <trkpt lat="43.71518" lon="3.4644">
        <ele>390.2</ele>
        <time>2017-12-24T10:27:38Z</time>
      </trkpt>
      <trkpt lat="43.71514" lon="3.46447">
        <ele>390.3</ele>
        <time>2017-12-24T10:27:39Z</time>
      </trkpt>
      <trkpt lat="43.7151" lon="3.46454">
        <ele>390.6</ele>
        <time>2017-12-24T10:27:40Z</time>
      </trkpt>
      <trkpt lat="43.71508" lon="3.46462">
        <ele>390.8</ele>
        <time>2017-12-24T10:27:41Z</time>
      </trkpt>
      <trkpt lat="43.71505" lon="3.4647">
        <ele>390.9</ele>
        <time>2017-12-24T10:27:42Z</time>
      </trkpt>
      <trkpt lat="43.71502" lon="3.46478">
        <ele>391</ele>
        <time>2017-12-24T10:27:43Z</time>
      </trkpt>
      <trkpt lat="43.71499" lon="3.46485">
        <ele>391.3</ele>
        <time>2017-12-24T10:27:44Z</time>
      </trkpt>
      <trkpt lat="43.71496" lon="3.46492">
        <ele>391.8</ele>
        <time>2017-12-24T10:27:45Z</time>
      </trkpt>
      <trkpt lat="43.71493" lon="3.465">
        <ele>392.3</ele>
        <time>2017-12-24T10:27:46Z</time>
      </trkpt>
      <trkpt lat="43.71489" lon="3.46506">
        <ele>392.9</ele>
        <time>2017-12-24T10:27:47Z</time>
      </trkpt>
      <trkpt lat="43.71485" lon="3.46513">
        <ele>393.4</ele>
        <time>2017-12-24T10:27:48Z</time>
      </trkpt>
      <trkpt lat="43.71481" lon="3.46518">
        <ele>393.9</ele>
        <time>2017-12-24T10:27:49Z</time>
      </trkpt>
      <trkpt lat="43.71477" lon="3.46523">
        <ele>394.1</ele>
        <time>2017-12-24T10:27:50Z</time>
      </trkpt>
      <trkpt lat="43.71472" lon="3.46526">
        <ele>394.1</ele>
        <time>2017-12-24T10:27:51Z</time>
      </trkpt>
      <trkpt lat="43.71468" lon="3.46529">
        <ele>393.8</ele>
        <time>2017-12-24T10:27:52Z</time>
      </trkpt>
      <trkpt lat="43.71462" lon="3.46531">
        <ele>393.3</ele>
        <time>2017-12-24T10:27:53Z</time>
      </trkpt>
      <trkpt lat="43.71457" lon="3.46532">
        <ele>392.6</ele>
        <time>2017-12-24T10:27:54Z</time>
      </trkpt>
      <trkpt lat="43.71452" lon="3.46533">
        <ele>392.2</ele>
        <time>2017-12-24T10:27:55Z</time>
      </trkpt>
      <trkpt lat="43.71446" lon="3.46535">
        <ele>391.8</ele>
        <time>2017-12-24T10:27:56Z</time>
      </trkpt>
      <trkpt lat="43.71439" lon="3.46536">
        <ele>391.8</ele>
        <time>2017-12-24T10:27:57Z</time>
      </trkpt>
      <trkpt lat="43.71433" lon="3.46538">
        <ele>392</ele>
        <time>2017-12-24T10:27:58Z</time>
      </trkpt>
      <trkpt lat="43.71427" lon="3.46539">
        <ele>392.1</ele>
        <time>2017-12-24T10:27:59Z</time>
      </trkpt>
      <trkpt lat="43.71421" lon="3.46541">
        <ele>392.3</ele>
        <time>2017-12-24T10:28:00Z</time>
      </trkpt>
      <trkpt lat="43.71414" lon="3.46543">
        <ele>392.3</ele>
        <time>2017-12-24T10:28:01Z</time>
      </trkpt>
      <trkpt lat="43.71408" lon="3.46544">
        <ele>392.2</ele>
        <time>2017-12-24T10:28:02Z</time>
      </trkpt>
      <trkpt lat="43.71402" lon="3.46546">
        <ele>391.8</ele>
        <time>2017-12-24T10:28:03Z</time>
      </trkpt>
      <trkpt lat="43.71396" lon="3.46548">
        <ele>391.2</ele>
        <time>2017-12-24T10:28:04Z</time>
      </trkpt>
      <trkpt lat="43.71389" lon="3.4655">
        <ele>390.7</ele>
        <time>2017-12-24T10:28:05Z</time>
      </trkpt>
      <trkpt lat="43.71384" lon="3.46552">
        <ele>390.5</ele>
        <time>2017-12-24T10:28:06Z</time>
      </trkpt>
      <trkpt lat="43.71378" lon="3.46553">
        <ele>390.6</ele>
        <time>2017-12-24T10:28:07Z</time>
      </trkpt>
      <trkpt lat="43.71372" lon="3.46554">
        <ele>390.8</ele>
        <time>2017-12-24T10:28:08Z</time>
      </trkpt>
      <trkpt lat="43.71366" lon="3.46556">
        <ele>390.8</ele>
        <time>2017-12-24T10:28:09Z</time>
      </trkpt>
      <trkpt lat="43.71359" lon="3.46556">
        <ele>390.5</ele>
        <time>2017-12-24T10:28:10Z</time>
      </trkpt>
      <trkpt lat="43.71353" lon="3.46556">
        <ele>390.2</ele>
        <time>2017-12-24T10:28:11Z</time>
      </trkpt>
      <trkpt lat="43.71347" lon="3.46555">
        <ele>390</ele>
        <time>2017-12-24T10:28:12Z</time>
      </trkpt>
      <trkpt lat="43.71341" lon="3.46554">
        <ele>389.9</ele>
        <time>2017-12-24T10:28:13Z</time>
      </trkpt>
      <trkpt lat="43.71335" lon="3.46553">
        <ele>389.9</ele>
        <time>2017-12-24T10:28:14Z</time>
      </trkpt>
      <trkpt lat="43.7133" lon="3.46552">
        <ele>389.9</ele>
        <time>2017-12-24T10:28:15Z</time>
      </trkpt>
      <trkpt lat="43.71324" lon="3.46552">
        <ele>389.9</ele>
        <time>2017-12-24T10:28:16Z</time>
      </trkpt>
      <trkpt lat="43.71318" lon="3.46551">
        <ele>390</ele>
        <time>2017-12-24T10:28:17Z</time>
      </trkpt>
      <trkpt lat="43.71312" lon="3.46552">
        <ele>390.1</ele>
        <time>2017-12-24T10:28:18Z</time>
      </trkpt>
      <trkpt lat="43.71306" lon="3.46552">
        <ele>390.3</ele>
        <time>2017-12-24T10:28:19Z</time>
      </trkpt>
      <trkpt lat="43.71301" lon="3.46554">
        <ele>390.3</ele>
        <time>2017-12-24T10:28:20Z</time>
      </trkpt>
      <trkpt lat="43.71295" lon="3.46555">
        <ele>390.4</ele>
        <time>2017-12-24T10:28:21Z</time>
      </trkpt>
      <trkpt lat="43.71289" lon="3.46556">
        <ele>390.4</ele>
        <time>2017-12-24T10:28:22Z</time>
      </trkpt>
      <trkpt lat="43.71284" lon="3.46557">
        <ele>390.3</ele>
        <time>2017-12-24T10:28:23Z</time>
      </trkpt>
      <trkpt lat="43.71279" lon="3.46559">
        <ele>390</ele>
        <time>2017-12-24T10:28:24Z</time>
      </trkpt>
      <trkpt lat="43.71273" lon="3.4656">
        <ele>389.7</ele>
        <time>2017-12-24T10:28:25Z</time>
      </trkpt>
      <trkpt lat="43.71268" lon="3.46561">
        <ele>389.4</ele>
        <time>2017-12-24T10:28:26Z</time>
      </trkpt>
      <trkpt lat="43.71264" lon="3.46563">
        <ele>389.2</ele>
        <time>2017-12-24T10:28:27Z</time>
      </trkpt>
      <trkpt lat="43.71261" lon="3.46564">
        <ele>389</ele>
        <time>2017-12-24T10:28:28Z</time>
      </trkpt>
      <trkpt lat="43.71257" lon="3.46566">
        <ele>389</ele>
        <time>2017-12-24T10:28:30Z</time>
      </trkpt>
      <trkpt lat="43.71253" lon="3.46566">
        <ele>389</ele>
        <time>2017-12-24T10:28:32Z</time>
      </trkpt>
      <trkpt lat="43.71249" lon="3.46561">
        <ele>389</ele>
        <time>2017-12-24T10:29:02Z</time>
      </trkpt>
      <trkpt lat="43.7125" lon="3.46557">
        <ele>371</ele>
        <time>2017-12-24T10:29:05Z</time>
      </trkpt>
      <trkpt lat="43.71248" lon="3.46553">
        <ele>371.4</ele>
        <time>2017-12-24T10:29:10Z</time>
      </trkpt>
      <trkpt lat="43.71248" lon="3.46549">
        <ele>372</ele>
        <time>2017-12-24T10:29:13Z</time>
      </trkpt>
      <trkpt lat="43.71247" lon="3.46544">
        <ele>372.6</ele>
        <time>2017-12-24T10:29:16Z</time>
      </trkpt>
      <trkpt lat="43.71245" lon="3.4654">
        <ele>373.4</ele>
        <time>2017-12-24T10:29:19Z</time>
      </trkpt>
      <trkpt lat="43.71242" lon="3.46537">
        <ele>374.2</ele>
        <time>2017-12-24T10:29:22Z</time>
      </trkpt>
      <trkpt lat="43.7124" lon="3.46535">
        <ele>374.7</ele>
        <time>2017-12-24T10:29:24Z</time>
      </trkpt>
      <trkpt lat="43.71237" lon="3.46532">
        <ele>375</ele>
        <time>2017-12-24T10:29:27Z</time>
      </trkpt>
      <trkpt lat="43.71235" lon="3.46529">
        <ele>375.2</ele>
        <time>2017-12-24T10:29:29Z</time>
      </trkpt>
      <trkpt lat="43.71232" lon="3.46527">
        <ele>375.5</ele>
        <time>2017-12-24T10:29:31Z</time>
      </trkpt>
      <trkpt lat="43.7123" lon="3.46524">
        <ele>375.8</ele>
        <time>2017-12-24T10:29:33Z</time>
      </trkpt>
      <trkpt lat="43.71228" lon="3.46521">
        <ele>376.3</ele>
        <time>2017-12-24T10:29:35Z</time>
      </trkpt>
      <trkpt lat="43.71225" lon="3.46516">
        <ele>376.8</ele>
        <time>2017-12-24T10:29:40Z</time>
      </trkpt>
      <trkpt lat="43.71223" lon="3.46512">
        <ele>377</ele>
        <time>2017-12-24T10:29:43Z</time>
      </trkpt>
      <trkpt lat="43.71221" lon="3.46508">
        <ele>377.3</ele>
        <time>2017-12-24T10:29:46Z</time>
      </trkpt>
      <trkpt lat="43.71219" lon="3.46505">
        <ele>377.7</ele>
        <time>2017-12-24T10:29:49Z</time>
      </trkpt>
      <trkpt lat="43.71216" lon="3.46502">
        <ele>378.5</ele>
        <time>2017-12-24T10:29:53Z</time>
      </trkpt>
      <trkpt lat="43.71213" lon="3.46497">
        <ele>379.4</ele>
        <time>2017-12-24T10:29:55Z</time>
      </trkpt>
      <trkpt lat="43.71211" lon="3.46494">
        <ele>380.1</ele>
        <time>2017-12-24T10:29:58Z</time>
      </trkpt>
      <trkpt lat="43.71215" lon="3.46477">
        <ele>384.2</ele>
        <time>2017-12-24T10:30:29Z</time>
      </trkpt>
      <trkpt lat="43.71213" lon="3.46469">
        <ele>385.6</ele>
        <time>2017-12-24T10:30:37Z</time>
      </trkpt>
      <trkpt lat="43.71215" lon="3.46475">
        <ele>384.9</ele>
        <time>2017-12-24T10:31:39Z</time>
      </trkpt>
      <trkpt lat="43.71216" lon="3.46479">
        <ele>384.3</ele>
        <time>2017-12-24T10:31:40Z</time>
      </trkpt>
      <trkpt lat="43.71217" lon="3.46483">
        <ele>383.5</ele>
        <time>2017-12-24T10:31:41Z</time>
      </trkpt>
      <trkpt lat="43.71215" lon="3.46486">
        <ele>382.8</ele>
        <time>2017-12-24T10:31:42Z</time>
      </trkpt>
      <trkpt lat="43.71212" lon="3.46488">
        <ele>381.8</ele>
        <time>2017-12-24T10:31:43Z</time>
      </trkpt>
      <trkpt lat="43.7121" lon="3.46492">
        <ele>380.9</ele>
        <time>2017-12-24T10:31:44Z</time>
      </trkpt>
      <trkpt lat="43.71212" lon="3.46497">
        <ele>380.1</ele>
        <time>2017-12-24T10:31:45Z</time>
      </trkpt>
      <trkpt lat="43.71216" lon="3.46502">
        <ele>379.2</ele>
        <time>2017-12-24T10:31:46Z</time>
      </trkpt>
      <trkpt lat="43.7122" lon="3.46506">
        <ele>378.3</ele>
        <time>2017-12-24T10:31:47Z</time>
      </trkpt>
      <trkpt lat="43.71223" lon="3.46514">
        <ele>377.5</ele>
        <time>2017-12-24T10:31:48Z</time>
      </trkpt>
      <trkpt lat="43.71227" lon="3.46521">
        <ele>377</ele>
        <time>2017-12-24T10:31:49Z</time>
      </trkpt>
      <trkpt lat="43.71233" lon="3.46527">
        <ele>376.7</ele>
        <time>2017-12-24T10:31:50Z</time>
      </trkpt>
      <trkpt lat="43.71238" lon="3.46531">
        <ele>376</ele>
        <time>2017-12-24T10:31:51Z</time>
      </trkpt>
      <trkpt lat="43.71243" lon="3.46536">
        <ele>375.4</ele>
        <time>2017-12-24T10:31:52Z</time>
      </trkpt>
      <trkpt lat="43.71248" lon="3.46541">
        <ele>375</ele>
        <time>2017-12-24T10:31:53Z</time>
      </trkpt>
      <trkpt lat="43.7125" lon="3.46548">
        <ele>374.8</ele>
        <time>2017-12-24T10:31:54Z</time>
      </trkpt>
      <trkpt lat="43.71253" lon="3.46557">
        <ele>373.8</ele>
        <time>2017-12-24T10:31:55Z</time>
      </trkpt>
      <trkpt lat="43.71255" lon="3.46568">
        <ele>372.5</ele>
        <time>2017-12-24T10:31:56Z</time>
      </trkpt>
      <trkpt lat="43.71257" lon="3.46579">
        <ele>371.3</ele>
        <time>2017-12-24T10:31:57Z</time>
      </trkpt>
      <trkpt lat="43.71259" lon="3.46589">
        <ele>371</ele>
        <time>2017-12-24T10:31:58Z</time>
      </trkpt>
      <trkpt lat="43.71261" lon="3.46601">
        <ele>368</ele>
        <time>2017-12-24T10:31:59Z</time>
      </trkpt>
      <trkpt lat="43.71261" lon="3.46612">
        <ele>364.7</ele>
        <time>2017-12-24T10:32:00Z</time>
      </trkpt>
      <trkpt lat="43.71259" lon="3.46622">
        <ele>362</ele>
        <time>2017-12-24T10:32:01Z</time>
      </trkpt>
      <trkpt lat="43.71255" lon="3.46629">
        <ele>362</ele>
        <time>2017-12-24T10:32:02Z</time>
      </trkpt>
      <trkpt lat="43.71252" lon="3.46634">
        <ele>362</ele>
        <time>2017-12-24T10:32:03Z</time>
      </trkpt>
      <trkpt lat="43.71249" lon="3.46635">
        <ele>362</ele>
        <time>2017-12-24T10:32:04Z</time>
      </trkpt>
      <trkpt lat="43.71245" lon="3.46634">
        <ele>362.2</ele>
        <time>2017-12-24T10:32:06Z</time>
      </trkpt>
      <trkpt lat="43.71242" lon="3.46631">
        <ele>363.2</ele>
        <time>2017-12-24T10:32:08Z</time>
      </trkpt>
      <trkpt lat="43.71239" lon="3.46629">
        <ele>364.1</ele>
        <time>2017-12-24T10:32:10Z</time>
      </trkpt>
      <trkpt lat="43.71236" lon="3.46625">
        <ele>365.3</ele>
        <time>2017-12-24T10:32:13Z</time>
      </trkpt>
      <trkpt lat="43.71237" lon="3.46621">
        <ele>366.4</ele>
        <time>2017-12-24T10:32:15Z</time>
      </trkpt>
      <trkpt lat="43.7124" lon="3.46621">
        <ele>366.5</ele>
        <time>2017-12-24T10:32:17Z</time>
      </trkpt>
      <trkpt lat="43.71242" lon="3.46624">
        <ele>364.9</ele>
        <time>2017-12-24T10:32:19Z</time>
      </trkpt>
      <trkpt lat="43.71244" lon="3.46628">
        <ele>363.6</ele>
        <time>2017-12-24T10:32:21Z</time>
      </trkpt>
      <trkpt lat="43.71245" lon="3.46632">
        <ele>362.2</ele>
        <time>2017-12-24T10:32:23Z</time>
      </trkpt>
      <trkpt lat="43.71247" lon="3.46638">
        <ele>362</ele>
        <time>2017-12-24T10:32:25Z</time>
      </trkpt>
      <trkpt lat="43.71247" lon="3.46643">
        <ele>362</ele>
        <time>2017-12-24T10:32:27Z</time>
      </trkpt>
      <trkpt lat="43.71245" lon="3.46648">
        <ele>362.1</ele>
        <time>2017-12-24T10:32:29Z</time>
      </trkpt>
      <trkpt lat="43.71242" lon="3.4665">
        <ele>362.1</ele>
        <time>2017-12-24T10:32:31Z</time>
      </trkpt>
      <trkpt lat="43.71238" lon="3.46651">
        <ele>362.2</ele>
        <time>2017-12-24T10:32:33Z</time>
      </trkpt>
      <trkpt lat="43.71232" lon="3.46651">
        <ele>362.3</ele>
        <time>2017-12-24T10:32:35Z</time>
      </trkpt>
      <trkpt lat="43.71228" lon="3.46652">
        <ele>362.5</ele>
        <time>2017-12-24T10:32:37Z</time>
      </trkpt>
      <trkpt lat="43.71223" lon="3.46655">
        <ele>362.6</ele>
        <time>2017-12-24T10:32:39Z</time>
      </trkpt>
      <trkpt lat="43.7122" lon="3.46659">
        <ele>362.7</ele>
        <time>2017-12-24T10:32:41Z</time>
      </trkpt>
      <trkpt lat="43.71217" lon="3.46662">
        <ele>362.8</ele>
        <time>2017-12-24T10:32:43Z</time>
      </trkpt>
      <trkpt lat="43.71215" lon="3.46665">
        <ele>362.8</ele>
        <time>2017-12-24T10:32:45Z</time>
      </trkpt>
      <trkpt lat="43.71213" lon="3.46668">
        <ele>362.9</ele>
        <time>2017-12-24T10:32:47Z</time>
      </trkpt>
      <trkpt lat="43.71211" lon="3.46681">
        <ele>362.9</ele>
        <time>2017-12-24T10:33:30Z</time>
      </trkpt>
      <trkpt lat="43.71204" lon="3.46681">
        <ele>362.5</ele>
        <time>2017-12-24T10:33:32Z</time>
      </trkpt>
      <trkpt lat="43.71199" lon="3.46682">
        <ele>362.2</ele>
        <time>2017-12-24T10:33:33Z</time>
      </trkpt>
      <trkpt lat="43.71193" lon="3.46684">
        <ele>361.3</ele>
        <time>2017-12-24T10:33:34Z</time>
      </trkpt>
      <trkpt lat="43.71185" lon="3.46686">
        <ele>359.8</ele>
        <time>2017-12-24T10:33:35Z</time>
      </trkpt>
      <trkpt lat="43.71178" lon="3.46688">
        <ele>358.9</ele>
        <time>2017-12-24T10:33:36Z</time>
      </trkpt>
      <trkpt lat="43.71172" lon="3.46691">
        <ele>358.2</ele>
        <time>2017-12-24T10:33:37Z</time>
      </trkpt>
      <trkpt lat="43.71166" lon="3.46696">
        <ele>357.4</ele>
        <time>2017-12-24T10:33:38Z</time>
      </trkpt>
      <trkpt lat="43.71161" lon="3.46702">
        <ele>356.8</ele>
        <time>2017-12-24T10:33:39Z</time>
      </trkpt>
      <trkpt lat="43.71155" lon="3.46709">
        <ele>356.2</ele>
        <time>2017-12-24T10:33:40Z</time>
      </trkpt>
      <trkpt lat="43.71148" lon="3.46714">
        <ele>355.5</ele>
        <time>2017-12-24T10:33:41Z</time>
      </trkpt>
      <trkpt lat="43.71141" lon="3.46721">
        <ele>354.5</ele>
        <time>2017-12-24T10:33:42Z</time>
      </trkpt>
      <trkpt lat="43.71136" lon="3.46728">
        <ele>353.3</ele>
        <time>2017-12-24T10:33:43Z</time>
      </trkpt>
      <trkpt lat="43.71131" lon="3.46732">
        <ele>352.3</ele>
        <time>2017-12-24T10:33:44Z</time>
      </trkpt>
      <trkpt lat="43.71125" lon="3.46735">
        <ele>351.5</ele>
        <time>2017-12-24T10:33:45Z</time>
      </trkpt>
      <trkpt lat="43.7112" lon="3.46732">
        <ele>350.6</ele>
        <time>2017-12-24T10:33:46Z</time>
      </trkpt>
      <trkpt lat="43.71115" lon="3.46727">
        <ele>349.1</ele>
        <time>2017-12-24T10:33:47Z</time>
      </trkpt>
      <trkpt lat="43.7111" lon="3.46724">
        <ele>347.9</ele>
        <time>2017-12-24T10:33:48Z</time>
      </trkpt>
      <trkpt lat="43.71103" lon="3.46726">
        <ele>346.8</ele>
        <time>2017-12-24T10:33:49Z</time>
      </trkpt>
      <trkpt lat="43.71097" lon="3.46731">
        <ele>345.9</ele>
        <time>2017-12-24T10:33:50Z</time>
      </trkpt>
      <trkpt lat="43.71093" lon="3.4674">
        <ele>344.9</ele>
        <time>2017-12-24T10:33:51Z</time>
      </trkpt>
      <trkpt lat="43.71089" lon="3.46749">
        <ele>343.3</ele>
        <time>2017-12-24T10:33:52Z</time>
      </trkpt>
      <trkpt lat="43.71085" lon="3.46755">
        <ele>342.2</ele>
        <time>2017-12-24T10:33:53Z</time>
      </trkpt>
      <trkpt lat="43.71078" lon="3.46759">
        <ele>341</ele>
        <time>2017-12-24T10:33:54Z</time>
      </trkpt>
      <trkpt lat="43.71071" lon="3.46762">
        <ele>339.8</ele>
        <time>2017-12-24T10:33:55Z</time>
      </trkpt>
      <trkpt lat="43.71066" lon="3.46768">
        <ele>338.5</ele>
        <time>2017-12-24T10:33:56Z</time>
      </trkpt>
      <trkpt lat="43.71061" lon="3.46772">
        <ele>337.5</ele>
        <time>2017-12-24T10:33:57Z</time>
      </trkpt>
      <trkpt lat="43.71053" lon="3.46775">
        <ele>336.1</ele>
        <time>2017-12-24T10:33:58Z</time>
      </trkpt>
      <trkpt lat="43.71045" lon="3.46779">
        <ele>334.6</ele>
        <time>2017-12-24T10:33:59Z</time>
      </trkpt>
      <trkpt lat="43.71037" lon="3.46785">
        <ele>333.5</ele>
        <time>2017-12-24T10:34:00Z</time>
      </trkpt>
      <trkpt lat="43.71033" lon="3.46793">
        <ele>332.5</ele>
        <time>2017-12-24T10:34:01Z</time>
      </trkpt>
      <trkpt lat="43.7103" lon="3.46802">
        <ele>331.5</ele>
        <time>2017-12-24T10:34:02Z</time>
      </trkpt>
      <trkpt lat="43.71028" lon="3.46809">
        <ele>330.7</ele>
        <time>2017-12-24T10:34:03Z</time>
      </trkpt>
      <trkpt lat="43.71024" lon="3.46814">
        <ele>330.1</ele>
        <time>2017-12-24T10:34:04Z</time>
      </trkpt>
      <trkpt lat="43.7102" lon="3.4682">
        <ele>329.7</ele>
        <time>2017-12-24T10:34:05Z</time>
      </trkpt>
      <trkpt lat="43.71016" lon="3.46827">
        <ele>329.1</ele>
        <time>2017-12-24T10:34:06Z</time>
      </trkpt>
      <trkpt lat="43.71011" lon="3.46834">
        <ele>328.5</ele>
        <time>2017-12-24T10:34:07Z</time>
      </trkpt>
      <trkpt lat="43.71006" lon="3.46842">
        <ele>327.8</ele>
        <time>2017-12-24T10:34:08Z</time>
      </trkpt>
      <trkpt lat="43.71" lon="3.46849">
        <ele>327.1</ele>
        <time>2017-12-24T10:34:09Z</time>
      </trkpt>
      <trkpt lat="43.70993" lon="3.46858">
        <ele>326.3</ele>
        <time>2017-12-24T10:34:10Z</time>
      </trkpt>
      <trkpt lat="43.70988" lon="3.46866">
        <ele>325.4</ele>
        <time>2017-12-24T10:34:11Z</time>
      </trkpt>
      <trkpt lat="43.70982" lon="3.46873">
        <ele>324.5</ele>
        <time>2017-12-24T10:34:12Z</time>
      </trkpt>
      <trkpt lat="43.70977" lon="3.46879">
        <ele>323.7</ele>
        <time>2017-12-24T10:34:13Z</time>
      </trkpt>
      <trkpt lat="43.70972" lon="3.46883">
        <ele>323.3</ele>
        <time>2017-12-24T10:34:14Z</time>
      </trkpt>
      <trkpt lat="43.70968" lon="3.46888">
        <ele>322.9</ele>
        <time>2017-12-24T10:34:15Z</time>
      </trkpt>
      <trkpt lat="43.70965" lon="3.46893">
        <ele>322.2</ele>
        <time>2017-12-24T10:34:16Z</time>
      </trkpt>
      <trkpt lat="43.7096" lon="3.46892">
        <ele>321.6</ele>
        <time>2017-12-24T10:34:17Z</time>
      </trkpt>
      <trkpt lat="43.70955" lon="3.46887">
        <ele>321.1</ele>
        <time>2017-12-24T10:34:18Z</time>
      </trkpt>
      <trkpt lat="43.7095" lon="3.46881">
        <ele>320.6</ele>
        <time>2017-12-24T10:34:19Z</time>
      </trkpt>
      <trkpt lat="43.70945" lon="3.46876">
        <ele>319.5</ele>
        <time>2017-12-24T10:34:20Z</time>
      </trkpt>
      <trkpt lat="43.70937" lon="3.46875">
        <ele>318.1</ele>
        <time>2017-12-24T10:34:21Z</time>
      </trkpt>
      <trkpt lat="43.70931" lon="3.46873">
        <ele>317.3</ele>
        <time>2017-12-24T10:34:22Z</time>
      </trkpt>
      <trkpt lat="43.70928" lon="3.46869">
        <ele>316.4</ele>
        <time>2017-12-24T10:34:23Z</time>
      </trkpt>
      <trkpt lat="43.70923" lon="3.46865">
        <ele>315.5</ele>
        <time>2017-12-24T10:34:24Z</time>
      </trkpt>
      <trkpt lat="43.70919" lon="3.46865">
        <ele>314.6</ele>
        <time>2017-12-24T10:34:25Z</time>
      </trkpt>
      <trkpt lat="43.70914" lon="3.46864">
        <ele>313.7</ele>
        <time>2017-12-24T10:34:26Z</time>
      </trkpt>
      <trkpt lat="43.7091" lon="3.46862">
        <ele>312.9</ele>
        <time>2017-12-24T10:34:27Z</time>
      </trkpt>
      <trkpt lat="43.70906" lon="3.46862">
        <ele>312.3</ele>
        <time>2017-12-24T10:34:28Z</time>
      </trkpt>
      <trkpt lat="43.709" lon="3.4686">
        <ele>311.1</ele>
        <time>2017-12-24T10:34:29Z</time>
      </trkpt>
      <trkpt lat="43.70895" lon="3.46857">
        <ele>309.8</ele>
        <time>2017-12-24T10:34:30Z</time>
      </trkpt>
      <trkpt lat="43.7089" lon="3.46859">
        <ele>309</ele>
        <time>2017-12-24T10:34:31Z</time>
      </trkpt>
      <trkpt lat="43.70886" lon="3.46857">
        <ele>308.4</ele>
        <time>2017-12-24T10:34:32Z</time>
      </trkpt>
      <trkpt lat="43.70882" lon="3.46853">
        <ele>307.5</ele>
        <time>2017-12-24T10:34:33Z</time>
      </trkpt>
      <trkpt lat="43.70877" lon="3.4685">
        <ele>306.4</ele>
        <time>2017-12-24T10:34:34Z</time>
      </trkpt>
      <trkpt lat="43.70872" lon="3.46844">
        <ele>305.5</ele>
        <time>2017-12-24T10:34:35Z</time>
      </trkpt>
      <trkpt lat="43.70866" lon="3.46839">
        <ele>304.5</ele>
        <time>2017-12-24T10:34:36Z</time>
      </trkpt>
      <trkpt lat="43.70859" lon="3.46837">
        <ele>303.7</ele>
        <time>2017-12-24T10:34:37Z</time>
      </trkpt>
      <trkpt lat="43.70852" lon="3.46834">
        <ele>302.9</ele>
        <time>2017-12-24T10:34:38Z</time>
      </trkpt>
      <trkpt lat="43.70845" lon="3.46833">
        <ele>302</ele>
        <time>2017-12-24T10:34:39Z</time>
      </trkpt>
      <trkpt lat="43.70838" lon="3.46831">
        <ele>301.2</ele>
        <time>2017-12-24T10:34:40Z</time>
      </trkpt>
      <trkpt lat="43.70832" lon="3.46832">
        <ele>300.4</ele>
        <time>2017-12-24T10:34:41Z</time>
      </trkpt>
      <trkpt lat="43.70827" lon="3.46831">
        <ele>299.9</ele>
        <time>2017-12-24T10:34:42Z</time>
      </trkpt>
      <trkpt lat="43.70821" lon="3.46831">
        <ele>299.3</ele>
        <time>2017-12-24T10:34:43Z</time>
      </trkpt>
      <trkpt lat="43.70816" lon="3.4683">
        <ele>298.6</ele>
        <time>2017-12-24T10:34:44Z</time>
      </trkpt>
      <trkpt lat="43.7081" lon="3.46829">
        <ele>297.9</ele>
        <time>2017-12-24T10:34:45Z</time>
      </trkpt>
      <trkpt lat="43.70804" lon="3.46827">
        <ele>297.3</ele>
        <time>2017-12-24T10:34:46Z</time>
      </trkpt>
      <trkpt lat="43.70796" lon="3.46827">
        <ele>296.5</ele>
        <time>2017-12-24T10:34:47Z</time>
      </trkpt>
      <trkpt lat="43.7079" lon="3.46828">
        <ele>295.9</ele>
        <time>2017-12-24T10:34:48Z</time>
      </trkpt>
      <trkpt lat="43.70783" lon="3.46824">
        <ele>295.2</ele>
        <time>2017-12-24T10:34:49Z</time>
      </trkpt>
      <trkpt lat="43.70777" lon="3.46818">
        <ele>294.3</ele>
        <time>2017-12-24T10:34:50Z</time>
      </trkpt>
      <trkpt lat="43.70771" lon="3.46812">
        <ele>293.4</ele>
        <time>2017-12-24T10:34:51Z</time>
      </trkpt>
      <trkpt lat="43.70764" lon="3.46808">
        <ele>292.9</ele>
        <time>2017-12-24T10:34:52Z</time>
      </trkpt>
      <trkpt lat="43.70757" lon="3.46803">
        <ele>292.2</ele>
        <time>2017-12-24T10:34:53Z</time>
      </trkpt>
      <trkpt lat="43.7075" lon="3.46799">
        <ele>291.6</ele>
        <time>2017-12-24T10:34:54Z</time>
      </trkpt>
      <trkpt lat="43.70742" lon="3.46796">
        <ele>291.1</ele>
        <time>2017-12-24T10:34:55Z</time>
      </trkpt>
      <trkpt lat="43.70736" lon="3.46793">
        <ele>290.5</ele>
        <time>2017-12-24T10:34:56Z</time>
      </trkpt>
      <trkpt lat="43.70729" lon="3.46789">
        <ele>289.7</ele>
        <time>2017-12-24T10:34:57Z</time>
      </trkpt>
      <trkpt lat="43.70723" lon="3.46786">
        <ele>289</ele>
        <time>2017-12-24T10:34:58Z</time>
      </trkpt>
      <trkpt lat="43.70718" lon="3.46783">
        <ele>288.3</ele>
        <time>2017-12-24T10:34:59Z</time>
      </trkpt>
      <trkpt lat="43.70713" lon="3.46779">
        <ele>287.1</ele>
        <time>2017-12-24T10:35:00Z</time>
      </trkpt>
      <trkpt lat="43.70709" lon="3.46776">
        <ele>286</ele>
        <time>2017-12-24T10:35:01Z</time>
      </trkpt>
      <trkpt lat="43.70705" lon="3.46774">
        <ele>285.2</ele>
        <time>2017-12-24T10:35:02Z</time>
      </trkpt>
      <trkpt lat="43.70702" lon="3.46774">
        <ele>284.9</ele>
        <time>2017-12-24T10:35:03Z</time>
      </trkpt>
    </trkseg>
  </trk>
</gpx>